<?xml version='1.0' encoding='UTF-8'?><gpx version="1.1" creator="JPX - https://github.com/jenetics/jpx" xmlns="http://www.topografix.com/GPX/1/1"><trk><trkseg><trkpt lat="45.4616820411689" lon="7.907251237433527"><ele>238.0</ele><time>2026-04-18T11:57:57.009Z</time></trkpt><trkpt lat="45.46177548959352" lon="7.907245800182847"><ele>238.0</ele><time>2026-04-18T11:58:02.005Z</time></trkpt><trkpt lat="45.46166913643626" lon="7.907204577956486"><ele>238.0</ele><time>2026-04-18T11:58:18.002Z</time></trkpt><trkpt lat="45.461616147729295" lon="7.907145115214929"><ele>238.0</ele><time>2026-04-18T11:59:24Z</time></trkpt><trkpt lat="45.461662849672365" lon="7.907273549111894"><ele>238.0</ele><time>2026-04-18T11:59:38Z</time></trkpt><trkpt lat="45.4616959621071" lon="7.907149838189025"><ele>237.99999999999997</ele><time>2026-04-18T12:02:03.001Z</time></trkpt><trkpt lat="45.46167373843318" lon="7.907044784819887"><ele>238.0</ele><time>2026-04-18T12:02:05Z</time></trkpt><trkpt lat="45.46164807902865" lon="7.906913249226766"><ele>238.0</ele><time>2026-04-18T12:02:07Z</time></trkpt><trkpt lat="45.46161063280585" lon="7.906796986267521"><ele>238.0</ele><time>2026-04-18T12:02:09Z</time></trkpt><trkpt lat="45.461556374122054" lon="7.906696663314521"><ele>237.99999999999997</ele><time>2026-04-18T12:02:11Z</time></trkpt><trkpt lat="45.461533133155136" lon="7.906599897745194"><ele>238.0</ele><time>2026-04-18T12:02:13Z</time></trkpt><trkpt lat="45.46148807259811" lon="7.906483022983218"><ele>238.2</ele><time>2026-04-18T12:02:15Z</time></trkpt><trkpt lat="45.461452225729396" lon="7.906378998946961"><ele>238.4</ele><time>2026-04-18T12:02:18Z</time></trkpt><trkpt lat="45.46149700110779" lon="7.906279729248644"><ele>238.59999999999997</ele><time>2026-04-18T12:02:21Z</time></trkpt><trkpt lat="45.461606750216994" lon="7.906206659566852"><ele>238.79999999999998</ele><time>2026-04-18T12:02:23Z</time></trkpt><trkpt lat="45.46171131477373" lon="7.906119809058891"><ele>239.0</ele><time>2026-04-18T12:02:25Z</time></trkpt><trkpt lat="45.46177143889352" lon="7.906053417652113"><ele>239.00000000000003</ele><time>2026-04-18T12:02:26Z</time></trkpt><trkpt lat="45.461842199711235" lon="7.906006399527874"><ele>239.0</ele><time>2026-04-18T12:02:27Z</time></trkpt><trkpt lat="45.46192020571971" lon="7.905944179952802"><ele>239.0</ele><time>2026-04-18T12:02:28Z</time></trkpt><trkpt lat="45.4619740385399" lon="7.905887873819703"><ele>239.0</ele><time>2026-04-18T12:02:29Z</time></trkpt><trkpt lat="45.46207649222489" lon="7.905799295330452"><ele>239.00000000000003</ele><time>2026-04-18T12:02:31Z</time></trkpt><trkpt lat="45.462154399025" lon="7.905734884986355"><ele>239.0</ele><time>2026-04-18T12:02:32Z</time></trkpt><trkpt lat="45.46221576525044" lon="7.90567924481973"><ele>238.8571428571429</ele><time>2026-04-18T12:02:33Z</time></trkpt><trkpt lat="45.4622795288892" lon="7.905648187538557"><ele>238.71428571428572</ele><time>2026-04-18T12:02:34Z</time></trkpt><trkpt lat="45.46235143272017" lon="7.905617119705248"><ele>238.57142857142858</ele><time>2026-04-18T12:02:35Z</time></trkpt><trkpt lat="45.462423059571606" lon="7.905589490231999"><ele>238.42857142857144</ele><time>2026-04-18T12:02:36Z</time></trkpt><trkpt lat="45.462499183460075" lon="7.9055872817166755"><ele>238.28571428571428</ele><time>2026-04-18T12:02:37Z</time></trkpt><trkpt lat="45.462564550615205" lon="7.905596397314362"><ele>238.14285714285714</ele><time>2026-04-18T12:02:38Z</time></trkpt><trkpt lat="45.46263003516738" lon="7.905597129421127"><ele>238.0</ele><time>2026-04-18T12:02:39Z</time></trkpt><trkpt lat="45.462738690761924" lon="7.905644141149125"><ele>237.99999999999997</ele><time>2026-04-18T12:02:41Z</time></trkpt><trkpt lat="45.46280270990923" lon="7.905727925259732"><ele>238.0</ele><time>2026-04-18T12:02:43Z</time></trkpt><trkpt lat="45.4627898400497" lon="7.905828289051207"><ele>238.0</ele><time>2026-04-18T12:02:44Z</time></trkpt><trkpt lat="45.4627753984364" lon="7.905915783509925"><ele>238.0</ele><time>2026-04-18T12:02:45Z</time></trkpt><trkpt lat="45.46276218156718" lon="7.906011308485784"><ele>237.99999999999997</ele><time>2026-04-18T12:02:46Z</time></trkpt><trkpt lat="45.46276304109886" lon="7.906106489317377"><ele>238.0</ele><time>2026-04-18T12:02:47Z</time></trkpt><trkpt lat="45.462774447181985" lon="7.906297845998352"><ele>238.0</ele><time>2026-04-18T12:02:49Z</time></trkpt><trkpt lat="45.462771421703614" lon="7.906390038974105"><ele>238.0</ele><time>2026-04-18T12:02:50Z</time></trkpt><trkpt lat="45.46276653080588" lon="7.9064922214771185"><ele>238.0</ele><time>2026-04-18T12:02:51Z</time></trkpt><trkpt lat="45.462763195906255" lon="7.906602153202144"><ele>238.0</ele><time>2026-04-18T12:02:52Z</time></trkpt><trkpt lat="45.46276219056779" lon="7.9067391617029"><ele>238.0</ele><time>2026-04-18T12:02:54Z</time></trkpt><trkpt lat="45.46276111904412" lon="7.906832355487198"><ele>238.0</ele><time>2026-04-18T12:02:55Z</time></trkpt><trkpt lat="45.46276676536766" lon="7.9069239135162555"><ele>238.0</ele><time>2026-04-18T12:02:56Z</time></trkpt><trkpt lat="45.462766116816695" lon="7.907031221574707"><ele>237.83333333333331</ele><time>2026-04-18T12:02:57Z</time></trkpt><trkpt lat="45.462744458913015" lon="7.907125148804078"><ele>237.66666666666666</ele><time>2026-04-18T12:02:58Z</time></trkpt><trkpt lat="45.46275178120512" lon="7.907295946257446"><ele>237.5</ele><time>2026-04-18T12:03:00Z</time></trkpt><trkpt lat="45.46275557907973" lon="7.9074004999797785"><ele>237.33333333333331</ele><time>2026-04-18T12:03:01Z</time></trkpt><trkpt lat="45.46276242397025" lon="7.907502673832725"><ele>237.16666666666666</ele><time>2026-04-18T12:03:02Z</time></trkpt><trkpt lat="45.462737544867835" lon="7.907630423458672"><ele>237.0</ele><time>2026-04-18T12:03:03Z</time></trkpt><trkpt lat="45.46273356735202" lon="7.907746875539636"><ele>237.0</ele><time>2026-04-18T12:03:04Z</time></trkpt><trkpt lat="45.46275009169317" lon="7.907867221376102"><ele>237.0</ele><time>2026-04-18T12:03:05Z</time></trkpt><trkpt lat="45.46275628362472" lon="7.90796558418479"><ele>237.0</ele><time>2026-04-18T12:03:06Z</time></trkpt><trkpt lat="45.462743500463596" lon="7.908063772937531"><ele>237.0</ele><time>2026-04-18T12:03:07Z</time></trkpt><trkpt lat="45.46273506543218" lon="7.9081798411963895"><ele>237.0</ele><time>2026-04-18T12:03:08Z</time></trkpt><trkpt lat="45.46273470224105" lon="7.908270143948645"><ele>237.0</ele><time>2026-04-18T12:03:09Z</time></trkpt><trkpt lat="45.4627488401954" lon="7.908406779698913"><ele>237.0</ele><time>2026-04-18T12:03:11Z</time></trkpt><trkpt lat="45.46274326492203" lon="7.908530837897659"><ele>237.0</ele><time>2026-04-18T12:03:12Z</time></trkpt><trkpt lat="45.46274438498466" lon="7.908644791354789"><ele>237.0</ele><time>2026-04-18T12:03:13Z</time></trkpt><trkpt lat="45.46272667809588" lon="7.9087368321910745"><ele>237.0</ele><time>2026-04-18T12:03:14Z</time></trkpt><trkpt lat="45.4626941232106" lon="7.908844504527997"><ele>237.0</ele><time>2026-04-18T12:03:15Z</time></trkpt><trkpt lat="45.46264771782195" lon="7.9089161453859775"><ele>237.0</ele><time>2026-04-18T12:03:16Z</time></trkpt><trkpt lat="45.46256069398788" lon="7.908924692745894"><ele>237.0</ele><time>2026-04-18T12:03:17Z</time></trkpt><trkpt lat="45.46249040048334" lon="7.908913672517857"><ele>237.0</ele><time>2026-04-18T12:03:18Z</time></trkpt><trkpt lat="45.46242345492663" lon="7.908929023210546"><ele>237.0</ele><time>2026-04-18T12:03:19Z</time></trkpt><trkpt lat="45.46234871349916" lon="7.908956464742434"><ele>237.0</ele><time>2026-04-18T12:03:20Z</time></trkpt><trkpt lat="45.46224519034673" lon="7.909005136294315"><ele>237.0</ele><time>2026-04-18T12:03:22Z</time></trkpt><trkpt lat="45.46219837660499" lon="7.909070627954606"><ele>237.0</ele><time>2026-04-18T12:03:23Z</time></trkpt><trkpt lat="45.46219173460552" lon="7.90918428462595"><ele>236.71428571428567</ele><time>2026-04-18T12:03:24Z</time></trkpt><trkpt lat="45.46220033740433" lon="7.909291299648144"><ele>236.42857142857142</ele><time>2026-04-18T12:03:25Z</time></trkpt><trkpt lat="45.462216500784855" lon="7.909379225196252"><ele>236.1428571428571</ele><time>2026-04-18T12:03:26Z</time></trkpt><trkpt lat="45.46221602096166" lon="7.909482413965518"><ele>235.85714285714283</ele><time>2026-04-18T12:03:27Z</time></trkpt><trkpt lat="45.46219610425073" lon="7.909568890046293"><ele>235.57142857142856</ele><time>2026-04-18T12:03:28Z</time></trkpt><trkpt lat="45.46218298107913" lon="7.909660568529997"><ele>235.28571428571428</ele><time>2026-04-18T12:03:29.001Z</time></trkpt><trkpt lat="45.462179543036" lon="7.9097578734377185"><ele>235.0</ele><time>2026-04-18T12:03:30.001Z</time></trkpt><trkpt lat="45.46229520335435" lon="7.909832251681544"><ele>234.99999999999997</ele><time>2026-04-18T12:03:32.001Z</time></trkpt><trkpt lat="45.462385122178866" lon="7.9098214389999955"><ele>235.0</ele><time>2026-04-18T12:03:33.001Z</time></trkpt><trkpt lat="45.462466394747544" lon="7.909815444080998"><ele>235.0</ele><time>2026-04-18T12:03:34.001Z</time></trkpt><trkpt lat="45.46255538632312" lon="7.909809346364704"><ele>235.0</ele><time>2026-04-18T12:03:35.001Z</time></trkpt><trkpt lat="45.46263173754455" lon="7.90981167973894"><ele>234.99999999999997</ele><time>2026-04-18T12:03:36.001Z</time></trkpt><trkpt lat="45.46271529460904" lon="7.909836460159024"><ele>235.0</ele><time>2026-04-18T12:03:37.001Z</time></trkpt><trkpt lat="45.46277201798035" lon="7.909886520385362"><ele>235.0</ele><time>2026-04-18T12:03:38.001Z</time></trkpt><trkpt lat="45.46280702312693" lon="7.910036098982876"><ele>235.0</ele><time>2026-04-18T12:03:40.001Z</time></trkpt><trkpt lat="45.462813599375835" lon="7.910139193609465"><ele>235.0</ele><time>2026-04-18T12:03:41.001Z</time></trkpt><trkpt lat="45.46279959369643" lon="7.910232108113539"><ele>235.0</ele><time>2026-04-18T12:03:42.001Z</time></trkpt><trkpt lat="45.462854241803086" lon="7.910387561715359"><ele>235.0</ele><time>2026-04-18T12:03:44.001Z</time></trkpt><trkpt lat="45.46293028609532" lon="7.910420019426718"><ele>234.83333333333331</ele><time>2026-04-18T12:03:45.001Z</time></trkpt><trkpt lat="45.463009507121775" lon="7.910454396106497"><ele>234.66666666666666</ele><time>2026-04-18T12:03:46.001Z</time></trkpt><trkpt lat="45.46307194641805" lon="7.910476692538285"><ele>234.5</ele><time>2026-04-18T12:03:47.001Z</time></trkpt><trkpt lat="45.46314269784098" lon="7.9104883689466154"><ele>234.33333333333331</ele><time>2026-04-18T12:03:48.001Z</time></trkpt><trkpt lat="45.46321890389763" lon="7.9104950562975995"><ele>234.16666666666666</ele><time>2026-04-18T12:03:49.001Z</time></trkpt><trkpt lat="45.46328729039727" lon="7.910483960966705"><ele>234.0</ele><time>2026-04-18T12:03:50.001Z</time></trkpt><trkpt lat="45.46339454099407" lon="7.910428517223492"><ele>234.0</ele><time>2026-04-18T12:03:52.001Z</time></trkpt><trkpt lat="45.46347598560296" lon="7.910498794983477"><ele>234.0</ele><time>2026-04-18T12:03:54.001Z</time></trkpt><trkpt lat="45.463444601989636" lon="7.910612168852775"><ele>234.0</ele><time>2026-04-18T12:03:56.001Z</time></trkpt><trkpt lat="45.46339084840299" lon="7.910687620331946"><ele>234.0</ele><time>2026-04-18T12:03:57.001Z</time></trkpt><trkpt lat="45.463358020834455" lon="7.910777548909739"><ele>234.0</ele><time>2026-04-18T12:03:58.001Z</time></trkpt><trkpt lat="45.463329827775716" lon="7.91087559660811"><ele>234.0</ele><time>2026-04-18T12:03:59.001Z</time></trkpt><trkpt lat="45.46328771178261" lon="7.910980811103142"><ele>233.79999999999998</ele><time>2026-04-18T12:04:00.001Z</time></trkpt><trkpt lat="45.46324564208991" lon="7.911080006743797"><ele>233.59999999999997</ele><time>2026-04-18T12:04:01.001Z</time></trkpt><trkpt lat="45.46321167810043" lon="7.911194961650369"><ele>233.4</ele><time>2026-04-18T12:04:02.001Z</time></trkpt><trkpt lat="45.46316136303232" lon="7.911308002749384"><ele>233.2</ele><time>2026-04-18T12:04:03.001Z</time></trkpt><trkpt lat="45.46311866077052" lon="7.9114263597625225"><ele>233.0</ele><time>2026-04-18T12:04:04.001Z</time></trkpt><trkpt lat="45.46307195648685" lon="7.911551868912353"><ele>233.0</ele><time>2026-04-18T12:04:05.001Z</time></trkpt><trkpt lat="45.46303636505302" lon="7.911662232521967"><ele>233.0</ele><time>2026-04-18T12:04:06.001Z</time></trkpt><trkpt lat="45.46299965761277" lon="7.911773609914942"><ele>233.0</ele><time>2026-04-18T12:04:07.001Z</time></trkpt><trkpt lat="45.462966094833796" lon="7.911883994243161"><ele>233.0</ele><time>2026-04-18T12:04:08.001Z</time></trkpt><trkpt lat="45.46292400973014" lon="7.912004142174653"><ele>233.0</ele><time>2026-04-18T12:04:09.001Z</time></trkpt><trkpt lat="45.462877140605066" lon="7.912137873441188"><ele>233.0</ele><time>2026-04-18T12:04:09.998Z</time></trkpt><trkpt lat="45.462831621494" lon="7.9122593198058695"><ele>233.0</ele><time>2026-04-18T12:04:10.998Z</time></trkpt><trkpt lat="45.46278469399159" lon="7.912389776976874"><ele>233.0</ele><time>2026-04-18T12:04:11.998Z</time></trkpt><trkpt lat="45.46273757735782" lon="7.912505389501865"><ele>233.0</ele><time>2026-04-18T12:04:12.998Z</time></trkpt><trkpt lat="45.46269317491098" lon="7.9126242782861045"><ele>233.0</ele><time>2026-04-18T12:04:13.998Z</time></trkpt><trkpt lat="45.46264756636553" lon="7.912752371517943"><ele>233.4</ele><time>2026-04-18T12:04:14.998Z</time></trkpt><trkpt lat="45.46260091932252" lon="7.912868472395444"><ele>233.8</ele><time>2026-04-18T12:04:15.998Z</time></trkpt><trkpt lat="45.46255780100558" lon="7.9129907369444075"><ele>234.2</ele><time>2026-04-18T12:04:16.998Z</time></trkpt><trkpt lat="45.462517729664185" lon="7.913118590698266"><ele>234.6</ele><time>2026-04-18T12:04:17.998Z</time></trkpt><trkpt lat="45.46246315186022" lon="7.913227784388851"><ele>235.0</ele><time>2026-04-18T12:04:18.998Z</time></trkpt><trkpt lat="45.462419452669636" lon="7.913346380653297"><ele>234.6</ele><time>2026-04-18T12:04:19.999Z</time></trkpt><trkpt lat="45.46237136046787" lon="7.913473153039039"><ele>234.2</ele><time>2026-04-18T12:04:20.999Z</time></trkpt><trkpt lat="45.46232870527362" lon="7.913586025399017"><ele>233.8</ele><time>2026-04-18T12:04:21.999Z</time></trkpt><trkpt lat="45.4622892356133" lon="7.913699121145466"><ele>233.4</ele><time>2026-04-18T12:04:22.999Z</time></trkpt><trkpt lat="45.46224720815773" lon="7.913811352967659"><ele>233.0</ele><time>2026-04-18T12:04:23.999Z</time></trkpt><trkpt lat="45.462202892228134" lon="7.913940392847945"><ele>233.0</ele><time>2026-04-18T12:04:24.999Z</time></trkpt><trkpt lat="45.46216229055759" lon="7.914059751990734"><ele>233.0</ele><time>2026-04-18T12:04:25.999Z</time></trkpt><trkpt lat="45.46211979334516" lon="7.914179845821086"><ele>233.0</ele><time>2026-04-18T12:04:26.999Z</time></trkpt><trkpt lat="45.4620785106997" lon="7.914300988697795"><ele>233.0</ele><time>2026-04-18T12:04:27.999Z</time></trkpt><trkpt lat="45.46204033942332" lon="7.914417252480668"><ele>233.0</ele><time>2026-04-18T12:04:28.999Z</time></trkpt><trkpt lat="45.462003205423834" lon="7.914534052618183"><ele>233.16666666666669</ele><time>2026-04-18T12:04:29.999Z</time></trkpt><trkpt lat="45.46196561445911" lon="7.914660111680859"><ele>233.33333333333334</ele><time>2026-04-18T12:04:30.999Z</time></trkpt><trkpt lat="45.461915011801786" lon="7.914761940326115"><ele>233.5</ele><time>2026-04-18T12:04:31.999Z</time></trkpt><trkpt lat="45.46188583609623" lon="7.914858749465424"><ele>233.66666666666669</ele><time>2026-04-18T12:04:32.999Z</time></trkpt><trkpt lat="45.46185369948745" lon="7.9149647939892525"><ele>233.83333333333334</ele><time>2026-04-18T12:04:33.999Z</time></trkpt><trkpt lat="45.461816694256854" lon="7.91506025119831"><ele>234.0</ele><time>2026-04-18T12:04:34.999Z</time></trkpt><trkpt lat="45.4617856577352" lon="7.915166168161966"><ele>234.0</ele><time>2026-04-18T12:04:35.999Z</time></trkpt><trkpt lat="45.461734998324935" lon="7.915257448035031"><ele>234.0</ele><time>2026-04-18T12:04:36.999Z</time></trkpt><trkpt lat="45.461695158145616" lon="7.915364748695982"><ele>234.0</ele><time>2026-04-18T12:04:37.999Z</time></trkpt><trkpt lat="45.46165382940254" lon="7.915477598456227"><ele>234.0</ele><time>2026-04-18T12:04:38.999Z</time></trkpt><trkpt lat="45.461630719465674" lon="7.915590576682027"><ele>234.0</ele><time>2026-04-18T12:04:39.999Z</time></trkpt><trkpt lat="45.46158742101033" lon="7.915685978716391"><ele>234.0</ele><time>2026-04-18T12:04:40.999Z</time></trkpt><trkpt lat="45.461553545387886" lon="7.915787504946542"><ele>234.0</ele><time>2026-04-18T12:04:42Z</time></trkpt><trkpt lat="45.46151410461969" lon="7.9158855448419665"><ele>234.0</ele><time>2026-04-18T12:04:43Z</time></trkpt><trkpt lat="45.46147643325704" lon="7.915988921825731"><ele>234.0</ele><time>2026-04-18T12:04:44Z</time></trkpt><trkpt lat="45.46144072809458" lon="7.91609965932989"><ele>234.0</ele><time>2026-04-18T12:04:45Z</time></trkpt><trkpt lat="45.46140704713021" lon="7.916191698674825"><ele>234.0</ele><time>2026-04-18T12:04:46Z</time></trkpt><trkpt lat="45.46135626426283" lon="7.916287140837186"><ele>234.0</ele><time>2026-04-18T12:04:47Z</time></trkpt><trkpt lat="45.46131129338546" lon="7.916391546999733"><ele>234.0</ele><time>2026-04-18T12:04:48Z</time></trkpt><trkpt lat="45.46126818292892" lon="7.916495778966594"><ele>234.0</ele><time>2026-04-18T12:04:49Z</time></trkpt><trkpt lat="45.461232710268845" lon="7.916595073112303"><ele>234.0</ele><time>2026-04-18T12:04:50Z</time></trkpt><trkpt lat="45.46118760258755" lon="7.916696501474937"><ele>234.0</ele><time>2026-04-18T12:04:51Z</time></trkpt><trkpt lat="45.46114783624267" lon="7.916831912554717"><ele>234.0</ele><time>2026-04-18T12:04:52Z</time></trkpt><trkpt lat="45.4610978359428" lon="7.916952672905019"><ele>234.0</ele><time>2026-04-18T12:04:53Z</time></trkpt><trkpt lat="45.461057293395065" lon="7.9170769036755475"><ele>233.79999999999998</ele><time>2026-04-18T12:04:54Z</time></trkpt><trkpt lat="45.461015303686885" lon="7.917207200887927"><ele>233.59999999999997</ele><time>2026-04-18T12:04:55Z</time></trkpt><trkpt lat="45.46097117946633" lon="7.917333583623669"><ele>233.4</ele><time>2026-04-18T12:04:56Z</time></trkpt><trkpt lat="45.460929225038065" lon="7.9174553641568455"><ele>233.2</ele><time>2026-04-18T12:04:57Z</time></trkpt><trkpt lat="45.46087983394538" lon="7.91758613599947"><ele>233.0</ele><time>2026-04-18T12:04:58Z</time></trkpt><trkpt lat="45.46082977345957" lon="7.917725332569366"><ele>233.0</ele><time>2026-04-18T12:04:59Z</time></trkpt><trkpt lat="45.460776641129435" lon="7.917848931123977"><ele>233.0</ele><time>2026-04-18T12:05:00Z</time></trkpt><trkpt lat="45.46073884544184" lon="7.917981995732012"><ele>233.0</ele><time>2026-04-18T12:05:01Z</time></trkpt><trkpt lat="45.460702541439474" lon="7.9181279339873045"><ele>233.0</ele><time>2026-04-18T12:05:02Z</time></trkpt><trkpt lat="45.46067059319468" lon="7.918263936875725"><ele>233.0</ele><time>2026-04-18T12:05:03Z</time></trkpt><trkpt lat="45.46063793040797" lon="7.918396780626967"><ele>233.0</ele><time>2026-04-18T12:05:04Z</time></trkpt><trkpt lat="45.460601082460784" lon="7.918522385093366"><ele>233.0</ele><time>2026-04-18T12:05:05Z</time></trkpt><trkpt lat="45.460576924420096" lon="7.918641177268893"><ele>233.0</ele><time>2026-04-18T12:05:06Z</time></trkpt><trkpt lat="45.46054684403382" lon="7.9187534849451575"><ele>233.0</ele><time>2026-04-18T12:05:07Z</time></trkpt><trkpt lat="45.46062328611315" lon="7.9188744515845535"><ele>233.0</ele><time>2026-04-18T12:05:08Z</time></trkpt><trkpt lat="45.460689419537225" lon="7.918963542447055"><ele>233.0</ele><time>2026-04-18T12:05:09Z</time></trkpt><trkpt lat="45.46074232849085" lon="7.919080673342652"><ele>233.0</ele><time>2026-04-18T12:05:10Z</time></trkpt><trkpt lat="45.46079318000841" lon="7.91920527179186"><ele>233.0</ele><time>2026-04-18T12:05:11Z</time></trkpt><trkpt lat="45.46084259670707" lon="7.919327101364369"><ele>233.0</ele><time>2026-04-18T12:05:12Z</time></trkpt><trkpt lat="45.46089722228247" lon="7.9194636470134885"><ele>233.0</ele><time>2026-04-18T12:05:13Z</time></trkpt><trkpt lat="45.46095213936566" lon="7.919595345139504"><ele>232.8</ele><time>2026-04-18T12:05:14Z</time></trkpt><trkpt lat="45.46101348390813" lon="7.919724858036067"><ele>232.60000000000002</ele><time>2026-04-18T12:05:15Z</time></trkpt><trkpt lat="45.46106789698544" lon="7.919844928094061"><ele>232.39999999999998</ele><time>2026-04-18T12:05:16Z</time></trkpt><trkpt lat="45.461125805606564" lon="7.9199655918132"><ele>232.2</ele><time>2026-04-18T12:05:17Z</time></trkpt><trkpt lat="45.46119481120792" lon="7.920112931605151"><ele>232.0</ele><time>2026-04-18T12:05:18Z</time></trkpt><trkpt lat="45.46124224284276" lon="7.920250053773183"><ele>232.0</ele><time>2026-04-18T12:05:19Z</time></trkpt><trkpt lat="45.46125873320549" lon="7.920402130498063"><ele>232.0</ele><time>2026-04-18T12:05:20Z</time></trkpt><trkpt lat="45.46128159975638" lon="7.920545028498471"><ele>232.0</ele><time>2026-04-18T12:05:21Z</time></trkpt><trkpt lat="45.46129879547516" lon="7.920682389825697"><ele>232.0</ele><time>2026-04-18T12:05:22Z</time></trkpt><trkpt lat="45.461308768999444" lon="7.920815122232712"><ele>232.0</ele><time>2026-04-18T12:05:23Z</time></trkpt><trkpt lat="45.46131767413202" lon="7.920911830111198"><ele>232.33333333333331</ele><time>2026-04-18T12:05:24Z</time></trkpt><trkpt lat="45.461332475806444" lon="7.921028586031712"><ele>232.66666666666666</ele><time>2026-04-18T12:05:25Z</time></trkpt><trkpt lat="45.46136462401939" lon="7.9211242395482415"><ele>233.0</ele><time>2026-04-18T12:05:26Z</time></trkpt><trkpt lat="45.461422809578714" lon="7.921179947887925"><ele>233.33333333333331</ele><time>2026-04-18T12:05:27Z</time></trkpt><trkpt lat="45.46150777247993" lon="7.921166719913996"><ele>233.66666666666666</ele><time>2026-04-18T12:05:28Z</time></trkpt><trkpt lat="45.4615815465093" lon="7.921125918936902"><ele>234.0</ele><time>2026-04-18T12:05:29Z</time></trkpt><trkpt lat="45.46167539562683" lon="7.9211291133177735"><ele>234.0</ele><time>2026-04-18T12:05:30Z</time></trkpt><trkpt lat="45.46178070914772" lon="7.92111356760825"><ele>233.99999999999997</ele><time>2026-04-18T12:05:31Z</time></trkpt><trkpt lat="45.4618770391603" lon="7.921099733953878"><ele>233.99999999999997</ele><time>2026-04-18T12:05:32Z</time></trkpt><trkpt lat="45.46198687439124" lon="7.921079623969064"><ele>234.0</ele><time>2026-04-18T12:05:33Z</time></trkpt><trkpt lat="45.46209409216088" lon="7.921062336869855"><ele>234.0</ele><time>2026-04-18T12:05:34Z</time></trkpt><trkpt lat="45.462208284351675" lon="7.92104654406482"><ele>233.75</ele><time>2026-04-18T12:05:35Z</time></trkpt><trkpt lat="45.462321644990325" lon="7.921034199672452"><ele>233.5</ele><time>2026-04-18T12:05:36Z</time></trkpt><trkpt lat="45.46243532627774" lon="7.921023417345564"><ele>233.25</ele><time>2026-04-18T12:05:37Z</time></trkpt><trkpt lat="45.462542688384154" lon="7.921004525852447"><ele>233.0</ele><time>2026-04-18T12:05:38Z</time></trkpt><trkpt lat="45.46265993283826" lon="7.920996175820052"><ele>233.0</ele><time>2026-04-18T12:05:39Z</time></trkpt><trkpt lat="45.4627842403346" lon="7.920979094731413"><ele>233.0</ele><time>2026-04-18T12:05:40Z</time></trkpt><trkpt lat="45.46289474056049" lon="7.920963642887777"><ele>233.0</ele><time>2026-04-18T12:05:41.001Z</time></trkpt><trkpt lat="45.46302359807984" lon="7.92095034117096"><ele>233.0</ele><time>2026-04-18T12:05:42.001Z</time></trkpt><trkpt lat="45.46314424098494" lon="7.920942963873878"><ele>233.5</ele><time>2026-04-18T12:05:43.001Z</time></trkpt><trkpt lat="45.4632640631998" lon="7.920927374976941"><ele>234.0</ele><time>2026-04-18T12:05:44.001Z</time></trkpt><trkpt lat="45.463381689506555" lon="7.920915065847883"><ele>234.5</ele><time>2026-04-18T12:05:45.001Z</time></trkpt><trkpt lat="45.463495370231044" lon="7.920895513611564"><ele>235.0</ele><time>2026-04-18T12:05:46.001Z</time></trkpt><trkpt lat="45.46360427700788" lon="7.920864828816776"><ele>235.0</ele><time>2026-04-18T12:05:47.001Z</time></trkpt><trkpt lat="45.463716937134" lon="7.92087818685242"><ele>235.0</ele><time>2026-04-18T12:05:48.001Z</time></trkpt><trkpt lat="45.46382031264694" lon="7.92089946770624"><ele>235.0</ele><time>2026-04-18T12:05:49.001Z</time></trkpt><trkpt lat="45.46390197723709" lon="7.920939553387034"><ele>235.0</ele><time>2026-04-18T12:05:50.001Z</time></trkpt><trkpt lat="45.463973506081246" lon="7.920986409146017"><ele>235.0</ele><time>2026-04-18T12:05:51.001Z</time></trkpt><trkpt lat="45.464039334597686" lon="7.921020417629038"><ele>235.0</ele><time>2026-04-18T12:05:52.001Z</time></trkpt><trkpt lat="45.46411415059472" lon="7.921000422647698"><ele>235.0</ele><time>2026-04-18T12:05:53.001Z</time></trkpt><trkpt lat="45.464193486650174" lon="7.9209539942979035"><ele>235.0</ele><time>2026-04-18T12:05:54.001Z</time></trkpt><trkpt lat="45.46427999574073" lon="7.920894704700539"><ele>235.0</ele><time>2026-04-18T12:05:55.001Z</time></trkpt><trkpt lat="45.46438647362757" lon="7.9208470841828325"><ele>235.0</ele><time>2026-04-18T12:05:56.001Z</time></trkpt><trkpt lat="45.46448650806451" lon="7.920785677218375"><ele>235.0</ele><time>2026-04-18T12:05:57.001Z</time></trkpt><trkpt lat="45.46458781450783" lon="7.920701877167494"><ele>235.0</ele><time>2026-04-18T12:05:58.001Z</time></trkpt><trkpt lat="45.464686234974586" lon="7.920607530308343"><ele>235.0</ele><time>2026-04-18T12:05:59.001Z</time></trkpt><trkpt lat="45.4647987682044" lon="7.92054593483988"><ele>235.0</ele><time>2026-04-18T12:06:00.001Z</time></trkpt><trkpt lat="45.4648982281892" lon="7.920438147182188"><ele>234.5</ele><time>2026-04-18T12:06:01.001Z</time></trkpt><trkpt lat="45.46502698120549" lon="7.920356864112993"><ele>234.0</ele><time>2026-04-18T12:06:02.001Z</time></trkpt><trkpt lat="45.46513178337706" lon="7.920268231031948"><ele>233.5</ele><time>2026-04-18T12:06:03.001Z</time></trkpt><trkpt lat="45.46523612323159" lon="7.920186102080588"><ele>233.0</ele><time>2026-04-18T12:06:04.001Z</time></trkpt><trkpt lat="45.46533962533455" lon="7.920101930515756"><ele>233.25</ele><time>2026-04-18T12:06:05.001Z</time></trkpt><trkpt lat="45.46544257093048" lon="7.920033903999972"><ele>233.5</ele><time>2026-04-18T12:06:06.001Z</time></trkpt><trkpt lat="45.465552166786885" lon="7.919972743384253"><ele>233.75</ele><time>2026-04-18T12:06:07.001Z</time></trkpt><trkpt lat="45.465666592597195" lon="7.919923089409549"><ele>234.0</ele><time>2026-04-18T12:06:08.001Z</time></trkpt><trkpt lat="45.46577610179931" lon="7.919890181796284"><ele>234.2</ele><time>2026-04-18T12:06:09.001Z</time></trkpt><trkpt lat="45.46588367905231" lon="7.919849229179998"><ele>234.39999999999998</ele><time>2026-04-18T12:06:10.001Z</time></trkpt><trkpt lat="45.46598231512163" lon="7.91980558088713"><ele>234.6</ele><time>2026-04-18T12:06:11.001Z</time></trkpt><trkpt lat="45.46607189606712" lon="7.919770489009138"><ele>234.8</ele><time>2026-04-18T12:06:12.001Z</time></trkpt><trkpt lat="45.4661460720779" lon="7.919744642801344"><ele>235.0</ele><time>2026-04-18T12:06:13.001Z</time></trkpt><trkpt lat="45.46623913318627" lon="7.919739338024354"><ele>235.0</ele><time>2026-04-18T12:06:15.001Z</time></trkpt><trkpt lat="45.46623279463936" lon="7.919976530855112"><ele>235.0</ele><time>2026-04-18T12:06:16.998Z</time></trkpt><trkpt lat="45.466236720275404" lon="7.920102453945012"><ele>235.0</ele><time>2026-04-18T12:06:17.998Z</time></trkpt><trkpt lat="45.46624002237502" lon="7.920224473469175"><ele>235.0</ele><time>2026-04-18T12:06:18.998Z</time></trkpt><trkpt lat="45.466236756466756" lon="7.920373355916554"><ele>235.0</ele><time>2026-04-18T12:06:19.998Z</time></trkpt><trkpt lat="45.46624074328794" lon="7.920514807737775"><ele>234.8</ele><time>2026-04-18T12:06:20.998Z</time></trkpt><trkpt lat="45.46624590953333" lon="7.920659187349885"><ele>234.6</ele><time>2026-04-18T12:06:21.998Z</time></trkpt><trkpt lat="45.46625108708138" lon="7.920813995205997"><ele>234.39999999999998</ele><time>2026-04-18T12:06:22.998Z</time></trkpt><trkpt lat="45.46625910578693" lon="7.920962722128476"><ele>234.2</ele><time>2026-04-18T12:06:23.998Z</time></trkpt><trkpt lat="45.466258844666456" lon="7.921119487913431"><ele>234.0</ele><time>2026-04-18T12:06:24.998Z</time></trkpt><trkpt lat="45.46625396667665" lon="7.921277218411213"><ele>234.39999999999998</ele><time>2026-04-18T12:06:25.998Z</time></trkpt><trkpt lat="45.46624715047943" lon="7.921429159872917"><ele>234.79999999999998</ele><time>2026-04-18T12:06:26.998Z</time></trkpt><trkpt lat="45.46624713743728" lon="7.921579544448668"><ele>235.20000000000002</ele><time>2026-04-18T12:06:27.998Z</time></trkpt><trkpt lat="45.466248893207116" lon="7.921732424359279"><ele>235.60000000000002</ele><time>2026-04-18T12:06:28.998Z</time></trkpt><trkpt lat="45.466246676371455" lon="7.92187349663988"><ele>236.0</ele><time>2026-04-18T12:06:29.998Z</time></trkpt><trkpt lat="45.46624156241483" lon="7.92198701817536"><ele>236.00000000000003</ele><time>2026-04-18T12:06:30.998Z</time></trkpt><trkpt lat="45.46624370403034" lon="7.922084105780584"><ele>236.0</ele><time>2026-04-18T12:06:31.999Z</time></trkpt><trkpt lat="45.46629158031434" lon="7.922156535883692"><ele>236.0</ele><time>2026-04-18T12:06:32.999Z</time></trkpt><trkpt lat="45.466353577190404" lon="7.922202185710815"><ele>236.0</ele><time>2026-04-18T12:06:33.999Z</time></trkpt><trkpt lat="45.46642851880962" lon="7.922200432529725"><ele>236.00000000000003</ele><time>2026-04-18T12:06:34.999Z</time></trkpt><trkpt lat="45.466543402044024" lon="7.922221206178873"><ele>236.0</ele><time>2026-04-18T12:06:36.999Z</time></trkpt><trkpt lat="45.46655981704141" lon="7.922428188805336"><ele>236.0</ele><time>2026-04-18T12:06:38.999Z</time></trkpt><trkpt lat="45.46651040899835" lon="7.9225522725911555"><ele>236.00000000000003</ele><time>2026-04-18T12:06:39.999Z</time></trkpt><trkpt lat="45.466422518865464" lon="7.9226633104391535"><ele>236.00000000000003</ele><time>2026-04-18T12:06:40.999Z</time></trkpt><trkpt lat="45.46637584656212" lon="7.922791617666706"><ele>236.0</ele><time>2026-04-18T12:06:41.999Z</time></trkpt><trkpt lat="45.46632514212075" lon="7.922911435534602"><ele>236.0</ele><time>2026-04-18T12:06:42.999Z</time></trkpt><trkpt lat="45.46626446361699" lon="7.923053912709014"><ele>236.25</ele><time>2026-04-18T12:06:43.999Z</time></trkpt><trkpt lat="45.466188873727916" lon="7.923190437742342"><ele>236.5</ele><time>2026-04-18T12:06:44.999Z</time></trkpt><trkpt lat="45.46614026902095" lon="7.923345166986134"><ele>236.75</ele><time>2026-04-18T12:06:45.999Z</time></trkpt><trkpt lat="45.46607174062801" lon="7.923486388200578"><ele>237.0</ele><time>2026-04-18T12:06:46.999Z</time></trkpt><trkpt lat="45.46600479546152" lon="7.923619053502924"><ele>237.0</ele><time>2026-04-18T12:06:47.999Z</time></trkpt><trkpt lat="45.465925750840455" lon="7.923762927571175"><ele>237.0</ele><time>2026-04-18T12:06:48.999Z</time></trkpt><trkpt lat="45.46585541332926" lon="7.9238935125296726"><ele>237.0</ele><time>2026-04-18T12:06:49.999Z</time></trkpt><trkpt lat="45.46578812617198" lon="7.924029297944813"><ele>237.0</ele><time>2026-04-18T12:06:50.999Z</time></trkpt><trkpt lat="45.4657157311738" lon="7.924176650381435"><ele>237.0</ele><time>2026-04-18T12:06:52Z</time></trkpt><trkpt lat="45.46564586871333" lon="7.924320881867583"><ele>237.0</ele><time>2026-04-18T12:06:53Z</time></trkpt><trkpt lat="45.46557254372083" lon="7.924460808272996"><ele>237.0</ele><time>2026-04-18T12:06:54Z</time></trkpt><trkpt lat="45.465505900919894" lon="7.924606059933681"><ele>237.0</ele><time>2026-04-18T12:06:55Z</time></trkpt><trkpt lat="45.46544139982768" lon="7.924746948935937"><ele>237.0</ele><time>2026-04-18T12:06:56Z</time></trkpt><trkpt lat="45.4653847534681" lon="7.9248887745238985"><ele>237.0</ele><time>2026-04-18T12:06:57Z</time></trkpt><trkpt lat="45.465327893165494" lon="7.925039737988529"><ele>237.0</ele><time>2026-04-18T12:06:58Z</time></trkpt><trkpt lat="45.46527041648986" lon="7.925187813292858"><ele>237.0</ele><time>2026-04-18T12:06:59Z</time></trkpt><trkpt lat="45.46521731865527" lon="7.92534604306099"><ele>236.75</ele><time>2026-04-18T12:07:00Z</time></trkpt><trkpt lat="45.46516640147368" lon="7.925499559615711"><ele>236.5</ele><time>2026-04-18T12:07:01Z</time></trkpt><trkpt lat="45.465118570741446" lon="7.925658973545389"><ele>236.25</ele><time>2026-04-18T12:07:02Z</time></trkpt><trkpt lat="45.46507508135612" lon="7.925823316046099"><ele>236.0</ele><time>2026-04-18T12:07:03Z</time></trkpt><trkpt lat="45.46507343792187" lon="7.9259948686331025"><ele>236.0</ele><time>2026-04-18T12:07:04Z</time></trkpt><trkpt lat="45.46507393354277" lon="7.926155720907905"><ele>236.0</ele><time>2026-04-18T12:07:05Z</time></trkpt><trkpt lat="45.465086165671316" lon="7.926311015829648"><ele>236.0</ele><time>2026-04-18T12:07:06Z</time></trkpt><trkpt lat="45.46510806197754" lon="7.926489730525366"><ele>236.0</ele><time>2026-04-18T12:07:07Z</time></trkpt><trkpt lat="45.465132789599515" lon="7.926645942223398"><ele>235.8</ele><time>2026-04-18T12:07:08Z</time></trkpt><trkpt lat="45.465159175251806" lon="7.92680813785486"><ele>235.60000000000002</ele><time>2026-04-18T12:07:09Z</time></trkpt><trkpt lat="45.465192227980246" lon="7.926969061783928"><ele>235.4</ele><time>2026-04-18T12:07:10Z</time></trkpt><trkpt lat="45.46523323509058" lon="7.927111526105961"><ele>235.2</ele><time>2026-04-18T12:07:11Z</time></trkpt><trkpt lat="45.46526930938398" lon="7.927251878683936"><ele>235.0</ele><time>2026-04-18T12:07:12Z</time></trkpt><trkpt lat="45.46530263348565" lon="7.927400278218688"><ele>234.99999999999997</ele><time>2026-04-18T12:07:13Z</time></trkpt><trkpt lat="45.46532200503182" lon="7.927531404087443"><ele>235.0</ele><time>2026-04-18T12:07:14Z</time></trkpt><trkpt lat="45.46533819584272" lon="7.927653312474218"><ele>235.0</ele><time>2026-04-18T12:07:15Z</time></trkpt><trkpt lat="45.46533542310116" lon="7.927774274831843"><ele>235.0</ele><time>2026-04-18T12:07:16Z</time></trkpt><trkpt lat="45.465358158919486" lon="7.927886430363103"><ele>234.99999999999997</ele><time>2026-04-18T12:07:17Z</time></trkpt><trkpt lat="45.46540939265779" lon="7.9279747972511"><ele>235.0</ele><time>2026-04-18T12:07:18Z</time></trkpt><trkpt lat="45.465469141581785" lon="7.928067485951581"><ele>235.33333333333331</ele><time>2026-04-18T12:07:19Z</time></trkpt><trkpt lat="45.465526550600515" lon="7.928172949724081"><ele>235.66666666666669</ele><time>2026-04-18T12:07:20Z</time></trkpt><trkpt lat="45.46559177681123" lon="7.92828175574484"><ele>236.0</ele><time>2026-04-18T12:07:21Z</time></trkpt><trkpt lat="45.46583674743171" lon="7.928546421488844"><ele>236.0</ele><time>2026-04-18T12:07:24Z</time></trkpt><trkpt lat="45.46595083284178" lon="7.928617093227998"><ele>236.0</ele><time>2026-04-18T12:07:25Z</time></trkpt><trkpt lat="45.466051418577415" lon="7.928708619305424"><ele>236.0</ele><time>2026-04-18T12:07:26Z</time></trkpt><trkpt lat="45.466144992897306" lon="7.928814690715829"><ele>236.0</ele><time>2026-04-18T12:07:27Z</time></trkpt><trkpt lat="45.46623993733553" lon="7.928914984362409"><ele>236.25</ele><time>2026-04-18T12:07:28Z</time></trkpt><trkpt lat="45.466344014751016" lon="7.929001209298632"><ele>236.5</ele><time>2026-04-18T12:07:29Z</time></trkpt><trkpt lat="45.466437126244585" lon="7.9291211708755105"><ele>236.75</ele><time>2026-04-18T12:07:30Z</time></trkpt><trkpt lat="45.466529990679625" lon="7.929236216828289"><ele>237.0</ele><time>2026-04-18T12:07:31Z</time></trkpt><trkpt lat="45.4666298946536" lon="7.929355629953174"><ele>237.0</ele><time>2026-04-18T12:07:32Z</time></trkpt><trkpt lat="45.466724005384066" lon="7.929473859615542"><ele>237.0</ele><time>2026-04-18T12:07:33Z</time></trkpt><trkpt lat="45.46682791185126" lon="7.929596279219657"><ele>237.0</ele><time>2026-04-18T12:07:34Z</time></trkpt><trkpt lat="45.46692934688562" lon="7.929712622703834"><ele>237.0</ele><time>2026-04-18T12:07:35.001Z</time></trkpt><trkpt lat="45.467029399887444" lon="7.929831878511197"><ele>237.25</ele><time>2026-04-18T12:07:36.001Z</time></trkpt><trkpt lat="45.46713040416615" lon="7.929940862933391"><ele>237.5</ele><time>2026-04-18T12:07:37.001Z</time></trkpt><trkpt lat="45.46722871826125" lon="7.930058780197771"><ele>237.75</ele><time>2026-04-18T12:07:38.001Z</time></trkpt><trkpt lat="45.46733299000542" lon="7.930177957985163"><ele>238.0</ele><time>2026-04-18T12:07:39.001Z</time></trkpt><trkpt lat="45.46743712247178" lon="7.930293747940738"><ele>238.0</ele><time>2026-04-18T12:07:40.001Z</time></trkpt><trkpt lat="45.46753791287005" lon="7.930414893643948"><ele>238.0</ele><time>2026-04-18T12:07:41.001Z</time></trkpt><trkpt lat="45.467629506022654" lon="7.9305344358095535"><ele>238.0</ele><time>2026-04-18T12:07:42.001Z</time></trkpt><trkpt lat="45.467714420803595" lon="7.930664508680623"><ele>238.0</ele><time>2026-04-18T12:07:43.001Z</time></trkpt><trkpt lat="45.467800886325904" lon="7.93079666513525"><ele>237.75</ele><time>2026-04-18T12:07:44.001Z</time></trkpt><trkpt lat="45.46787469790021" lon="7.930958366151928"><ele>237.5</ele><time>2026-04-18T12:07:45.001Z</time></trkpt><trkpt lat="45.46794998539861" lon="7.931101498367044"><ele>237.25</ele><time>2026-04-18T12:07:46.001Z</time></trkpt><trkpt lat="45.468011316399796" lon="7.931240838827884"><ele>237.0</ele><time>2026-04-18T12:07:47.001Z</time></trkpt><trkpt lat="45.468077751630055" lon="7.931387825292923"><ele>237.0</ele><time>2026-04-18T12:07:48.001Z</time></trkpt><trkpt lat="45.46815022440435" lon="7.931540985596412"><ele>237.0</ele><time>2026-04-18T12:07:49.001Z</time></trkpt><trkpt lat="45.46821989355948" lon="7.93167968406253"><ele>237.0</ele><time>2026-04-18T12:07:50.001Z</time></trkpt><trkpt lat="45.46830213549469" lon="7.931813971250243"><ele>237.0</ele><time>2026-04-18T12:07:51.001Z</time></trkpt><trkpt lat="45.468376092555694" lon="7.931949860017671"><ele>236.75</ele><time>2026-04-18T12:07:52.001Z</time></trkpt><trkpt lat="45.46845018688926" lon="7.932084518850223"><ele>236.5</ele><time>2026-04-18T12:07:53.001Z</time></trkpt><trkpt lat="45.46852957748255" lon="7.932212723331462"><ele>236.25</ele><time>2026-04-18T12:07:54.001Z</time></trkpt><trkpt lat="45.46861736435498" lon="7.932332228022319"><ele>236.0</ele><time>2026-04-18T12:07:55.001Z</time></trkpt><trkpt lat="45.46870468395955" lon="7.932446672237487"><ele>236.0</ele><time>2026-04-18T12:07:56.001Z</time></trkpt><trkpt lat="45.46880722010547" lon="7.932549773517744"><ele>236.0</ele><time>2026-04-18T12:07:57.001Z</time></trkpt><trkpt lat="45.46889596486185" lon="7.932649266252833"><ele>236.0</ele><time>2026-04-18T12:07:58.001Z</time></trkpt><trkpt lat="45.46898934548431" lon="7.932760121096597"><ele>236.0</ele><time>2026-04-18T12:07:59.001Z</time></trkpt><trkpt lat="45.46908062919022" lon="7.932885088760692"><ele>236.5</ele><time>2026-04-18T12:08:00.001Z</time></trkpt><trkpt lat="45.469178608434135" lon="7.93298795502716"><ele>237.0</ele><time>2026-04-18T12:08:01.001Z</time></trkpt><trkpt lat="45.469270093229646" lon="7.933087968942438"><ele>237.5</ele><time>2026-04-18T12:08:02.001Z</time></trkpt><trkpt lat="45.46936273882822" lon="7.933200512057623"><ele>238.0</ele><time>2026-04-18T12:08:03.001Z</time></trkpt><trkpt lat="45.4694520609605" lon="7.9333018143667795"><ele>238.0</ele><time>2026-04-18T12:08:04.001Z</time></trkpt><trkpt lat="45.46953182085199" lon="7.933413918269889"><ele>238.0</ele><time>2026-04-18T12:08:05.001Z</time></trkpt><trkpt lat="45.46959780353878" lon="7.933532692035213"><ele>238.0</ele><time>2026-04-18T12:08:06.001Z</time></trkpt><trkpt lat="45.46965631476311" lon="7.933665205453378"><ele>238.0</ele><time>2026-04-18T12:08:07.001Z</time></trkpt><trkpt lat="45.469720468681906" lon="7.933797513722923"><ele>238.0</ele><time>2026-04-18T12:08:08.001Z</time></trkpt><trkpt lat="45.46978496383916" lon="7.933947114420201"><ele>238.25</ele><time>2026-04-18T12:08:09.001Z</time></trkpt><trkpt lat="45.46985043163374" lon="7.934086994052682"><ele>238.5</ele><time>2026-04-18T12:08:10.001Z</time></trkpt><trkpt lat="45.46990056287448" lon="7.934219600731658"><ele>238.75</ele><time>2026-04-18T12:08:11.001Z</time></trkpt><trkpt lat="45.469950513353716" lon="7.934369736999218"><ele>239.0</ele><time>2026-04-18T12:08:12.001Z</time></trkpt><trkpt lat="45.46997835975617" lon="7.934527682659129"><ele>239.2</ele><time>2026-04-18T12:08:13.001Z</time></trkpt><trkpt lat="45.47000613548693" lon="7.934685710018135"><ele>239.39999999999998</ele><time>2026-04-18T12:08:14.001Z</time></trkpt><trkpt lat="45.47003725856013" lon="7.934839862138965"><ele>239.6</ele><time>2026-04-18T12:08:15.001Z</time></trkpt><trkpt lat="45.47006781932365" lon="7.934986738879586"><ele>239.8</ele><time>2026-04-18T12:08:16.001Z</time></trkpt><trkpt lat="45.47009722961735" lon="7.9351424674278315"><ele>240.0</ele><time>2026-04-18T12:08:17.001Z</time></trkpt><trkpt lat="45.47013208826305" lon="7.9352919847284165"><ele>240.2</ele><time>2026-04-18T12:08:18.001Z</time></trkpt><trkpt lat="45.47015598527641" lon="7.935447684464976"><ele>240.4</ele><time>2026-04-18T12:08:19.001Z</time></trkpt><trkpt lat="45.470182736717035" lon="7.935591736246246"><ele>240.60000000000002</ele><time>2026-04-18T12:08:20.001Z</time></trkpt><trkpt lat="45.47020635335297" lon="7.935728558817844"><ele>240.8</ele><time>2026-04-18T12:08:21.001Z</time></trkpt><trkpt lat="45.47022777561897" lon="7.935843403084053"><ele>241.0</ele><time>2026-04-18T12:08:21.998Z</time></trkpt><trkpt lat="45.4702598226775" lon="7.935965042664772"><ele>240.99999999999997</ele><time>2026-04-18T12:08:22.998Z</time></trkpt><trkpt lat="45.470295852394145" lon="7.936068850014372"><ele>241.0</ele><time>2026-04-18T12:08:23.998Z</time></trkpt><trkpt lat="45.47032085666756" lon="7.93617670684515"><ele>241.0</ele><time>2026-04-18T12:08:24.998Z</time></trkpt><trkpt lat="45.47035599508891" lon="7.936284235214064"><ele>241.0</ele><time>2026-04-18T12:08:25.998Z</time></trkpt><trkpt lat="45.47040681428808" lon="7.936385363224625"><ele>240.99999999999997</ele><time>2026-04-18T12:08:26.998Z</time></trkpt><trkpt lat="45.4704617215376" lon="7.936511397816236"><ele>241.0</ele><time>2026-04-18T12:08:27.998Z</time></trkpt><trkpt lat="45.4704885112313" lon="7.9366385704014055"><ele>240.8</ele><time>2026-04-18T12:08:28.998Z</time></trkpt><trkpt lat="45.47049997244998" lon="7.936789226302664"><ele>240.60000000000002</ele><time>2026-04-18T12:08:29.998Z</time></trkpt><trkpt lat="45.4704934444745" lon="7.9369424460099305"><ele>240.4</ele><time>2026-04-18T12:08:30.998Z</time></trkpt><trkpt lat="45.470490616799644" lon="7.937107775656539"><ele>240.2</ele><time>2026-04-18T12:08:31.998Z</time></trkpt><trkpt lat="45.47049353911919" lon="7.937272359489284"><ele>240.0</ele><time>2026-04-18T12:08:32.998Z</time></trkpt><trkpt lat="45.47050842317797" lon="7.937443767939507"><ele>240.25</ele><time>2026-04-18T12:08:33.998Z</time></trkpt><trkpt lat="45.47051536968253" lon="7.937611075067732"><ele>240.5</ele><time>2026-04-18T12:08:34.998Z</time></trkpt><trkpt lat="45.47054257949293" lon="7.937782480420488"><ele>240.75</ele><time>2026-04-18T12:08:35.998Z</time></trkpt><trkpt lat="45.47056268579765" lon="7.93795525451122"><ele>241.0</ele><time>2026-04-18T12:08:36.998Z</time></trkpt><trkpt lat="45.470579445390115" lon="7.938131258390354"><ele>241.0</ele><time>2026-04-18T12:08:37.998Z</time></trkpt><trkpt lat="45.470604356578065" lon="7.938300218388441"><ele>241.0</ele><time>2026-04-18T12:08:38.998Z</time></trkpt><trkpt lat="45.47062486679089" lon="7.938474148083948"><ele>241.0</ele><time>2026-04-18T12:08:39.999Z</time></trkpt><trkpt lat="45.470646806847824" lon="7.938643640591004"><ele>241.0</ele><time>2026-04-18T12:08:40.999Z</time></trkpt><trkpt lat="45.47065242485281" lon="7.938823563204583"><ele>241.25</ele><time>2026-04-18T12:08:41.999Z</time></trkpt><trkpt lat="45.47067295193117" lon="7.938985678169568"><ele>241.5</ele><time>2026-04-18T12:08:42.999Z</time></trkpt><trkpt lat="45.470689234107176" lon="7.9391501447707435"><ele>241.75</ele><time>2026-04-18T12:08:43.999Z</time></trkpt><trkpt lat="45.47070901904752" lon="7.93932266577689"><ele>242.0</ele><time>2026-04-18T12:08:44.999Z</time></trkpt><trkpt lat="45.470725986060145" lon="7.939501650067884"><ele>242.0</ele><time>2026-04-18T12:08:45.999Z</time></trkpt><trkpt lat="45.47074380520198" lon="7.939677118190819"><ele>242.0</ele><time>2026-04-18T12:08:46.999Z</time></trkpt><trkpt lat="45.47076020421241" lon="7.939856637305402"><ele>242.0</ele><time>2026-04-18T12:08:47.999Z</time></trkpt><trkpt lat="45.4707778915772" lon="7.940032192195263"><ele>242.0</ele><time>2026-04-18T12:08:48.999Z</time></trkpt><trkpt lat="45.47081087745851" lon="7.940203486641647"><ele>242.0</ele><time>2026-04-18T12:08:49.999Z</time></trkpt><trkpt lat="45.470832197515264" lon="7.940375858968545"><ele>242.0</ele><time>2026-04-18T12:08:50.999Z</time></trkpt><trkpt lat="45.470829646341" lon="7.940560409936935"><ele>242.0</ele><time>2026-04-18T12:08:51.999Z</time></trkpt><trkpt lat="45.47084030010273" lon="7.940726772003422"><ele>242.0</ele><time>2026-04-18T12:08:52.999Z</time></trkpt><trkpt lat="45.470854604126416" lon="7.940900288635972"><ele>242.5</ele><time>2026-04-18T12:08:53.999Z</time></trkpt><trkpt lat="45.47087511365544" lon="7.941064720440605"><ele>243.0</ele><time>2026-04-18T12:08:54.999Z</time></trkpt><trkpt lat="45.47089614257608" lon="7.941233239351969"><ele>243.5</ele><time>2026-04-18T12:08:55.999Z</time></trkpt><trkpt lat="45.47091586171852" lon="7.9414088089104435"><ele>244.0</ele><time>2026-04-18T12:08:56.999Z</time></trkpt><trkpt lat="45.47093662103091" lon="7.941583265839996"><ele>245.5</ele><time>2026-04-18T12:08:57.999Z</time></trkpt><trkpt lat="45.470945784797976" lon="7.941746105823103"><ele>247.0</ele><time>2026-04-18T12:08:58.999Z</time></trkpt><trkpt lat="45.47094788995585" lon="7.941904058590854"><ele>248.5</ele><time>2026-04-18T12:09:00Z</time></trkpt><trkpt lat="45.47093478932359" lon="7.942046562430029"><ele>250.0</ele><time>2026-04-18T12:09:01Z</time></trkpt><trkpt lat="45.47081425717125" lon="7.942163415666892"><ele>250.0</ele><time>2026-04-18T12:09:02Z</time></trkpt><trkpt lat="45.47075711571715" lon="7.942335974949407"><ele>250.0</ele><time>2026-04-18T12:09:03Z</time></trkpt><trkpt lat="45.470729560771176" lon="7.942490134111236"><ele>250.0</ele><time>2026-04-18T12:09:04Z</time></trkpt><trkpt lat="45.470731546500495" lon="7.942673281243775"><ele>250.0</ele><time>2026-04-18T12:09:05Z</time></trkpt><trkpt lat="45.470741868855086" lon="7.942856562884121"><ele>251.0</ele><time>2026-04-18T12:09:06Z</time></trkpt><trkpt lat="45.47075567013388" lon="7.943028334425495"><ele>252.0</ele><time>2026-04-18T12:09:07Z</time></trkpt><trkpt lat="45.47077101419908" lon="7.94320828974425"><ele>253.0</ele><time>2026-04-18T12:09:08Z</time></trkpt><trkpt lat="45.470815330270085" lon="7.943364259512472"><ele>254.0</ele><time>2026-04-18T12:09:09Z</time></trkpt><trkpt lat="45.47083086769242" lon="7.943519730633726"><ele>254.0</ele><time>2026-04-18T12:09:10Z</time></trkpt><trkpt lat="45.470855207056964" lon="7.943667269357021"><ele>253.99999999999997</ele><time>2026-04-18T12:09:11Z</time></trkpt><trkpt lat="45.47087387156305" lon="7.943820702579037"><ele>253.99999999999997</ele><time>2026-04-18T12:09:12Z</time></trkpt><trkpt lat="45.4708899486755" lon="7.9439782724496695"><ele>254.0</ele><time>2026-04-18T12:09:13Z</time></trkpt><trkpt lat="45.470902497640715" lon="7.944134148339593"><ele>254.0</ele><time>2026-04-18T12:09:14Z</time></trkpt><trkpt lat="45.47091668448503" lon="7.944277919305155"><ele>254.16666666666669</ele><time>2026-04-18T12:09:15Z</time></trkpt><trkpt lat="45.47093804741829" lon="7.944390345004607"><ele>254.33333333333334</ele><time>2026-04-18T12:09:16Z</time></trkpt><trkpt lat="45.470979996450936" lon="7.944507967774135"><ele>254.5</ele><time>2026-04-18T12:09:17Z</time></trkpt><trkpt lat="45.47103183897002" lon="7.944588088457527"><ele>254.66666666666669</ele><time>2026-04-18T12:09:18Z</time></trkpt><trkpt lat="45.471073345228916" lon="7.944661659515845"><ele>254.83333333333334</ele><time>2026-04-18T12:09:19Z</time></trkpt><trkpt lat="45.47118325392977" lon="7.944747088943308"><ele>255.0</ele><time>2026-04-18T12:09:21Z</time></trkpt><trkpt lat="45.471219629010804" lon="7.944828301088706"><ele>254.6</ele><time>2026-04-18T12:09:23Z</time></trkpt><trkpt lat="45.47135874976617" lon="7.94480342257929"><ele>254.2</ele><time>2026-04-18T12:09:25Z</time></trkpt><trkpt lat="45.47146763626893" lon="7.944757692533306"><ele>253.8</ele><time>2026-04-18T12:09:27Z</time></trkpt><trkpt lat="45.471533603270245" lon="7.944729770085028"><ele>253.4</ele><time>2026-04-18T12:09:28Z</time></trkpt><trkpt lat="45.4716012910481" lon="7.944701119250493"><ele>253.0</ele><time>2026-04-18T12:09:29Z</time></trkpt><trkpt lat="45.471695319447385" lon="7.944638765567746"><ele>253.0</ele><time>2026-04-18T12:09:30Z</time></trkpt><trkpt lat="45.47183339878112" lon="7.944623987267947"><ele>253.0</ele><time>2026-04-18T12:09:31Z</time></trkpt><trkpt lat="45.47203025677276" lon="7.944553157437226"><ele>253.0</ele><time>2026-04-18T12:09:32Z</time></trkpt><trkpt lat="45.472152405100935" lon="7.944534594068917"><ele>252.75</ele><time>2026-04-18T12:09:33Z</time></trkpt><trkpt lat="45.47227542633753" lon="7.944526249538336"><ele>252.5</ele><time>2026-04-18T12:09:34Z</time></trkpt><trkpt lat="45.47240279288061" lon="7.944492647506272"><ele>252.25</ele><time>2026-04-18T12:09:35Z</time></trkpt><trkpt lat="45.47250776325882" lon="7.944469343101912"><ele>252.0</ele><time>2026-04-18T12:09:36.001Z</time></trkpt><trkpt lat="45.47261453716436" lon="7.944444461164916"><ele>252.0</ele><time>2026-04-18T12:09:37.001Z</time></trkpt><trkpt lat="45.47273311317659" lon="7.9444207608161905"><ele>252.0</ele><time>2026-04-18T12:09:38.001Z</time></trkpt><trkpt lat="45.472867808519865" lon="7.944391769896763"><ele>252.0</ele><time>2026-04-18T12:09:39.001Z</time></trkpt><trkpt lat="45.4729748812616" lon="7.944364543856305"><ele>252.0</ele><time>2026-04-18T12:09:40.001Z</time></trkpt><trkpt lat="45.473112281798265" lon="7.944326272860979"><ele>252.25</ele><time>2026-04-18T12:09:41.001Z</time></trkpt><trkpt lat="45.47324405216455" lon="7.9442912826996706"><ele>252.5</ele><time>2026-04-18T12:09:42.001Z</time></trkpt><trkpt lat="45.473373073260426" lon="7.944265709821436"><ele>252.75</ele><time>2026-04-18T12:09:43.001Z</time></trkpt><trkpt lat="45.473482429900635" lon="7.94424439386393"><ele>253.0</ele><time>2026-04-18T12:09:44.001Z</time></trkpt><trkpt lat="45.47359622018292" lon="7.944226445919632"><ele>253.0</ele><time>2026-04-18T12:09:45.001Z</time></trkpt><trkpt lat="45.4737043551172" lon="7.944214603400712"><ele>253.0</ele><time>2026-04-18T12:09:46.001Z</time></trkpt><trkpt lat="45.47380841197345" lon="7.944205850643783"><ele>253.0</ele><time>2026-04-18T12:09:47.001Z</time></trkpt><trkpt lat="45.47392259597859" lon="7.9441962460508515"><ele>253.0</ele><time>2026-04-18T12:09:48.001Z</time></trkpt><trkpt lat="45.474037138761844" lon="7.944186018858315"><ele>253.0</ele><time>2026-04-18T12:09:49.001Z</time></trkpt><trkpt lat="45.47412445453203" lon="7.9441798592490995"><ele>254.0</ele><time>2026-04-18T12:09:50.001Z</time></trkpt><trkpt lat="45.4742429656021" lon="7.9441675735279045"><ele>255.0</ele><time>2026-04-18T12:09:51.001Z</time></trkpt><trkpt lat="45.47435192178251" lon="7.944148540264493"><ele>256.0</ele><time>2026-04-18T12:09:52.001Z</time></trkpt><trkpt lat="45.47446426985586" lon="7.944121380063182"><ele>257.0</ele><time>2026-04-18T12:09:53.001Z</time></trkpt><trkpt lat="45.47458580966675" lon="7.944072965383199"><ele>257.4</ele><time>2026-04-18T12:09:54.001Z</time></trkpt><trkpt lat="45.474697199768755" lon="7.944051548646329"><ele>257.79999999999995</ele><time>2026-04-18T12:09:55.001Z</time></trkpt><trkpt lat="45.4748026652181" lon="7.94403238153443"><ele>258.2</ele><time>2026-04-18T12:09:56.001Z</time></trkpt><trkpt lat="45.474906800419866" lon="7.944013819947597"><ele>258.59999999999997</ele><time>2026-04-18T12:09:57.001Z</time></trkpt><trkpt lat="45.475020235007385" lon="7.9439912573106755"><ele>259.0</ele><time>2026-04-18T12:09:58.001Z</time></trkpt><trkpt lat="45.475110411794965" lon="7.9439672329412945"><ele>259.0</ele><time>2026-04-18T12:09:59.001Z</time></trkpt><trkpt lat="45.47520690433768" lon="7.94391089809771"><ele>259.0</ele><time>2026-04-18T12:10:00.001Z</time></trkpt><trkpt lat="45.475313603063505" lon="7.943870317288939"><ele>259.0</ele><time>2026-04-18T12:10:01.001Z</time></trkpt><trkpt lat="45.47541530235303" lon="7.943832712254733"><ele>259.0</ele><time>2026-04-18T12:10:02.001Z</time></trkpt><trkpt lat="45.475519911315125" lon="7.943794031205055"><ele>259.0</ele><time>2026-04-18T12:10:03.001Z</time></trkpt><trkpt lat="45.47562984976403" lon="7.9437585637576005"><ele>258.75</ele><time>2026-04-18T12:10:04.001Z</time></trkpt><trkpt lat="45.47574775232366" lon="7.943687778959867"><ele>258.5</ele><time>2026-04-18T12:10:05.001Z</time></trkpt><trkpt lat="45.47587704983256" lon="7.943631577662359"><ele>258.25</ele><time>2026-04-18T12:10:06.001Z</time></trkpt><trkpt lat="45.47596810512578" lon="7.94359373511688"><ele>258.0</ele><time>2026-04-18T12:10:07.001Z</time></trkpt><trkpt lat="45.47606829671007" lon="7.94355753455799"><ele>258.0</ele><time>2026-04-18T12:10:08.001Z</time></trkpt><trkpt lat="45.476170818022304" lon="7.943520786108667"><ele>258.0</ele><time>2026-04-18T12:10:09.001Z</time></trkpt><trkpt lat="45.476262957908965" lon="7.943500320121848"><ele>258.0</ele><time>2026-04-18T12:10:10.001Z</time></trkpt><trkpt lat="45.47635578480011" lon="7.943477370528749"><ele>258.0</ele><time>2026-04-18T12:10:11.001Z</time></trkpt><trkpt lat="45.47645007456991" lon="7.943442422325911"><ele>258.0</ele><time>2026-04-18T12:10:12.001Z</time></trkpt><trkpt lat="45.4765528576971" lon="7.943408909387838"><ele>259.75</ele><time>2026-04-18T12:10:13.001Z</time></trkpt><trkpt lat="45.4766536646439" lon="7.943360206316332"><ele>261.5</ele><time>2026-04-18T12:10:14.001Z</time></trkpt><trkpt lat="45.47678728799459" lon="7.943306892119755"><ele>263.25</ele><time>2026-04-18T12:10:15.001Z</time></trkpt><trkpt lat="45.476916580460916" lon="7.943293194696959"><ele>265.0</ele><time>2026-04-18T12:10:16.001Z</time></trkpt><trkpt lat="45.47702369925964" lon="7.943244858813504"><ele>265.25</ele><time>2026-04-18T12:10:17.001Z</time></trkpt><trkpt lat="45.47712339872413" lon="7.943184888474594"><ele>265.5</ele><time>2026-04-18T12:10:18.001Z</time></trkpt><trkpt lat="45.477218460775376" lon="7.943111355967277"><ele>265.75</ele><time>2026-04-18T12:10:19.002Z</time></trkpt><trkpt lat="45.47732358777766" lon="7.94304422230708"><ele>266.0</ele><time>2026-04-18T12:10:20.002Z</time></trkpt><trkpt lat="45.47743015124304" lon="7.9429672298596605"><ele>266.0</ele><time>2026-04-18T12:10:21.002Z</time></trkpt><trkpt lat="45.477522172287756" lon="7.942907167953693"><ele>266.0</ele><time>2026-04-18T12:10:22.002Z</time></trkpt><trkpt lat="45.47761018395709" lon="7.942846663957814"><ele>266.0</ele><time>2026-04-18T12:10:23.002Z</time></trkpt><trkpt lat="45.47769793622171" lon="7.942787671737883"><ele>266.0</ele><time>2026-04-18T12:10:24.002Z</time></trkpt><trkpt lat="45.47777378565853" lon="7.942603218840985"><ele>266.0</ele><time>2026-04-18T12:10:25.002Z</time></trkpt><trkpt lat="45.47787196392254" lon="7.942470197398965"><ele>266.5</ele><time>2026-04-18T12:10:26.002Z</time></trkpt><trkpt lat="45.47796818075378" lon="7.94233283683834"><ele>267.0</ele><time>2026-04-18T12:10:27.002Z</time></trkpt><trkpt lat="45.47805565357765" lon="7.94223779632835"><ele>267.5</ele><time>2026-04-18T12:10:27.998Z</time></trkpt><trkpt lat="45.47814960539677" lon="7.942171312142832"><ele>268.0</ele><time>2026-04-18T12:10:28.998Z</time></trkpt><trkpt lat="45.47825622281654" lon="7.942098699685644"><ele>268.0</ele><time>2026-04-18T12:10:29.998Z</time></trkpt><trkpt lat="45.47836302731015" lon="7.942018350322505"><ele>268.0</ele><time>2026-04-18T12:10:30.998Z</time></trkpt><trkpt lat="45.478479855670955" lon="7.941960103366556"><ele>268.0</ele><time>2026-04-18T12:10:31.998Z</time></trkpt><trkpt lat="45.478593380145895" lon="7.941933276990814"><ele>268.0</ele><time>2026-04-18T12:10:32.998Z</time></trkpt><trkpt lat="45.47870230810277" lon="7.941891356931423"><ele>268.0</ele><time>2026-04-18T12:10:33.998Z</time></trkpt><trkpt lat="45.47882441542022" lon="7.941851054237445"><ele>268.0</ele><time>2026-04-18T12:10:34.998Z</time></trkpt><trkpt lat="45.478937068405095" lon="7.941813169411398"><ele>268.0</ele><time>2026-04-18T12:10:35.998Z</time></trkpt><trkpt lat="45.47905566981165" lon="7.941781599475687"><ele>268.0</ele><time>2026-04-18T12:10:36.998Z</time></trkpt><trkpt lat="45.47916972968866" lon="7.94175142563115"><ele>268.75</ele><time>2026-04-18T12:10:37.998Z</time></trkpt><trkpt lat="45.47927221786879" lon="7.941705681712184"><ele>269.5</ele><time>2026-04-18T12:10:38.998Z</time></trkpt><trkpt lat="45.479375769800875" lon="7.94162762218769"><ele>270.25</ele><time>2026-04-18T12:10:39.998Z</time></trkpt><trkpt lat="45.47947018235074" lon="7.941532420795593"><ele>271.0</ele><time>2026-04-18T12:10:40.998Z</time></trkpt><trkpt lat="45.47955284481123" lon="7.9414264574548685"><ele>271.40000000000003</ele><time>2026-04-18T12:10:41.999Z</time></trkpt><trkpt lat="45.47962776400817" lon="7.941328569074176"><ele>271.8</ele><time>2026-04-18T12:10:42.999Z</time></trkpt><trkpt lat="45.47970776174292" lon="7.941274215733861"><ele>272.20000000000005</ele><time>2026-04-18T12:10:43.999Z</time></trkpt><trkpt lat="45.47977034101209" lon="7.9412208458234135"><ele>272.6</ele><time>2026-04-18T12:10:44.999Z</time></trkpt><trkpt lat="45.47988505941231" lon="7.941383653335894"><ele>273.0</ele><time>2026-04-18T12:10:45.999Z</time></trkpt><trkpt lat="45.479974627910785" lon="7.941360195473649"><ele>273.0</ele><time>2026-04-18T12:10:46.999Z</time></trkpt><trkpt lat="45.48007553246038" lon="7.94132585242753"><ele>273.0</ele><time>2026-04-18T12:10:47.999Z</time></trkpt><trkpt lat="45.48016254366201" lon="7.94127963534129"><ele>273.0</ele><time>2026-04-18T12:10:48.999Z</time></trkpt><trkpt lat="45.48024867187463" lon="7.941263756678441"><ele>273.0</ele><time>2026-04-18T12:10:49.999Z</time></trkpt><trkpt lat="45.48034251275073" lon="7.941269482439264"><ele>273.0</ele><time>2026-04-18T12:10:50.999Z</time></trkpt><trkpt lat="45.48041764065102" lon="7.9413441055130045"><ele>274.8</ele><time>2026-04-18T12:10:51.999Z</time></trkpt><trkpt lat="45.48050722439178" lon="7.9414297749712"><ele>276.6</ele><time>2026-04-18T12:10:52.999Z</time></trkpt><trkpt lat="45.480589691618285" lon="7.941487242590564"><ele>278.4</ele><time>2026-04-18T12:10:53.999Z</time></trkpt><trkpt lat="45.480676045359786" lon="7.941527351021903"><ele>280.2</ele><time>2026-04-18T12:10:54.999Z</time></trkpt><trkpt lat="45.48077620160084" lon="7.941466763993481"><ele>282.0</ele><time>2026-04-18T12:10:55.999Z</time></trkpt><trkpt lat="45.4808812006093" lon="7.941459459810803"><ele>282.0</ele><time>2026-04-18T12:10:56.999Z</time></trkpt><trkpt lat="45.48098994005485" lon="7.941428818498133"><ele>282.0</ele><time>2026-04-18T12:10:57.999Z</time></trkpt><trkpt lat="45.48110044338903" lon="7.9414812184521475"><ele>282.0</ele><time>2026-04-18T12:10:58.999Z</time></trkpt><trkpt lat="45.481207184878656" lon="7.941488144133038"><ele>282.0</ele><time>2026-04-18T12:11:00Z</time></trkpt><trkpt lat="45.48131812280317" lon="7.941491429095692"><ele>282.0</ele><time>2026-04-18T12:11:01Z</time></trkpt><trkpt lat="45.48142137379119" lon="7.941435151455017"><ele>285.6</ele><time>2026-04-18T12:11:02Z</time></trkpt><trkpt lat="45.481513714655904" lon="7.941379134357537"><ele>289.2</ele><time>2026-04-18T12:11:03Z</time></trkpt><trkpt lat="45.4815982841691" lon="7.941317724778359"><ele>292.8</ele><time>2026-04-18T12:11:04Z</time></trkpt><trkpt lat="45.481693948625" lon="7.941247271236719"><ele>296.4</ele><time>2026-04-18T12:11:05Z</time></trkpt><trkpt lat="45.48178511623348" lon="7.94118981813579"><ele>300.0</ele><time>2026-04-18T12:11:06Z</time></trkpt><trkpt lat="45.48188657791441" lon="7.941147322401169"><ele>300.0</ele><time>2026-04-18T12:11:07Z</time></trkpt><trkpt lat="45.48198067758573" lon="7.941089614989776"><ele>300.0</ele><time>2026-04-18T12:11:08Z</time></trkpt><trkpt lat="45.482074363562774" lon="7.941005856714529"><ele>300.0</ele><time>2026-04-18T12:11:09Z</time></trkpt><trkpt lat="45.482162645277874" lon="7.940947795780258"><ele>300.0</ele><time>2026-04-18T12:11:10Z</time></trkpt><trkpt lat="45.4822466669411" lon="7.940885473031069"><ele>300.0</ele><time>2026-04-18T12:11:11Z</time></trkpt><trkpt lat="45.48232637985396" lon="7.940808408947485"><ele>301.2</ele><time>2026-04-18T12:11:12Z</time></trkpt><trkpt lat="45.48240960586077" lon="7.940728569633627"><ele>302.4</ele><time>2026-04-18T12:11:13Z</time></trkpt><trkpt lat="45.482499191022924" lon="7.940637397568537"><ele>303.6</ele><time>2026-04-18T12:11:14Z</time></trkpt><trkpt lat="45.482578904409884" lon="7.940562323610797"><ele>304.8</ele><time>2026-04-18T12:11:15Z</time></trkpt><trkpt lat="45.482655852742134" lon="7.940473848368084"><ele>306.0</ele><time>2026-04-18T12:11:16Z</time></trkpt><trkpt lat="45.48273773695218" lon="7.940383952097602"><ele>306.0</ele><time>2026-04-18T12:11:17Z</time></trkpt><trkpt lat="45.48282882956512" lon="7.9403069284399255"><ele>306.0</ele><time>2026-04-18T12:11:18Z</time></trkpt><trkpt lat="45.48291419907321" lon="7.940183608282892"><ele>306.0</ele><time>2026-04-18T12:11:19Z</time></trkpt><trkpt lat="45.48300227726393" lon="7.940088760155079"><ele>306.0</ele><time>2026-04-18T12:11:20Z</time></trkpt><trkpt lat="45.48308577879514" lon="7.939996922938616"><ele>306.0</ele><time>2026-04-18T12:11:21Z</time></trkpt><trkpt lat="45.48318185831999" lon="7.939928626808638"><ele>308.0</ele><time>2026-04-18T12:11:22Z</time></trkpt><trkpt lat="45.48327720771588" lon="7.939877861012955"><ele>310.0</ele><time>2026-04-18T12:11:23Z</time></trkpt><trkpt lat="45.48337615199111" lon="7.939797989159551"><ele>312.0</ele><time>2026-04-18T12:11:24Z</time></trkpt><trkpt lat="45.483472460654134" lon="7.939742905200245"><ele>314.0</ele><time>2026-04-18T12:11:25Z</time></trkpt><trkpt lat="45.483572257481995" lon="7.939665457304589"><ele>316.0</ele><time>2026-04-18T12:11:26Z</time></trkpt><trkpt lat="45.48366768089623" lon="7.939619171545871"><ele>316.0</ele><time>2026-04-18T12:11:27Z</time></trkpt><trkpt lat="45.48375882890815" lon="7.939569280792752"><ele>316.0</ele><time>2026-04-18T12:11:28Z</time></trkpt><trkpt lat="45.4838300040732" lon="7.939560253793445"><ele>316.0</ele><time>2026-04-18T12:11:29.001Z</time></trkpt><trkpt lat="45.48389279802763" lon="7.939526660000643"><ele>316.0</ele><time>2026-04-18T12:11:30.001Z</time></trkpt><trkpt lat="45.48396354392839" lon="7.939681518712484"><ele>316.0</ele><time>2026-04-18T12:11:32.001Z</time></trkpt><trkpt lat="45.48400380368685" lon="7.939786650749503"><ele>319.8</ele><time>2026-04-18T12:11:33.001Z</time></trkpt><trkpt lat="45.484059388083885" lon="7.939883102732296"><ele>323.6</ele><time>2026-04-18T12:11:34.001Z</time></trkpt><trkpt lat="45.48411264015519" lon="7.939986330405493"><ele>327.4</ele><time>2026-04-18T12:11:35.001Z</time></trkpt><trkpt lat="45.48417403996554" lon="7.9400755805639225"><ele>331.2</ele><time>2026-04-18T12:11:36.001Z</time></trkpt><trkpt lat="45.484232604846284" lon="7.940201358107408"><ele>335.0</ele><time>2026-04-18T12:11:38.001Z</time></trkpt><trkpt lat="45.48417558188139" lon="7.940286702615216"><ele>337.33333333333337</ele><time>2026-04-18T12:11:39.001Z</time></trkpt><trkpt lat="45.484140732759755" lon="7.940370001793633"><ele>339.6666666666667</ele><time>2026-04-18T12:11:40.001Z</time></trkpt><trkpt lat="45.48410042570819" lon="7.940454077108584"><ele>342.0</ele><time>2026-04-18T12:11:41.001Z</time></trkpt><trkpt lat="45.4840536199979" lon="7.940540306834316"><ele>344.3333333333333</ele><time>2026-04-18T12:11:42.001Z</time></trkpt><trkpt lat="45.484014327075144" lon="7.940641168368163"><ele>346.66666666666663</ele><time>2026-04-18T12:11:43.001Z</time></trkpt><trkpt lat="45.48396667982809" lon="7.940749419900179"><ele>349.0</ele><time>2026-04-18T12:11:44.001Z</time></trkpt><trkpt lat="45.483943937597466" lon="7.940859374173626"><ele>353.4</ele><time>2026-04-18T12:11:45.001Z</time></trkpt><trkpt lat="45.48391367107428" lon="7.9409731675677655"><ele>357.79999999999995</ele><time>2026-04-18T12:11:46.001Z</time></trkpt><trkpt lat="45.483942275483756" lon="7.941065160432691"><ele>362.20000000000005</ele><time>2026-04-18T12:11:47.001Z</time></trkpt><trkpt lat="45.483931636528816" lon="7.941178260651839"><ele>366.6</ele><time>2026-04-18T12:11:48.001Z</time></trkpt><trkpt lat="45.48391852155253" lon="7.941317682825809"><ele>371.0</ele><time>2026-04-18T12:11:49.001Z</time></trkpt><trkpt lat="45.4840319548991" lon="7.941357936734052"><ele>367.0</ele><time>2026-04-18T12:11:50.001Z</time></trkpt><trkpt lat="45.48374247663656" lon="7.9415451088322975"><ele>363.0</ele><time>2026-04-18T12:11:51.001Z</time></trkpt><trkpt lat="45.483695811778745" lon="7.941671654929457"><ele>359.0</ele><time>2026-04-18T12:11:52.001Z</time></trkpt><trkpt lat="45.483659039922884" lon="7.941805389372814"><ele>359.0</ele><time>2026-04-18T12:11:53.001Z</time></trkpt><trkpt lat="45.483636693630416" lon="7.941929065714587"><ele>359.0</ele><time>2026-04-18T12:11:54.001Z</time></trkpt><trkpt lat="45.483605092146696" lon="7.942041995726491"><ele>359.0</ele><time>2026-04-18T12:11:55.001Z</time></trkpt><trkpt lat="45.48355545674194" lon="7.942142292894517"><ele>359.0</ele><time>2026-04-18T12:11:56.001Z</time></trkpt><trkpt lat="45.483506625176865" lon="7.942241201032015"><ele>359.0</ele><time>2026-04-18T12:11:57.001Z</time></trkpt><trkpt lat="45.48345672158956" lon="7.942337825975948"><ele>359.0</ele><time>2026-04-18T12:11:58.001Z</time></trkpt><trkpt lat="45.483407365539826" lon="7.94243161951055"><ele>359.0</ele><time>2026-04-18T12:11:59.001Z</time></trkpt><trkpt lat="45.48334699965917" lon="7.942541095084656"><ele>359.0</ele><time>2026-04-18T12:12:00.001Z</time></trkpt><trkpt lat="45.483297055891136" lon="7.9426638491407004"><ele>359.0</ele><time>2026-04-18T12:12:01.001Z</time></trkpt><trkpt lat="45.48324585407986" lon="7.942776341155434"><ele>359.0</ele><time>2026-04-18T12:12:02.001Z</time></trkpt><trkpt lat="45.48319791514274" lon="7.942859381304408"><ele>359.0</ele><time>2026-04-18T12:12:03.001Z</time></trkpt><trkpt lat="45.48316792370959" lon="7.942954884866916"><ele>359.0</ele><time>2026-04-18T12:12:04.001Z</time></trkpt><trkpt lat="45.48313842119727" lon="7.943055090252822"><ele>362.0</ele><time>2026-04-18T12:12:05.002Z</time></trkpt><trkpt lat="45.483119947409484" lon="7.943158506506477"><ele>365.0</ele><time>2026-04-18T12:12:06.002Z</time></trkpt><trkpt lat="45.48310632104036" lon="7.943278554280821"><ele>368.0</ele><time>2026-04-18T12:12:07.002Z</time></trkpt><trkpt lat="45.483095110423285" lon="7.943384633168233"><ele>371.0</ele><time>2026-04-18T12:12:08.002Z</time></trkpt><trkpt lat="45.48306803833027" lon="7.943505603523061"><ele>374.0</ele><time>2026-04-18T12:12:09.002Z</time></trkpt><trkpt lat="45.48302959060061" lon="7.94361540122098"><ele>377.0</ele><time>2026-04-18T12:12:10.002Z</time></trkpt><trkpt lat="45.48300434583507" lon="7.943734781814238"><ele>378.40000000000003</ele><time>2026-04-18T12:12:11.002Z</time></trkpt><trkpt lat="45.48300305951994" lon="7.943835212885444"><ele>379.8</ele><time>2026-04-18T12:12:12.002Z</time></trkpt><trkpt lat="45.48308608628852" lon="7.944013548970367"><ele>381.2</ele><time>2026-04-18T12:12:14.002Z</time></trkpt><trkpt lat="45.48312514647257" lon="7.944140385737463"><ele>382.6</ele><time>2026-04-18T12:12:16.002Z</time></trkpt><trkpt lat="45.48312468545881" lon="7.944312725179945"><ele>384.0</ele><time>2026-04-18T12:12:18.002Z</time></trkpt><trkpt lat="45.483085479667196" lon="7.944419079843038"><ele>384.75</ele><time>2026-04-18T12:12:19.002Z</time></trkpt><trkpt lat="45.48301344023685" lon="7.94456616010925"><ele>385.5</ele><time>2026-04-18T12:12:21.002Z</time></trkpt><trkpt lat="45.48300629088119" lon="7.944736344490575"><ele>386.25</ele><time>2026-04-18T12:12:23.002Z</time></trkpt><trkpt lat="45.48303264603874" lon="7.9448181130835085"><ele>387.0</ele><time>2026-04-18T12:12:24.002Z</time></trkpt><trkpt lat="45.48318672555028" lon="7.944768366117286"><ele>387.0</ele><time>2026-04-18T12:13:37.001Z</time></trkpt><trkpt lat="45.4832548717674" lon="7.9446988765254565"><ele>387.0</ele><time>2026-04-18T12:13:38.001Z</time></trkpt><trkpt lat="45.48332894609601" lon="7.944678495499835"><ele>387.0</ele><time>2026-04-18T12:13:39.001Z</time></trkpt><trkpt lat="45.483411734091035" lon="7.944686860077277"><ele>387.0</ele><time>2026-04-18T12:13:40.001Z</time></trkpt><trkpt lat="45.48350603763748" lon="7.944768861370711"><ele>387.0</ele><time>2026-04-18T12:13:41.001Z</time></trkpt><trkpt lat="45.4835539276333" lon="7.9448960892770355"><ele>387.0</ele><time>2026-04-18T12:13:42.001Z</time></trkpt><trkpt lat="45.48360800773189" lon="7.945000712544192"><ele>387.0</ele><time>2026-04-18T12:13:43.001Z</time></trkpt><trkpt lat="45.483654669011536" lon="7.945117532958648"><ele>387.0</ele><time>2026-04-18T12:13:44.001Z</time></trkpt><trkpt lat="45.48366296258463" lon="7.945213209495562"><ele>387.0</ele><time>2026-04-18T12:13:45.001Z</time></trkpt><trkpt lat="45.48364996181833" lon="7.945318743686988"><ele>387.0</ele><time>2026-04-18T12:13:46.001Z</time></trkpt><trkpt lat="45.48360553975725" lon="7.945412316373352"><ele>387.0</ele><time>2026-04-18T12:13:47.001Z</time></trkpt><trkpt lat="45.483544695256654" lon="7.945500068564924"><ele>388.2857142857143</ele><time>2026-04-18T12:13:48.001Z</time></trkpt><trkpt lat="45.483508136336944" lon="7.945574747146865"><ele>389.57142857142856</ele><time>2026-04-18T12:13:49.001Z</time></trkpt><trkpt lat="45.483566343713974" lon="7.945661889575764"><ele>390.8571428571429</ele><time>2026-04-18T12:13:51.001Z</time></trkpt><trkpt lat="45.48363681007734" lon="7.9456175712755694"><ele>392.1428571428571</ele><time>2026-04-18T12:13:52.001Z</time></trkpt><trkpt lat="45.48369530148189" lon="7.9455547571941345"><ele>393.4285714285714</ele><time>2026-04-18T12:13:53.001Z</time></trkpt><trkpt lat="45.483760924251875" lon="7.9454963167843635"><ele>394.7142857142857</ele><time>2026-04-18T12:13:54.001Z</time></trkpt><trkpt lat="45.48382135026797" lon="7.945452813003805"><ele>396.0</ele><time>2026-04-18T12:13:55.001Z</time></trkpt><trkpt lat="45.48393212495626" lon="7.945437411089222"><ele>398.1666666666667</ele><time>2026-04-18T12:13:57.002Z</time></trkpt><trkpt lat="45.48398202530991" lon="7.945492188689753"><ele>400.33333333333337</ele><time>2026-04-18T12:13:58.002Z</time></trkpt><trkpt lat="45.484070731626254" lon="7.945612690081509"><ele>402.5</ele><time>2026-04-18T12:14:00.002Z</time></trkpt><trkpt lat="45.484142707826635" lon="7.945660142565591"><ele>404.6666666666667</ele><time>2026-04-18T12:14:01.002Z</time></trkpt><trkpt lat="45.48421971687203" lon="7.945700614291097"><ele>406.83333333333337</ele><time>2026-04-18T12:14:02.002Z</time></trkpt><trkpt lat="45.4842942651362" lon="7.945755474330652"><ele>409.0</ele><time>2026-04-18T12:14:03.002Z</time></trkpt><trkpt lat="45.48436187876862" lon="7.945856526036915"><ele>409.79999999999995</ele><time>2026-04-18T12:14:04.002Z</time></trkpt><trkpt lat="45.484415689706104" lon="7.9459779576734855"><ele>410.59999999999997</ele><time>2026-04-18T12:14:05.002Z</time></trkpt><trkpt lat="45.484464527429516" lon="7.946078880731743"><ele>411.4</ele><time>2026-04-18T12:14:06.002Z</time></trkpt><trkpt lat="45.48452228726723" lon="7.946175695374021"><ele>412.2</ele><time>2026-04-18T12:14:07.002Z</time></trkpt><trkpt lat="45.4845885879717" lon="7.946285905042189"><ele>413.0</ele><time>2026-04-18T12:14:08.002Z</time></trkpt><trkpt lat="45.48464964857741" lon="7.946403076170482"><ele>416.49999999999994</ele><time>2026-04-18T12:14:09.002Z</time></trkpt><trkpt lat="45.48468965210868" lon="7.946519633691385"><ele>420.0</ele><time>2026-04-18T12:14:10.002Z</time></trkpt><trkpt lat="45.48471135346574" lon="7.946622090497655"><ele>423.5</ele><time>2026-04-18T12:14:11.002Z</time></trkpt><trkpt lat="45.48473638822179" lon="7.946712751097164"><ele>427.0</ele><time>2026-04-18T12:14:12.002Z</time></trkpt><trkpt lat="45.48479065441926" lon="7.946779108190731"><ele>430.49999999999994</ele><time>2026-04-18T12:14:14.002Z</time></trkpt><trkpt lat="45.48485522115824" lon="7.946698329580506"><ele>434.0</ele><time>2026-04-18T12:14:16.002Z</time></trkpt><trkpt lat="45.4849075610679" lon="7.946620881795789"><ele>433.99999999999994</ele><time>2026-04-18T12:14:17.002Z</time></trkpt><trkpt lat="45.484964926697934" lon="7.946541191824526"><ele>434.0</ele><time>2026-04-18T12:14:18.002Z</time></trkpt><trkpt lat="45.485026210580486" lon="7.946442634728487"><ele>434.0</ele><time>2026-04-18T12:14:19.002Z</time></trkpt><trkpt lat="45.48509524703396" lon="7.946360939508492"><ele>434.0</ele><time>2026-04-18T12:14:20.002Z</time></trkpt><trkpt lat="45.485170083672536" lon="7.946299733562596"><ele>433.99999999999994</ele><time>2026-04-18T12:14:21.002Z</time></trkpt><trkpt lat="45.48524316523267" lon="7.946229516212557"><ele>434.0</ele><time>2026-04-18T12:14:22.002Z</time></trkpt><trkpt lat="45.485328075968525" lon="7.946167745439776"><ele>433.99999999999994</ele><time>2026-04-18T12:14:23.002Z</time></trkpt><trkpt lat="45.48541365881286" lon="7.946106027527299"><ele>434.0</ele><time>2026-04-18T12:14:24.002Z</time></trkpt><trkpt lat="45.48549360207255" lon="7.946043288384216"><ele>434.0</ele><time>2026-04-18T12:14:25.002Z</time></trkpt><trkpt lat="45.48557618413483" lon="7.945998870431624"><ele>434.0</ele><time>2026-04-18T12:14:26.002Z</time></trkpt><trkpt lat="45.48562616547134" lon="7.945943064722293"><ele>433.99999999999994</ele><time>2026-04-18T12:14:27.002Z</time></trkpt><trkpt lat="45.48568772754194" lon="7.94589393478357"><ele>434.0</ele><time>2026-04-18T12:14:29.003Z</time></trkpt><trkpt lat="45.48569568755057" lon="7.946014889667253"><ele>436.99999999999994</ele><time>2026-04-18T12:14:32.003Z</time></trkpt><trkpt lat="45.485653293810564" lon="7.946092035739494"><ele>440.0</ele><time>2026-04-18T12:14:34.003Z</time></trkpt><trkpt lat="45.48562975865267" lon="7.9461809453979795"><ele>443.0</ele><time>2026-04-18T12:14:36.003Z</time></trkpt><trkpt lat="45.48573809068007" lon="7.946171947602137"><ele>446.0</ele><time>2026-04-18T12:14:39.003Z</time></trkpt><trkpt lat="45.485814050709216" lon="7.94614051559982"><ele>448.99999999999994</ele><time>2026-04-18T12:14:40.999Z</time></trkpt><trkpt lat="45.485917445239494" lon="7.9461160791762175"><ele>452.0</ele><time>2026-04-18T12:14:43Z</time></trkpt><trkpt lat="45.48600122622845" lon="7.946076255098479"><ele>452.0</ele><time>2026-04-18T12:14:45Z</time></trkpt><trkpt lat="45.48607654584764" lon="7.946037770078345"><ele>452.0</ele><time>2026-04-18T12:14:46Z</time></trkpt><trkpt lat="45.48614171302813" lon="7.946003245785595"><ele>452.0</ele><time>2026-04-18T12:14:47Z</time></trkpt><trkpt lat="45.486211029158135" lon="7.945973900587794"><ele>452.0</ele><time>2026-04-18T12:14:48Z</time></trkpt><trkpt lat="45.48628695835309" lon="7.945916936339226"><ele>452.0</ele><time>2026-04-18T12:14:49Z</time></trkpt><trkpt lat="45.486347167947" lon="7.9458711828513495"><ele>452.0</ele><time>2026-04-18T12:14:50Z</time></trkpt><trkpt lat="45.486397466026986" lon="7.945801997531148"><ele>452.0</ele><time>2026-04-18T12:14:51Z</time></trkpt><trkpt lat="45.48646555135052" lon="7.94572383654822"><ele>453.0</ele><time>2026-04-18T12:14:52Z</time></trkpt><trkpt lat="45.48654886654375" lon="7.9456549515768735"><ele>454.00000000000006</ele><time>2026-04-18T12:14:53Z</time></trkpt><trkpt lat="45.48665653895661" lon="7.945555975829024"><ele>455.00000000000006</ele><time>2026-04-18T12:14:54Z</time></trkpt><trkpt lat="45.486739085669136" lon="7.945457232746757"><ele>456.0</ele><time>2026-04-18T12:14:55Z</time></trkpt><trkpt lat="45.48682890791176" lon="7.945359317251877"><ele>457.0</ele><time>2026-04-18T12:14:56Z</time></trkpt><trkpt lat="45.48688347665371" lon="7.945286695783497"><ele>457.00000000000006</ele><time>2026-04-18T12:14:57Z</time></trkpt><trkpt lat="45.486973937066445" lon="7.945298441850888"><ele>457.0</ele><time>2026-04-18T12:14:59Z</time></trkpt><trkpt lat="45.487001250084276" lon="7.945383311755194"><ele>457.0</ele><time>2026-04-18T12:15:01Z</time></trkpt><trkpt lat="45.48698468568223" lon="7.945504521195861"><ele>457.0</ele><time>2026-04-18T12:15:03Z</time></trkpt><trkpt lat="45.48694528115817" lon="7.94559013682328"><ele>457.00000000000006</ele><time>2026-04-18T12:15:04Z</time></trkpt><trkpt lat="45.486913979271385" lon="7.945676264932672"><ele>457.0</ele><time>2026-04-18T12:15:05Z</time></trkpt><trkpt lat="45.486884181073385" lon="7.945778592893931"><ele>456.0</ele><time>2026-04-18T12:15:06Z</time></trkpt><trkpt lat="45.48684354592665" lon="7.945891554169335"><ele>455.00000000000006</ele><time>2026-04-18T12:15:07Z</time></trkpt><trkpt lat="45.486779190613404" lon="7.946003115874337"><ele>454.00000000000006</ele><time>2026-04-18T12:15:08Z</time></trkpt><trkpt lat="45.486718910405045" lon="7.946118507060784"><ele>453.0</ele><time>2026-04-18T12:15:09Z</time></trkpt><trkpt lat="45.48667784053093" lon="7.946230631491307"><ele>452.0</ele><time>2026-04-18T12:15:10Z</time></trkpt><trkpt lat="45.485814050709216" lon="7.94614051559982"><ele>451.99999999999994</ele><time>2026-04-18T12:14:40.999Z</time></trkpt><trkpt lat="45.485917445239494" lon="7.9461160791762175"><ele>452.0</ele><time>2026-04-18T12:14:43Z</time></trkpt><trkpt lat="45.48600122622845" lon="7.946076255098479"><ele>452.0</ele><time>2026-04-18T12:14:45Z</time></trkpt><trkpt lat="45.48607654584764" lon="7.946037770078345"><ele>452.0</ele><time>2026-04-18T12:14:46Z</time></trkpt><trkpt lat="45.48614171302813" lon="7.946003245785595"><ele>451.99999999999994</ele><time>2026-04-18T12:14:47Z</time></trkpt><trkpt lat="45.486211029158135" lon="7.945973900587794"><ele>452.0</ele><time>2026-04-18T12:14:48Z</time></trkpt><trkpt lat="45.48628695835309" lon="7.945916936339226"><ele>453.0</ele><time>2026-04-18T12:14:49Z</time></trkpt><trkpt lat="45.486347167947" lon="7.9458711828513495"><ele>454.00000000000006</ele><time>2026-04-18T12:14:50Z</time></trkpt><trkpt lat="45.486397466026986" lon="7.945801997531148"><ele>455.00000000000006</ele><time>2026-04-18T12:14:51Z</time></trkpt><trkpt lat="45.48646555135052" lon="7.94572383654822"><ele>456.0</ele><time>2026-04-18T12:14:52Z</time></trkpt><trkpt lat="45.48654886654375" lon="7.9456549515768735"><ele>457.0</ele><time>2026-04-18T12:14:53Z</time></trkpt><trkpt lat="45.48665653895661" lon="7.945555975829024"><ele>457.0</ele><time>2026-04-18T12:14:54Z</time></trkpt><trkpt lat="45.486739085669136" lon="7.945457232746757"><ele>457.00000000000006</ele><time>2026-04-18T12:14:55Z</time></trkpt><trkpt lat="45.48682890791176" lon="7.945359317251877"><ele>457.00000000000006</ele><time>2026-04-18T12:14:56Z</time></trkpt><trkpt lat="45.48688347665371" lon="7.945286695783497"><ele>457.0</ele><time>2026-04-18T12:14:57Z</time></trkpt><trkpt lat="45.486973937066445" lon="7.945298441850888"><ele>457.0</ele><time>2026-04-18T12:14:59Z</time></trkpt><trkpt lat="45.487001250084276" lon="7.945383311755194"><ele>457.00000000000006</ele><time>2026-04-18T12:15:01Z</time></trkpt><trkpt lat="45.48698468568223" lon="7.945504521195861"><ele>457.0</ele><time>2026-04-18T12:15:03Z</time></trkpt><trkpt lat="45.48694528115817" lon="7.94559013682328"><ele>457.0</ele><time>2026-04-18T12:15:04Z</time></trkpt><trkpt lat="45.486913979271385" lon="7.945676264932672"><ele>457.0</ele><time>2026-04-18T12:15:05Z</time></trkpt><trkpt lat="45.486884181073385" lon="7.945778592893931"><ele>457.00000000000006</ele><time>2026-04-18T12:15:06Z</time></trkpt><trkpt lat="45.48684354592665" lon="7.945891554169335"><ele>457.0</ele><time>2026-04-18T12:15:07Z</time></trkpt><trkpt lat="45.486779190613404" lon="7.946003115874337"><ele>459.33333333333337</ele><time>2026-04-18T12:15:08Z</time></trkpt><trkpt lat="45.486718910405045" lon="7.946118507060784"><ele>461.6666666666667</ele><time>2026-04-18T12:15:09Z</time></trkpt><trkpt lat="45.48667784053093" lon="7.946230631491307"><ele>464.0</ele><time>2026-04-18T12:15:10Z</time></trkpt><trkpt lat="45.48664890727272" lon="7.946340575630577"><ele>466.33333333333337</ele><time>2026-04-18T12:15:11Z</time></trkpt><trkpt lat="45.486653481822295" lon="7.946465560508598"><ele>468.6666666666667</ele><time>2026-04-18T12:15:12Z</time></trkpt><trkpt lat="45.486669473681026" lon="7.9465717115584775"><ele>471.0</ele><time>2026-04-18T12:15:13Z</time></trkpt><trkpt lat="45.48665079774729" lon="7.946663593287601"><ele>472.8333333333333</ele><time>2026-04-18T12:15:14Z</time></trkpt><trkpt lat="45.486629377192884" lon="7.946767077938797"><ele>474.66666666666663</ele><time>2026-04-18T12:15:15Z</time></trkpt><trkpt lat="45.48661904972496" lon="7.946883418197166"><ele>476.5</ele><time>2026-04-18T12:15:16.001Z</time></trkpt><trkpt lat="45.48664804098781" lon="7.946987800954277"><ele>478.3333333333333</ele><time>2026-04-18T12:15:17.001Z</time></trkpt><trkpt lat="45.48668661428093" lon="7.947072267358048"><ele>480.16666666666663</ele><time>2026-04-18T12:15:18.001Z</time></trkpt><trkpt lat="45.4867340942282" lon="7.947167130675815"><ele>482.0</ele><time>2026-04-18T12:15:19.001Z</time></trkpt><trkpt lat="45.486772788186016" lon="7.947266658585687"><ele>482.0</ele><time>2026-04-18T12:15:20.001Z</time></trkpt><trkpt lat="45.4867919909142" lon="7.947362478743446"><ele>482.00000000000006</ele><time>2026-04-18T12:15:21.001Z</time></trkpt><trkpt lat="45.486793293389134" lon="7.947561373796017"><ele>482.00000000000006</ele><time>2026-04-18T12:15:23.001Z</time></trkpt><trkpt lat="45.486800847007984" lon="7.947667231722419"><ele>482.0</ele><time>2026-04-18T12:15:24.001Z</time></trkpt><trkpt lat="45.48686593483831" lon="7.94778095988659"><ele>482.0</ele><time>2026-04-18T12:15:26.001Z</time></trkpt><trkpt lat="45.48690625795134" lon="7.947873481100833"><ele>482.8333333333333</ele><time>2026-04-18T12:15:28.001Z</time></trkpt><trkpt lat="45.486942489070714" lon="7.948020678360094"><ele>483.66666666666663</ele><time>2026-04-18T12:15:30.001Z</time></trkpt><trkpt lat="45.48692519091804" lon="7.9479211632353834"><ele>484.5</ele><time>2026-04-18T12:15:39.001Z</time></trkpt><trkpt lat="45.48689580608221" lon="7.9478349180159995"><ele>485.33333333333337</ele><time>2026-04-18T12:15:41.001Z</time></trkpt><trkpt lat="45.48693138680583" lon="7.94776010472728"><ele>486.1666666666667</ele><time>2026-04-18T12:15:52.002Z</time></trkpt><trkpt lat="45.48698904591344" lon="7.947680304772745"><ele>487.0</ele><time>2026-04-18T12:15:54.002Z</time></trkpt><trkpt lat="45.48706030360725" lon="7.947592526041388"><ele>495.33333333333337</ele><time>2026-04-18T12:15:56.002Z</time></trkpt><trkpt lat="45.48710070479495" lon="7.947934714330804"><ele>503.66666666666663</ele><time>2026-04-18T12:16:02.002Z</time></trkpt><trkpt lat="45.487147130381345" lon="7.94801169163841"><ele>512.0</ele><time>2026-04-18T12:16:04.002Z</time></trkpt><trkpt lat="45.48726856106053" lon="7.947795985795147"><ele>512.0</ele><time>2026-04-18T12:16:08.002Z</time></trkpt><trkpt lat="45.48734621124535" lon="7.947649607610956"><ele>512.0</ele><time>2026-04-18T12:16:10.002Z</time></trkpt><trkpt lat="45.48743094210231" lon="7.947508217617627"><ele>512.0</ele><time>2026-04-18T12:16:12.002Z</time></trkpt><trkpt lat="45.48747765541082" lon="7.947436426010973"><ele>512.0</ele><time>2026-04-18T12:16:13.002Z</time></trkpt><trkpt lat="45.48754378900466" lon="7.94733197893461"><ele>512.0</ele><time>2026-04-18T12:16:14.002Z</time></trkpt><trkpt lat="45.4875918567524" lon="7.947254826379531"><ele>510.8</ele><time>2026-04-18T12:16:15.002Z</time></trkpt><trkpt lat="45.4876334960104" lon="7.947324452176821"><ele>509.6</ele><time>2026-04-18T12:16:28.003Z</time></trkpt><trkpt lat="45.48785755551754" lon="7.947352639993788"><ele>508.40000000000003</ele><time>2026-04-18T12:16:37.003Z</time></trkpt><trkpt lat="45.487916547977385" lon="7.947319907721288"><ele>507.20000000000005</ele><time>2026-04-18T12:16:40.003Z</time></trkpt><trkpt lat="45.48798335304225" lon="7.947266267552236"><ele>506.0</ele><time>2026-04-18T12:16:43.003Z</time></trkpt><trkpt lat="45.48811578702164" lon="7.947263562269835"><ele>510.8333333333333</ele><time>2026-04-18T12:16:57Z</time></trkpt><trkpt lat="45.48808267555353" lon="7.947357946421052"><ele>515.6666666666666</ele><time>2026-04-18T12:17:00Z</time></trkpt><trkpt lat="45.4880747808362" lon="7.947453742435434"><ele>520.5</ele><time>2026-04-18T12:17:03Z</time></trkpt><trkpt lat="45.488113775071874" lon="7.947555178332806"><ele>525.3333333333334</ele><time>2026-04-18T12:17:07Z</time></trkpt><trkpt lat="45.4881838531772" lon="7.947529003233162"><ele>530.1666666666667</ele><time>2026-04-18T12:17:10Z</time></trkpt><trkpt lat="45.4882450295741" lon="7.947499613335895"><ele>535.0</ele><time>2026-04-18T12:17:14Z</time></trkpt><trkpt lat="45.48833495760478" lon="7.947458557678634"><ele>535.0</ele><time>2026-04-18T12:17:17.001Z</time></trkpt><trkpt lat="45.48841527446889" lon="7.947466791584257"><ele>535.0</ele><time>2026-04-18T12:17:21.001Z</time></trkpt><trkpt lat="45.488476589595656" lon="7.947523032249343"><ele>535.0</ele><time>2026-04-18T12:17:24.001Z</time></trkpt><trkpt lat="45.48856958565478" lon="7.947542520260006"><ele>535.0</ele><time>2026-04-18T12:17:30.001Z</time></trkpt><trkpt lat="45.4886565096861" lon="7.947576700356823"><ele>535.0</ele><time>2026-04-18T12:17:48.002Z</time></trkpt><trkpt lat="45.48872301935493" lon="7.947506385438997"><ele>535.0</ele><time>2026-04-18T12:18:16.003Z</time></trkpt><trkpt lat="45.488764295308485" lon="7.947393425279509"><ele>540.0</ele><time>2026-04-18T12:18:18.003Z</time></trkpt><trkpt lat="45.48883085165388" lon="7.947319225328773"><ele>545.0</ele><time>2026-04-18T12:18:20.003Z</time></trkpt><trkpt lat="45.488918929447216" lon="7.947208457847289"><ele>550.0</ele><time>2026-04-18T12:18:22.003Z</time></trkpt><trkpt lat="45.48896275823755" lon="7.947137534284267"><ele>555.0</ele><time>2026-04-18T12:18:23.003Z</time></trkpt><trkpt lat="45.489001994053204" lon="7.947009990931632"><ele>560.0</ele><time>2026-04-18T12:18:25.003Z</time></trkpt><trkpt lat="45.489071924119045" lon="7.946936436623694"><ele>560.0</ele><time>2026-04-18T12:18:27.003Z</time></trkpt><trkpt lat="45.48912550913182" lon="7.946813747385573"><ele>560.0</ele><time>2026-04-18T12:18:29.003Z</time></trkpt><trkpt lat="45.48918154161145" lon="7.946671098225482"><ele>560.0</ele><time>2026-04-18T12:18:31.003Z</time></trkpt><trkpt lat="45.48925156903564" lon="7.946602272490656"><ele>560.0</ele><time>2026-04-18T12:18:32.003Z</time></trkpt><trkpt lat="45.48930947013034" lon="7.946534912861901"><ele>560.0</ele><time>2026-04-18T12:18:33.003Z</time></trkpt><trkpt lat="45.48938050261832" lon="7.9464183222153455"><ele>560.3333333333333</ele><time>2026-04-18T12:18:34.003Z</time></trkpt><trkpt lat="45.48943557308942" lon="7.946329279587364"><ele>560.6666666666666</ele><time>2026-04-18T12:18:35.003Z</time></trkpt><trkpt lat="45.48948087088052" lon="7.946240682543285"><ele>561.0</ele><time>2026-04-18T12:18:37.003Z</time></trkpt><trkpt lat="45.48955410770215" lon="7.946161565363971"><ele>561.3333333333334</ele><time>2026-04-18T12:18:39.003Z</time></trkpt><trkpt lat="45.48960278043206" lon="7.946074522597429"><ele>561.6666666666667</ele><time>2026-04-18T12:18:41.003Z</time></trkpt><trkpt lat="45.48968014909762" lon="7.946019786190948"><ele>562.0</ele><time>2026-04-18T12:18:43.003Z</time></trkpt><trkpt lat="45.48978108592799" lon="7.945984163438139"><ele>565.3333333333334</ele><time>2026-04-18T12:18:45.003Z</time></trkpt><trkpt lat="45.48986630911369" lon="7.945919444027892"><ele>568.6666666666667</ele><time>2026-04-18T12:18:47.003Z</time></trkpt><trkpt lat="45.48994470179896" lon="7.945854017337687"><ele>572.0</ele><time>2026-04-18T12:18:49.004Z</time></trkpt><trkpt lat="45.490040232044386" lon="7.945820278929865"><ele>575.3333333333334</ele><time>2026-04-18T12:18:50.004Z</time></trkpt><trkpt lat="45.49010654841622" lon="7.945769564022024"><ele>578.6666666666666</ele><time>2026-04-18T12:18:51.004Z</time></trkpt><trkpt lat="45.49015375500765" lon="7.945693602570416"><ele>582.0</ele><time>2026-04-18T12:18:52Z</time></trkpt><trkpt lat="45.49020537717305" lon="7.9455927398990065"><ele>582.0</ele><time>2026-04-18T12:18:54Z</time></trkpt><trkpt lat="45.49025917374163" lon="7.945472851837851"><ele>582.0</ele><time>2026-04-18T12:18:56Z</time></trkpt><trkpt lat="45.49033030175954" lon="7.945364953420393"><ele>582.0</ele><time>2026-04-18T12:18:58Z</time></trkpt><trkpt lat="45.49038653749494" lon="7.945257438762293"><ele>582.0</ele><time>2026-04-18T12:19:00Z</time></trkpt><trkpt lat="45.49042897320526" lon="7.945184963823513"><ele>582.0</ele><time>2026-04-18T12:19:01Z</time></trkpt><trkpt lat="45.49047726314636" lon="7.945118081212941"><ele>582.0</ele><time>2026-04-18T12:19:02Z</time></trkpt><trkpt lat="45.490519805765764" lon="7.945031934250843"><ele>585.8000000000001</ele><time>2026-04-18T12:19:03Z</time></trkpt><trkpt lat="45.4905465633307" lon="7.9448986497193035"><ele>589.6</ele><time>2026-04-18T12:19:05Z</time></trkpt><trkpt lat="45.49060390959388" lon="7.944775717046925"><ele>593.4000000000001</ele><time>2026-04-18T12:19:07Z</time></trkpt><trkpt lat="45.49066085566936" lon="7.944679102893929"><ele>597.2</ele><time>2026-04-18T12:19:10Z</time></trkpt><trkpt lat="45.49072238475757" lon="7.944548238978899"><ele>601.0</ele><time>2026-04-18T12:19:12Z</time></trkpt><trkpt lat="45.490783888506584" lon="7.944397380146193"><ele>601.0</ele><time>2026-04-18T12:19:14Z</time></trkpt><trkpt lat="45.49081148725993" lon="7.944291148502699"><ele>601.0</ele><time>2026-04-18T12:19:15Z</time></trkpt><trkpt lat="45.49084281350589" lon="7.944181120806531"><ele>601.0</ele><time>2026-04-18T12:19:16Z</time></trkpt><trkpt lat="45.490875116346245" lon="7.944087688109628"><ele>601.0</ele><time>2026-04-18T12:19:17.001Z</time></trkpt><trkpt lat="45.49090905246786" lon="7.943953731362426"><ele>601.0</ele><time>2026-04-18T12:19:18.001Z</time></trkpt><trkpt lat="45.49093715333994" lon="7.943852073642733"><ele>601.0</ele><time>2026-04-18T12:19:19.001Z</time></trkpt><trkpt lat="45.49099431187652" lon="7.943690884938378"><ele>599.0</ele><time>2026-04-18T12:19:21.001Z</time></trkpt><trkpt lat="45.49101224584155" lon="7.943597400900242"><ele>597.0</ele><time>2026-04-18T12:19:22.001Z</time></trkpt><trkpt lat="45.49104414384933" lon="7.943512360296384"><ele>595.0</ele><time>2026-04-18T12:19:23.001Z</time></trkpt><trkpt lat="45.49110147642205" lon="7.943391084317015"><ele>593.0</ele><time>2026-04-18T12:19:25.001Z</time></trkpt><trkpt lat="45.49117778946624" lon="7.943215453352407"><ele>591.0</ele><time>2026-04-18T12:19:27.001Z</time></trkpt><trkpt lat="45.49120091072464" lon="7.943118568471742"><ele>593.6</ele><time>2026-04-18T12:19:28.001Z</time></trkpt><trkpt lat="45.491231900565026" lon="7.943011786240685"><ele>596.2</ele><time>2026-04-18T12:19:29.001Z</time></trkpt><trkpt lat="45.4912718883785" lon="7.942924590751431"><ele>598.8</ele><time>2026-04-18T12:19:30.001Z</time></trkpt><trkpt lat="45.49134779490398" lon="7.942786902756484"><ele>601.4</ele><time>2026-04-18T12:19:32.001Z</time></trkpt><trkpt lat="45.49139886921409" lon="7.942612773469666"><ele>604.0</ele><time>2026-04-18T12:19:34.001Z</time></trkpt><trkpt lat="45.49144220004446" lon="7.94253211764125"><ele>604.0</ele><time>2026-04-18T12:19:35.001Z</time></trkpt><trkpt lat="45.491502460336505" lon="7.942471374002047"><ele>604.0</ele><time>2026-04-18T12:19:36.001Z</time></trkpt><trkpt lat="45.49157843101775" lon="7.94237121156741"><ele>604.0</ele><time>2026-04-18T12:19:38.001Z</time></trkpt><trkpt lat="45.49165501903355" lon="7.942325166820998"><ele>604.0</ele><time>2026-04-18T12:19:40.001Z</time></trkpt><trkpt lat="45.49171728239784" lon="7.94227626997443"><ele>604.0</ele><time>2026-04-18T12:19:45.001Z</time></trkpt><trkpt lat="45.49172961455462" lon="7.942187446180833"><ele>604.0</ele><time>2026-04-18T12:19:51.002Z</time></trkpt><trkpt lat="45.491740911222415" lon="7.942088445761032"><ele>604.0</ele><time>2026-04-18T12:20:17.002Z</time></trkpt><trkpt lat="45.49176376625236" lon="7.941993213951579"><ele>604.0</ele><time>2026-04-18T12:20:20.003Z</time></trkpt><trkpt lat="45.49181319525476" lon="7.9418354667030355"><ele>604.0</ele><time>2026-04-18T12:20:22.003Z</time></trkpt><trkpt lat="45.491877358871385" lon="7.941765225310231"><ele>604.0</ele><time>2026-04-18T12:20:24.003Z</time></trkpt><trkpt lat="45.491929452541385" lon="7.941707496556475"><ele>604.0</ele><time>2026-04-18T12:20:26.003Z</time></trkpt><trkpt lat="45.49197432358343" lon="7.941623280071447"><ele>604.0</ele><time>2026-04-18T12:20:29.003Z</time></trkpt><trkpt lat="45.492031046035216" lon="7.941533569162983"><ele>602.5</ele><time>2026-04-18T12:20:33.003Z</time></trkpt><trkpt lat="45.492081825330914" lon="7.941456501276598"><ele>601.0</ele><time>2026-04-18T12:20:36.003Z</time></trkpt><trkpt lat="45.492145175943584" lon="7.94142416331881"><ele>599.5</ele><time>2026-04-18T12:20:38.003Z</time></trkpt><trkpt lat="45.49220845882454" lon="7.941385060960189"><ele>598.0</ele><time>2026-04-18T12:20:40.003Z</time></trkpt><trkpt lat="45.4922817333167" lon="7.94131087798285"><ele>596.5</ele><time>2026-04-18T12:20:42.003Z</time></trkpt><trkpt lat="45.49239552485024" lon="7.941288579077156"><ele>595.0</ele><time>2026-04-18T12:20:45.003Z</time></trkpt><trkpt lat="45.492470437141435" lon="7.941251285652581"><ele>604.5</ele><time>2026-04-18T12:20:49.003Z</time></trkpt><trkpt lat="45.49258513410225" lon="7.941229039038999"><ele>614.0</ele><time>2026-04-18T12:20:53.004Z</time></trkpt><trkpt lat="45.492724314803326" lon="7.941181719036351"><ele>623.5</ele><time>2026-04-18T12:20:58Z</time></trkpt><trkpt lat="45.49279306190067" lon="7.94117138045808"><ele>633.0</ele><time>2026-04-18T12:21:00Z</time></trkpt><trkpt lat="45.49297548425558" lon="7.94120221144553"><ele>635.6666666666666</ele><time>2026-04-18T12:21:10Z</time></trkpt><trkpt lat="45.49306844222757" lon="7.941122916033486"><ele>638.3333333333334</ele><time>2026-04-18T12:22:34.003Z</time></trkpt><trkpt lat="45.49316988318407" lon="7.941119558648159"><ele>641.0</ele><time>2026-04-18T12:22:39.003Z</time></trkpt><trkpt lat="45.49324826886989" lon="7.9411179277706765"><ele>643.6666666666667</ele><time>2026-04-18T12:22:41.003Z</time></trkpt><trkpt lat="45.49331955123286" lon="7.941097100317615"><ele>646.3333333333334</ele><time>2026-04-18T12:22:43.003Z</time></trkpt><trkpt lat="45.49337551390624" lon="7.941143105652516"><ele>649.0</ele><time>2026-04-18T12:22:46.003Z</time></trkpt><trkpt lat="45.493410451837" lon="7.9412501183103705"><ele>649.0</ele><time>2026-04-18T12:22:48.003Z</time></trkpt><trkpt lat="45.493493389903485" lon="7.941343997428843"><ele>649.0</ele><time>2026-04-18T12:22:50.003Z</time></trkpt><trkpt lat="45.493564336235245" lon="7.941397528248943"><ele>649.0</ele><time>2026-04-18T12:22:52.003Z</time></trkpt><trkpt lat="45.49362847598213" lon="7.941342218449374"><ele>649.0</ele><time>2026-04-18T12:22:54.003Z</time></trkpt><trkpt lat="45.49368714037161" lon="7.941241516031311"><ele>649.0</ele><time>2026-04-18T12:22:56.003Z</time></trkpt><trkpt lat="45.49371732664843" lon="7.941145250372367"><ele>649.0</ele><time>2026-04-18T12:22:58.003Z</time></trkpt><trkpt lat="45.49376430709613" lon="7.941070021204901"><ele>649.0</ele><time>2026-04-18T12:23:00.003Z</time></trkpt><trkpt lat="45.49380928581299" lon="7.9409826480221835"><ele>649.0</ele><time>2026-04-18T12:23:02.004Z</time></trkpt><trkpt lat="45.49388236638184" lon="7.940928546003328"><ele>649.0</ele><time>2026-04-18T12:23:04Z</time></trkpt><trkpt lat="45.493952234016874" lon="7.940888048059441"><ele>649.0</ele><time>2026-04-18T12:23:06Z</time></trkpt><trkpt lat="45.493996107957955" lon="7.940789859272333"><ele>649.0</ele><time>2026-04-18T12:23:08Z</time></trkpt><trkpt lat="45.49403947066296" lon="7.940673317158445"><ele>649.0</ele><time>2026-04-18T12:23:10Z</time></trkpt><trkpt lat="45.49410477000791" lon="7.940559543946402"><ele>649.2</ele><time>2026-04-18T12:23:12Z</time></trkpt><trkpt lat="45.494146632337646" lon="7.940455167237947"><ele>649.4000000000001</ele><time>2026-04-18T12:23:14Z</time></trkpt><trkpt lat="45.494179885842954" lon="7.940310879395225"><ele>649.6</ele><time>2026-04-18T12:23:16Z</time></trkpt><trkpt lat="45.494198220474324" lon="7.940170899756043"><ele>649.8</ele><time>2026-04-18T12:23:18Z</time></trkpt><trkpt lat="45.4942799760785" lon="7.940078205898979"><ele>650.0</ele><time>2026-04-18T12:23:20Z</time></trkpt><trkpt lat="45.494370546919875" lon="7.940060962374535"><ele>650.0</ele><time>2026-04-18T12:23:21Z</time></trkpt><trkpt lat="45.49444134981937" lon="7.940053467195165"><ele>650.0</ele><time>2026-04-18T12:23:22Z</time></trkpt><trkpt lat="45.49452881100991" lon="7.940045922450669"><ele>650.0</ele><time>2026-04-18T12:23:23Z</time></trkpt><trkpt lat="45.494605008392355" lon="7.940023743988296"><ele>650.0</ele><time>2026-04-18T12:23:24Z</time></trkpt><trkpt lat="45.49467744254658" lon="7.940041372480654"><ele>650.0</ele><time>2026-04-18T12:23:25Z</time></trkpt><trkpt lat="45.49476096162073" lon="7.940044975036283"><ele>650.0</ele><time>2026-04-18T12:23:26.001Z</time></trkpt><trkpt lat="45.494855030931156" lon="7.940096612551318"><ele>650.8</ele><time>2026-04-18T12:23:28.001Z</time></trkpt><trkpt lat="45.494941584933166" lon="7.940174631798181"><ele>651.6</ele><time>2026-04-18T12:23:30.001Z</time></trkpt><trkpt lat="45.49504439902708" lon="7.940142330268762"><ele>652.4000000000001</ele><time>2026-04-18T12:23:32.001Z</time></trkpt><trkpt lat="45.49511363281193" lon="7.940034823191807"><ele>653.2</ele><time>2026-04-18T12:23:34.001Z</time></trkpt><trkpt lat="45.49511682969685" lon="7.939941973806251"><ele>654.0</ele><time>2026-04-18T12:23:36.001Z</time></trkpt><trkpt lat="45.495137134542894" lon="7.939824370517569"><ele>654.0</ele><time>2026-04-18T12:23:39.001Z</time></trkpt><trkpt lat="45.49508343268753" lon="7.939759765983479"><ele>654.0</ele><time>2026-04-18T12:23:41.001Z</time></trkpt><trkpt lat="45.49505858922419" lon="7.939666689383483"><ele>654.0</ele><time>2026-04-18T12:23:43.001Z</time></trkpt><trkpt lat="45.49501594032666" lon="7.939526668735389"><ele>654.0</ele><time>2026-04-18T12:23:45.001Z</time></trkpt><trkpt lat="45.494973127167405" lon="7.93941921926329"><ele>654.0</ele><time>2026-04-18T12:23:47.001Z</time></trkpt><trkpt lat="45.494962813141704" lon="7.939322589022418"><ele>654.0</ele><time>2026-04-18T12:23:48.001Z</time></trkpt><trkpt lat="45.49493862493488" lon="7.939214535549914"><ele>653.2</ele><time>2026-04-18T12:23:49.001Z</time></trkpt><trkpt lat="45.49493417441779" lon="7.939084649236881"><ele>652.4000000000001</ele><time>2026-04-18T12:23:51.001Z</time></trkpt><trkpt lat="45.49500090478934" lon="7.9389406948387045"><ele>651.6</ele><time>2026-04-18T12:23:53.001Z</time></trkpt><trkpt lat="45.49505657221112" lon="7.938875939764882"><ele>650.8</ele><time>2026-04-18T12:23:55.001Z</time></trkpt><trkpt lat="45.49514528617448" lon="7.938809340454857"><ele>650.0</ele><time>2026-04-18T12:23:58.002Z</time></trkpt><trkpt lat="45.495210545284365" lon="7.938793664069404"><ele>650.0</ele><time>2026-04-18T12:24:00.002Z</time></trkpt><trkpt lat="45.49530082008581" lon="7.938795892575351"><ele>650.0</ele><time>2026-04-18T12:24:02.002Z</time></trkpt><trkpt lat="45.49538413715607" lon="7.938874635863409"><ele>650.0</ele><time>2026-04-18T12:24:04.002Z</time></trkpt><trkpt lat="45.49546260886824" lon="7.938815415141105"><ele>650.0</ele><time>2026-04-18T12:24:08.002Z</time></trkpt><trkpt lat="45.49552274680008" lon="7.938745020136246"><ele>650.0</ele><time>2026-04-18T12:24:10.002Z</time></trkpt><trkpt lat="45.49571094994626" lon="7.938758847749027"><ele>651.0</ele><time>2026-04-18T12:24:13.002Z</time></trkpt><trkpt lat="45.49577557901148" lon="7.938781937938737"><ele>652.0</ele><time>2026-04-18T12:24:14.002Z</time></trkpt><trkpt lat="45.49583884146814" lon="7.93874762491713"><ele>653.0</ele><time>2026-04-18T12:24:17.002Z</time></trkpt><trkpt lat="45.49589877719766" lon="7.938672825065498"><ele>654.0</ele><time>2026-04-18T12:24:19.002Z</time></trkpt><trkpt lat="45.495969777626" lon="7.9386512364547475"><ele>655.0</ele><time>2026-04-18T12:24:21.002Z</time></trkpt><trkpt lat="45.49602941718925" lon="7.938616889417012"><ele>656.0</ele><time>2026-04-18T12:24:23.002Z</time></trkpt><trkpt lat="45.49610402888077" lon="7.938604769008625"><ele>657.0</ele><time>2026-04-18T12:24:29.002Z</time></trkpt><trkpt lat="45.496304133214295" lon="7.9384891708372445"><ele>658.5</ele><time>2026-04-18T12:25:04.004Z</time></trkpt><trkpt lat="45.49637626023494" lon="7.938444153778282"><ele>660.0</ele><time>2026-04-18T12:25:43.001Z</time></trkpt><trkpt lat="45.49641752764766" lon="7.938359293696949"><ele>661.5</ele><time>2026-04-18T12:25:47.001Z</time></trkpt><trkpt lat="45.49644400145964" lon="7.938253139859013"><ele>663.0</ele><time>2026-04-18T12:25:49.001Z</time></trkpt><trkpt lat="45.49648418646087" lon="7.93816267237441"><ele>664.5</ele><time>2026-04-18T12:25:51.001Z</time></trkpt><trkpt lat="45.496498844481415" lon="7.938042836932956"><ele>666.0</ele><time>2026-04-18T12:25:53.001Z</time></trkpt><trkpt lat="45.496551141800964" lon="7.937955901922756"><ele>666.0</ele><time>2026-04-18T12:25:55.001Z</time></trkpt><trkpt lat="45.49660666479872" lon="7.93786925445785"><ele>666.0</ele><time>2026-04-18T12:25:57.001Z</time></trkpt><trkpt lat="45.49669245536052" lon="7.937806111689871"><ele>666.0</ele><time>2026-04-18T12:26:00.001Z</time></trkpt><trkpt lat="45.49674557724476" lon="7.937667523220629"><ele>666.0</ele><time>2026-04-18T12:26:02.001Z</time></trkpt><trkpt lat="45.49679195116606" lon="7.937567064352296"><ele>666.0</ele><time>2026-04-18T12:26:03.001Z</time></trkpt><trkpt lat="45.49681276625261" lon="7.93742364852348"><ele>665.3333333333334</ele><time>2026-04-18T12:26:05.002Z</time></trkpt><trkpt lat="45.496834723783714" lon="7.937323441877405"><ele>664.6666666666666</ele><time>2026-04-18T12:26:07.002Z</time></trkpt><trkpt lat="45.49688644857701" lon="7.937252911068672"><ele>664.0</ele><time>2026-04-18T12:26:09.002Z</time></trkpt><trkpt lat="45.49695264823213" lon="7.937143784186987"><ele>663.3333333333333</ele><time>2026-04-18T12:26:11.002Z</time></trkpt><trkpt lat="45.49700505480799" lon="7.937042201141576"><ele>662.6666666666666</ele><time>2026-04-18T12:26:12.002Z</time></trkpt><trkpt lat="45.497052285235256" lon="7.936970505894301"><ele>662.0</ele><time>2026-04-18T12:26:13.002Z</time></trkpt><trkpt lat="45.497121118156144" lon="7.936948667078224"><ele>663.8</ele><time>2026-04-18T12:26:15.002Z</time></trkpt><trkpt lat="45.4972217556144" lon="7.936962022310815"><ele>665.6</ele><time>2026-04-18T12:26:18.002Z</time></trkpt><trkpt lat="45.49732553773415" lon="7.936986606516413"><ele>667.4</ele><time>2026-04-18T12:26:20.002Z</time></trkpt><trkpt lat="45.49743993950755" lon="7.937039462187021"><ele>669.1999999999999</ele><time>2026-04-18T12:26:22.002Z</time></trkpt><trkpt lat="45.4975341081093" lon="7.93711772707228"><ele>671.0</ele><time>2026-04-18T12:26:24.002Z</time></trkpt><trkpt lat="45.49765603727657" lon="7.93707193719915"><ele>671.0</ele><time>2026-04-18T12:26:28.002Z</time></trkpt><trkpt lat="45.49772364252966" lon="7.937064760706778"><ele>671.0</ele><time>2026-04-18T12:26:30.002Z</time></trkpt><trkpt lat="45.49779748822155" lon="7.937076150639922"><ele>671.0</ele><time>2026-04-18T12:26:32.002Z</time></trkpt><trkpt lat="45.49787716390189" lon="7.937086668920209"><ele>671.0</ele><time>2026-04-18T12:26:35.002Z</time></trkpt><trkpt lat="45.49794909221063" lon="7.937123960150936"><ele>671.0</ele><time>2026-04-18T12:26:38.003Z</time></trkpt><trkpt lat="45.49810407703141" lon="7.93710443705779"><ele>671.8333333333333</ele><time>2026-04-18T12:26:46.003Z</time></trkpt><trkpt lat="45.49811402966166" lon="7.937013643203791"><ele>672.6666666666666</ele><time>2026-04-18T12:26:50.003Z</time></trkpt><trkpt lat="45.498145693375854" lon="7.936923761767149"><ele>673.5</ele><time>2026-04-18T12:26:53.003Z</time></trkpt><trkpt lat="45.49819563020563" lon="7.936834109802879"><ele>674.3333333333334</ele><time>2026-04-18T12:26:56.003Z</time></trkpt><trkpt lat="45.498249230637946" lon="7.936716362462063"><ele>675.1666666666667</ele><time>2026-04-18T12:26:59.003Z</time></trkpt><trkpt lat="45.49831302345551" lon="7.9366567015511"><ele>676.0</ele><time>2026-04-18T12:27:01.003Z</time></trkpt><trkpt lat="45.49835833681575" lon="7.936588377426411"><ele>676.0</ele><time>2026-04-18T12:27:03.003Z</time></trkpt><trkpt lat="45.49842030377455" lon="7.936509823870875"><ele>676.0</ele><time>2026-04-18T12:27:06.003Z</time></trkpt><trkpt lat="45.498497147778494" lon="7.936414191947765"><ele>676.0</ele><time>2026-04-18T12:27:08.003Z</time></trkpt><trkpt lat="45.49854251377998" lon="7.936325102758343"><ele>676.0</ele><time>2026-04-18T12:27:11.004Z</time></trkpt><trkpt lat="45.49859394915427" lon="7.936261571355005"><ele>676.0</ele><time>2026-04-18T12:27:16Z</time></trkpt><trkpt lat="45.49855134396344" lon="7.936163591544866"><ele>676.0</ele><time>2026-04-18T12:27:21Z</time></trkpt><trkpt lat="45.498530129517526" lon="7.9360671959715825"><ele>676.0</ele><time>2026-04-18T12:27:25Z</time></trkpt><trkpt lat="45.498564323790355" lon="7.935975114705323"><ele>676.0</ele><time>2026-04-18T12:27:28Z</time></trkpt><trkpt lat="45.49856571575416" lon="7.935882636378586"><ele>676.0</ele><time>2026-04-18T12:27:36Z</time></trkpt><trkpt lat="45.498635073293" lon="7.935846199570125"><ele>676.0</ele><time>2026-04-18T12:28:33.002Z</time></trkpt><trkpt lat="45.49871912408959" lon="7.935681610516192"><ele>676.0</ele><time>2026-04-18T12:28:39.002Z</time></trkpt><trkpt lat="45.49878254416143" lon="7.935590617356979"><ele>676.0</ele><time>2026-04-18T12:28:43.002Z</time></trkpt><trkpt lat="45.498835384314205" lon="7.935521222138666"><ele>676.1666666666667</ele><time>2026-04-18T12:28:45.003Z</time></trkpt><trkpt lat="45.498901637271075" lon="7.935420476235988"><ele>676.3333333333334</ele><time>2026-04-18T12:28:48.003Z</time></trkpt><trkpt lat="45.49895350102738" lon="7.935315828060566"><ele>676.5</ele><time>2026-04-18T12:28:51.003Z</time></trkpt><trkpt lat="45.49901302950512" lon="7.935234160552742"><ele>676.6666666666666</ele><time>2026-04-18T12:28:53.003Z</time></trkpt><trkpt lat="45.499083420205096" lon="7.935178265171714"><ele>676.8333333333333</ele><time>2026-04-18T12:28:55.003Z</time></trkpt><trkpt lat="45.49913185177844" lon="7.935094486838735"><ele>677.0</ele><time>2026-04-18T12:28:57.003Z</time></trkpt><trkpt lat="45.499177408068924" lon="7.934988694141263"><ele>677.0</ele><time>2026-04-18T12:28:59.003Z</time></trkpt><trkpt lat="45.4992319906954" lon="7.934900485872681"><ele>677.0</ele><time>2026-04-18T12:29:01.003Z</time></trkpt><trkpt lat="45.49928276124726" lon="7.9347893029643535"><ele>677.0</ele><time>2026-04-18T12:29:03.003Z</time></trkpt><trkpt lat="45.4993653481445" lon="7.934683112609659"><ele>677.0</ele><time>2026-04-18T12:29:05.003Z</time></trkpt><trkpt lat="45.49941448801393" lon="7.934576239441603"><ele>677.0</ele><time>2026-04-18T12:29:07.003Z</time></trkpt><trkpt lat="45.49946482721066" lon="7.934433998396188"><ele>677.0</ele><time>2026-04-18T12:29:09.003Z</time></trkpt><trkpt lat="45.49955468496981" lon="7.9343101819020525"><ele>677.0</ele><time>2026-04-18T12:29:11.003Z</time></trkpt><trkpt lat="45.49963371519419" lon="7.934219151088101"><ele>677.0</ele><time>2026-04-18T12:29:13.003Z</time></trkpt><trkpt lat="45.499700296373625" lon="7.934101778538148"><ele>677.0</ele><time>2026-04-18T12:29:15.003Z</time></trkpt><trkpt lat="45.49976359032366" lon="7.933983001106297"><ele>677.0</ele><time>2026-04-18T12:29:17.004Z</time></trkpt><trkpt lat="45.49981303573277" lon="7.93391166708311"><ele>675.6</ele><time>2026-04-18T12:29:18.004Z</time></trkpt><trkpt lat="45.49988145890845" lon="7.933787528534039"><ele>674.2</ele><time>2026-04-18T12:29:20.004Z</time></trkpt><trkpt lat="45.49992495034301" lon="7.933672628549356"><ele>672.8</ele><time>2026-04-18T12:29:22Z</time></trkpt><trkpt lat="45.499988576294534" lon="7.933539844561772"><ele>671.4</ele><time>2026-04-18T12:29:24Z</time></trkpt><trkpt lat="45.500037933757135" lon="7.933420353608446"><ele>670.0</ele><time>2026-04-18T12:29:26Z</time></trkpt><trkpt lat="45.50006808819138" lon="7.93333351282722"><ele>670.0</ele><time>2026-04-18T12:29:28Z</time></trkpt><trkpt lat="45.50009814251018" lon="7.933234861815198"><ele>670.0</ele><time>2026-04-18T12:29:30Z</time></trkpt><trkpt lat="45.50011630297294" lon="7.933115150926257"><ele>670.0</ele><time>2026-04-18T12:29:32Z</time></trkpt><trkpt lat="45.50015365579933" lon="7.933024014577024"><ele>670.0</ele><time>2026-04-18T12:29:35Z</time></trkpt><trkpt lat="45.50016109569089" lon="7.932908350285459"><ele>670.0</ele><time>2026-04-18T12:29:37Z</time></trkpt><trkpt lat="45.50017204814445" lon="7.932801141960736"><ele>670.0</ele><time>2026-04-18T12:29:39Z</time></trkpt><trkpt lat="45.50019745293057" lon="7.932684245268691"><ele>670.0</ele><time>2026-04-18T12:29:43Z</time></trkpt><trkpt lat="45.50024402035766" lon="7.932580377257831"><ele>670.0</ele><time>2026-04-18T12:29:46Z</time></trkpt><trkpt lat="45.50025836975556" lon="7.932454518051485"><ele>670.0</ele><time>2026-04-18T12:29:49Z</time></trkpt><trkpt lat="45.500290378170824" lon="7.932368319262474"><ele>670.0</ele><time>2026-04-18T12:29:51.001Z</time></trkpt><trkpt lat="45.500295138477256" lon="7.932275233249178"><ele>670.0</ele><time>2026-04-18T12:29:53.001Z</time></trkpt><trkpt lat="45.50026957625805" lon="7.932180427997255"><ele>670.0</ele><time>2026-04-18T12:29:55.001Z</time></trkpt><trkpt lat="45.50028729574143" lon="7.932048288116382"><ele>671.5</ele><time>2026-04-18T12:29:57.001Z</time></trkpt><trkpt lat="45.50031629966097" lon="7.9319120633487925"><ele>673.0</ele><time>2026-04-18T12:29:59.001Z</time></trkpt><trkpt lat="45.500356719943696" lon="7.931805898518631"><ele>674.5</ele><time>2026-04-18T12:30:01.001Z</time></trkpt><trkpt lat="45.50036050765854" lon="7.931700857162401"><ele>676.0</ele><time>2026-04-18T12:30:03.001Z</time></trkpt><trkpt lat="45.50041597163761" lon="7.93165597162055"><ele>677.5</ele><time>2026-04-18T12:30:05.001Z</time></trkpt><trkpt lat="45.500474908114036" lon="7.931704582504359"><ele>679.0</ele><time>2026-04-18T12:30:07.001Z</time></trkpt><trkpt lat="45.50054553898582" lon="7.9317587767834095"><ele>680.2857142857143</ele><time>2026-04-18T12:30:09.001Z</time></trkpt><trkpt lat="45.50053579947791" lon="7.931855962558392"><ele>681.5714285714286</ele><time>2026-04-18T12:30:13.001Z</time></trkpt><trkpt lat="45.500502639208726" lon="7.93194579915196"><ele>682.8571428571429</ele><time>2026-04-18T12:30:17.001Z</time></trkpt><trkpt lat="45.5004893049671" lon="7.932042981561592"><ele>684.1428571428571</ele><time>2026-04-18T12:30:19.001Z</time></trkpt><trkpt lat="45.50045695116031" lon="7.93213272218279"><ele>685.4285714285714</ele><time>2026-04-18T12:30:22.002Z</time></trkpt><trkpt lat="45.50042472637961" lon="7.93223284110703"><ele>686.7142857142858</ele><time>2026-04-18T12:30:25.002Z</time></trkpt><trkpt lat="45.50041860316267" lon="7.932322887524605"><ele>688.0</ele><time>2026-04-18T12:30:27.002Z</time></trkpt><trkpt lat="45.50039809061973" lon="7.932409504242589"><ele>685.0</ele><time>2026-04-18T12:30:29.002Z</time></trkpt><trkpt lat="45.50039169945323" lon="7.932507311710206"><ele>682.0</ele><time>2026-04-18T12:30:31.002Z</time></trkpt><trkpt lat="45.50039966665681" lon="7.932636383157782"><ele>679.0</ele><time>2026-04-18T12:30:34.002Z</time></trkpt><trkpt lat="45.50040414519231" lon="7.932732627636523"><ele>676.0</ele><time>2026-04-18T12:30:37.002Z</time></trkpt><trkpt lat="45.50038892721727" lon="7.932855280828005"><ele>673.0</ele><time>2026-04-18T12:30:41.002Z</time></trkpt><trkpt lat="45.50036345150217" lon="7.93296006999351"><ele>670.0</ele><time>2026-04-18T12:30:44.002Z</time></trkpt><trkpt lat="45.5003168913627" lon="7.933044940117248"><ele>670.0</ele><time>2026-04-18T12:30:47.002Z</time></trkpt><trkpt lat="45.50032578613193" lon="7.933175495535696"><ele>670.0</ele><time>2026-04-18T12:30:50.002Z</time></trkpt><trkpt lat="45.50032669206491" lon="7.9332851660627295"><ele>670.0</ele><time>2026-04-18T12:30:53.003Z</time></trkpt><trkpt lat="45.50036869867053" lon="7.9333914357675"><ele>670.0</ele><time>2026-04-18T12:30:56.003Z</time></trkpt><trkpt lat="45.50034198583325" lon="7.933490906902249"><ele>670.0</ele><time>2026-04-18T12:30:59.003Z</time></trkpt><trkpt lat="45.500299906280844" lon="7.933579488549055"><ele>670.0</ele><time>2026-04-18T12:31:01.003Z</time></trkpt><trkpt lat="45.50026246717502" lon="7.933689304882377"><ele>673.3333333333334</ele><time>2026-04-18T12:31:03.003Z</time></trkpt><trkpt lat="45.50021664735292" lon="7.933786601466126"><ele>676.6666666666667</ele><time>2026-04-18T12:31:05.003Z</time></trkpt><trkpt lat="45.500150499361304" lon="7.933887804767062"><ele>680.0</ele><time>2026-04-18T12:31:07.003Z</time></trkpt><trkpt lat="45.500098210947485" lon="7.933990004855577"><ele>683.3333333333334</ele><time>2026-04-18T12:31:08.003Z</time></trkpt><trkpt lat="45.500050447347675" lon="7.934067833767815"><ele>686.6666666666666</ele><time>2026-04-18T12:31:09.003Z</time></trkpt><trkpt lat="45.50001650006183" lon="7.934201075985672"><ele>690.0</ele><time>2026-04-18T12:31:11.003Z</time></trkpt><trkpt lat="45.499998905321" lon="7.934319913835664"><ele>691.3333333333334</ele><time>2026-04-18T12:31:13.003Z</time></trkpt><trkpt lat="45.49993564541165" lon="7.934450305430415"><ele>692.6666666666666</ele><time>2026-04-18T12:31:15.003Z</time></trkpt><trkpt lat="45.49991002470361" lon="7.9346150376796905"><ele>694.0</ele><time>2026-04-18T12:31:17.003Z</time></trkpt><trkpt lat="45.499897320636045" lon="7.934708738334306"><ele>695.3333333333333</ele><time>2026-04-18T12:31:18.003Z</time></trkpt><trkpt lat="45.49987936464719" lon="7.934811058974876"><ele>696.6666666666666</ele><time>2026-04-18T12:31:19.003Z</time></trkpt><trkpt lat="45.499846540001926" lon="7.934912533542396"><ele>698.0</ele><time>2026-04-18T12:31:21.003Z</time></trkpt><trkpt lat="45.499831722557" lon="7.93503245058031"><ele>697.1428571428571</ele><time>2026-04-18T12:31:23.003Z</time></trkpt><trkpt lat="45.49987978299801" lon="7.935138939234433"><ele>696.2857142857142</ele><time>2026-04-18T12:31:25.003Z</time></trkpt><trkpt lat="45.49987183173718" lon="7.935234236958648"><ele>695.4285714285713</ele><time>2026-04-18T12:31:29.999Z</time></trkpt><trkpt lat="45.49984960893016" lon="7.935331402485891"><ele>694.5714285714286</ele><time>2026-04-18T12:31:48Z</time></trkpt><trkpt lat="45.499882025395706" lon="7.935422623755448"><ele>693.7142857142858</ele><time>2026-04-18T12:31:53Z</time></trkpt><trkpt lat="45.499925649301595" lon="7.935505077916845"><ele>692.8571428571428</ele><time>2026-04-18T12:31:56Z</time></trkpt><trkpt lat="45.49995272612257" lon="7.935591169508957"><ele>692.0</ele><time>2026-04-18T12:31:58.001Z</time></trkpt><trkpt lat="45.50001199990331" lon="7.9356759136995905"><ele>692.0</ele><time>2026-04-18T12:32:01.001Z</time></trkpt><trkpt lat="45.50002861704674" lon="7.935794601274588"><ele>692.0</ele><time>2026-04-18T12:32:05.001Z</time></trkpt><trkpt lat="45.500020774227835" lon="7.935900013957952"><ele>692.0</ele><time>2026-04-18T12:32:07.001Z</time></trkpt><trkpt lat="45.50002646971979" lon="7.935997046317075"><ele>692.0</ele><time>2026-04-18T12:32:10.001Z</time></trkpt><trkpt lat="45.50001303508815" lon="7.9360949567622665"><ele>692.0</ele><time>2026-04-18T12:32:12.001Z</time></trkpt><trkpt lat="45.50000844290935" lon="7.936210556293279"><ele>692.0</ele><time>2026-04-18T12:32:15.001Z</time></trkpt><trkpt lat="45.49998158596661" lon="7.936322799922205"><ele>690.0</ele><time>2026-04-18T12:32:17.001Z</time></trkpt><trkpt lat="45.49997249980492" lon="7.936434071140324"><ele>688.0</ele><time>2026-04-18T12:32:19.001Z</time></trkpt><trkpt lat="45.499964689553806" lon="7.936538832683569"><ele>686.0</ele><time>2026-04-18T12:32:22.001Z</time></trkpt><trkpt lat="45.499954827249695" lon="7.936628866285972"><ele>684.0</ele><time>2026-04-18T12:32:24.002Z</time></trkpt><trkpt lat="45.49993185282144" lon="7.93676161735624"><ele>682.0</ele><time>2026-04-18T12:32:26.002Z</time></trkpt><trkpt lat="45.499905988687935" lon="7.93687860263334"><ele>680.0</ele><time>2026-04-18T12:32:28.002Z</time></trkpt><trkpt lat="45.499860807197116" lon="7.937002365320283"><ele>677.75</ele><time>2026-04-18T12:32:30.002Z</time></trkpt><trkpt lat="45.499827855276884" lon="7.9371035897364655"><ele>675.5</ele><time>2026-04-18T12:32:32.002Z</time></trkpt><trkpt lat="45.49982632861357" lon="7.937200839391239"><ele>673.25</ele><time>2026-04-18T12:32:34.002Z</time></trkpt><trkpt lat="45.499804829102004" lon="7.937323750296126"><ele>671.0</ele><time>2026-04-18T12:32:37.002Z</time></trkpt><trkpt lat="45.49978415391444" lon="7.937655712134093"><ele>670.6666666666666</ele><time>2026-04-18T12:33:11.003Z</time></trkpt><trkpt lat="45.49974397473082" lon="7.937727415974652"><ele>670.3333333333333</ele><time>2026-04-18T12:33:58Z</time></trkpt><trkpt lat="45.499732444573354" lon="7.937817764848677"><ele>670.0</ele><time>2026-04-18T12:34:08.001Z</time></trkpt><trkpt lat="45.499709180312706" lon="7.937913048035426"><ele>669.6666666666666</ele><time>2026-04-18T12:34:15.001Z</time></trkpt><trkpt lat="45.499690993438726" lon="7.9380022908112435"><ele>669.3333333333334</ele><time>2026-04-18T12:34:22.001Z</time></trkpt><trkpt lat="45.499753098993814" lon="7.937947319062949"><ele>669.0</ele><time>2026-04-18T12:35:52Z</time></trkpt><trkpt lat="45.49978213629914" lon="7.937757146424245"><ele>669.0</ele><time>2026-04-18T12:36:58.002Z</time></trkpt><trkpt lat="45.49974927150113" lon="7.937836966495199"><ele>669.0</ele><time>2026-04-18T12:37:36.004Z</time></trkpt><trkpt lat="45.499695982503624" lon="7.937962892321146"><ele>669.0</ele><time>2026-04-18T12:37:39.004Z</time></trkpt><trkpt lat="45.49964117234978" lon="7.938040093498922"><ele>669.0</ele><time>2026-04-18T12:37:41.004Z</time></trkpt><trkpt lat="45.49960029223667" lon="7.938113124196614"><ele>669.0</ele><time>2026-04-18T12:37:43.004Z</time></trkpt><trkpt lat="45.49952985346" lon="7.938189504279543"><ele>669.0</ele><time>2026-04-18T12:37:45.004Z</time></trkpt><trkpt lat="45.49947849379535" lon="7.938247472992965"><ele>668.2</ele><time>2026-04-18T12:37:48Z</time></trkpt><trkpt lat="45.49945810298903" lon="7.9384206057812206"><ele>667.4000000000001</ele><time>2026-04-18T12:39:18.002Z</time></trkpt><trkpt lat="45.49939701768146" lon="7.938479525180433"><ele>666.6</ele><time>2026-04-18T12:39:29.003Z</time></trkpt><trkpt lat="45.49934791262435" lon="7.938588380540155"><ele>665.8</ele><time>2026-04-18T12:40:35.001Z</time></trkpt><trkpt lat="45.49927795171006" lon="7.938731803093683"><ele>665.0</ele><time>2026-04-18T12:40:37.001Z</time></trkpt><trkpt lat="45.49920328823981" lon="7.938868766162632"><ele>665.0</ele><time>2026-04-18T12:40:39.001Z</time></trkpt><trkpt lat="45.49913254623615" lon="7.938973650800775"><ele>665.0</ele><time>2026-04-18T12:40:41.001Z</time></trkpt><trkpt lat="45.49908023889037" lon="7.939041512558015"><ele>665.0</ele><time>2026-04-18T12:40:42.001Z</time></trkpt><trkpt lat="45.49901219218497" lon="7.9390737866204075"><ele>665.0</ele><time>2026-04-18T12:40:44.001Z</time></trkpt><trkpt lat="45.49897163470474" lon="7.938974785967478"><ele>665.0</ele><time>2026-04-18T12:40:46.001Z</time></trkpt><trkpt lat="45.49890436772165" lon="7.938936533333624"><ele>665.0</ele><time>2026-04-18T12:40:48.002Z</time></trkpt><trkpt lat="45.49883990889567" lon="7.938956689257268"><ele>666.0</ele><time>2026-04-18T12:40:49.002Z</time></trkpt><trkpt lat="45.49872724339947" lon="7.938954314132284"><ele>667.0</ele><time>2026-04-18T12:40:51.002Z</time></trkpt><trkpt lat="45.49865012943547" lon="7.939041424317668"><ele>668.0</ele><time>2026-04-18T12:40:53.002Z</time></trkpt><trkpt lat="45.49855314801819" lon="7.939131022799565"><ele>669.0</ele><time>2026-04-18T12:40:55.002Z</time></trkpt><trkpt lat="45.498474311645715" lon="7.939231562333123"><ele>670.0</ele><time>2026-04-18T12:40:57.002Z</time></trkpt><trkpt lat="45.4984075900355" lon="7.939250341007489"><ele>670.0</ele><time>2026-04-18T12:40:58.002Z</time></trkpt><trkpt lat="45.49834435541762" lon="7.939287211172188"><ele>670.0</ele><time>2026-04-18T12:40:59.002Z</time></trkpt><trkpt lat="45.49825425326089" lon="7.939370134880521"><ele>670.0</ele><time>2026-04-18T12:41:01.002Z</time></trkpt><trkpt lat="45.49816619180323" lon="7.939451486568215"><ele>670.0</ele><time>2026-04-18T12:41:03.002Z</time></trkpt><trkpt lat="45.498100301518356" lon="7.939491317436513"><ele>670.0</ele><time>2026-04-18T12:41:04.002Z</time></trkpt><trkpt lat="45.49803143870366" lon="7.939480195011476"><ele>670.0</ele><time>2026-04-18T12:41:05.002Z</time></trkpt><trkpt lat="45.49795119494907" lon="7.9394648213706605"><ele>673.4</ele><time>2026-04-18T12:41:07.002Z</time></trkpt><trkpt lat="45.49786239523683" lon="7.9394940413971495"><ele>676.8</ele><time>2026-04-18T12:41:09.002Z</time></trkpt><trkpt lat="45.49776879398196" lon="7.939531520508252"><ele>680.2</ele><time>2026-04-18T12:41:11.002Z</time></trkpt><trkpt lat="45.49769526725544" lon="7.939577557128481"><ele>683.6</ele><time>2026-04-18T12:41:13.002Z</time></trkpt><trkpt lat="45.497556391371575" lon="7.939727981787761"><ele>687.0</ele><time>2026-04-18T12:41:15.002Z</time></trkpt><trkpt lat="45.49746108562887" lon="7.939782159685295"><ele>687.0</ele><time>2026-04-18T12:41:16.002Z</time></trkpt><trkpt lat="45.497411106410254" lon="7.939838347789263"><ele>687.0</ele><time>2026-04-18T12:41:17.002Z</time></trkpt><trkpt lat="45.49735680144667" lon="7.939946812952636"><ele>687.0</ele><time>2026-04-18T12:41:19.002Z</time></trkpt><trkpt lat="45.49731081786531" lon="7.940010981082468"><ele>687.0</ele><time>2026-04-18T12:41:20.002Z</time></trkpt><trkpt lat="45.497256423601996" lon="7.940092499991611"><ele>687.0</ele><time>2026-04-18T12:41:22.002Z</time></trkpt><trkpt lat="45.497197294060086" lon="7.940183448229743"><ele>687.0</ele><time>2026-04-18T12:41:25.002Z</time></trkpt><trkpt lat="45.4971592089843" lon="7.940271297605917"><ele>686.5</ele><time>2026-04-18T12:41:27.003Z</time></trkpt><trkpt lat="45.497120337003594" lon="7.940343542850401"><ele>686.0</ele><time>2026-04-18T12:41:28.003Z</time></trkpt><trkpt lat="45.49706623395369" lon="7.940405699142135"><ele>685.5</ele><time>2026-04-18T12:41:29.003Z</time></trkpt><trkpt lat="45.49701243873002" lon="7.940468832807656"><ele>685.0</ele><time>2026-04-18T12:41:30.003Z</time></trkpt><trkpt lat="45.49693640284082" lon="7.940504602704099"><ele>684.5</ele><time>2026-04-18T12:41:31.003Z</time></trkpt><trkpt lat="45.4968582643032" lon="7.940552239474227"><ele>684.0</ele><time>2026-04-18T12:41:33.003Z</time></trkpt><trkpt lat="45.49675175905715" lon="7.940537154438683"><ele>684.0</ele><time>2026-04-18T12:41:35.003Z</time></trkpt><trkpt lat="45.49661351995679" lon="7.940557970985201"><ele>684.0</ele><time>2026-04-18T12:41:37.003Z</time></trkpt><trkpt lat="45.49654222669384" lon="7.940595946707907"><ele>684.0</ele><time>2026-04-18T12:41:38.003Z</time></trkpt><trkpt lat="45.49647016544829" lon="7.9406458621787905"><ele>684.0</ele><time>2026-04-18T12:41:39.003Z</time></trkpt><trkpt lat="45.49640895480807" lon="7.940673509850861"><ele>684.0</ele><time>2026-04-18T12:41:40.003Z</time></trkpt><trkpt lat="45.496364737612176" lon="7.940740280369674"><ele>684.0</ele><time>2026-04-18T12:41:41.003Z</time></trkpt><trkpt lat="45.496302169295575" lon="7.940863307225501"><ele>683.4000000000001</ele><time>2026-04-18T12:41:43.003Z</time></trkpt><trkpt lat="45.49626722388544" lon="7.940954580505193"><ele>682.8</ele><time>2026-04-18T12:41:44.003Z</time></trkpt><trkpt lat="45.4962420639082" lon="7.9410588150132995"><ele>682.2</ele><time>2026-04-18T12:41:45.003Z</time></trkpt><trkpt lat="45.49613384050205" lon="7.941189046697574"><ele>681.5999999999999</ele><time>2026-04-18T12:41:47.003Z</time></trkpt><trkpt lat="45.49606690065215" lon="7.941262990737075"><ele>681.0</ele><time>2026-04-18T12:41:48.003Z</time></trkpt><trkpt lat="45.49599399559091" lon="7.941370447791979"><ele>681.5</ele><time>2026-04-18T12:41:49.003Z</time></trkpt><trkpt lat="45.49594154214529" lon="7.941472611760974"><ele>682.0</ele><time>2026-04-18T12:41:50.003Z</time></trkpt><trkpt lat="45.49591361782366" lon="7.941567090841743"><ele>682.5</ele><time>2026-04-18T12:41:51.003Z</time></trkpt><trkpt lat="45.49590311454824" lon="7.941666901950862"><ele>683.0</ele><time>2026-04-18T12:41:52.003Z</time></trkpt><trkpt lat="45.49586340951081" lon="7.941778624321777"><ele>683.5</ele><time>2026-04-18T12:41:54.003Z</time></trkpt><trkpt lat="45.495767754784225" lon="7.941842301619568"><ele>684.0</ele><time>2026-04-18T12:41:56.003Z</time></trkpt><trkpt lat="45.495722805936964" lon="7.941952074068709"><ele>684.0</ele><time>2026-04-18T12:41:57.003Z</time></trkpt><trkpt lat="45.49570489781926" lon="7.942055302587819"><ele>684.0</ele><time>2026-04-18T12:41:59Z</time></trkpt><trkpt lat="45.49564365651612" lon="7.9421344960045115"><ele>684.0</ele><time>2026-04-18T12:42:01Z</time></trkpt><trkpt lat="45.49557584617815" lon="7.942236310476357"><ele>684.0</ele><time>2026-04-18T12:42:03Z</time></trkpt><trkpt lat="45.49547961414239" lon="7.942244724356559"><ele>684.0</ele><time>2026-04-18T12:42:05Z</time></trkpt><trkpt lat="45.49539900407896" lon="7.942211116027143"><ele>684.0</ele><time>2026-04-18T12:42:07Z</time></trkpt><trkpt lat="45.495357683845214" lon="7.942141196217964"><ele>681.6666666666666</ele><time>2026-04-18T12:42:10Z</time></trkpt><trkpt lat="45.49525273701469" lon="7.942121483411727"><ele>679.3333333333334</ele><time>2026-04-18T12:42:14Z</time></trkpt><trkpt lat="45.49520555780239" lon="7.942041583891349"><ele>677.0</ele><time>2026-04-18T12:42:17Z</time></trkpt><trkpt lat="45.49517065625789" lon="7.941953992578901"><ele>674.6666666666667</ele><time>2026-04-18T12:42:19.001Z</time></trkpt><trkpt lat="45.495100090861506" lon="7.941920415226707"><ele>672.3333333333334</ele><time>2026-04-18T12:42:21.001Z</time></trkpt><trkpt lat="45.495033354350625" lon="7.941830020169356"><ele>670.0</ele><time>2026-04-18T12:42:23.001Z</time></trkpt><trkpt lat="45.494979083974" lon="7.941727409137713"><ele>668.3333333333334</ele><time>2026-04-18T12:42:25.001Z</time></trkpt><trkpt lat="45.49489926503783" lon="7.94165707120928"><ele>666.6666666666667</ele><time>2026-04-18T12:42:27.001Z</time></trkpt><trkpt lat="45.49482757443488" lon="7.941639572239687"><ele>665.0</ele><time>2026-04-18T12:42:30.001Z</time></trkpt><trkpt lat="45.49475889168693" lon="7.941619332670309"><ele>663.3333333333334</ele><time>2026-04-18T12:42:33.001Z</time></trkpt><trkpt lat="45.49468205866217" lon="7.941680872508981"><ele>661.6666666666666</ele><time>2026-04-18T12:42:36.001Z</time></trkpt><trkpt lat="45.49461894128314" lon="7.941695446122342"><ele>660.0</ele><time>2026-04-18T12:42:38.001Z</time></trkpt><trkpt lat="45.49452107958503" lon="7.94177757907207"><ele>658.0</ele><time>2026-04-18T12:42:41.001Z</time></trkpt><trkpt lat="45.49447654706848" lon="7.941852263211151"><ele>656.0</ele><time>2026-04-18T12:42:43.001Z</time></trkpt><trkpt lat="45.494410474798414" lon="7.941947147960894"><ele>654.0</ele><time>2026-04-18T12:42:45.001Z</time></trkpt><trkpt lat="45.49436698167846" lon="7.94202911728477"><ele>652.0</ele><time>2026-04-18T12:42:47.001Z</time></trkpt><trkpt lat="45.49429806670565" lon="7.942052469307457"><ele>650.0</ele><time>2026-04-18T12:42:49.001Z</time></trkpt><trkpt lat="45.49423876049963" lon="7.94198013236805"><ele>648.0</ele><time>2026-04-18T12:42:51.001Z</time></trkpt><trkpt lat="45.49414506828239" lon="7.941946320628887"><ele>648.0</ele><time>2026-04-18T12:42:54.001Z</time></trkpt><trkpt lat="45.494076971297694" lon="7.941997674455064"><ele>648.0</ele><time>2026-04-18T12:42:56.001Z</time></trkpt><trkpt lat="45.49404710598477" lon="7.942087164929697"><ele>648.0</ele><time>2026-04-18T12:42:58.002Z</time></trkpt><trkpt lat="45.49399830859853" lon="7.9421452445175955"><ele>648.0</ele><time>2026-04-18T12:43:00.002Z</time></trkpt><trkpt lat="45.49394693298681" lon="7.942209876370108"><ele>648.0</ele><time>2026-04-18T12:43:02.002Z</time></trkpt><trkpt lat="45.493848836424476" lon="7.94221334274667"><ele>648.0</ele><time>2026-04-18T12:43:05.002Z</time></trkpt><trkpt lat="45.493775565574396" lon="7.942196706072072"><ele>647.0</ele><time>2026-04-18T12:43:08.002Z</time></trkpt><trkpt lat="45.493710571185886" lon="7.942263441310151"><ele>646.0</ele><time>2026-04-18T12:43:11.002Z</time></trkpt><trkpt lat="45.49363956190664" lon="7.9422966148931335"><ele>645.0</ele><time>2026-04-18T12:43:13.002Z</time></trkpt><trkpt lat="45.49354560251093" lon="7.942236377095741"><ele>644.0</ele><time>2026-04-18T12:43:16.002Z</time></trkpt><trkpt lat="45.49350534688325" lon="7.942164192894029"><ele>643.0</ele><time>2026-04-18T12:43:18.002Z</time></trkpt><trkpt lat="45.49340563122947" lon="7.942171415363743"><ele>642.0</ele><time>2026-04-18T12:43:20.002Z</time></trkpt><trkpt lat="45.49332793020568" lon="7.942196533836407"><ele>642.0</ele><time>2026-04-18T12:43:22.002Z</time></trkpt><trkpt lat="45.49324944765861" lon="7.9422195486200495"><ele>642.0</ele><time>2026-04-18T12:43:24.002Z</time></trkpt><trkpt lat="45.49315611525922" lon="7.942211097919517"><ele>642.0</ele><time>2026-04-18T12:43:26.002Z</time></trkpt><trkpt lat="45.493056846068846" lon="7.942190101006457"><ele>642.0</ele><time>2026-04-18T12:43:30.002Z</time></trkpt><trkpt lat="45.49293722618604" lon="7.942201591154055"><ele>642.0</ele><time>2026-04-18T12:43:37.003Z</time></trkpt><trkpt lat="45.49287271941217" lon="7.9421807032014415"><ele>640.5</ele><time>2026-04-18T12:43:41.003Z</time></trkpt><trkpt lat="45.49278424509104" lon="7.942129887096276"><ele>639.0</ele><time>2026-04-18T12:43:44.003Z</time></trkpt><trkpt lat="45.492718572450464" lon="7.942087124539907"><ele>637.5</ele><time>2026-04-18T12:43:46.003Z</time></trkpt><trkpt lat="45.49259875633096" lon="7.942111648324109"><ele>636.0</ele><time>2026-04-18T12:43:48.003Z</time></trkpt><trkpt lat="45.49253660351532" lon="7.942166219919541"><ele>634.5</ele><time>2026-04-18T12:43:50.003Z</time></trkpt><trkpt lat="45.492480545041616" lon="7.942233539717973"><ele>633.0</ele><time>2026-04-18T12:43:52.003Z</time></trkpt><trkpt lat="45.49239735208251" lon="7.942300832352608"><ele>633.0</ele><time>2026-04-18T12:43:54.003Z</time></trkpt><trkpt lat="45.49229140381865" lon="7.942408676276119"><ele>633.0</ele><time>2026-04-18T12:43:56.003Z</time></trkpt><trkpt lat="45.49222131349291" lon="7.942502764810262"><ele>633.0</ele><time>2026-04-18T12:43:58.003Z</time></trkpt><trkpt lat="45.492172481292805" lon="7.942576940522665"><ele>633.0</ele><time>2026-04-18T12:43:59.003Z</time></trkpt><trkpt lat="45.492055734381694" lon="7.942678352109511"><ele>633.0</ele><time>2026-04-18T12:44:01.003Z</time></trkpt><trkpt lat="45.49196237337291" lon="7.942760514922127"><ele>629.0</ele><time>2026-04-18T12:44:03.003Z</time></trkpt><trkpt lat="45.49194994217106" lon="7.942912424579607"><ele>625.0</ele><time>2026-04-18T12:44:05.999Z</time></trkpt><trkpt lat="45.49189398697082" lon="7.94301486505519"><ele>621.0</ele><time>2026-04-18T12:44:07.999Z</time></trkpt><trkpt lat="45.491836621489895" lon="7.943124953348173"><ele>617.0</ele><time>2026-04-18T12:44:09.999Z</time></trkpt><trkpt lat="45.491839600296785" lon="7.943270684146971"><ele>613.0</ele><time>2026-04-18T12:44:12.999Z</time></trkpt><trkpt lat="45.491760545375165" lon="7.943369261163902"><ele>613.5</ele><time>2026-04-18T12:44:14.999Z</time></trkpt><trkpt lat="45.491771766835136" lon="7.943458212763335"><ele>614.0</ele><time>2026-04-18T12:44:17.999Z</time></trkpt><trkpt lat="45.491809749725064" lon="7.943537856620115"><ele>614.5</ele><time>2026-04-18T12:44:21Z</time></trkpt><trkpt lat="45.49180096672547" lon="7.943651491538338"><ele>615.0</ele><time>2026-04-18T12:44:23Z</time></trkpt><trkpt lat="45.49186085989177" lon="7.943724471995614"><ele>615.5</ele><time>2026-04-18T12:44:25Z</time></trkpt><trkpt lat="45.49194297899007" lon="7.943853480425691"><ele>616.0</ele><time>2026-04-18T12:44:27Z</time></trkpt><trkpt lat="45.49203734083154" lon="7.943953208404853"><ele>616.0</ele><time>2026-04-18T12:44:29Z</time></trkpt><trkpt lat="45.49201725162367" lon="7.944073947146511"><ele>616.0</ele><time>2026-04-18T12:44:31Z</time></trkpt><trkpt lat="45.49198841811604" lon="7.944154870940216"><ele>616.0</ele><time>2026-04-18T12:44:32Z</time></trkpt><trkpt lat="45.491984635039884" lon="7.944245458502637"><ele>616.0</ele><time>2026-04-18T12:44:33Z</time></trkpt><trkpt lat="45.49202473670424" lon="7.944329375091911"><ele>616.0</ele><time>2026-04-18T12:44:36Z</time></trkpt><trkpt lat="45.492008262016995" lon="7.9444313906611725"><ele>616.0</ele><time>2026-04-18T12:44:37Z</time></trkpt><trkpt lat="45.49197331570152" lon="7.944609822642594"><ele>616.4</ele><time>2026-04-18T12:44:39Z</time></trkpt><trkpt lat="45.491943826170186" lon="7.9447159358323125"><ele>616.8</ele><time>2026-04-18T12:44:40Z</time></trkpt><trkpt lat="45.49190397039477" lon="7.9448587157357125"><ele>617.1999999999999</ele><time>2026-04-18T12:44:42Z</time></trkpt><trkpt lat="45.491893736417104" lon="7.945033669378041"><ele>617.6</ele><time>2026-04-18T12:44:44Z</time></trkpt><trkpt lat="45.49187364101189" lon="7.945149966749837"><ele>618.0</ele><time>2026-04-18T12:44:46.001Z</time></trkpt><trkpt lat="45.49183358262116" lon="7.945348233094961"><ele>618.8</ele><time>2026-04-18T12:44:48.001Z</time></trkpt><trkpt lat="45.49180193763371" lon="7.945426801704948"><ele>619.5999999999999</ele><time>2026-04-18T12:44:49.001Z</time></trkpt><trkpt lat="45.49172975098326" lon="7.945538808220969"><ele>620.4000000000001</ele><time>2026-04-18T12:44:51.001Z</time></trkpt><trkpt lat="45.49171500911222" lon="7.945634367085413"><ele>621.2</ele><time>2026-04-18T12:44:52.001Z</time></trkpt><trkpt lat="45.49162792913736" lon="7.945737323911893"><ele>622.0</ele><time>2026-04-18T12:44:54.001Z</time></trkpt><trkpt lat="45.49153678404376" lon="7.945800337118476"><ele>623.0</ele><time>2026-04-18T12:44:56.001Z</time></trkpt><trkpt lat="45.49150675771957" lon="7.945906933306492"><ele>624.0</ele><time>2026-04-18T12:44:58.001Z</time></trkpt><trkpt lat="45.49155419439846" lon="7.9460378063665384"><ele>625.0</ele><time>2026-04-18T12:45:00.001Z</time></trkpt><trkpt lat="45.491589630380126" lon="7.946136371493148"><ele>626.0</ele><time>2026-04-18T12:45:02.001Z</time></trkpt><trkpt lat="45.491613273560276" lon="7.946262252257209"><ele>627.0</ele><time>2026-04-18T12:45:04.001Z</time></trkpt><trkpt lat="45.49157278753" lon="7.946390381704593"><ele>627.0</ele><time>2026-04-18T12:45:06.001Z</time></trkpt><trkpt lat="45.491551297603635" lon="7.946490509060361"><ele>627.0</ele><time>2026-04-18T12:45:07.001Z</time></trkpt><trkpt lat="45.491558437972444" lon="7.94659087560817"><ele>627.0</ele><time>2026-04-18T12:45:09.001Z</time></trkpt><trkpt lat="45.49151890658251" lon="7.94666774756283"><ele>627.0</ele><time>2026-04-18T12:45:11.001Z</time></trkpt><trkpt lat="45.49143926331933" lon="7.946753275123485"><ele>627.0</ele><time>2026-04-18T12:45:13.001Z</time></trkpt><trkpt lat="45.49132846497301" lon="7.946778070376197"><ele>627.0</ele><time>2026-04-18T12:45:15.001Z</time></trkpt><trkpt lat="45.491200258656214" lon="7.946923209431672"><ele>624.0</ele><time>2026-04-18T12:45:45.002Z</time></trkpt><trkpt lat="45.491148447537626" lon="7.946983482127539"><ele>621.0</ele><time>2026-04-18T12:58:12.003Z</time></trkpt><trkpt lat="45.49106489520008" lon="7.946994551884765"><ele>618.0</ele><time>2026-04-18T12:58:14.003Z</time></trkpt><trkpt lat="45.490947644683104" lon="7.9469941924496625"><ele>615.0</ele><time>2026-04-18T12:58:16.003Z</time></trkpt><trkpt lat="45.490876500784175" lon="7.947067231459137"><ele>612.0</ele><time>2026-04-18T12:58:19.003Z</time></trkpt><trkpt lat="45.49079249972443" lon="7.947107449029172"><ele>609.0</ele><time>2026-04-18T12:58:21.003Z</time></trkpt><trkpt lat="45.49069975012556" lon="7.947113337167616"><ele>609.0</ele><time>2026-04-18T12:58:24.003Z</time></trkpt><trkpt lat="45.49063457567078" lon="7.9471198999694215"><ele>609.0</ele><time>2026-04-18T12:58:25.003Z</time></trkpt><trkpt lat="45.490535638585214" lon="7.947113441541973"><ele>609.0</ele><time>2026-04-18T12:58:27.003Z</time></trkpt><trkpt lat="45.490461070672204" lon="7.947141354484921"><ele>609.0</ele><time>2026-04-18T12:58:29.003Z</time></trkpt><trkpt lat="45.49042171525242" lon="7.947237534138282"><ele>609.0</ele><time>2026-04-18T12:58:32.003Z</time></trkpt><trkpt lat="45.490392217235865" lon="7.947369802026767"><ele>609.0</ele><time>2026-04-18T12:58:35.003Z</time></trkpt><trkpt lat="45.490328430931136" lon="7.947388025797779"><ele>606.0</ele><time>2026-04-18T12:58:37.003Z</time></trkpt><trkpt lat="45.4902829198112" lon="7.947459480451445"><ele>603.0</ele><time>2026-04-18T12:58:40.003Z</time></trkpt><trkpt lat="45.490254791241306" lon="7.94757344609788"><ele>600.0</ele><time>2026-04-18T12:58:43.003Z</time></trkpt><trkpt lat="45.49017419627776" lon="7.947637048521955"><ele>597.0</ele><time>2026-04-18T12:58:46.001Z</time></trkpt><trkpt lat="45.49008653326801" lon="7.94762335693777"><ele>594.0</ele><time>2026-04-18T12:58:48.001Z</time></trkpt><trkpt lat="45.490003831667885" lon="7.947605409417581"><ele>591.0</ele><time>2026-04-18T12:58:51.001Z</time></trkpt><trkpt lat="45.48994495741601" lon="7.947639438058961"><ele>590.7142857142857</ele><time>2026-04-18T12:58:53.001Z</time></trkpt><trkpt lat="45.48986052504436" lon="7.947628775614825"><ele>590.4285714285714</ele><time>2026-04-18T12:58:56.001Z</time></trkpt><trkpt lat="45.48978844720085" lon="7.947591030310855"><ele>590.1428571428571</ele><time>2026-04-18T12:58:59.001Z</time></trkpt><trkpt lat="45.48972517805916" lon="7.9476074577179565"><ele>589.8571428571429</ele><time>2026-04-18T12:59:01.001Z</time></trkpt><trkpt lat="45.489660933832134" lon="7.9475631945316785"><ele>589.5714285714286</ele><time>2026-04-18T12:59:04.001Z</time></trkpt><trkpt lat="45.48958127418071" lon="7.947555295930449"><ele>589.2857142857142</ele><time>2026-04-18T12:59:07.001Z</time></trkpt><trkpt lat="45.48951822582196" lon="7.947584537277877"><ele>589.0</ele><time>2026-04-18T12:59:09.001Z</time></trkpt><trkpt lat="45.48945174640005" lon="7.947573227514156"><ele>583.6666666666667</ele><time>2026-04-18T12:59:11.001Z</time></trkpt><trkpt lat="45.48936958387295" lon="7.947581860434716"><ele>578.3333333333334</ele><time>2026-04-18T12:59:14.001Z</time></trkpt><trkpt lat="45.48930413877999" lon="7.947576843963758"><ele>573.0</ele><time>2026-04-18T12:59:16.001Z</time></trkpt><trkpt lat="45.48924043425898" lon="7.947557021613721"><ele>567.6666666666666</ele><time>2026-04-18T12:59:18.001Z</time></trkpt><trkpt lat="45.48915668702695" lon="7.947558063215511"><ele>562.3333333333333</ele><time>2026-04-18T12:59:21.001Z</time></trkpt><trkpt lat="45.489087058209016" lon="7.947575105164211"><ele>557.0</ele><time>2026-04-18T12:59:25.001Z</time></trkpt><trkpt lat="45.48907080286058" lon="7.94770712595997"><ele>557.0</ele><time>2026-04-18T12:59:27.001Z</time></trkpt><trkpt lat="45.489050377632786" lon="7.9478364682048275"><ele>557.0</ele><time>2026-04-18T12:59:29.001Z</time></trkpt><trkpt lat="45.48910514057869" lon="7.947950105740783"><ele>557.0</ele><time>2026-04-18T12:59:31.002Z</time></trkpt><trkpt lat="45.489137568364484" lon="7.948033083842498"><ele>557.0</ele><time>2026-04-18T12:59:32.002Z</time></trkpt><trkpt lat="45.48917974464088" lon="7.948157631240721"><ele>557.0</ele><time>2026-04-18T12:59:35.002Z</time></trkpt><trkpt lat="45.48920265376404" lon="7.948261040605281"><ele>557.0</ele><time>2026-04-18T12:59:38.002Z</time></trkpt><trkpt lat="45.489159581679104" lon="7.94844426571943"><ele>559.8333333333333</ele><time>2026-04-18T12:59:41.002Z</time></trkpt><trkpt lat="45.48914379733667" lon="7.948551563917395"><ele>562.6666666666666</ele><time>2026-04-18T12:59:43.002Z</time></trkpt><trkpt lat="45.48915421859003" lon="7.948670779120136"><ele>565.5</ele><time>2026-04-18T12:59:45.002Z</time></trkpt><trkpt lat="45.48916113523658" lon="7.948788587319694"><ele>568.3333333333334</ele><time>2026-04-18T12:59:48.002Z</time></trkpt><trkpt lat="45.48916483350744" lon="7.948912205343628"><ele>571.1666666666667</ele><time>2026-04-18T12:59:50.002Z</time></trkpt><trkpt lat="45.48915586734144" lon="7.94905980905636"><ele>574.0</ele><time>2026-04-18T12:59:54.002Z</time></trkpt><trkpt lat="45.489142179943116" lon="7.9491552769866844"><ele>577.6666666666667</ele><time>2026-04-18T12:59:56.002Z</time></trkpt><trkpt lat="45.4891392810907" lon="7.9492460639370695"><ele>581.3333333333334</ele><time>2026-04-18T12:59:59.002Z</time></trkpt><trkpt lat="45.489239757789626" lon="7.94928356254322"><ele>585.0</ele><time>2026-04-18T13:00:06.002Z</time></trkpt><trkpt lat="45.489257010785465" lon="7.949386342459178"><ele>588.6666666666666</ele><time>2026-04-18T13:00:08.002Z</time></trkpt><trkpt lat="45.48918043644093" lon="7.949453597307964"><ele>592.3333333333333</ele><time>2026-04-18T13:00:12.002Z</time></trkpt><trkpt lat="45.48910706843359" lon="7.949517523029286"><ele>596.0</ele><time>2026-04-18T13:00:15.003Z</time></trkpt><trkpt lat="45.48909641254309" lon="7.949612072459833"><ele>596.0</ele><time>2026-04-18T13:00:18.003Z</time></trkpt><trkpt lat="45.48903852978349" lon="7.949684695307454"><ele>596.0</ele><time>2026-04-18T13:00:20.003Z</time></trkpt><trkpt lat="45.48896906846297" lon="7.949680827540688"><ele>596.0</ele><time>2026-04-18T13:00:22.003Z</time></trkpt><trkpt lat="45.48889690320834" lon="7.9496815484651036"><ele>596.0</ele><time>2026-04-18T13:00:24.003Z</time></trkpt><trkpt lat="45.48884213459748" lon="7.949748339760808"><ele>596.0</ele><time>2026-04-18T13:00:27.003Z</time></trkpt><trkpt lat="45.48878475240361" lon="7.949900341386557"><ele>596.0</ele><time>2026-04-18T13:00:30.003Z</time></trkpt><trkpt lat="45.488699881516006" lon="7.950034541945589"><ele>594.3333333333333</ele><time>2026-04-18T13:00:32.003Z</time></trkpt><trkpt lat="45.48864551027014" lon="7.950096833926051"><ele>592.6666666666666</ele><time>2026-04-18T13:00:33.003Z</time></trkpt><trkpt lat="45.48857098826797" lon="7.950187718040398"><ele>591.0</ele><time>2026-04-18T13:00:35.003Z</time></trkpt><trkpt lat="45.48853842008786" lon="7.950337146571263"><ele>589.3333333333334</ele><time>2026-04-18T13:00:37.003Z</time></trkpt><trkpt lat="45.48851603411659" lon="7.950447939337952"><ele>587.6666666666667</ele><time>2026-04-18T13:00:39.003Z</time></trkpt><trkpt lat="45.48844447372048" lon="7.950503054425779"><ele>586.0</ele><time>2026-04-18T13:00:43.003Z</time></trkpt><trkpt lat="45.48840425185759" lon="7.9505865064510575"><ele>586.0</ele><time>2026-04-18T13:00:46.003Z</time></trkpt><trkpt lat="45.48849916381208" lon="7.950631304362719"><ele>586.0</ele><time>2026-04-18T13:00:57Z</time></trkpt><trkpt lat="45.48856396774463" lon="7.950673328080919"><ele>586.0</ele><time>2026-04-18T13:00:59Z</time></trkpt><trkpt lat="45.48860228859755" lon="7.950763754983689"><ele>586.0</ele><time>2026-04-18T13:01:01Z</time></trkpt><trkpt lat="45.488634121048435" lon="7.950848415366478"><ele>586.0</ele><time>2026-04-18T13:01:05Z</time></trkpt><trkpt lat="45.48881162756662" lon="7.950797669218131"><ele>593.2857142857142</ele><time>2026-04-18T13:01:13Z</time></trkpt><trkpt lat="45.48887141771134" lon="7.950886677511286"><ele>600.5714285714286</ele><time>2026-04-18T13:01:15Z</time></trkpt><trkpt lat="45.48891135325916" lon="7.950956927920335"><ele>607.8571428571429</ele><time>2026-04-18T13:01:20.001Z</time></trkpt><trkpt lat="45.488918422891004" lon="7.951073192781984"><ele>615.1428571428571</ele><time>2026-04-18T13:01:25.001Z</time></trkpt><trkpt lat="45.48890340076004" lon="7.951166525455815"><ele>622.4285714285714</ele><time>2026-04-18T13:01:27.001Z</time></trkpt><trkpt lat="45.488914495806476" lon="7.951261748705142"><ele>629.7142857142857</ele><time>2026-04-18T13:01:33.001Z</time></trkpt><trkpt lat="45.48897220048022" lon="7.951313183885284"><ele>637.0</ele><time>2026-04-18T13:01:40.001Z</time></trkpt><trkpt lat="45.48903849479485" lon="7.951322019066355"><ele>637.0</ele><time>2026-04-18T13:01:45.001Z</time></trkpt><trkpt lat="45.48912184129201" lon="7.9513491349124825"><ele>637.0</ele><time>2026-04-18T13:01:50.001Z</time></trkpt><trkpt lat="45.489167568710315" lon="7.951411011807994"><ele>637.0</ele><time>2026-04-18T13:01:55.001Z</time></trkpt><trkpt lat="45.48921411207554" lon="7.951477342007837"><ele>637.0</ele><time>2026-04-18T13:02:05.002Z</time></trkpt><trkpt lat="45.489205409158984" lon="7.951578816903742"><ele>637.0</ele><time>2026-04-18T13:02:14.002Z</time></trkpt><trkpt lat="45.4893164161434" lon="7.951622641732175"><ele>637.0</ele><time>2026-04-18T13:02:21.002Z</time></trkpt><trkpt lat="45.489387857748866" lon="7.9516500081074195"><ele>637.0</ele><time>2026-04-18T13:02:23.002Z</time></trkpt><trkpt lat="45.489450365891976" lon="7.951695806263758"><ele>637.0</ele><time>2026-04-18T13:02:25.002Z</time></trkpt><trkpt lat="45.48949208602748" lon="7.9517688882631266"><ele>637.0</ele><time>2026-04-18T13:02:49.003Z</time></trkpt><trkpt lat="45.489412098279175" lon="7.951838155590789"><ele>637.0</ele><time>2026-04-18T13:02:55.003Z</time></trkpt><trkpt lat="45.489347120561014" lon="7.95189367427218"><ele>637.0</ele><time>2026-04-18T13:02:57.003Z</time></trkpt><trkpt lat="45.48928994333933" lon="7.951972784663981"><ele>637.0</ele><time>2026-04-18T13:02:59Z</time></trkpt><trkpt lat="45.489241472869764" lon="7.952075303303087"><ele>638.6666666666667</ele><time>2026-04-18T13:03:02Z</time></trkpt><trkpt lat="45.489196534666284" lon="7.952171193364913"><ele>640.3333333333334</ele><time>2026-04-18T13:03:04Z</time></trkpt><trkpt lat="45.48915624931401" lon="7.95224904612262"><ele>642.0</ele><time>2026-04-18T13:03:06Z</time></trkpt><trkpt lat="45.48907072224822" lon="7.952323573251743"><ele>643.6666666666666</ele><time>2026-04-18T13:03:08Z</time></trkpt><trkpt lat="45.48900244666402" lon="7.952381633653179"><ele>645.3333333333333</ele><time>2026-04-18T13:03:10Z</time></trkpt><trkpt lat="45.488964058224674" lon="7.952489052083019"><ele>647.0</ele><time>2026-04-18T13:03:12Z</time></trkpt><trkpt lat="45.48891104149359" lon="7.952569644141541"><ele>648.0</ele><time>2026-04-18T13:03:14Z</time></trkpt><trkpt lat="45.48889302548075" lon="7.952659048667645"><ele>649.0</ele><time>2026-04-18T13:03:16Z</time></trkpt><trkpt lat="45.4888464823923" lon="7.95274085103197"><ele>650.0</ele><time>2026-04-18T13:03:18Z</time></trkpt><trkpt lat="45.48877182874394" lon="7.952804492607753"><ele>651.0</ele><time>2026-04-18T13:03:20Z</time></trkpt><trkpt lat="45.488705941150144" lon="7.952900724002129"><ele>652.0</ele><time>2026-04-18T13:03:22Z</time></trkpt><trkpt lat="45.48864797493742" lon="7.953027711085324"><ele>653.0</ele><time>2026-04-18T13:03:24Z</time></trkpt><trkpt lat="45.488563291647594" lon="7.953127542753151"><ele>650.8</ele><time>2026-04-18T13:03:26Z</time></trkpt><trkpt lat="45.488498321195" lon="7.953249215590582"><ele>648.5999999999999</ele><time>2026-04-18T13:03:28.001Z</time></trkpt><trkpt lat="45.48844280638491" lon="7.953384359580122"><ele>646.4000000000001</ele><time>2026-04-18T13:03:30.001Z</time></trkpt><trkpt lat="45.48836725844274" lon="7.953464883177171"><ele>644.2</ele><time>2026-04-18T13:03:32.001Z</time></trkpt><trkpt lat="45.48830126964404" lon="7.953480860616496"><ele>642.0</ele><time>2026-04-18T13:03:34.001Z</time></trkpt><trkpt lat="45.48823538436957" lon="7.953441174794406"><ele>642.0</ele><time>2026-04-18T13:03:38.001Z</time></trkpt><trkpt lat="45.488170562153705" lon="7.953407243611039"><ele>642.0</ele><time>2026-04-18T13:03:41.001Z</time></trkpt><trkpt lat="45.48809760261436" lon="7.953430934114062"><ele>642.0</ele><time>2026-04-18T13:03:44.001Z</time></trkpt><trkpt lat="45.48805563171777" lon="7.953521412478576"><ele>642.0</ele><time>2026-04-18T13:03:46.001Z</time></trkpt><trkpt lat="45.48799431426385" lon="7.953620403492308"><ele>642.0</ele><time>2026-04-18T13:03:49.001Z</time></trkpt><trkpt lat="45.48792107165203" lon="7.953679085171034"><ele>642.0</ele><time>2026-04-18T13:03:52.001Z</time></trkpt><trkpt lat="45.48785991297469" lon="7.953738125577894"><ele>638.3333333333334</ele><time>2026-04-18T13:03:55.001Z</time></trkpt><trkpt lat="45.487778737732405" lon="7.95378433751021"><ele>634.6666666666666</ele><time>2026-04-18T13:03:58.001Z</time></trkpt><trkpt lat="45.48769845860711" lon="7.953822392410616"><ele>631.0</ele><time>2026-04-18T13:04:01.001Z</time></trkpt><trkpt lat="45.48762378927319" lon="7.9538480303472605"><ele>627.3333333333333</ele><time>2026-04-18T13:04:04.002Z</time></trkpt><trkpt lat="45.48756428075625" lon="7.9538789008659965"><ele>623.6666666666666</ele><time>2026-04-18T13:04:06.002Z</time></trkpt><trkpt lat="45.48748765592196" lon="7.953907120979678"><ele>620.0</ele><time>2026-04-18T13:04:09.002Z</time></trkpt><trkpt lat="45.487415971227435" lon="7.953950644130233"><ele>620.0</ele><time>2026-04-18T13:04:12.002Z</time></trkpt><trkpt lat="45.48734443481101" lon="7.954001970036345"><ele>620.0</ele><time>2026-04-18T13:04:15.002Z</time></trkpt><trkpt lat="45.48726112406018" lon="7.954029331850026"><ele>620.0</ele><time>2026-04-18T13:04:18.002Z</time></trkpt><trkpt lat="45.48719939664645" lon="7.953991626803816"><ele>620.0</ele><time>2026-04-18T13:04:21.002Z</time></trkpt><trkpt lat="45.4871243667374" lon="7.953989821857313"><ele>620.0</ele><time>2026-04-18T13:04:23.002Z</time></trkpt><trkpt lat="45.48705493223974" lon="7.953955001351576"><ele>620.0</ele><time>2026-04-18T13:04:26.002Z</time></trkpt><trkpt lat="45.487015717829735" lon="7.9538658760670256"><ele>614.5</ele><time>2026-04-18T13:04:29.002Z</time></trkpt><trkpt lat="45.487029780554764" lon="7.953777355742661"><ele>609.0</ele><time>2026-04-18T13:04:31.002Z</time></trkpt><trkpt lat="45.48702939673858" lon="7.953671241650863"><ele>603.5</ele><time>2026-04-18T13:04:34.002Z</time></trkpt><trkpt lat="45.48703069897767" lon="7.9535569081079664"><ele>598.0</ele><time>2026-04-18T13:04:37.002Z</time></trkpt><trkpt lat="45.48698376660307" lon="7.953461604446206"><ele>592.5</ele><time>2026-04-18T13:04:39.002Z</time></trkpt><trkpt lat="45.4869505055136" lon="7.953362160319775"><ele>587.0</ele><time>2026-04-18T13:04:41.003Z</time></trkpt><trkpt lat="45.486967921343954" lon="7.953242616890956"><ele>585.1666666666666</ele><time>2026-04-18T13:04:43.003Z</time></trkpt><trkpt lat="45.48700085189984" lon="7.953139656587344"><ele>583.3333333333333</ele><time>2026-04-18T13:04:45.003Z</time></trkpt><trkpt lat="45.487015459790655" lon="7.9530270745019305"><ele>581.5</ele><time>2026-04-18T13:04:47.003Z</time></trkpt><trkpt lat="45.48700766562265" lon="7.952923919696823"><ele>579.6666666666666</ele><time>2026-04-18T13:04:52.003Z</time></trkpt><trkpt lat="45.486989657077345" lon="7.95281053825449"><ele>577.8333333333334</ele><time>2026-04-18T13:04:55.003Z</time></trkpt><trkpt lat="45.487006136511056" lon="7.9526435765796855"><ele>576.0</ele><time>2026-04-18T13:04:57.003Z</time></trkpt><trkpt lat="45.487024050915785" lon="7.952466993814048"><ele>574.4</ele><time>2026-04-18T13:04:59.003Z</time></trkpt><trkpt lat="45.487053900209396" lon="7.952347123453783"><ele>572.8</ele><time>2026-04-18T13:05:01.003Z</time></trkpt><trkpt lat="45.4870752047252" lon="7.952205663023698"><ele>571.1999999999999</ele><time>2026-04-18T13:05:03.003Z</time></trkpt><trkpt lat="45.48709766177782" lon="7.952063704891917"><ele>569.6</ele><time>2026-04-18T13:05:05Z</time></trkpt><trkpt lat="45.48713468843067" lon="7.9518800721349345"><ele>568.0</ele><time>2026-04-18T13:05:07Z</time></trkpt><trkpt lat="45.48717616971365" lon="7.951795935303913"><ele>570.0</ele><time>2026-04-18T13:05:09Z</time></trkpt><trkpt lat="45.48722572804557" lon="7.95169215952311"><ele>572.0</ele><time>2026-04-18T13:05:11Z</time></trkpt><trkpt lat="45.48730911446605" lon="7.951591471540537"><ele>574.0</ele><time>2026-04-18T13:05:13Z</time></trkpt><trkpt lat="45.48734922147062" lon="7.951490139880131"><ele>576.0</ele><time>2026-04-18T13:05:15Z</time></trkpt><trkpt lat="45.48743379349853" lon="7.951414876021009"><ele>578.0</ele><time>2026-04-18T13:05:17Z</time></trkpt><trkpt lat="45.48752820875264" lon="7.951336701138008"><ele>578.0</ele><time>2026-04-18T13:05:19Z</time></trkpt><trkpt lat="45.48762520961621" lon="7.951243989458524"><ele>578.0</ele><time>2026-04-18T13:05:21Z</time></trkpt><trkpt lat="45.48768449008581" lon="7.95115498045642"><ele>578.0</ele><time>2026-04-18T13:05:23Z</time></trkpt><trkpt lat="45.48774188843752" lon="7.951070869652935"><ele>578.0</ele><time>2026-04-18T13:05:25Z</time></trkpt><trkpt lat="45.487838987847695" lon="7.950938947516581"><ele>578.0</ele><time>2026-04-18T13:05:27Z</time></trkpt><trkpt lat="45.487884762608935" lon="7.950872841889088"><ele>579.6</ele><time>2026-04-18T13:05:28Z</time></trkpt><trkpt lat="45.48799685872166" lon="7.950744269513949"><ele>581.1999999999999</ele><time>2026-04-18T13:05:30Z</time></trkpt><trkpt lat="45.48808114576915" lon="7.950599932755288"><ele>582.8</ele><time>2026-04-18T13:05:32Z</time></trkpt><trkpt lat="45.488168078408705" lon="7.9505229396133625"><ele>584.4</ele><time>2026-04-18T13:05:34Z</time></trkpt><trkpt lat="45.488215941245045" lon="7.950450469525445"><ele>586.0</ele><time>2026-04-18T13:05:38.001Z</time></trkpt><trkpt lat="45.48828842521911" lon="7.950367458540871"><ele>586.0</ele><time>2026-04-18T13:05:41.001Z</time></trkpt><trkpt lat="45.48833778907785" lon="7.950281387869893"><ele>586.0</ele><time>2026-04-18T13:05:43.001Z</time></trkpt><trkpt lat="45.488344486504275" lon="7.950155945943525"><ele>586.0</ele><time>2026-04-18T13:05:45.001Z</time></trkpt><trkpt lat="45.488333609478794" lon="7.950058329507191"><ele>586.0</ele><time>2026-04-18T13:05:47.001Z</time></trkpt><trkpt lat="45.48827141294927" lon="7.949954281888845"><ele>586.0</ele><time>2026-04-18T13:05:50.001Z</time></trkpt><trkpt lat="45.488260480221456" lon="7.949861135694651"><ele>586.0</ele><time>2026-04-18T13:05:53.001Z</time></trkpt><trkpt lat="45.48832605636438" lon="7.9498157875611755"><ele>583.6666666666667</ele><time>2026-04-18T13:05:56.001Z</time></trkpt><trkpt lat="45.4883606021008" lon="7.949723350754195"><ele>581.3333333333334</ele><time>2026-04-18T13:05:59.001Z</time></trkpt><trkpt lat="45.48834881717872" lon="7.949595012191469"><ele>579.0</ele><time>2026-04-18T13:06:02.001Z</time></trkpt><trkpt lat="45.488329041656925" lon="7.949502547108675"><ele>576.6666666666666</ele><time>2026-04-18T13:06:05.001Z</time></trkpt><trkpt lat="45.48831115002153" lon="7.949387144678291"><ele>574.3333333333333</ele><time>2026-04-18T13:06:08.001Z</time></trkpt><trkpt lat="45.48830570190305" lon="7.9492890800494855"><ele>572.0</ele><time>2026-04-18T13:06:10.001Z</time></trkpt><trkpt lat="45.48826508953907" lon="7.9492066704967685"><ele>568.8333333333333</ele><time>2026-04-18T13:06:12.002Z</time></trkpt><trkpt lat="45.48823523553852" lon="7.949117880642136"><ele>565.6666666666666</ele><time>2026-04-18T13:06:14.002Z</time></trkpt><trkpt lat="45.48818119424417" lon="7.949057990667021"><ele>562.5</ele><time>2026-04-18T13:06:16.002Z</time></trkpt><trkpt lat="45.48818725745398" lon="7.948963915477407"><ele>559.3333333333334</ele><time>2026-04-18T13:06:18.002Z</time></trkpt><trkpt lat="45.488182080750725" lon="7.948853067361828"><ele>556.1666666666667</ele><time>2026-04-18T13:06:20.002Z</time></trkpt><trkpt lat="45.48819522718492" lon="7.94876354979026"><ele>553.0</ele><time>2026-04-18T13:06:23.002Z</time></trkpt><trkpt lat="45.488238511829" lon="7.948619293811899"><ele>553.0</ele><time>2026-04-18T13:07:34Z</time></trkpt><trkpt lat="45.48830875279469" lon="7.9485558569381265"><ele>553.0</ele><time>2026-04-18T13:07:41Z</time></trkpt><trkpt lat="45.48838223217703" lon="7.94851693537817"><ele>553.0</ele><time>2026-04-18T13:07:44Z</time></trkpt><trkpt lat="45.48837316744932" lon="7.9483763333376265"><ele>553.0</ele><time>2026-04-18T13:07:47.001Z</time></trkpt><trkpt lat="45.48837571118492" lon="7.948230755772713"><ele>553.0</ele><time>2026-04-18T13:07:49.001Z</time></trkpt><trkpt lat="45.48845361793173" lon="7.948127012587627"><ele>550.6666666666667</ele><time>2026-04-18T13:07:51.001Z</time></trkpt><trkpt lat="45.48848513165431" lon="7.948042688944881"><ele>548.3333333333334</ele><time>2026-04-18T13:07:52.001Z</time></trkpt><trkpt lat="45.48852872961691" lon="7.947936764789549"><ele>546.0</ele><time>2026-04-18T13:07:54.001Z</time></trkpt><trkpt lat="45.48855921051483" lon="7.947798141931647"><ele>543.6666666666666</ele><time>2026-04-18T13:07:56.001Z</time></trkpt><trkpt lat="45.48859131324716" lon="7.947705616870421"><ele>541.3333333333333</ele><time>2026-04-18T13:07:57.001Z</time></trkpt><trkpt lat="45.48863851549774" lon="7.94761672298589"><ele>539.0</ele><time>2026-04-18T13:08:00.001Z</time></trkpt><trkpt lat="45.488681723879495" lon="7.947544845914939"><ele>538.3333333333333</ele><time>2026-04-18T13:08:06.001Z</time></trkpt><trkpt lat="45.48872557559519" lon="7.947470772931473"><ele>537.6666666666666</ele><time>2026-04-18T13:08:20.002Z</time></trkpt><trkpt lat="45.488760846275376" lon="7.947389291426655"><ele>537.0</ele><time>2026-04-18T13:08:23.002Z</time></trkpt><trkpt lat="45.48881840259357" lon="7.947305403921486"><ele>536.3333333333334</ele><time>2026-04-18T13:08:25.002Z</time></trkpt><trkpt lat="45.48887344305746" lon="7.947220375774028"><ele>535.6666666666667</ele><time>2026-04-18T13:08:27.002Z</time></trkpt><trkpt lat="45.488948192366536" lon="7.947105424566443"><ele>535.0</ele><time>2026-04-18T13:08:29.002Z</time></trkpt><trkpt lat="45.48899218626118" lon="7.946984028480977"><ele>540.0</ele><time>2026-04-18T13:08:31.002Z</time></trkpt><trkpt lat="45.48903589824349" lon="7.946888137798175"><ele>545.0</ele><time>2026-04-18T13:08:32.002Z</time></trkpt><trkpt lat="45.489091118812446" lon="7.9467977240672445"><ele>550.0</ele><time>2026-04-18T13:08:33.002Z</time></trkpt><trkpt lat="45.489178178473075" lon="7.946686070035299"><ele>555.0</ele><time>2026-04-18T13:08:34.002Z</time></trkpt><trkpt lat="45.48922921636756" lon="7.946571473826496"><ele>560.0</ele><time>2026-04-18T13:08:35.002Z</time></trkpt><trkpt lat="45.48929479892499" lon="7.9464615026498775"><ele>560.4</ele><time>2026-04-18T13:08:38.002Z</time></trkpt><trkpt lat="45.48935473502199" lon="7.946332820677212"><ele>560.8</ele><time>2026-04-18T13:08:40.002Z</time></trkpt><trkpt lat="45.48942877963295" lon="7.946243511901175"><ele>561.2</ele><time>2026-04-18T13:08:42.002Z</time></trkpt><trkpt lat="45.48950350296301" lon="7.946136967468118"><ele>561.6</ele><time>2026-04-18T13:08:44.002Z</time></trkpt><trkpt lat="45.48960613338595" lon="7.946066671898464"><ele>562.0</ele><time>2026-04-18T13:08:46.002Z</time></trkpt><trkpt lat="45.48969158449412" lon="7.946003086273636"><ele>566.0</ele><time>2026-04-18T13:08:48.002Z</time></trkpt><trkpt lat="45.489778342177026" lon="7.945946428856389"><ele>570.0</ele><time>2026-04-18T13:08:50.002Z</time></trkpt><trkpt lat="45.48987506614797" lon="7.945888482701239"><ele>574.0</ele><time>2026-04-18T13:08:52.003Z</time></trkpt><trkpt lat="45.489950566842595" lon="7.94582174019981"><ele>578.0</ele><time>2026-04-18T13:08:54.003Z</time></trkpt><trkpt lat="45.4900248233826" lon="7.945747656205927"><ele>582.0</ele><time>2026-04-18T13:08:56.003Z</time></trkpt><trkpt lat="45.490081238416366" lon="7.94564341497862"><ele>582.0</ele><time>2026-04-18T13:08:58.003Z</time></trkpt><trkpt lat="45.49013888052628" lon="7.945477419086538"><ele>582.0</ele><time>2026-04-18T13:09:00.003Z</time></trkpt><trkpt lat="45.49018991341752" lon="7.9453829224152805"><ele>582.0</ele><time>2026-04-18T13:09:01.003Z</time></trkpt><trkpt lat="45.490241891900354" lon="7.945285279260209"><ele>582.0</ele><time>2026-04-18T13:09:02.003Z</time></trkpt><trkpt lat="45.49029758600893" lon="7.945186989229018"><ele>582.0</ele><time>2026-04-18T13:09:03.003Z</time></trkpt><trkpt lat="45.490401319856986" lon="7.945090899278884"><ele>585.1666666666666</ele><time>2026-04-18T13:09:04.003Z</time></trkpt><trkpt lat="45.49045020513634" lon="7.944982594932213"><ele>588.3333333333334</ele><time>2026-04-18T13:09:05.003Z</time></trkpt><trkpt lat="45.49050258479964" lon="7.944861664710073"><ele>591.5</ele><time>2026-04-18T13:09:06.003Z</time></trkpt><trkpt lat="45.49054048178641" lon="7.944764409813345"><ele>594.6666666666667</ele><time>2026-04-18T13:09:07.003Z</time></trkpt><trkpt lat="45.49057875463807" lon="7.944689645080638"><ele>597.8333333333334</ele><time>2026-04-18T13:09:08.003Z</time></trkpt><trkpt lat="45.49062349225477" lon="7.944602857853079"><ele>601.0</ele><time>2026-04-18T13:09:09.003Z</time></trkpt><trkpt lat="45.49065828888461" lon="7.94452344792924"><ele>601.0</ele><time>2026-04-18T13:09:10.003Z</time></trkpt><trkpt lat="45.49073050188451" lon="7.944396104315544"><ele>601.0</ele><time>2026-04-18T13:09:12.003Z</time></trkpt><trkpt lat="45.490788773405036" lon="7.944276630917941"><ele>601.0</ele><time>2026-04-18T13:09:14.003Z</time></trkpt><trkpt lat="45.49084491092201" lon="7.9441723495282295"><ele>601.0</ele><time>2026-04-18T13:09:15.003Z</time></trkpt><trkpt lat="45.49086711440839" lon="7.94405933069785"><ele>601.0</ele><time>2026-04-18T13:09:16Z</time></trkpt><trkpt lat="45.49089959878772" lon="7.943942919889033"><ele>599.0</ele><time>2026-04-18T13:09:16.999Z</time></trkpt><trkpt lat="45.490937945880624" lon="7.943839125417987"><ele>597.0</ele><time>2026-04-18T13:09:17.999Z</time></trkpt><trkpt lat="45.49097122450353" lon="7.943723017739352"><ele>595.0</ele><time>2026-04-18T13:09:19Z</time></trkpt><trkpt lat="45.49100888039337" lon="7.943612098746185"><ele>593.0</ele><time>2026-04-18T13:09:20Z</time></trkpt><trkpt lat="45.491069388902794" lon="7.943453767078177"><ele>591.0</ele><time>2026-04-18T13:09:22Z</time></trkpt><trkpt lat="45.491134523370064" lon="7.943342779450086"><ele>588.2</ele><time>2026-04-18T13:09:24Z</time></trkpt><trkpt lat="45.49119907239239" lon="7.943149236197419"><ele>585.4000000000001</ele><time>2026-04-18T13:09:26Z</time></trkpt><trkpt lat="45.49123249745627" lon="7.943051087439914"><ele>582.6</ele><time>2026-04-18T13:09:27Z</time></trkpt><trkpt lat="45.491272662832664" lon="7.942956387274977"><ele>579.8000000000001</ele><time>2026-04-18T13:09:28Z</time></trkpt><trkpt lat="45.491311728117125" lon="7.942864428980653"><ele>577.0</ele><time>2026-04-18T13:09:29Z</time></trkpt><trkpt lat="45.49135968358854" lon="7.942774980337332"><ele>581.5</ele><time>2026-04-18T13:09:30Z</time></trkpt><trkpt lat="45.49140073872087" lon="7.942705714104694"><ele>586.0</ele><time>2026-04-18T13:09:31Z</time></trkpt><trkpt lat="45.49144004219501" lon="7.942621279625774"><ele>590.5</ele><time>2026-04-18T13:09:32Z</time></trkpt><trkpt lat="45.49145842067713" lon="7.942526539177324"><ele>595.0</ele><time>2026-04-18T13:09:33Z</time></trkpt><trkpt lat="45.49150193901526" lon="7.942428387773799"><ele>599.5</ele><time>2026-04-18T13:09:34Z</time></trkpt><trkpt lat="45.49153997893748" lon="7.942346394870296"><ele>604.0</ele><time>2026-04-18T13:09:35Z</time></trkpt><trkpt lat="45.49162440097641" lon="7.942238252464436"><ele>604.0</ele><time>2026-04-18T13:09:37Z</time></trkpt><trkpt lat="45.49168715365182" lon="7.942195713874768"><ele>604.0</ele><time>2026-04-18T13:09:38Z</time></trkpt><trkpt lat="45.49176535066844" lon="7.942165298877067"><ele>604.0</ele><time>2026-04-18T13:09:39.999Z</time></trkpt><trkpt lat="45.491844808763325" lon="7.942090576347417"><ele>604.0</ele><time>2026-04-18T13:09:41.999Z</time></trkpt><trkpt lat="45.491873771823386" lon="7.941991698302912"><ele>604.0</ele><time>2026-04-18T13:09:43.999Z</time></trkpt><trkpt lat="45.49189864882575" lon="7.941881826402679"><ele>604.0</ele><time>2026-04-18T13:09:44.999Z</time></trkpt><trkpt lat="45.491966302725395" lon="7.941796570528615"><ele>604.0</ele><time>2026-04-18T13:09:46Z</time></trkpt><trkpt lat="45.49201788954657" lon="7.941742909919027"><ele>604.0</ele><time>2026-04-18T13:09:49Z</time></trkpt><trkpt lat="45.49209092155368" lon="7.94164385977342"><ele>604.0</ele><time>2026-04-18T13:09:51Z</time></trkpt><trkpt lat="45.49214589318654" lon="7.941582093049196"><ele>604.0</ele><time>2026-04-18T13:09:54Z</time></trkpt><trkpt lat="45.492202760473994" lon="7.941536606215441"><ele>604.0</ele><time>2026-04-18T13:09:56Z</time></trkpt><trkpt lat="45.492278234005646" lon="7.941470653203763"><ele>604.0</ele><time>2026-04-18T13:09:59Z</time></trkpt><trkpt lat="45.492340414941644" lon="7.941416007076151"><ele>608.1428571428572</ele><time>2026-04-18T13:10:01Z</time></trkpt><trkpt lat="45.49240240636258" lon="7.941388943799755"><ele>612.2857142857143</ele><time>2026-04-18T13:10:03Z</time></trkpt><trkpt lat="45.49246526929307" lon="7.941358122090033"><ele>616.4285714285714</ele><time>2026-04-18T13:10:05Z</time></trkpt><trkpt lat="45.49252694503768" lon="7.941316416491943"><ele>620.5714285714287</ele><time>2026-04-18T13:10:07Z</time></trkpt><trkpt lat="45.492612177963885" lon="7.941259549342529"><ele>624.7142857142858</ele><time>2026-04-18T13:10:09Z</time></trkpt><trkpt lat="45.492652642901284" lon="7.941173422417129"><ele>628.8571428571429</ele><time>2026-04-18T13:10:11Z</time></trkpt><trkpt lat="45.49267015613149" lon="7.941071371727866"><ele>633.0</ele><time>2026-04-18T13:10:13Z</time></trkpt><trkpt lat="45.49267767944291" lon="7.940948019956741"><ele>633.0</ele><time>2026-04-18T13:10:17.001Z</time></trkpt><trkpt lat="45.49280991558653" lon="7.9409281823551465"><ele>633.0</ele><time>2026-04-18T13:10:56.002Z</time></trkpt><trkpt lat="45.49287457055247" lon="7.940797498324568"><ele>633.0</ele><time>2026-04-18T13:13:22.003Z</time></trkpt><trkpt lat="45.49281775196427" lon="7.9408535407828955"><ele>633.0</ele><time>2026-04-18T13:14:02Z</time></trkpt><trkpt lat="45.492902144247694" lon="7.9408408105422446"><ele>633.0</ele><time>2026-04-18T13:23:21.001Z</time></trkpt><trkpt lat="45.49295021861469" lon="7.940901107870043"><ele>635.6666666666666</ele><time>2026-04-18T13:23:23.001Z</time></trkpt><trkpt lat="45.49301509668432" lon="7.940945678400282"><ele>638.3333333333334</ele><time>2026-04-18T13:23:26.001Z</time></trkpt><trkpt lat="45.492988304596366" lon="7.941032674705766"><ele>641.0</ele><time>2026-04-18T13:23:30.001Z</time></trkpt><trkpt lat="45.49296713654535" lon="7.94117075986095"><ele>643.6666666666667</ele><time>2026-04-18T13:23:33.001Z</time></trkpt><trkpt lat="45.49298087290542" lon="7.941297425425931"><ele>646.3333333333334</ele><time>2026-04-18T13:23:36.002Z</time></trkpt><trkpt lat="45.49305571001662" lon="7.941350749978213"><ele>649.0</ele><time>2026-04-18T13:23:38.002Z</time></trkpt><trkpt lat="45.49314569129385" lon="7.94141470235702"><ele>649.0</ele><time>2026-04-18T13:23:40.002Z</time></trkpt><trkpt lat="45.49318417399833" lon="7.9415144358963055"><ele>649.0</ele><time>2026-04-18T13:23:42.002Z</time></trkpt><trkpt lat="45.493178829148654" lon="7.941622919533969"><ele>649.0</ele><time>2026-04-18T13:23:45.002Z</time></trkpt><trkpt lat="45.49318052849097" lon="7.941754880509366"><ele>649.0</ele><time>2026-04-18T13:23:48.002Z</time></trkpt><trkpt lat="45.49325006025661" lon="7.941792330988174"><ele>649.0</ele><time>2026-04-18T13:23:51.002Z</time></trkpt><trkpt lat="45.49331626665745" lon="7.941803269128333"><ele>649.0</ele><time>2026-04-18T13:23:54.002Z</time></trkpt><trkpt lat="45.493381907734765" lon="7.941840105091626"><ele>648.8333333333334</ele><time>2026-04-18T13:23:57.002Z</time></trkpt><trkpt lat="45.49344998029072" lon="7.941859268679161"><ele>648.6666666666667</ele><time>2026-04-18T13:24:01Z</time></trkpt><trkpt lat="45.493583554110714" lon="7.941881161469871"><ele>648.5</ele><time>2026-04-18T13:24:07Z</time></trkpt><trkpt lat="45.49364804938853" lon="7.941914306094242"><ele>648.3333333333334</ele><time>2026-04-18T13:24:10Z</time></trkpt><trkpt lat="45.493721909192544" lon="7.9419406366814576"><ele>648.1666666666666</ele><time>2026-04-18T13:24:14Z</time></trkpt><trkpt lat="45.49377733810842" lon="7.9420526800992945"><ele>648.0</ele><time>2026-04-18T13:24:17Z</time></trkpt><trkpt lat="45.493783342564925" lon="7.94214629813017"><ele>646.8</ele><time>2026-04-18T13:24:19Z</time></trkpt><trkpt lat="45.49375477567092" lon="7.9422726188507715"><ele>645.5999999999999</ele><time>2026-04-18T13:24:22Z</time></trkpt><trkpt lat="45.4937025090755" lon="7.942416454455853"><ele>644.4000000000001</ele><time>2026-04-18T13:24:24Z</time></trkpt><trkpt lat="45.493629877088026" lon="7.942528971332212"><ele>643.2</ele><time>2026-04-18T13:24:26Z</time></trkpt><trkpt lat="45.49360963933063" lon="7.942630590477511"><ele>642.0</ele><time>2026-04-18T13:24:28Z</time></trkpt><trkpt lat="45.49357018961241" lon="7.942746928616649"><ele>642.0</ele><time>2026-04-18T13:24:30Z</time></trkpt><trkpt lat="45.49349127857083" lon="7.942869741906468"><ele>642.0</ele><time>2026-04-18T13:24:32Z</time></trkpt><trkpt lat="45.49345949026357" lon="7.943027815194239"><ele>642.0</ele><time>2026-04-18T13:24:34Z</time></trkpt><trkpt lat="45.493583554110714" lon="7.941881161469871"><ele>642.0</ele><time>2026-04-18T13:24:07Z</time></trkpt><trkpt lat="45.49364804938853" lon="7.941914306094242"><ele>642.0</ele><time>2026-04-18T13:24:10Z</time></trkpt><trkpt lat="45.493721909192544" lon="7.9419406366814576"><ele>642.0</ele><time>2026-04-18T13:24:14Z</time></trkpt><trkpt lat="45.49377733810842" lon="7.9420526800992945"><ele>642.0</ele><time>2026-04-18T13:24:17Z</time></trkpt><trkpt lat="45.493783342564925" lon="7.94214629813017"><ele>642.0</ele><time>2026-04-18T13:24:19Z</time></trkpt><trkpt lat="45.49375477567092" lon="7.9422726188507715"><ele>642.0</ele><time>2026-04-18T13:24:22Z</time></trkpt><trkpt lat="45.4937025090755" lon="7.942416454455853"><ele>642.0</ele><time>2026-04-18T13:24:24Z</time></trkpt><trkpt lat="45.493629877088026" lon="7.942528971332212"><ele>642.0</ele><time>2026-04-18T13:24:26Z</time></trkpt><trkpt lat="45.49360963933063" lon="7.942630590477511"><ele>642.0</ele><time>2026-04-18T13:24:28Z</time></trkpt><trkpt lat="45.49357018961241" lon="7.942746928616649"><ele>642.0</ele><time>2026-04-18T13:24:30Z</time></trkpt><trkpt lat="45.49349127857083" lon="7.942869741906468"><ele>642.0</ele><time>2026-04-18T13:24:32Z</time></trkpt><trkpt lat="45.49345949026357" lon="7.943027815194239"><ele>641.2</ele><time>2026-04-18T13:24:34Z</time></trkpt><trkpt lat="45.49338125671794" lon="7.943142164659031"><ele>640.4000000000001</ele><time>2026-04-18T13:24:36Z</time></trkpt><trkpt lat="45.493319197227464" lon="7.943287917156111"><ele>639.5999999999999</ele><time>2026-04-18T13:24:38.001Z</time></trkpt><trkpt lat="45.493252359444355" lon="7.943371994842483"><ele>638.8</ele><time>2026-04-18T13:24:39.001Z</time></trkpt><trkpt lat="45.49319587718228" lon="7.943461776369586"><ele>638.0</ele><time>2026-04-18T13:24:40.001Z</time></trkpt><trkpt lat="45.49314583763411" lon="7.943547317057824"><ele>638.0</ele><time>2026-04-18T13:24:41.001Z</time></trkpt><trkpt lat="45.49308763076946" lon="7.943636052726516"><ele>638.0</ele><time>2026-04-18T13:24:42.001Z</time></trkpt><trkpt lat="45.493047387093775" lon="7.943728720907642"><ele>638.0</ele><time>2026-04-18T13:24:43.001Z</time></trkpt><trkpt lat="45.4930036158922" lon="7.943826341588568"><ele>638.0</ele><time>2026-04-18T13:24:44.001Z</time></trkpt><trkpt lat="45.49296019342918" lon="7.943911499737948"><ele>638.0</ele><time>2026-04-18T13:24:45.001Z</time></trkpt><trkpt lat="45.49289708087612" lon="7.944002925882231"><ele>638.0</ele><time>2026-04-18T13:24:46.001Z</time></trkpt><trkpt lat="45.4928075076113" lon="7.944115288620686"><ele>635.4</ele><time>2026-04-18T13:24:47.001Z</time></trkpt><trkpt lat="45.49275055108292" lon="7.944186658288218"><ele>632.8</ele><time>2026-04-18T13:24:48.001Z</time></trkpt><trkpt lat="45.49265754413056" lon="7.944305616458884"><ele>630.2</ele><time>2026-04-18T13:24:50.001Z</time></trkpt><trkpt lat="45.4925733020967" lon="7.944367268336225"><ele>627.6</ele><time>2026-04-18T13:24:51.001Z</time></trkpt><trkpt lat="45.492511743022696" lon="7.944419620570989"><ele>625.0</ele><time>2026-04-18T13:24:52.001Z</time></trkpt><trkpt lat="45.492445409081256" lon="7.944499863918014"><ele>625.0</ele><time>2026-04-18T13:24:53.001Z</time></trkpt><trkpt lat="45.49239054138636" lon="7.944569443326301"><ele>625.0</ele><time>2026-04-18T13:24:54.001Z</time></trkpt><trkpt lat="45.49233605961932" lon="7.944626552967302"><ele>625.0</ele><time>2026-04-18T13:24:55.001Z</time></trkpt><trkpt lat="45.492238222892105" lon="7.944710246822902"><ele>625.0</ele><time>2026-04-18T13:24:56.001Z</time></trkpt><trkpt lat="45.49213389109601" lon="7.944762741166177"><ele>625.0</ele><time>2026-04-18T13:24:57.001Z</time></trkpt><trkpt lat="45.49203534950371" lon="7.9448215023878195"><ele>624.4</ele><time>2026-04-18T13:24:58.001Z</time></trkpt><trkpt lat="45.49197454499926" lon="7.944875894089372"><ele>623.8</ele><time>2026-04-18T13:24:59.001Z</time></trkpt><trkpt lat="45.49195339211596" lon="7.945006681900153"><ele>623.2</ele><time>2026-04-18T13:25:01.001Z</time></trkpt><trkpt lat="45.49192947772512" lon="7.945203527269001"><ele>622.6</ele><time>2026-04-18T13:25:03.001Z</time></trkpt><trkpt lat="45.49194907652267" lon="7.945391160066391"><ele>622.0</ele><time>2026-04-18T13:25:04.001Z</time></trkpt><trkpt lat="45.49195948377297" lon="7.945558889920767"><ele>622.0</ele><time>2026-04-18T13:25:05.001Z</time></trkpt><trkpt lat="45.491966533961566" lon="7.945695989000504"><ele>622.0</ele><time>2026-04-18T13:25:06.001Z</time></trkpt><trkpt lat="45.491946411286" lon="7.945824216641723"><ele>622.0</ele><time>2026-04-18T13:25:07.001Z</time></trkpt><trkpt lat="45.49188881146496" lon="7.945961897310473"><ele>622.0</ele><time>2026-04-18T13:25:08.001Z</time></trkpt><trkpt lat="45.49185245645963" lon="7.946081028328913"><ele>622.0</ele><time>2026-04-18T13:25:09.001Z</time></trkpt><trkpt lat="45.49180567769386" lon="7.946222707520858"><ele>623.0</ele><time>2026-04-18T13:25:10.001Z</time></trkpt><trkpt lat="45.49176456024019" lon="7.946356678403864"><ele>624.0</ele><time>2026-04-18T13:25:11.001Z</time></trkpt><trkpt lat="45.49173900309235" lon="7.946483947717174"><ele>625.0</ele><time>2026-04-18T13:25:12.001Z</time></trkpt><trkpt lat="45.49171772071147" lon="7.946598211519272"><ele>626.0</ele><time>2026-04-18T13:25:13.001Z</time></trkpt><trkpt lat="45.49168035027704" lon="7.946715346846621"><ele>627.0</ele><time>2026-04-18T13:25:14.001Z</time></trkpt><trkpt lat="45.491635423572596" lon="7.946817789412398"><ele>628.5</ele><time>2026-04-18T13:25:15.001Z</time></trkpt><trkpt lat="45.491566917327404" lon="7.946915813424706"><ele>630.0</ele><time>2026-04-18T13:25:16.002Z</time></trkpt><trkpt lat="45.49148083359623" lon="7.946992052853043"><ele>631.5</ele><time>2026-04-18T13:25:17.002Z</time></trkpt><trkpt lat="45.49141988885446" lon="7.947051772493699"><ele>633.0</ele><time>2026-04-18T13:25:18.002Z</time></trkpt><trkpt lat="45.49137077364791" lon="7.947122292532974"><ele>634.5</ele><time>2026-04-18T13:25:19.002Z</time></trkpt><trkpt lat="45.4913145336125" lon="7.947187260148038"><ele>636.0</ele><time>2026-04-18T13:25:20.002Z</time></trkpt><trkpt lat="45.491250197453326" lon="7.9472367647531055"><ele>633.0</ele><time>2026-04-18T13:25:21.002Z</time></trkpt><trkpt lat="45.49124265414417" lon="7.9473407835711525"><ele>630.0</ele><time>2026-04-18T13:25:23.002Z</time></trkpt><trkpt lat="45.49117857802554" lon="7.9473874469880865"><ele>627.0</ele><time>2026-04-18T13:25:26.002Z</time></trkpt><trkpt lat="45.49109427781674" lon="7.947355618972002"><ele>624.0</ele><time>2026-04-18T13:25:30.002Z</time></trkpt><trkpt lat="45.49105573175984" lon="7.947477942697771"><ele>621.0</ele><time>2026-04-18T13:25:32.002Z</time></trkpt><trkpt lat="45.491006167731754" lon="7.947584116482957"><ele>618.0</ele><time>2026-04-18T13:25:34.002Z</time></trkpt><trkpt lat="45.49093086616659" lon="7.947672322913506"><ele>618.0</ele><time>2026-04-18T13:25:36.002Z</time></trkpt><trkpt lat="45.490795108296496" lon="7.947724894681859"><ele>618.0</ele><time>2026-04-18T13:25:38.002Z</time></trkpt><trkpt lat="45.49073579257296" lon="7.947789370542804"><ele>618.0</ele><time>2026-04-18T13:25:39.002Z</time></trkpt><trkpt lat="45.4906654492327" lon="7.94786187376445"><ele>618.0</ele><time>2026-04-18T13:25:40.002Z</time></trkpt><trkpt lat="45.490603015548366" lon="7.9479221480565325"><ele>618.0</ele><time>2026-04-18T13:25:41.002Z</time></trkpt><trkpt lat="45.49053355469805" lon="7.948045513727159"><ele>618.0</ele><time>2026-04-18T13:25:43.002Z</time></trkpt><trkpt lat="45.4904961971524" lon="7.948119017724478"><ele>618.0</ele><time>2026-04-18T13:25:44.002Z</time></trkpt><trkpt lat="45.490391647669476" lon="7.948231845923445"><ele>618.0</ele><time>2026-04-18T13:25:46.002Z</time></trkpt><trkpt lat="45.49033959626521" lon="7.948287271187094"><ele>618.0</ele><time>2026-04-18T13:25:47.002Z</time></trkpt><trkpt lat="45.490274641770014" lon="7.948340459192296"><ele>618.0</ele><time>2026-04-18T13:25:48.002Z</time></trkpt><trkpt lat="45.49021580537026" lon="7.948410698519077"><ele>618.0</ele><time>2026-04-18T13:25:49.002Z</time></trkpt><trkpt lat="45.49015795689934" lon="7.948474901447463"><ele>615.6</ele><time>2026-04-18T13:25:50.002Z</time></trkpt><trkpt lat="45.490076869749714" lon="7.948572573076092"><ele>613.1999999999999</ele><time>2026-04-18T13:25:52.002Z</time></trkpt><trkpt lat="45.490013224813225" lon="7.948647715188983"><ele>610.8</ele><time>2026-04-18T13:25:53.003Z</time></trkpt><trkpt lat="45.48993503069408" lon="7.948717407317335"><ele>608.4</ele><time>2026-04-18T13:25:54.003Z</time></trkpt><trkpt lat="45.48986625855634" lon="7.948786752925658"><ele>606.0</ele><time>2026-04-18T13:25:55.003Z</time></trkpt><trkpt lat="45.48979629166912" lon="7.94886164396093"><ele>606.0</ele><time>2026-04-18T13:25:56.003Z</time></trkpt><trkpt lat="45.489718985262236" lon="7.948925006936912"><ele>606.0</ele><time>2026-04-18T13:25:57.003Z</time></trkpt><trkpt lat="45.48966850536779" lon="7.948995377151713"><ele>606.0</ele><time>2026-04-18T13:25:58.003Z</time></trkpt><trkpt lat="45.48959304931723" lon="7.94914696255244"><ele>606.0</ele><time>2026-04-18T13:26:00.003Z</time></trkpt><trkpt lat="45.489552733187075" lon="7.949216717311817"><ele>606.0</ele><time>2026-04-18T13:26:01.003Z</time></trkpt><trkpt lat="45.48950003430603" lon="7.949280082438029"><ele>606.0</ele><time>2026-04-18T13:26:02.003Z</time></trkpt><trkpt lat="45.489431363853456" lon="7.949347105886485"><ele>604.3333333333334</ele><time>2026-04-18T13:26:03.003Z</time></trkpt><trkpt lat="45.489361111204424" lon="7.949397573130791"><ele>602.6666666666666</ele><time>2026-04-18T13:26:03.999Z</time></trkpt><trkpt lat="45.48928162001385" lon="7.949460792789815"><ele>601.0</ele><time>2026-04-18T13:26:04.999Z</time></trkpt><trkpt lat="45.489199975904576" lon="7.949534242637751"><ele>599.3333333333333</ele><time>2026-04-18T13:26:05.999Z</time></trkpt><trkpt lat="45.48914282661467" lon="7.949602622741941"><ele>597.6666666666666</ele><time>2026-04-18T13:26:06.999Z</time></trkpt><trkpt lat="45.48909818316118" lon="7.949692645663854"><ele>596.0</ele><time>2026-04-18T13:26:07.999Z</time></trkpt><trkpt lat="45.48901967744362" lon="7.949777680573751"><ele>596.0</ele><time>2026-04-18T13:26:08.999Z</time></trkpt><trkpt lat="45.48892950358054" lon="7.949839501469545"><ele>596.0</ele><time>2026-04-18T13:26:09.999Z</time></trkpt><trkpt lat="45.4888670648746" lon="7.949883856204031"><ele>596.0</ele><time>2026-04-18T13:26:10.999Z</time></trkpt><trkpt lat="45.48881161227036" lon="7.949987883764405"><ele>596.0</ele><time>2026-04-18T13:26:12.999Z</time></trkpt><trkpt lat="45.48876215887445" lon="7.950058863332884"><ele>596.0</ele><time>2026-04-18T13:26:13.999Z</time></trkpt><trkpt lat="45.48867377403351" lon="7.950154075456594"><ele>596.0</ele><time>2026-04-18T13:26:15.999Z</time></trkpt><trkpt lat="45.48859111368523" lon="7.9502416022871065"><ele>594.0</ele><time>2026-04-18T13:26:17.999Z</time></trkpt><trkpt lat="45.48853017210906" lon="7.950362340622819"><ele>592.0</ele><time>2026-04-18T13:26:19.999Z</time></trkpt><trkpt lat="45.48844688764953" lon="7.950495202103994"><ele>590.0</ele><time>2026-04-18T13:26:22Z</time></trkpt><trkpt lat="45.48839993305112" lon="7.950589540310458"><ele>588.0</ele><time>2026-04-18T13:26:24Z</time></trkpt><trkpt lat="45.488370907690545" lon="7.950702788880844"><ele>586.0</ele><time>2026-04-18T13:26:26Z</time></trkpt><trkpt lat="45.488314575777665" lon="7.950829631500196"><ele>589.2</ele><time>2026-04-18T13:26:28Z</time></trkpt><trkpt lat="45.488250517151144" lon="7.950952569404284"><ele>592.4000000000001</ele><time>2026-04-18T13:26:30Z</time></trkpt><trkpt lat="45.48820630804596" lon="7.951037645677847"><ele>595.6</ele><time>2026-04-18T13:26:33Z</time></trkpt><trkpt lat="45.48812444605587" lon="7.951191549648474"><ele>598.8000000000001</ele><time>2026-04-18T13:26:58.001Z</time></trkpt><trkpt lat="45.4880615110799" lon="7.951209604751143"><ele>602.0</ele><time>2026-04-18T13:27:00.001Z</time></trkpt><trkpt lat="45.488016086892294" lon="7.9513424913871855"><ele>599.5</ele><time>2026-04-18T13:27:03.001Z</time></trkpt><trkpt lat="45.487917597676024" lon="7.951473604684867"><ele>597.0</ele><time>2026-04-18T13:27:05.001Z</time></trkpt><trkpt lat="45.48785550634708" lon="7.951537654711808"><ele>594.5</ele><time>2026-04-18T13:27:06.001Z</time></trkpt><trkpt lat="45.48780638006868" lon="7.951642662575231"><ele>592.0</ele><time>2026-04-18T13:27:08.001Z</time></trkpt><trkpt lat="45.48778498707369" lon="7.9517334028151625"><ele>589.5</ele><time>2026-04-18T13:27:09.001Z</time></trkpt><trkpt lat="45.4877455880116" lon="7.9518336538752195"><ele>587.0</ele><time>2026-04-18T13:27:10.001Z</time></trkpt><trkpt lat="45.48767515443734" lon="7.951925912698975"><ele>587.0</ele><time>2026-04-18T13:27:11.001Z</time></trkpt><trkpt lat="45.48758869722985" lon="7.9520237532778015"><ele>587.0</ele><time>2026-04-18T13:27:12.001Z</time></trkpt><trkpt lat="45.48749670109771" lon="7.95211652991736"><ele>587.0</ele><time>2026-04-18T13:27:13.001Z</time></trkpt><trkpt lat="45.48740325991401" lon="7.952184894499712"><ele>587.0</ele><time>2026-04-18T13:27:14.001Z</time></trkpt><trkpt lat="45.48732250447301" lon="7.952285298877645"><ele>587.0</ele><time>2026-04-18T13:27:15.001Z</time></trkpt><trkpt lat="45.48724380423714" lon="7.952361333450155"><ele>587.0</ele><time>2026-04-18T13:27:16.001Z</time></trkpt><trkpt lat="45.487174602635214" lon="7.9524416722218225"><ele>587.0</ele><time>2026-04-18T13:27:17.001Z</time></trkpt><trkpt lat="45.48710106416542" lon="7.952526396193911"><ele>587.0</ele><time>2026-04-18T13:27:18.001Z</time></trkpt><trkpt lat="45.48702571796649" lon="7.952592979485644"><ele>587.0</ele><time>2026-04-18T13:27:19.001Z</time></trkpt><trkpt lat="45.48692783474152" lon="7.952665487615781"><ele>587.0</ele><time>2026-04-18T13:27:20.001Z</time></trkpt><trkpt lat="45.48682660280027" lon="7.952777688692503"><ele>584.8000000000001</ele><time>2026-04-18T13:27:21.001Z</time></trkpt><trkpt lat="45.4867432169612" lon="7.952906678422826"><ele>582.6</ele><time>2026-04-18T13:27:22.001Z</time></trkpt><trkpt lat="45.48666310341473" lon="7.9530098686481665"><ele>580.4000000000001</ele><time>2026-04-18T13:27:23.001Z</time></trkpt><trkpt lat="45.48657044600152" lon="7.953098408045775"><ele>578.2</ele><time>2026-04-18T13:27:24.001Z</time></trkpt><trkpt lat="45.48650690242536" lon="7.953172901098984"><ele>576.0</ele><time>2026-04-18T13:27:25.001Z</time></trkpt><trkpt lat="45.48648081300574" lon="7.953262162727725"><ele>574.4</ele><time>2026-04-18T13:27:26.001Z</time></trkpt><trkpt lat="45.4864331116458" lon="7.953424716374796"><ele>572.8</ele><time>2026-04-18T13:27:27.001Z</time></trkpt><trkpt lat="45.48640568155431" lon="7.953527549906223"><ele>571.1999999999999</ele><time>2026-04-18T13:27:28.001Z</time></trkpt><trkpt lat="45.48637124157822" lon="7.953616083923597"><ele>569.6</ele><time>2026-04-18T13:27:29.001Z</time></trkpt><trkpt lat="45.48626625783354" lon="7.953722131751779"><ele>568.0</ele><time>2026-04-18T13:27:31.001Z</time></trkpt><trkpt lat="45.48617163542501" lon="7.953770264538667"><ele>568.0</ele><time>2026-04-18T13:27:32.001Z</time></trkpt><trkpt lat="45.48602409289359" lon="7.9538521696927615"><ele>568.0</ele><time>2026-04-18T13:27:33.001Z</time></trkpt><trkpt lat="45.485937372339585" lon="7.953998227356981"><ele>568.0</ele><time>2026-04-18T13:27:34.001Z</time></trkpt><trkpt lat="45.4858660249129" lon="7.954135382503752"><ele>568.0</ele><time>2026-04-18T13:27:35.002Z</time></trkpt><trkpt lat="45.48580899611748" lon="7.954267753790545"><ele>570.5</ele><time>2026-04-18T13:27:36.002Z</time></trkpt><trkpt lat="45.48573085545054" lon="7.954422033304253"><ele>573.0</ele><time>2026-04-18T13:27:37.002Z</time></trkpt><trkpt lat="45.48567903785047" lon="7.954587005892747"><ele>575.5</ele><time>2026-04-18T13:27:38.002Z</time></trkpt><trkpt lat="45.485628822059894" lon="7.954724199670149"><ele>578.0</ele><time>2026-04-18T13:27:39.002Z</time></trkpt><trkpt lat="45.48557707818808" lon="7.954844620949572"><ele>578.0</ele><time>2026-04-18T13:27:40.002Z</time></trkpt><trkpt lat="45.48550023803733" lon="7.954967076793818"><ele>578.0</ele><time>2026-04-18T13:27:41.002Z</time></trkpt><trkpt lat="45.485405249822286" lon="7.95507327319108"><ele>578.0</ele><time>2026-04-18T13:27:42.002Z</time></trkpt><trkpt lat="45.48532173844528" lon="7.955178582504943"><ele>578.0</ele><time>2026-04-18T13:27:43.002Z</time></trkpt><trkpt lat="45.485243900523116" lon="7.955242958422226"><ele>578.0</ele><time>2026-04-18T13:27:44.002Z</time></trkpt><trkpt lat="45.48518915790748" lon="7.955309585529361"><ele>578.1666666666666</ele><time>2026-04-18T13:27:45.002Z</time></trkpt><trkpt lat="45.48512063664724" lon="7.955419070853457"><ele>578.3333333333333</ele><time>2026-04-18T13:27:47.002Z</time></trkpt><trkpt lat="45.48501009536257" lon="7.955477485309619"><ele>578.5</ele><time>2026-04-18T13:27:49.002Z</time></trkpt><trkpt lat="45.484933186135265" lon="7.955503885477694"><ele>578.6666666666666</ele><time>2026-04-18T13:27:50.002Z</time></trkpt><trkpt lat="45.484872727033554" lon="7.955563748883429"><ele>578.8333333333334</ele><time>2026-04-18T13:27:51.002Z</time></trkpt><trkpt lat="45.48482942095536" lon="7.955641733451753"><ele>579.0</ele><time>2026-04-18T13:27:52.002Z</time></trkpt><trkpt lat="45.4847668279157" lon="7.955754741557813"><ele>579.0</ele><time>2026-04-18T13:27:53.002Z</time></trkpt><trkpt lat="45.48468902574449" lon="7.9558652172342015"><ele>579.0</ele><time>2026-04-18T13:27:54.002Z</time></trkpt><trkpt lat="45.48465981532899" lon="7.955955334653536"><ele>579.0</ele><time>2026-04-18T13:27:57.002Z</time></trkpt><trkpt lat="45.48463784460083" lon="7.956050322948886"><ele>579.0</ele><time>2026-04-18T13:28:01.002Z</time></trkpt><trkpt lat="45.484626471623905" lon="7.956166727980978"><ele>579.0</ele><time>2026-04-18T13:28:03.002Z</time></trkpt><trkpt lat="45.484605708320814" lon="7.956287577355605"><ele>579.0</ele><time>2026-04-18T13:28:05.002Z</time></trkpt><trkpt lat="45.484589181335956" lon="7.956418206798649"><ele>578.0</ele><time>2026-04-18T13:28:07.002Z</time></trkpt><trkpt lat="45.48453426162347" lon="7.956588629071224"><ele>577.0</ele><time>2026-04-18T13:28:09.002Z</time></trkpt><trkpt lat="45.484461912543615" lon="7.956738556806797"><ele>576.0</ele><time>2026-04-18T13:28:09.999Z</time></trkpt><trkpt lat="45.48438382665654" lon="7.956876627850691"><ele>575.0</ele><time>2026-04-18T13:28:10.999Z</time></trkpt><trkpt lat="45.48430742766529" lon="7.9570212534173415"><ele>577.0</ele><time>2026-04-18T13:28:11.999Z</time></trkpt><trkpt lat="45.484232198950856" lon="7.957197814889453"><ele>579.0</ele><time>2026-04-18T13:28:12.999Z</time></trkpt><trkpt lat="45.484187756631826" lon="7.95734742694144"><ele>581.0</ele><time>2026-04-18T13:28:13.999Z</time></trkpt><trkpt lat="45.48415851831966" lon="7.95745198451184"><ele>583.0</ele><time>2026-04-18T13:28:14.999Z</time></trkpt><trkpt lat="45.484139919285475" lon="7.957579286675243"><ele>585.0</ele><time>2026-04-18T13:28:15.999Z</time></trkpt><trkpt lat="45.48408910721301" lon="7.95770051799979"><ele>589.6</ele><time>2026-04-18T13:28:16.999Z</time></trkpt><trkpt lat="45.484058440302334" lon="7.957805741859255"><ele>594.2</ele><time>2026-04-18T13:28:17.999Z</time></trkpt><trkpt lat="45.484022761594474" lon="7.9578955801279"><ele>598.8</ele><time>2026-04-18T13:28:18.999Z</time></trkpt><trkpt lat="45.483983617823334" lon="7.95797937057337"><ele>603.4</ele><time>2026-04-18T13:28:19.999Z</time></trkpt><trkpt lat="45.4839049805623" lon="7.958145148191835"><ele>608.0</ele><time>2026-04-18T13:28:20.999Z</time></trkpt><trkpt lat="45.483853353785726" lon="7.958276416358589"><ele>605.1999999999999</ele><time>2026-04-18T13:28:21.999Z</time></trkpt><trkpt lat="45.48379725525535" lon="7.958401413897578"><ele>602.4</ele><time>2026-04-18T13:28:22.999Z</time></trkpt><trkpt lat="45.48374750130217" lon="7.9585225227281695"><ele>599.5999999999999</ele><time>2026-04-18T13:28:23.999Z</time></trkpt><trkpt lat="45.48371306074039" lon="7.958611916809564"><ele>596.8</ele><time>2026-04-18T13:28:24.999Z</time></trkpt><trkpt lat="45.48364658808767" lon="7.958781554736706"><ele>594.0</ele><time>2026-04-18T13:28:26.999Z</time></trkpt><trkpt lat="45.48357075584848" lon="7.958858175088776"><ele>594.0</ele><time>2026-04-18T13:28:27.999Z</time></trkpt><trkpt lat="45.483515874139215" lon="7.958980488032239"><ele>594.0</ele><time>2026-04-18T13:28:28.999Z</time></trkpt><trkpt lat="45.48347359276958" lon="7.9590758797743755"><ele>594.0</ele><time>2026-04-18T13:28:29.999Z</time></trkpt><trkpt lat="45.48344723472497" lon="7.959164879104781"><ele>594.0</ele><time>2026-04-18T13:28:30.999Z</time></trkpt><trkpt lat="45.48341490841217" lon="7.959296014061848"><ele>594.0</ele><time>2026-04-18T13:28:32.999Z</time></trkpt><trkpt lat="45.48337265487015" lon="7.959385450990899"><ele>594.0</ele><time>2026-04-18T13:28:34.999Z</time></trkpt><trkpt lat="45.48330675502077" lon="7.959532634787129"><ele>598.4</ele><time>2026-04-18T13:28:36.999Z</time></trkpt><trkpt lat="45.48321903987582" lon="7.9597078309561295"><ele>602.8</ele><time>2026-04-18T13:28:38.999Z</time></trkpt><trkpt lat="45.48317156029374" lon="7.959848765278449"><ele>607.2</ele><time>2026-04-18T13:28:39.999Z</time></trkpt><trkpt lat="45.48311827877249" lon="7.959963168502666"><ele>611.6</ele><time>2026-04-18T13:28:40.999Z</time></trkpt><trkpt lat="45.48308077287296" lon="7.960075428977001"><ele>616.0</ele><time>2026-04-18T13:28:41.999Z</time></trkpt><trkpt lat="45.48303419946505" lon="7.9601918796188516"><ele>617.6</ele><time>2026-04-18T13:28:42.999Z</time></trkpt><trkpt lat="45.482990020137976" lon="7.960324412237926"><ele>619.2</ele><time>2026-04-18T13:28:43.999Z</time></trkpt><trkpt lat="45.48295397842049" lon="7.960463938470804"><ele>620.8</ele><time>2026-04-18T13:28:45Z</time></trkpt><trkpt lat="45.482914198364746" lon="7.960576748820965"><ele>622.4</ele><time>2026-04-18T13:28:46Z</time></trkpt><trkpt lat="45.482877743041485" lon="7.960672510600955"><ele>624.0</ele><time>2026-04-18T13:28:47Z</time></trkpt><trkpt lat="45.48283008674403" lon="7.9607871679158455"><ele>623.0</ele><time>2026-04-18T13:28:48Z</time></trkpt><trkpt lat="45.482794445403904" lon="7.96089393359642"><ele>622.0</ele><time>2026-04-18T13:28:49Z</time></trkpt><trkpt lat="45.48278932271341" lon="7.960997742533817"><ele>621.0</ele><time>2026-04-18T13:28:50Z</time></trkpt><trkpt lat="45.48278525948105" lon="7.961115899731285"><ele>620.0</ele><time>2026-04-18T13:28:51Z</time></trkpt><trkpt lat="45.48278753580852" lon="7.961205903816936"><ele>619.0</ele><time>2026-04-18T13:28:52Z</time></trkpt><trkpt lat="45.48280241393877" lon="7.961381743821416"><ele>618.0</ele><time>2026-04-18T13:28:54Z</time></trkpt><trkpt lat="45.482794670727344" lon="7.961538066337603"><ele>618.0</ele><time>2026-04-18T13:28:56Z</time></trkpt><trkpt lat="45.482766284810815" lon="7.961660173114686"><ele>618.0</ele><time>2026-04-18T13:28:58Z</time></trkpt><trkpt lat="45.482697527322514" lon="7.961743144422918"><ele>618.0</ele><time>2026-04-18T13:29:00Z</time></trkpt><trkpt lat="45.48260630868379" lon="7.96181290774399"><ele>618.0</ele><time>2026-04-18T13:29:02Z</time></trkpt><trkpt lat="45.48253470719737" lon="7.961931375875093"><ele>618.0</ele><time>2026-04-18T13:29:04Z</time></trkpt><trkpt lat="45.4824272226116" lon="7.962012439296504"><ele>619.5</ele><time>2026-04-18T13:29:06Z</time></trkpt><trkpt lat="45.48237289403878" lon="7.962107590016277"><ele>621.0</ele><time>2026-04-18T13:29:07Z</time></trkpt><trkpt lat="45.48234254356144" lon="7.962202286623611"><ele>622.5</ele><time>2026-04-18T13:29:08Z</time></trkpt><trkpt lat="45.482274087918825" lon="7.962308803789074"><ele>624.0</ele><time>2026-04-18T13:29:09Z</time></trkpt><trkpt lat="45.48222311627295" lon="7.962380406541901"><ele>625.5</ele><time>2026-04-18T13:29:10Z</time></trkpt><trkpt lat="45.482186187925876" lon="7.962487238469646"><ele>627.0</ele><time>2026-04-18T13:29:11Z</time></trkpt><trkpt lat="45.48211765223941" lon="7.962676031789848"><ele>625.2</ele><time>2026-04-18T13:29:13Z</time></trkpt><trkpt lat="45.4820195786528" lon="7.962782927532912"><ele>623.4000000000001</ele><time>2026-04-18T13:29:14Z</time></trkpt><trkpt lat="45.48192516073163" lon="7.962845224963546"><ele>621.5999999999999</ele><time>2026-04-18T13:29:15Z</time></trkpt><trkpt lat="45.48184919028331" lon="7.962912277109061"><ele>619.8</ele><time>2026-04-18T13:29:16Z</time></trkpt><trkpt lat="45.48174558109367" lon="7.963006548334391"><ele>618.0</ele><time>2026-04-18T13:29:17Z</time></trkpt><trkpt lat="45.481656976352035" lon="7.96312589457091"><ele>618.0</ele><time>2026-04-18T13:29:18.001Z</time></trkpt><trkpt lat="45.48156459000338" lon="7.963244045602932"><ele>618.0</ele><time>2026-04-18T13:29:19.001Z</time></trkpt><trkpt lat="45.481477631301885" lon="7.963339037441548"><ele>618.0</ele><time>2026-04-18T13:29:20.001Z</time></trkpt><trkpt lat="45.48141188487869" lon="7.963441398234937"><ele>618.0</ele><time>2026-04-18T13:29:21.001Z</time></trkpt><trkpt lat="45.48132859997225" lon="7.963561274651414"><ele>618.0</ele><time>2026-04-18T13:29:22.001Z</time></trkpt><trkpt lat="45.48123912449012" lon="7.963669453716074"><ele>616.25</ele><time>2026-04-18T13:29:23.001Z</time></trkpt><trkpt lat="45.48112789832905" lon="7.9637759295963315"><ele>614.5</ele><time>2026-04-18T13:29:24.001Z</time></trkpt><trkpt lat="45.48103756405026" lon="7.963858266143861"><ele>612.75</ele><time>2026-04-18T13:29:25.001Z</time></trkpt><trkpt lat="45.4809442438139" lon="7.96393983923252"><ele>611.0</ele><time>2026-04-18T13:29:26.001Z</time></trkpt><trkpt lat="45.480859290336205" lon="7.964059658512951"><ele>611.0</ele><time>2026-04-18T13:29:27.001Z</time></trkpt><trkpt lat="45.48079163510858" lon="7.9641760395893195"><ele>611.0</ele><time>2026-04-18T13:29:28.001Z</time></trkpt><trkpt lat="45.48072596439636" lon="7.964281574771518"><ele>611.0</ele><time>2026-04-18T13:29:29.001Z</time></trkpt><trkpt lat="45.48065976696863" lon="7.96440067130844"><ele>611.0</ele><time>2026-04-18T13:29:30.001Z</time></trkpt><trkpt lat="45.48058572608194" lon="7.964510983384391"><ele>611.0</ele><time>2026-04-18T13:29:31.001Z</time></trkpt><trkpt lat="45.48049515003175" lon="7.964606935179782"><ele>611.0</ele><time>2026-04-18T13:29:32.001Z</time></trkpt><trkpt lat="45.480425492563114" lon="7.964691611063241"><ele>611.0</ele><time>2026-04-18T13:29:33.001Z</time></trkpt><trkpt lat="45.480359353942696" lon="7.9648067513675525"><ele>611.0</ele><time>2026-04-18T13:29:34.001Z</time></trkpt><trkpt lat="45.480307692964686" lon="7.964945212572236"><ele>611.0</ele><time>2026-04-18T13:29:35.001Z</time></trkpt><trkpt lat="45.4802361585261" lon="7.965057219844708"><ele>611.0</ele><time>2026-04-18T13:29:36.001Z</time></trkpt><trkpt lat="45.480176946873506" lon="7.9651583121024405"><ele>611.0</ele><time>2026-04-18T13:29:37.001Z</time></trkpt><trkpt lat="45.48010677132025" lon="7.965245981373271"><ele>611.0</ele><time>2026-04-18T13:29:38.001Z</time></trkpt><trkpt lat="45.480033116530365" lon="7.96534346131874"><ele>611.0</ele><time>2026-04-18T13:29:39.001Z</time></trkpt><trkpt lat="45.479963289834245" lon="7.965428219213069"><ele>611.0</ele><time>2026-04-18T13:29:40.001Z</time></trkpt><trkpt lat="45.47987827302039" lon="7.965519647258586"><ele>611.0</ele><time>2026-04-18T13:29:41.001Z</time></trkpt><trkpt lat="45.479790941239735" lon="7.96559791899233"><ele>611.0</ele><time>2026-04-18T13:29:42.001Z</time></trkpt><trkpt lat="45.479706959417605" lon="7.965668081355048"><ele>611.0</ele><time>2026-04-18T13:29:43.001Z</time></trkpt><trkpt lat="45.47961870965368" lon="7.965753245158191"><ele>611.0</ele><time>2026-04-18T13:29:44.001Z</time></trkpt><trkpt lat="45.47954055213147" lon="7.965825171226895"><ele>611.0</ele><time>2026-04-18T13:29:45.001Z</time></trkpt><trkpt lat="45.47947410697796" lon="7.9659270210711"><ele>611.0</ele><time>2026-04-18T13:29:46.001Z</time></trkpt><trkpt lat="45.479415582571626" lon="7.96604547697447"><ele>611.25</ele><time>2026-04-18T13:29:47.001Z</time></trkpt><trkpt lat="45.47935312906117" lon="7.966175007789417"><ele>611.5</ele><time>2026-04-18T13:29:48.001Z</time></trkpt><trkpt lat="45.4793015380749" lon="7.966305369999599"><ele>611.75</ele><time>2026-04-18T13:29:49.001Z</time></trkpt><trkpt lat="45.479234051857354" lon="7.966437012460869"><ele>612.0</ele><time>2026-04-18T13:29:50.001Z</time></trkpt><trkpt lat="45.47917055754118" lon="7.966592735852086"><ele>613.0</ele><time>2026-04-18T13:29:51.001Z</time></trkpt><trkpt lat="45.47913217021659" lon="7.966741696059579"><ele>614.0</ele><time>2026-04-18T13:29:52.001Z</time></trkpt><trkpt lat="45.47907442826512" lon="7.966907675918223"><ele>615.0</ele><time>2026-04-18T13:29:53.002Z</time></trkpt><trkpt lat="45.479019135321984" lon="7.967035174841901"><ele>616.0</ele><time>2026-04-18T13:29:54.002Z</time></trkpt><trkpt lat="45.47895556122214" lon="7.967149421174906"><ele>617.0</ele><time>2026-04-18T13:29:55.002Z</time></trkpt><trkpt lat="45.47887439595453" lon="7.967263157048854"><ele>617.0</ele><time>2026-04-18T13:29:56.002Z</time></trkpt><trkpt lat="45.47878763595714" lon="7.967368280574608"><ele>617.0</ele><time>2026-04-18T13:29:57.002Z</time></trkpt><trkpt lat="45.4787116171342" lon="7.967505452703757"><ele>617.0</ele><time>2026-04-18T13:29:58.002Z</time></trkpt><trkpt lat="45.47863656511327" lon="7.967644385844638"><ele>617.0</ele><time>2026-04-18T13:29:59.002Z</time></trkpt><trkpt lat="45.47855513356043" lon="7.967757386466853"><ele>615.8000000000001</ele><time>2026-04-18T13:30:00.002Z</time></trkpt><trkpt lat="45.47848637146841" lon="7.967883059799158"><ele>614.6</ele><time>2026-04-18T13:30:01.002Z</time></trkpt><trkpt lat="45.478396025597206" lon="7.967990180238032"><ele>613.4000000000001</ele><time>2026-04-18T13:30:02.002Z</time></trkpt><trkpt lat="45.47831214420716" lon="7.968075163666544"><ele>612.2</ele><time>2026-04-18T13:30:03.002Z</time></trkpt><trkpt lat="45.47825707819006" lon="7.968153804528024"><ele>611.0</ele><time>2026-04-18T13:30:04.002Z</time></trkpt><trkpt lat="45.478219049978904" lon="7.968234718441713"><ele>611.0</ele><time>2026-04-18T13:30:05.002Z</time></trkpt><trkpt lat="45.47818175449263" lon="7.968322308254893"><ele>611.0</ele><time>2026-04-18T13:30:06.002Z</time></trkpt><trkpt lat="45.478119346990994" lon="7.968437509185821"><ele>611.0</ele><time>2026-04-18T13:30:07.002Z</time></trkpt><trkpt lat="45.4780301717151" lon="7.968551029330521"><ele>611.0</ele><time>2026-04-18T13:30:08.002Z</time></trkpt><trkpt lat="45.47795575820637" lon="7.968616722931886"><ele>611.0</ele><time>2026-04-18T13:30:09.002Z</time></trkpt><trkpt lat="45.47789020793575" lon="7.968661531752036"><ele>610.2</ele><time>2026-04-18T13:30:10.002Z</time></trkpt><trkpt lat="45.47787288887768" lon="7.968811608893038"><ele>609.4000000000001</ele><time>2026-04-18T13:30:14.002Z</time></trkpt><trkpt lat="45.47793689153425" lon="7.968938127450867"><ele>608.6</ele><time>2026-04-18T13:30:15.999Z</time></trkpt><trkpt lat="45.478001309647404" lon="7.969012791908067"><ele>607.8000000000001</ele><time>2026-04-18T13:30:16.999Z</time></trkpt><trkpt lat="45.47806555262785" lon="7.96909519289176"><ele>607.0</ele><time>2026-04-18T13:30:17.999Z</time></trkpt><trkpt lat="45.47817157357173" lon="7.969260473723266"><ele>609.8000000000001</ele><time>2026-04-18T13:30:18.999Z</time></trkpt><trkpt lat="45.478246925806616" lon="7.969381449146385"><ele>612.6</ele><time>2026-04-18T13:30:19.999Z</time></trkpt><trkpt lat="45.47831423868794" lon="7.969469296981847"><ele>615.4000000000001</ele><time>2026-04-18T13:30:20.999Z</time></trkpt><trkpt lat="45.478368573348035" lon="7.969534092197966"><ele>618.2</ele><time>2026-04-18T13:30:21.999Z</time></trkpt><trkpt lat="45.478425266289555" lon="7.969594199643083"><ele>621.0</ele><time>2026-04-18T13:30:22.999Z</time></trkpt><trkpt lat="45.47852077944228" lon="7.969705511418745"><ele>620.9999999999999</ele><time>2026-04-18T13:30:24.999Z</time></trkpt><trkpt lat="45.47856677961441" lon="7.969792136085328"><ele>621.0</ele><time>2026-04-18T13:30:26.999Z</time></trkpt><trkpt lat="45.478618006629404" lon="7.96986761967579"><ele>621.0</ele><time>2026-04-18T13:30:30.999Z</time></trkpt><trkpt lat="45.47867426653293" lon="7.969912369539512"><ele>621.0</ele><time>2026-04-18T13:30:36.999Z</time></trkpt><trkpt lat="45.47873081036756" lon="7.969957724274783"><ele>621.0</ele><time>2026-04-18T13:30:42Z</time></trkpt><trkpt lat="45.47878114672173" lon="7.970027426793947"><ele>620.9999999999999</ele><time>2026-04-18T13:30:45Z</time></trkpt><trkpt lat="45.4788348842574" lon="7.970116746426239"><ele>621.0</ele><time>2026-04-18T13:30:49Z</time></trkpt><trkpt lat="45.47888496445952" lon="7.970195896183126"><ele>619.8571428571428</ele><time>2026-04-18T13:30:53Z</time></trkpt><trkpt lat="45.478931821009844" lon="7.970259180328262"><ele>618.7142857142857</ele><time>2026-04-18T13:31:00Z</time></trkpt><trkpt lat="45.47898742893178" lon="7.970316009010927"><ele>617.5714285714286</ele><time>2026-04-18T13:31:06Z</time></trkpt><trkpt lat="45.47902231278167" lon="7.970408581466487"><ele>616.4285714285713</ele><time>2026-04-18T13:31:11.001Z</time></trkpt><trkpt lat="45.47906261291552" lon="7.970495845782035"><ele>615.2857142857142</ele><time>2026-04-18T13:31:16.001Z</time></trkpt><trkpt lat="45.47912308706405" lon="7.970565700074548"><ele>614.1428571428571</ele><time>2026-04-18T13:31:20.001Z</time></trkpt><trkpt lat="45.479186395568235" lon="7.970613765625191"><ele>613.0</ele><time>2026-04-18T13:31:23.001Z</time></trkpt><trkpt lat="45.479192504166896" lon="7.970720532852531"><ele>613.0</ele><time>2026-04-18T13:31:27.001Z</time></trkpt><trkpt lat="45.47914177067327" lon="7.970811793431054"><ele>613.0</ele><time>2026-04-18T13:31:30.001Z</time></trkpt><trkpt lat="45.479084224203916" lon="7.970905718240933"><ele>613.0</ele><time>2026-04-18T13:31:32.001Z</time></trkpt><trkpt lat="45.478995953688916" lon="7.971016886043885"><ele>613.0</ele><time>2026-04-18T13:31:34.001Z</time></trkpt><trkpt lat="45.47895689266383" lon="7.97110684689776"><ele>613.0</ele><time>2026-04-18T13:31:35.001Z</time></trkpt><trkpt lat="45.478922940938006" lon="7.971224454466644"><ele>613.0</ele><time>2026-04-18T13:31:36.001Z</time></trkpt><trkpt lat="45.47888770985026" lon="7.971326727329002"><ele>613.0</ele><time>2026-04-18T13:31:37.001Z</time></trkpt><trkpt lat="45.4788378045531" lon="7.971406198572832"><ele>613.0</ele><time>2026-04-18T13:31:38.001Z</time></trkpt><trkpt lat="45.4787984452794" lon="7.97148971218679"><ele>613.0</ele><time>2026-04-18T13:31:39.001Z</time></trkpt><trkpt lat="45.47870080165739" lon="7.971636622577418"><ele>613.0</ele><time>2026-04-18T13:31:41.001Z</time></trkpt><trkpt lat="45.47863057545674" lon="7.9717111387463255"><ele>613.0</ele><time>2026-04-18T13:31:42.001Z</time></trkpt><trkpt lat="45.478551444758914" lon="7.971794707943021"><ele>613.0</ele><time>2026-04-18T13:31:43.002Z</time></trkpt><trkpt lat="45.47848753564629" lon="7.971861540214414"><ele>613.0</ele><time>2026-04-18T13:31:44.002Z</time></trkpt><trkpt lat="45.47841731114967" lon="7.971929631381762"><ele>613.0</ele><time>2026-04-18T13:31:45.002Z</time></trkpt><trkpt lat="45.47834583737407" lon="7.972018496998737"><ele>613.0</ele><time>2026-04-18T13:31:46.002Z</time></trkpt><trkpt lat="45.478285434895426" lon="7.972089622759935"><ele>613.0</ele><time>2026-04-18T13:31:47.002Z</time></trkpt><trkpt lat="45.478222322174844" lon="7.972154012563837"><ele>613.0</ele><time>2026-04-18T13:31:48.002Z</time></trkpt><trkpt lat="45.47816587817978" lon="7.9722180391185855"><ele>613.0</ele><time>2026-04-18T13:31:49.002Z</time></trkpt><trkpt lat="45.478106928297755" lon="7.972293593533804"><ele>613.0</ele><time>2026-04-18T13:31:50.002Z</time></trkpt><trkpt lat="45.47805763348331" lon="7.972369114529912"><ele>613.0</ele><time>2026-04-18T13:31:51.002Z</time></trkpt><trkpt lat="45.47800956687384" lon="7.972461503921381"><ele>613.0</ele><time>2026-04-18T13:31:52.002Z</time></trkpt><trkpt lat="45.47797958386464" lon="7.972570266493331"><ele>613.0</ele><time>2026-04-18T13:31:53.002Z</time></trkpt><trkpt lat="45.47797227483446" lon="7.9726883640649024"><ele>612.8333333333334</ele><time>2026-04-18T13:31:55.002Z</time></trkpt><trkpt lat="45.4778626498785" lon="7.972809980849543"><ele>612.6666666666667</ele><time>2026-04-18T13:31:57.002Z</time></trkpt><trkpt lat="45.47779671426341" lon="7.972863222465702"><ele>612.5</ele><time>2026-04-18T13:31:58.002Z</time></trkpt><trkpt lat="45.47771857854273" lon="7.9728904916612855"><ele>612.3333333333334</ele><time>2026-04-18T13:31:59.002Z</time></trkpt><trkpt lat="45.477644456691294" lon="7.972890343863101"><ele>612.1666666666666</ele><time>2026-04-18T13:32:00.002Z</time></trkpt><trkpt lat="45.47757047088729" lon="7.972930454315655"><ele>612.0</ele><time>2026-04-18T13:32:01.002Z</time></trkpt><trkpt lat="45.47748875741176" lon="7.972954146215323"><ele>612.0</ele><time>2026-04-18T13:32:02.002Z</time></trkpt><trkpt lat="45.47740694718374" lon="7.97299760971432"><ele>612.0</ele><time>2026-04-18T13:32:03.002Z</time></trkpt><trkpt lat="45.47733977106587" lon="7.973046081578151"><ele>612.0</ele><time>2026-04-18T13:32:04.002Z</time></trkpt><trkpt lat="45.47727311424743" lon="7.973187946259059"><ele>612.0</ele><time>2026-04-18T13:32:06.002Z</time></trkpt><trkpt lat="45.47721062335111" lon="7.97326286980749"><ele>612.0</ele><time>2026-04-18T13:32:07.002Z</time></trkpt><trkpt lat="45.47714016374918" lon="7.9733610644490325"><ele>611.4</ele><time>2026-04-18T13:32:08.002Z</time></trkpt><trkpt lat="45.477080066579155" lon="7.973466969917019"><ele>610.8000000000001</ele><time>2026-04-18T13:32:09.002Z</time></trkpt><trkpt lat="45.477027881594914" lon="7.973619901464172"><ele>610.2</ele><time>2026-04-18T13:32:10.002Z</time></trkpt><trkpt lat="45.476975005122114" lon="7.973755057021357"><ele>609.6</ele><time>2026-04-18T13:32:11.002Z</time></trkpt><trkpt lat="45.47692449175225" lon="7.9738678402615815"><ele>609.0</ele><time>2026-04-18T13:32:12.002Z</time></trkpt><trkpt lat="45.47686280889899" lon="7.973995244264332"><ele>609.0</ele><time>2026-04-18T13:32:13.002Z</time></trkpt><trkpt lat="45.476787811493615" lon="7.974138340124806"><ele>609.0</ele><time>2026-04-18T13:32:14.002Z</time></trkpt><trkpt lat="45.476710194367456" lon="7.974259845353469"><ele>609.0</ele><time>2026-04-18T13:32:15.002Z</time></trkpt><trkpt lat="45.47663254247098" lon="7.974399604861277"><ele>609.0</ele><time>2026-04-18T13:32:16.002Z</time></trkpt><trkpt lat="45.47657299054059" lon="7.974520343714915"><ele>608.6</ele><time>2026-04-18T13:32:17.003Z</time></trkpt><trkpt lat="45.476515382895485" lon="7.974642624152585"><ele>608.2</ele><time>2026-04-18T13:32:18.003Z</time></trkpt><trkpt lat="45.47644402280973" lon="7.974781136005501"><ele>607.8000000000001</ele><time>2026-04-18T13:32:19.003Z</time></trkpt><trkpt lat="45.47637640296724" lon="7.974907950521673"><ele>607.4</ele><time>2026-04-18T13:32:20.003Z</time></trkpt><trkpt lat="45.47631241675486" lon="7.97501426024549"><ele>607.0</ele><time>2026-04-18T13:32:21.003Z</time></trkpt><trkpt lat="45.47624309775265" lon="7.9751152877662586"><ele>606.0</ele><time>2026-04-18T13:32:21.999Z</time></trkpt><trkpt lat="45.47618322441124" lon="7.9752088090336555"><ele>605.0</ele><time>2026-04-18T13:32:22.999Z</time></trkpt><trkpt lat="45.47613643831133" lon="7.975331667346265"><ele>604.0</ele><time>2026-04-18T13:32:23.999Z</time></trkpt><trkpt lat="45.47611931197915" lon="7.97546742639174"><ele>603.0</ele><time>2026-04-18T13:32:24.999Z</time></trkpt><trkpt lat="45.47606968057942" lon="7.975550857261531"><ele>602.0</ele><time>2026-04-18T13:32:25.999Z</time></trkpt><trkpt lat="45.47599840889432" lon="7.975636343588559"><ele>602.0</ele><time>2026-04-18T13:32:26.999Z</time></trkpt><trkpt lat="45.475940122031545" lon="7.975725005245831"><ele>602.0</ele><time>2026-04-18T13:32:27.999Z</time></trkpt><trkpt lat="45.47588403967452" lon="7.975829207446807"><ele>602.0</ele><time>2026-04-18T13:32:28.999Z</time></trkpt><trkpt lat="45.475802424170645" lon="7.975908979674276"><ele>602.0</ele><time>2026-04-18T13:32:29.999Z</time></trkpt><trkpt lat="45.475744639494856" lon="7.97602748843351"><ele>602.0</ele><time>2026-04-18T13:32:30.999Z</time></trkpt><trkpt lat="45.47568012234861" lon="7.976134171070951"><ele>602.2</ele><time>2026-04-18T13:32:31.999Z</time></trkpt><trkpt lat="45.47562443179753" lon="7.976243517304455"><ele>602.4000000000001</ele><time>2026-04-18T13:32:32.999Z</time></trkpt><trkpt lat="45.47557011504411" lon="7.976338209642402"><ele>602.5999999999999</ele><time>2026-04-18T13:32:33.999Z</time></trkpt><trkpt lat="45.475502973041344" lon="7.9764373639599"><ele>602.8</ele><time>2026-04-18T13:32:34.999Z</time></trkpt><trkpt lat="45.475439248721734" lon="7.976528419453288"><ele>603.0</ele><time>2026-04-18T13:32:35.999Z</time></trkpt><trkpt lat="45.475375732470134" lon="7.976650838794578"><ele>602.1666666666666</ele><time>2026-04-18T13:32:36.999Z</time></trkpt><trkpt lat="45.475331651766716" lon="7.97675370913192"><ele>601.3333333333334</ele><time>2026-04-18T13:32:37.999Z</time></trkpt><trkpt lat="45.47529241711691" lon="7.976869297302899"><ele>600.5</ele><time>2026-04-18T13:32:38.999Z</time></trkpt><trkpt lat="45.475251504473334" lon="7.976966833224439"><ele>599.6666666666667</ele><time>2026-04-18T13:32:39.999Z</time></trkpt><trkpt lat="45.47519385439773" lon="7.977041105949513"><ele>598.8333333333334</ele><time>2026-04-18T13:32:40.999Z</time></trkpt><trkpt lat="45.4751264811982" lon="7.977103318413622"><ele>598.0</ele><time>2026-04-18T13:32:41.999Z</time></trkpt><trkpt lat="45.475074348686874" lon="7.977186889469796"><ele>598.0</ele><time>2026-04-18T13:32:42.999Z</time></trkpt><trkpt lat="45.475025236934805" lon="7.977283655773934"><ele>598.0</ele><time>2026-04-18T13:32:43.999Z</time></trkpt><trkpt lat="45.47496022780506" lon="7.977387783823497"><ele>598.0</ele><time>2026-04-18T13:32:44.999Z</time></trkpt><trkpt lat="45.47488046303252" lon="7.977505316060544"><ele>598.0</ele><time>2026-04-18T13:32:45.999Z</time></trkpt><trkpt lat="45.47481812202627" lon="7.977626303184613"><ele>598.0</ele><time>2026-04-18T13:32:47Z</time></trkpt><trkpt lat="45.47475208328324" lon="7.977752259131139"><ele>597.6</ele><time>2026-04-18T13:32:48Z</time></trkpt><trkpt lat="45.474680101746195" lon="7.977864279543954"><ele>597.1999999999999</ele><time>2026-04-18T13:32:49Z</time></trkpt><trkpt lat="45.47462711983382" lon="7.977966170176711"><ele>596.8</ele><time>2026-04-18T13:32:50Z</time></trkpt><trkpt lat="45.47457472117751" lon="7.978114292080105"><ele>596.4</ele><time>2026-04-18T13:32:51Z</time></trkpt><trkpt lat="45.47450930124755" lon="7.978228482810318"><ele>596.0</ele><time>2026-04-18T13:32:52Z</time></trkpt><trkpt lat="45.4744346123064" lon="7.978337029819955"><ele>595.5</ele><time>2026-04-18T13:32:53Z</time></trkpt><trkpt lat="45.474385368570545" lon="7.978418859320132"><ele>595.0</ele><time>2026-04-18T13:32:54Z</time></trkpt><trkpt lat="45.474348060405994" lon="7.978529459908887"><ele>594.5</ele><time>2026-04-18T13:32:56Z</time></trkpt><trkpt lat="45.4743026179281" lon="7.978653155465769"><ele>594.0</ele><time>2026-04-18T13:32:59Z</time></trkpt><trkpt lat="45.47427795295179" lon="7.978745294390078"><ele>593.5</ele><time>2026-04-18T13:33:01Z</time></trkpt><trkpt lat="45.47426926471691" lon="7.978861085594762"><ele>593.0</ele><time>2026-04-18T13:33:04Z</time></trkpt><trkpt lat="45.474239012195724" lon="7.978974955134183"><ele>593.0</ele><time>2026-04-18T13:33:06Z</time></trkpt><trkpt lat="45.47419471634112" lon="7.979101081048211"><ele>593.0</ele><time>2026-04-18T13:33:09Z</time></trkpt><trkpt lat="45.47416872736979" lon="7.979215846336746"><ele>593.0</ele><time>2026-04-18T13:33:11Z</time></trkpt><trkpt lat="45.47414253558486" lon="7.97929955589264"><ele>593.0</ele><time>2026-04-18T13:33:13Z</time></trkpt><trkpt lat="45.474109041177265" lon="7.979426699447239"><ele>593.0</ele><time>2026-04-18T13:33:16Z</time></trkpt><trkpt lat="45.4740548832358" lon="7.979538893963644"><ele>593.0</ele><time>2026-04-18T13:33:19.001Z</time></trkpt><trkpt lat="45.474016818841434" lon="7.979647246526668"><ele>591.8</ele><time>2026-04-18T13:33:22.001Z</time></trkpt><trkpt lat="45.47394916632694" lon="7.9797489264686305"><ele>590.5999999999999</ele><time>2026-04-18T13:33:25.001Z</time></trkpt><trkpt lat="45.47392560011627" lon="7.979893461523966"><ele>589.4000000000001</ele><time>2026-04-18T13:33:27.001Z</time></trkpt><trkpt lat="45.47388456398072" lon="7.979970866614186"><ele>588.2</ele><time>2026-04-18T13:33:28.001Z</time></trkpt><trkpt lat="45.47383827172299" lon="7.980048467782181"><ele>587.0</ele><time>2026-04-18T13:33:29.001Z</time></trkpt><trkpt lat="45.47379454575963" lon="7.980211244471009"><ele>587.0</ele><time>2026-04-18T13:33:31.001Z</time></trkpt><trkpt lat="45.47374647270349" lon="7.9802834976647805"><ele>587.0</ele><time>2026-04-18T13:33:32.001Z</time></trkpt><trkpt lat="45.473700100033454" lon="7.980359722710676"><ele>587.0</ele><time>2026-04-18T13:33:33.001Z</time></trkpt><trkpt lat="45.47366012070608" lon="7.980450438304372"><ele>587.0</ele><time>2026-04-18T13:33:34.001Z</time></trkpt><trkpt lat="45.47361188243598" lon="7.980509965783413"><ele>587.0</ele><time>2026-04-18T13:33:35.001Z</time></trkpt><trkpt lat="45.473560868529894" lon="7.980581456187571"><ele>587.0</ele><time>2026-04-18T13:33:36.001Z</time></trkpt><trkpt lat="45.473485702791514" lon="7.980703826697569"><ele>587.0</ele><time>2026-04-18T13:33:38.001Z</time></trkpt><trkpt lat="45.47343259876909" lon="7.980814693923077"><ele>587.0</ele><time>2026-04-18T13:33:40.001Z</time></trkpt><trkpt lat="45.47339773264736" lon="7.980910730094456"><ele>587.0</ele><time>2026-04-18T13:33:41.001Z</time></trkpt><trkpt lat="45.47336361940036" lon="7.98099686503971"><ele>587.0</ele><time>2026-04-18T13:33:42.001Z</time></trkpt><trkpt lat="45.473319805979756" lon="7.981099128276313"><ele>587.0</ele><time>2026-04-18T13:33:44.001Z</time></trkpt><trkpt lat="45.473249492520374" lon="7.9812034096002344"><ele>587.0</ele><time>2026-04-18T13:33:46.001Z</time></trkpt><trkpt lat="45.47324072665053" lon="7.981293806003747"><ele>585.1666666666666</ele><time>2026-04-18T13:33:48.001Z</time></trkpt><trkpt lat="45.4732856310122" lon="7.981370908556038"><ele>583.3333333333333</ele><time>2026-04-18T13:33:50.001Z</time></trkpt><trkpt lat="45.473327169216546" lon="7.981485100824901"><ele>581.5</ele><time>2026-04-18T13:33:52.002Z</time></trkpt><trkpt lat="45.473379747004095" lon="7.981594072511202"><ele>579.6666666666666</ele><time>2026-04-18T13:33:54.002Z</time></trkpt><trkpt lat="45.473362108698936" lon="7.9817206982774795"><ele>577.8333333333334</ele><time>2026-04-18T13:33:56.002Z</time></trkpt><trkpt lat="45.47332490286745" lon="7.981806641190303"><ele>576.0</ele><time>2026-04-18T13:33:57.002Z</time></trkpt><trkpt lat="45.47330354389872" lon="7.98192079989374"><ele>575.6666666666666</ele><time>2026-04-18T13:33:58.002Z</time></trkpt><trkpt lat="45.47327476598709" lon="7.9820222386602016"><ele>575.3333333333334</ele><time>2026-04-18T13:33:59.002Z</time></trkpt><trkpt lat="45.47325506425119" lon="7.982137136084911"><ele>575.0</ele><time>2026-04-18T13:34:00.002Z</time></trkpt><trkpt lat="45.473226997910366" lon="7.982239854613969"><ele>574.6666666666667</ele><time>2026-04-18T13:34:01.002Z</time></trkpt><trkpt lat="45.47320859089012" lon="7.982355980345682"><ele>574.3333333333334</ele><time>2026-04-18T13:34:02.002Z</time></trkpt><trkpt lat="45.47319021462761" lon="7.9825023951334995"><ele>574.0</ele><time>2026-04-18T13:34:03.002Z</time></trkpt><trkpt lat="45.473168551196" lon="7.9826297293905055"><ele>573.8</ele><time>2026-04-18T13:34:04.002Z</time></trkpt><trkpt lat="45.47314143668649" lon="7.982765471819489"><ele>573.5999999999999</ele><time>2026-04-18T13:34:05.002Z</time></trkpt><trkpt lat="45.47310199039952" lon="7.982907735113008"><ele>573.4</ele><time>2026-04-18T13:34:06.002Z</time></trkpt><trkpt lat="45.47306284752437" lon="7.983041349282184"><ele>573.1999999999999</ele><time>2026-04-18T13:34:07.002Z</time></trkpt><trkpt lat="45.47302984740058" lon="7.9831689089393665"><ele>573.0</ele><time>2026-04-18T13:34:08.002Z</time></trkpt><trkpt lat="45.47299542292118" lon="7.983275806485816"><ele>572.6666666666666</ele><time>2026-04-18T13:34:09.002Z</time></trkpt><trkpt lat="45.472951493751275" lon="7.983389184399953"><ele>572.3333333333334</ele><time>2026-04-18T13:34:10.002Z</time></trkpt><trkpt lat="45.47291467697207" lon="7.9834826698882555"><ele>572.0</ele><time>2026-04-18T13:34:11.002Z</time></trkpt><trkpt lat="45.472881180737986" lon="7.983626862948801"><ele>571.6666666666667</ele><time>2026-04-18T13:34:12.002Z</time></trkpt><trkpt lat="45.47284968697388" lon="7.983743167811701"><ele>571.3333333333334</ele><time>2026-04-18T13:34:13.002Z</time></trkpt><trkpt lat="45.4728132407528" lon="7.983839861441835"><ele>571.0</ele><time>2026-04-18T13:34:14.002Z</time></trkpt><trkpt lat="45.47275963552876" lon="7.983952022602973"><ele>570.8</ele><time>2026-04-18T13:34:15.002Z</time></trkpt><trkpt lat="45.4726884543971" lon="7.984033617160286"><ele>570.6</ele><time>2026-04-18T13:34:16.002Z</time></trkpt><trkpt lat="45.47264681018947" lon="7.984133305972625"><ele>570.4</ele><time>2026-04-18T13:34:17.002Z</time></trkpt><trkpt lat="45.47259301283021" lon="7.984240284682238"><ele>570.2</ele><time>2026-04-18T13:34:18.002Z</time></trkpt><trkpt lat="45.472536113430735" lon="7.984341693122332"><ele>570.0</ele><time>2026-04-18T13:34:19.002Z</time></trkpt><trkpt lat="45.47247309034005" lon="7.984445552201379"><ele>569.6</ele><time>2026-04-18T13:34:20.002Z</time></trkpt><trkpt lat="45.472416983783624" lon="7.984549917828619"><ele>569.2</ele><time>2026-04-18T13:34:21.002Z</time></trkpt><trkpt lat="45.47237230614899" lon="7.984658813161372"><ele>568.8</ele><time>2026-04-18T13:34:22.002Z</time></trkpt><trkpt lat="45.472311874353885" lon="7.984770692985184"><ele>568.4</ele><time>2026-04-18T13:34:23.002Z</time></trkpt><trkpt lat="45.47224898350494" lon="7.984873068345736"><ele>568.0</ele><time>2026-04-18T13:34:24.003Z</time></trkpt><trkpt lat="45.472203916976376" lon="7.984962717139418"><ele>567.8333333333334</ele><time>2026-04-18T13:34:25.003Z</time></trkpt><trkpt lat="45.47215718818516" lon="7.985043632003103"><ele>567.6666666666667</ele><time>2026-04-18T13:34:26.003Z</time></trkpt><trkpt lat="45.47210610511707" lon="7.985139887879824"><ele>567.5</ele><time>2026-04-18T13:34:27.003Z</time></trkpt><trkpt lat="45.472045981390174" lon="7.985223942973039"><ele>567.3333333333334</ele><time>2026-04-18T13:34:28Z</time></trkpt><trkpt lat="45.4720058239989" lon="7.985342713473755"><ele>567.1666666666666</ele><time>2026-04-18T13:34:29Z</time></trkpt><trkpt lat="45.471955332067466" lon="7.985441798506649"><ele>567.0</ele><time>2026-04-18T13:34:30Z</time></trkpt><trkpt lat="45.47190343093993" lon="7.985542545138639"><ele>566.5</ele><time>2026-04-18T13:34:31Z</time></trkpt><trkpt lat="45.471850309773416" lon="7.985644104137382"><ele>566.0</ele><time>2026-04-18T13:34:32Z</time></trkpt><trkpt lat="45.471795569239745" lon="7.985760518520695"><ele>565.5</ele><time>2026-04-18T13:34:33Z</time></trkpt><trkpt lat="45.47173714020131" lon="7.98586830648388"><ele>565.0</ele><time>2026-04-18T13:34:34Z</time></trkpt><trkpt lat="45.47169198330002" lon="7.985957869548234"><ele>564.5</ele><time>2026-04-18T13:34:35Z</time></trkpt><trkpt lat="45.47163776944379" lon="7.9860347567011685"><ele>564.0</ele><time>2026-04-18T13:34:36Z</time></trkpt><trkpt lat="45.471590720715945" lon="7.986106981060417"><ele>563.8333333333334</ele><time>2026-04-18T13:34:37Z</time></trkpt><trkpt lat="45.471540148260324" lon="7.986190816409883"><ele>563.6666666666666</ele><time>2026-04-18T13:34:38Z</time></trkpt><trkpt lat="45.47149105889479" lon="7.986274236672569"><ele>563.5</ele><time>2026-04-18T13:34:39Z</time></trkpt><trkpt lat="45.47145109596163" lon="7.9863673748433746"><ele>563.3333333333333</ele><time>2026-04-18T13:34:40Z</time></trkpt><trkpt lat="45.47140850206813" lon="7.986445858819152"><ele>563.1666666666666</ele><time>2026-04-18T13:34:41Z</time></trkpt><trkpt lat="45.47135133138004" lon="7.986532510688107"><ele>563.0</ele><time>2026-04-18T13:34:42Z</time></trkpt><trkpt lat="45.47129378769159" lon="7.986606923102957"><ele>562.5</ele><time>2026-04-18T13:34:43Z</time></trkpt><trkpt lat="45.47123456205983" lon="7.986699159271449"><ele>562.0</ele><time>2026-04-18T13:34:44Z</time></trkpt><trkpt lat="45.471184629273786" lon="7.986777595678878"><ele>561.5</ele><time>2026-04-18T13:34:45Z</time></trkpt><trkpt lat="45.471129906651754" lon="7.9868622310856034"><ele>561.0</ele><time>2026-04-18T13:34:46Z</time></trkpt><trkpt lat="45.471067145950904" lon="7.986964191975656"><ele>560.5</ele><time>2026-04-18T13:34:47Z</time></trkpt><trkpt lat="45.47100635994975" lon="7.9870664837768315"><ele>560.0</ele><time>2026-04-18T13:34:48Z</time></trkpt><trkpt lat="45.470963648442755" lon="7.987184530879241"><ele>560.0</ele><time>2026-04-18T13:34:49Z</time></trkpt><trkpt lat="45.47090635142663" lon="7.987293828112415"><ele>560.0</ele><time>2026-04-18T13:34:50Z</time></trkpt><trkpt lat="45.470861406953084" lon="7.98740874044148"><ele>560.0</ele><time>2026-04-18T13:34:51Z</time></trkpt><trkpt lat="45.47079880517264" lon="7.987514870692167"><ele>560.0</ele><time>2026-04-18T13:34:52Z</time></trkpt><trkpt lat="45.47075434765894" lon="7.987602934771957"><ele>560.0</ele><time>2026-04-18T13:34:53Z</time></trkpt><trkpt lat="45.470694028510856" lon="7.987703222671664"><ele>559.8333333333333</ele><time>2026-04-18T13:34:54Z</time></trkpt><trkpt lat="45.47063815762551" lon="7.9878071500645795"><ele>559.6666666666666</ele><time>2026-04-18T13:34:55Z</time></trkpt><trkpt lat="45.4705802873525" lon="7.9879213911324705"><ele>559.5</ele><time>2026-04-18T13:34:56Z</time></trkpt><trkpt lat="45.470517695526" lon="7.988020411942018"><ele>559.3333333333334</ele><time>2026-04-18T13:34:57Z</time></trkpt><trkpt lat="45.47045517865443" lon="7.988114667221642"><ele>559.1666666666667</ele><time>2026-04-18T13:34:58Z</time></trkpt><trkpt lat="45.470409867147175" lon="7.988194842782408"><ele>559.0</ele><time>2026-04-18T13:34:59Z</time></trkpt><trkpt lat="45.47036789595593" lon="7.988277639755786"><ele>558.6</ele><time>2026-04-18T13:35:00Z</time></trkpt><trkpt lat="45.470323570860366" lon="7.98835346451332"><ele>558.2</ele><time>2026-04-18T13:35:01Z</time></trkpt><trkpt lat="45.47029034717562" lon="7.988441461848966"><ele>557.8000000000001</ele><time>2026-04-18T13:35:02Z</time></trkpt><trkpt lat="45.47025449125105" lon="7.988562133240648"><ele>557.4</ele><time>2026-04-18T13:35:04.001Z</time></trkpt><trkpt lat="45.47040707350037" lon="7.988633623573974"><ele>557.0</ele><time>2026-04-18T13:35:06.001Z</time></trkpt><trkpt lat="45.47046660773973" lon="7.988689479484873"><ele>557.0</ele><time>2026-04-18T13:35:07.001Z</time></trkpt><trkpt lat="45.47052575637449" lon="7.988764230513483"><ele>557.0</ele><time>2026-04-18T13:35:08.001Z</time></trkpt><trkpt lat="45.47059380187039" lon="7.988817088672034"><ele>557.0</ele><time>2026-04-18T13:35:09.001Z</time></trkpt><trkpt lat="45.47067559971774" lon="7.988849631837498"><ele>557.0</ele><time>2026-04-18T13:35:10.001Z</time></trkpt><trkpt lat="45.47074697412384" lon="7.988905663208669"><ele>557.0</ele><time>2026-04-18T13:35:11.001Z</time></trkpt><trkpt lat="45.47082729331919" lon="7.988974025625394"><ele>557.0</ele><time>2026-04-18T13:35:12.001Z</time></trkpt><trkpt lat="45.47090207987402" lon="7.989053345614808"><ele>557.0</ele><time>2026-04-18T13:35:13.001Z</time></trkpt><trkpt lat="45.47098324521782" lon="7.989116088437176"><ele>557.0</ele><time>2026-04-18T13:35:14.001Z</time></trkpt><trkpt lat="45.47104649210486" lon="7.989165249562101"><ele>557.0</ele><time>2026-04-18T13:35:15.001Z</time></trkpt><trkpt lat="45.47115510671815" lon="7.989228475322002"><ele>557.0</ele><time>2026-04-18T13:35:17.001Z</time></trkpt><trkpt lat="45.471230954896" lon="7.989281376432104"><ele>557.0</ele><time>2026-04-18T13:35:19.001Z</time></trkpt><trkpt lat="45.47128188534322" lon="7.989396544346874"><ele>556.8333333333333</ele><time>2026-04-18T13:35:21.001Z</time></trkpt><trkpt lat="45.471323344854106" lon="7.989505622544741"><ele>556.6666666666666</ele><time>2026-04-18T13:35:23.001Z</time></trkpt><trkpt lat="45.47133548383924" lon="7.989639685616468"><ele>556.5</ele><time>2026-04-18T13:35:25.001Z</time></trkpt><trkpt lat="45.47134167693858" lon="7.989765494883591"><ele>556.3333333333334</ele><time>2026-04-18T13:35:26.001Z</time></trkpt><trkpt lat="45.4713285519241" lon="7.989876023722799"><ele>556.1666666666667</ele><time>2026-04-18T13:35:27.001Z</time></trkpt><trkpt lat="45.471300831252016" lon="7.989994065926991"><ele>556.0</ele><time>2026-04-18T13:35:28.001Z</time></trkpt><trkpt lat="45.47126636615096" lon="7.990115284680758"><ele>556.0</ele><time>2026-04-18T13:35:29.001Z</time></trkpt><trkpt lat="45.471222401988875" lon="7.990247921220289"><ele>556.0</ele><time>2026-04-18T13:35:30.001Z</time></trkpt><trkpt lat="45.4711766213404" lon="7.9903741119751"><ele>556.0</ele><time>2026-04-18T13:35:31.001Z</time></trkpt><trkpt lat="45.4711344194476" lon="7.990483466082145"><ele>556.0</ele><time>2026-04-18T13:35:32.001Z</time></trkpt><trkpt lat="45.47108968374894" lon="7.990593255167893"><ele>556.0</ele><time>2026-04-18T13:35:33.001Z</time></trkpt><trkpt lat="45.47104635853858" lon="7.9906938009403055"><ele>556.0</ele><time>2026-04-18T13:35:34.001Z</time></trkpt><trkpt lat="45.47099771362547" lon="7.990793186684571"><ele>556.0</ele><time>2026-04-18T13:35:35.001Z</time></trkpt><trkpt lat="45.4709555422392" lon="7.990906307276922"><ele>556.0</ele><time>2026-04-18T13:35:37.001Z</time></trkpt><trkpt lat="45.47090040565119" lon="7.99098529154571"><ele>556.0</ele><time>2026-04-18T13:35:38.001Z</time></trkpt><trkpt lat="45.47084379593232" lon="7.991079012100764"><ele>556.0</ele><time>2026-04-18T13:35:39.002Z</time></trkpt><trkpt lat="45.470798150128964" lon="7.991157006567666"><ele>556.0</ele><time>2026-04-18T13:35:40.002Z</time></trkpt><trkpt lat="45.470747803842926" lon="7.991240125377204"><ele>554.8333333333334</ele><time>2026-04-18T13:35:41.002Z</time></trkpt><trkpt lat="45.470693518255636" lon="7.991322134521992"><ele>553.6666666666667</ele><time>2026-04-18T13:35:42.002Z</time></trkpt><trkpt lat="45.470636006288096" lon="7.991433092516816"><ele>552.5</ele><time>2026-04-18T13:35:44.002Z</time></trkpt><trkpt lat="45.47058805881759" lon="7.991540483722578"><ele>551.3333333333334</ele><time>2026-04-18T13:35:51.002Z</time></trkpt><trkpt lat="45.47055612679428" lon="7.991650091368371"><ele>550.1666666666666</ele><time>2026-04-18T13:36:15.003Z</time></trkpt><trkpt lat="45.47055272585217" lon="7.991744530829195"><ele>549.0</ele><time>2026-04-18T13:38:56.003Z</time></trkpt><trkpt lat="45.47055538685827" lon="7.991836200539361"><ele>548.0</ele><time>2026-04-18T13:38:57.003Z</time></trkpt><trkpt lat="45.470516819409994" lon="7.991946761036481"><ele>547.0</ele><time>2026-04-18T13:38:58.003Z</time></trkpt><trkpt lat="45.47044445397285" lon="7.992049144748239"><ele>546.0</ele><time>2026-04-18T13:38:59.003Z</time></trkpt><trkpt lat="45.47013954873022" lon="7.992420534808451"><ele>546.8333333333334</ele><time>2026-04-18T13:39:04.003Z</time></trkpt><trkpt lat="45.47010578151456" lon="7.992520890810428"><ele>547.6666666666666</ele><time>2026-04-18T13:39:05.003Z</time></trkpt><trkpt lat="45.47006712404553" lon="7.992627596242396"><ele>548.5</ele><time>2026-04-18T13:39:06.003Z</time></trkpt><trkpt lat="45.470023282293155" lon="7.992730424746185"><ele>549.3333333333333</ele><time>2026-04-18T13:39:07.003Z</time></trkpt><trkpt lat="45.46997630336154" lon="7.992829089278094"><ele>550.1666666666666</ele><time>2026-04-18T13:39:08.003Z</time></trkpt><trkpt lat="45.4699309441093" lon="7.992916944944055"><ele>551.0</ele><time>2026-04-18T13:39:09.003Z</time></trkpt><trkpt lat="45.46988481335209" lon="7.993003173504934"><ele>551.0</ele><time>2026-04-18T13:39:10.004Z</time></trkpt><trkpt lat="45.469832956004886" lon="7.99310854329764"><ele>551.0</ele><time>2026-04-18T13:39:11.004Z</time></trkpt><trkpt lat="45.4697837367604" lon="7.993213010869176"><ele>551.0</ele><time>2026-04-18T13:39:12.004Z</time></trkpt><trkpt lat="45.46973103250191" lon="7.993319861385728"><ele>551.0</ele><time>2026-04-18T13:39:13.004Z</time></trkpt><trkpt lat="45.4696743938762" lon="7.99343073108002"><ele>551.0</ele><time>2026-04-18T13:39:14.004Z</time></trkpt><trkpt lat="45.46962018932489" lon="7.993517654721373"><ele>551.0</ele><time>2026-04-18T13:39:15.004Z</time></trkpt><trkpt lat="45.46955816183036" lon="7.993600652071655"><ele>551.8333333333333</ele><time>2026-04-18T13:39:16.004Z</time></trkpt><trkpt lat="45.46949506609115" lon="7.993691638629297"><ele>552.6666666666666</ele><time>2026-04-18T13:39:17.004Z</time></trkpt><trkpt lat="45.46942534150827" lon="7.99377853204441"><ele>553.5</ele><time>2026-04-18T13:39:18.004Z</time></trkpt><trkpt lat="45.46935718603945" lon="7.993859619909274"><ele>554.3333333333334</ele><time>2026-04-18T13:39:19.004Z</time></trkpt><trkpt lat="45.469296696865506" lon="7.993950046930486"><ele>555.1666666666667</ele><time>2026-04-18T13:39:20.004Z</time></trkpt><trkpt lat="45.469235508654386" lon="7.9940409180922565"><ele>556.0</ele><time>2026-04-18T13:39:21.004Z</time></trkpt><trkpt lat="45.46916891553791" lon="7.994128793195964"><ele>554.6666666666667</ele><time>2026-04-18T13:39:22.004Z</time></trkpt><trkpt lat="45.46910057779372" lon="7.994212838164031"><ele>553.3333333333334</ele><time>2026-04-18T13:39:23.004Z</time></trkpt><trkpt lat="45.469037186936895" lon="7.994312785527121"><ele>552.0</ele><time>2026-04-18T13:39:24.004Z</time></trkpt><trkpt lat="45.468994674258624" lon="7.994408772477278"><ele>550.6666666666666</ele><time>2026-04-18T13:39:25.004Z</time></trkpt><trkpt lat="45.46895272285315" lon="7.994501954395654"><ele>549.3333333333333</ele><time>2026-04-18T13:39:26.004Z</time></trkpt><trkpt lat="45.46891031029898" lon="7.994609409979561"><ele>548.0</ele><time>2026-04-18T13:39:27.004Z</time></trkpt><trkpt lat="45.4688729712075" lon="7.9947221983183"><ele>548.0</ele><time>2026-04-18T13:39:28.004Z</time></trkpt><trkpt lat="45.46883167112885" lon="7.994824963332293"><ele>548.0</ele><time>2026-04-18T13:39:29.004Z</time></trkpt><trkpt lat="45.46878301431022" lon="7.994936799956291"><ele>548.0</ele><time>2026-04-18T13:39:30.004Z</time></trkpt><trkpt lat="45.46873971464956" lon="7.995056817558096"><ele>548.0</ele><time>2026-04-18T13:39:31.004Z</time></trkpt><trkpt lat="45.46869323337811" lon="7.9951439606014425"><ele>548.0</ele><time>2026-04-18T13:39:32.004Z</time></trkpt><trkpt lat="45.46863964276556" lon="7.995237309595348"><ele>548.0</ele><time>2026-04-18T13:39:33.004Z</time></trkpt><trkpt lat="45.46860188392109" lon="7.995317650046335"><ele>548.3333333333333</ele><time>2026-04-18T13:39:34.004Z</time></trkpt><trkpt lat="45.468545949534196" lon="7.995444175648892"><ele>548.6666666666666</ele><time>2026-04-18T13:39:35.004Z</time></trkpt><trkpt lat="45.46850350527165" lon="7.995543657895049"><ele>549.0</ele><time>2026-04-18T13:39:36.004Z</time></trkpt><trkpt lat="45.46846463891922" lon="7.995646321933687"><ele>549.3333333333334</ele><time>2026-04-18T13:39:37.004Z</time></trkpt><trkpt lat="45.468427853527295" lon="7.995737606404937"><ele>549.6666666666667</ele><time>2026-04-18T13:39:38.004Z</time></trkpt><trkpt lat="45.46838808039706" lon="7.995829683737621"><ele>550.0</ele><time>2026-04-18T13:39:39.004Z</time></trkpt><trkpt lat="45.468324135769" lon="7.9959363681982625"><ele>550.0</ele><time>2026-04-18T13:39:40.004Z</time></trkpt><trkpt lat="45.46825904902995" lon="7.996054997549364"><ele>550.0</ele><time>2026-04-18T13:39:41.004Z</time></trkpt><trkpt lat="45.46818876576663" lon="7.996147279210204"><ele>550.0</ele><time>2026-04-18T13:39:42.004Z</time></trkpt><trkpt lat="45.46812150455979" lon="7.996250447299617"><ele>550.0</ele><time>2026-04-18T13:39:43.004Z</time></trkpt><trkpt lat="45.468044859328494" lon="7.996360255431437"><ele>550.0</ele><time>2026-04-18T13:39:44.004Z</time></trkpt><trkpt lat="45.467980388472355" lon="7.996464067141694"><ele>550.8</ele><time>2026-04-18T13:39:45.004Z</time></trkpt><trkpt lat="45.46790631927112" lon="7.9965498595826965"><ele>551.6</ele><time>2026-04-18T13:39:46.005Z</time></trkpt><trkpt lat="45.46783652676445" lon="7.996649220202769"><ele>552.4</ele><time>2026-04-18T13:39:47.005Z</time></trkpt><trkpt lat="45.46777077828896" lon="7.996759634883918"><ele>553.2</ele><time>2026-04-18T13:39:48.005Z</time></trkpt><trkpt lat="45.4677182159319" lon="7.996847204809764"><ele>554.0</ele><time>2026-04-18T13:39:49.005Z</time></trkpt><trkpt lat="45.46765507048567" lon="7.996934408468495"><ele>554.2</ele><time>2026-04-18T13:39:50.005Z</time></trkpt><trkpt lat="45.467601160241365" lon="7.997032509391513"><ele>554.4</ele><time>2026-04-18T13:39:51.005Z</time></trkpt><trkpt lat="45.46753422262295" lon="7.99712059924507"><ele>554.6</ele><time>2026-04-18T13:39:52.005Z</time></trkpt><trkpt lat="45.467470085187756" lon="7.997223108357855"><ele>554.8</ele><time>2026-04-18T13:39:53.005Z</time></trkpt><trkpt lat="45.4674170830239" lon="7.997322610719675"><ele>555.0</ele><time>2026-04-18T13:39:54.005Z</time></trkpt><trkpt lat="45.467363262890274" lon="7.997423831873658"><ele>554.6</ele><time>2026-04-18T13:39:55.005Z</time></trkpt><trkpt lat="45.467316110279405" lon="7.9975073748642185"><ele>554.2</ele><time>2026-04-18T13:39:56.005Z</time></trkpt><trkpt lat="45.46721477139212" lon="7.997644650740577"><ele>553.8</ele><time>2026-04-18T13:39:58.005Z</time></trkpt><trkpt lat="45.46715324118528" lon="7.9977185091341845"><ele>553.4</ele><time>2026-04-18T13:39:59.005Z</time></trkpt><trkpt lat="45.46709114666962" lon="7.9978043925988915"><ele>553.0</ele><time>2026-04-18T13:40:00.005Z</time></trkpt><trkpt lat="45.46704071363294" lon="7.997896245387664"><ele>553.0</ele><time>2026-04-18T13:40:01.005Z</time></trkpt><trkpt lat="45.46699581740806" lon="7.997982049844001"><ele>553.0</ele><time>2026-04-18T13:40:02.005Z</time></trkpt><trkpt lat="45.46693947968499" lon="7.9980761313225734"><ele>553.0</ele><time>2026-04-18T13:40:03.005Z</time></trkpt><trkpt lat="45.46688323361806" lon="7.998176092466315"><ele>553.0</ele><time>2026-04-18T13:40:04.005Z</time></trkpt><trkpt lat="45.46683418570034" lon="7.998295174905764"><ele>553.0</ele><time>2026-04-18T13:40:05.005Z</time></trkpt><trkpt lat="45.466769011318426" lon="7.998411863748774"><ele>552.0</ele><time>2026-04-18T13:40:06.005Z</time></trkpt><trkpt lat="45.46670811429963" lon="7.998515594743192"><ele>551.0</ele><time>2026-04-18T13:40:07.005Z</time></trkpt><trkpt lat="45.46665235387728" lon="7.998626684859353"><ele>550.0</ele><time>2026-04-18T13:40:08.005Z</time></trkpt><trkpt lat="45.466598884530576" lon="7.998736523575157"><ele>549.0</ele><time>2026-04-18T13:40:09.005Z</time></trkpt><trkpt lat="45.46654143637647" lon="7.998842519838252"><ele>548.0</ele><time>2026-04-18T13:40:10.005Z</time></trkpt><trkpt lat="45.466488040149216" lon="7.998950550456409"><ele>548.0</ele><time>2026-04-18T13:40:11.005Z</time></trkpt><trkpt lat="45.46644343945528" lon="7.999034501841434"><ele>548.0</ele><time>2026-04-18T13:40:12.005Z</time></trkpt><trkpt lat="45.4664022096305" lon="7.999125011291908"><ele>548.0</ele><time>2026-04-18T13:40:13.005Z</time></trkpt><trkpt lat="45.46636463650162" lon="7.999261588529712"><ele>548.0</ele><time>2026-04-18T13:40:15.005Z</time></trkpt><trkpt lat="45.466315619241875" lon="7.999383864269047"><ele>548.0</ele><time>2026-04-18T13:40:16.005Z</time></trkpt><trkpt lat="45.466294255549755" lon="7.999514895813472"><ele>548.0</ele><time>2026-04-18T13:40:17.005Z</time></trkpt><trkpt lat="45.46627630615447" lon="7.999624586225366"><ele>548.0</ele><time>2026-04-18T13:40:18.005Z</time></trkpt><trkpt lat="45.46626224243333" lon="7.999730065426557"><ele>548.0</ele><time>2026-04-18T13:40:19.005Z</time></trkpt><trkpt lat="45.46625043859738" lon="7.999819413992501"><ele>548.0</ele><time>2026-04-18T13:40:20.005Z</time></trkpt><trkpt lat="45.466225480524024" lon="7.999903607390217"><ele>548.0</ele><time>2026-04-18T13:40:21.005Z</time></trkpt><trkpt lat="45.466176883060676" lon="8.00005447821989"><ele>548.0</ele><time>2026-04-18T13:40:23.006Z</time></trkpt><trkpt lat="45.46613485338955" lon="8.00016010774769"><ele>548.0</ele><time>2026-04-18T13:40:24.006Z</time></trkpt><trkpt lat="45.46609354048729" lon="8.000255552648154"><ele>548.0</ele><time>2026-04-18T13:40:25.006Z</time></trkpt><trkpt lat="45.466047284181116" lon="8.000351056535083"><ele>548.0</ele><time>2026-04-18T13:40:26.006Z</time></trkpt><trkpt lat="45.465982220763834" lon="8.000427400221943"><ele>548.0</ele><time>2026-04-18T13:40:27.006Z</time></trkpt><trkpt lat="45.46590734268586" lon="8.000486412791421"><ele>548.0</ele><time>2026-04-18T13:40:28.006Z</time></trkpt><trkpt lat="45.46584080211342" lon="8.000566430965732"><ele>548.0</ele><time>2026-04-18T13:40:29.006Z</time></trkpt><trkpt lat="45.465778200763665" lon="8.000633926803392"><ele>548.0</ele><time>2026-04-18T13:40:30.006Z</time></trkpt><trkpt lat="45.46571234529238" lon="8.000679771436165"><ele>548.0</ele><time>2026-04-18T13:40:31.006Z</time></trkpt><trkpt lat="45.46564907615286" lon="8.000738044339801"><ele>548.0</ele><time>2026-04-18T13:40:32.006Z</time></trkpt><trkpt lat="45.46558731180231" lon="8.000797275232582"><ele>548.0</ele><time>2026-04-18T13:40:33.006Z</time></trkpt><trkpt lat="45.46546972690613" lon="8.000838383811887"><ele>548.0</ele><time>2026-04-18T13:40:35.006Z</time></trkpt><trkpt lat="45.46540019881728" lon="8.000889905552112"><ele>548.0</ele><time>2026-04-18T13:40:36.006Z</time></trkpt><trkpt lat="45.4653250070259" lon="8.000920374363153"><ele>548.0</ele><time>2026-04-18T13:40:37.006Z</time></trkpt><trkpt lat="45.46526348384566" lon="8.000954805345742"><ele>547.1666666666666</ele><time>2026-04-18T13:40:38.006Z</time></trkpt><trkpt lat="45.465195650629" lon="8.001001807798515"><ele>546.3333333333333</ele><time>2026-04-18T13:40:39.006Z</time></trkpt><trkpt lat="45.46513018663875" lon="8.00107396136359"><ele>545.5</ele><time>2026-04-18T13:40:40.006Z</time></trkpt><trkpt lat="45.46506586601283" lon="8.001156415361626"><ele>544.6666666666666</ele><time>2026-04-18T13:40:41.006Z</time></trkpt><trkpt lat="45.464991845001904" lon="8.001226365242202"><ele>543.8333333333334</ele><time>2026-04-18T13:40:42.006Z</time></trkpt><trkpt lat="45.46492637128393" lon="8.00129589128072"><ele>543.0</ele><time>2026-04-18T13:40:43.006Z</time></trkpt><trkpt lat="45.46485547172988" lon="8.001363075820684"><ele>543.0</ele><time>2026-04-18T13:40:44.006Z</time></trkpt><trkpt lat="45.464789114256504" lon="8.001441411795438"><ele>543.0</ele><time>2026-04-18T13:40:45.006Z</time></trkpt><trkpt lat="45.46471817055397" lon="8.001531710191843"><ele>543.0</ele><time>2026-04-18T13:40:46.006Z</time></trkpt><trkpt lat="45.46466924114503" lon="8.00161595400959"><ele>543.0</ele><time>2026-04-18T13:40:47.006Z</time></trkpt><trkpt lat="45.46462022380921" lon="8.001681300437113"><ele>543.0</ele><time>2026-04-18T13:40:48.006Z</time></trkpt><trkpt lat="45.4645643634918" lon="8.001750137604885"><ele>543.0</ele><time>2026-04-18T13:40:49.006Z</time></trkpt><trkpt lat="45.46449331903762" lon="8.001814958790403"><ele>543.0</ele><time>2026-04-18T13:40:51.006Z</time></trkpt><trkpt lat="45.46435459272342" lon="8.00171957355854"><ele>543.0</ele><time>2026-04-18T13:40:55.006Z</time></trkpt><trkpt lat="45.46425537696296" lon="8.001645679528952"><ele>543.0</ele><time>2026-04-18T13:40:57.006Z</time></trkpt><trkpt lat="45.46417817740782" lon="8.00159130062681"><ele>543.0</ele><time>2026-04-18T13:40:59.007Z</time></trkpt><trkpt lat="45.46406024912686" lon="8.00159151816829"><ele>543.1999999999999</ele><time>2026-04-18T13:41:01.007Z</time></trkpt><trkpt lat="45.46399126510375" lon="8.001672727393556"><ele>543.4</ele><time>2026-04-18T13:41:02.007Z</time></trkpt><trkpt lat="45.463939700537274" lon="8.001742111688388"><ele>543.5999999999999</ele><time>2026-04-18T13:41:03.007Z</time></trkpt><trkpt lat="45.46385353137502" lon="8.001861613629988"><ele>543.8</ele><time>2026-04-18T13:41:05.007Z</time></trkpt><trkpt lat="45.46375484453797" lon="8.001962776304786"><ele>544.0</ele><time>2026-04-18T13:41:07.007Z</time></trkpt><trkpt lat="45.46365811827411" lon="8.002072789633852"><ele>544.0</ele><time>2026-04-18T13:41:09.007Z</time></trkpt><trkpt lat="45.46360465368801" lon="8.002122057617811"><ele>544.0</ele><time>2026-04-18T13:41:10.007Z</time></trkpt><trkpt lat="45.46354410496451" lon="8.002153028563809"><ele>544.0</ele><time>2026-04-18T13:41:12.007Z</time></trkpt><trkpt lat="45.46344108756082" lon="8.002167611367197"><ele>544.0</ele><time>2026-04-18T13:41:15.007Z</time></trkpt><trkpt lat="45.46340140593832" lon="8.00226985345643"><ele>544.0</ele><time>2026-04-18T13:41:16.007Z</time></trkpt><trkpt lat="45.46333216472973" lon="8.002283690883674"><ele>544.0</ele><time>2026-04-18T13:41:21.007Z</time></trkpt><trkpt lat="45.46325055434002" lon="8.002145424455149"><ele>544.0</ele><time>2026-04-18T13:41:22.007Z</time></trkpt><trkpt lat="45.46315232473424" lon="8.002090401082482"><ele>544.0</ele><time>2026-04-18T13:41:24.007Z</time></trkpt><trkpt lat="45.46306624553455" lon="8.002006977687707"><ele>544.0</ele><time>2026-04-18T13:41:26.007Z</time></trkpt><trkpt lat="45.46298245143495" lon="8.001961456442363"><ele>544.0</ele><time>2026-04-18T13:41:28.007Z</time></trkpt><trkpt lat="45.46287002289425" lon="8.001919541151011"><ele>544.0</ele><time>2026-04-18T13:41:30.007Z</time></trkpt><trkpt lat="45.462791142752955" lon="8.001933413101062"><ele>546.8</ele><time>2026-04-18T13:41:32.007Z</time></trkpt><trkpt lat="45.46276647539637" lon="8.001845817340518"><ele>549.5999999999999</ele><time>2026-04-18T13:41:35.007Z</time></trkpt><trkpt lat="45.46276887822988" lon="8.001747370038997"><ele>552.4</ele><time>2026-04-18T13:41:37.008Z</time></trkpt><trkpt lat="45.46261225790109" lon="8.001726997999377"><ele>555.1999999999999</ele><time>2026-04-18T13:41:40.008Z</time></trkpt><trkpt lat="45.46251224411189" lon="8.001808063638691"><ele>558.0</ele><time>2026-04-18T13:41:42.008Z</time></trkpt><trkpt lat="45.46240983275461" lon="8.001907754611482"><ele>558.0</ele><time>2026-04-18T13:41:44.008Z</time></trkpt><trkpt lat="45.46236898415444" lon="8.001982076889254"><ele>558.0</ele><time>2026-04-18T13:41:45.008Z</time></trkpt><trkpt lat="45.462306955007804" lon="8.002028758799131"><ele>558.0</ele><time>2026-04-18T13:41:46.008Z</time></trkpt><trkpt lat="45.46224662482614" lon="8.002096442974896"><ele>558.0</ele><time>2026-04-18T13:41:47.008Z</time></trkpt><trkpt lat="45.46218464186637" lon="8.00215608976718"><ele>558.0</ele><time>2026-04-18T13:41:48.008Z</time></trkpt><trkpt lat="45.46212605779774" lon="8.002205778833261"><ele>558.0</ele><time>2026-04-18T13:41:49.008Z</time></trkpt><trkpt lat="45.4620042911823" lon="8.002220427343529"><ele>557.0</ele><time>2026-04-18T13:41:51.008Z</time></trkpt><trkpt lat="45.461906268678014" lon="8.002162676102001"><ele>556.0</ele><time>2026-04-18T13:41:53.008Z</time></trkpt><trkpt lat="45.461840140294434" lon="8.002137320413512"><ele>555.0</ele><time>2026-04-18T13:41:54.008Z</time></trkpt><trkpt lat="45.461731385053206" lon="8.002047181347217"><ele>554.0</ele><time>2026-04-18T13:41:56.008Z</time></trkpt><trkpt lat="45.46163090757785" lon="8.001941624066498"><ele>553.0</ele><time>2026-04-18T13:41:58.008Z</time></trkpt><trkpt lat="45.46158160696747" lon="8.001882820614723"><ele>553.0</ele><time>2026-04-18T13:41:59.008Z</time></trkpt><trkpt lat="45.46150079243114" lon="8.001756563082681"><ele>553.0</ele><time>2026-04-18T13:42:01.008Z</time></trkpt><trkpt lat="45.461519983690785" lon="8.001638226503733"><ele>553.0</ele><time>2026-04-18T13:42:02.008Z</time></trkpt><trkpt lat="45.461562532017695" lon="8.001479608000095"><ele>553.0</ele><time>2026-04-18T13:42:04.008Z</time></trkpt><trkpt lat="45.461617810266986" lon="8.001313775677009"><ele>551.1428571428571</ele><time>2026-04-18T13:42:06.008Z</time></trkpt><trkpt lat="45.46162663754275" lon="8.001223760530614"><ele>549.2857142857142</ele><time>2026-04-18T13:42:07.008Z</time></trkpt><trkpt lat="45.46163813760073" lon="8.001129255054483"><ele>547.4285714285714</ele><time>2026-04-18T13:42:08.008Z</time></trkpt><trkpt lat="45.4616537008476" lon="8.001030027558311"><ele>545.5714285714286</ele><time>2026-04-18T13:42:09.008Z</time></trkpt><trkpt lat="45.4616748792424" lon="8.000919013628817"><ele>543.7142857142857</ele><time>2026-04-18T13:42:10.008Z</time></trkpt><trkpt lat="45.4616985990024" lon="8.000834424497718"><ele>541.8571428571429</ele><time>2026-04-18T13:42:11.008Z</time></trkpt><trkpt lat="45.461709300539205" lon="8.000728383056305"><ele>540.0</ele><time>2026-04-18T13:42:12.009Z</time></trkpt><trkpt lat="45.46172780192435" lon="8.00062165759833"><ele>538.0</ele><time>2026-04-18T13:42:13.009Z</time></trkpt><trkpt lat="45.461747021029694" lon="8.0005236744824"><ele>536.0</ele><time>2026-04-18T13:42:14.009Z</time></trkpt><trkpt lat="45.46176114267637" lon="8.00042171143731"><ele>534.0</ele><time>2026-04-18T13:42:15.009Z</time></trkpt><trkpt lat="45.46178458937121" lon="8.00031716248275"><ele>532.0</ele><time>2026-04-18T13:42:16.009Z</time></trkpt><trkpt lat="45.46181701060818" lon="8.000203510282034"><ele>530.0</ele><time>2026-04-18T13:42:17.009Z</time></trkpt><trkpt lat="45.46184606129189" lon="8.000088963932285"><ele>528.0</ele><time>2026-04-18T13:42:18.009Z</time></trkpt><trkpt lat="45.4618685589952" lon="7.999970839320868"><ele>528.0</ele><time>2026-04-18T13:42:19.009Z</time></trkpt><trkpt lat="45.46190467114739" lon="7.9998496856407595"><ele>528.0</ele><time>2026-04-18T13:42:20.009Z</time></trkpt><trkpt lat="45.46194417068567" lon="7.999733283665538"><ele>528.0</ele><time>2026-04-18T13:42:21.009Z</time></trkpt><trkpt lat="45.461977767983406" lon="7.999613987689788"><ele>528.0</ele><time>2026-04-18T13:42:22.009Z</time></trkpt><trkpt lat="45.462009745739905" lon="7.999487812060428"><ele>528.0</ele><time>2026-04-18T13:42:23.009Z</time></trkpt><trkpt lat="45.462030553245995" lon="7.99938349147263"><ele>528.0</ele><time>2026-04-18T13:42:24.009Z</time></trkpt><trkpt lat="45.46205310334104" lon="7.999277991263154"><ele>528.0</ele><time>2026-04-18T13:42:25.009Z</time></trkpt><trkpt lat="45.46205851418887" lon="7.999169633449457"><ele>528.0</ele><time>2026-04-18T13:42:26.009Z</time></trkpt><trkpt lat="45.46207922763886" lon="7.999068299330565"><ele>528.0</ele><time>2026-04-18T13:42:27.009Z</time></trkpt><trkpt lat="45.46210042017592" lon="7.998964621218631"><ele>528.0</ele><time>2026-04-18T13:42:28.009Z</time></trkpt><trkpt lat="45.462118055438935" lon="7.998863545371814"><ele>528.0</ele><time>2026-04-18T13:42:29.009Z</time></trkpt><trkpt lat="45.462135580546715" lon="7.998751618213427"><ele>528.0</ele><time>2026-04-18T13:42:30.009Z</time></trkpt><trkpt lat="45.46214993664841" lon="7.99864602418061"><ele>530.3333333333334</ele><time>2026-04-18T13:42:31.009Z</time></trkpt><trkpt lat="45.4621639504696" lon="7.998533033759283"><ele>532.6666666666666</ele><time>2026-04-18T13:42:32.009Z</time></trkpt><trkpt lat="45.46217545993861" lon="7.99843376045073"><ele>535.0</ele><time>2026-04-18T13:42:33.009Z</time></trkpt><trkpt lat="45.462187191593074" lon="7.998332570709676"><ele>537.3333333333333</ele><time>2026-04-18T13:42:34.009Z</time></trkpt><trkpt lat="45.462199438113274" lon="7.9982323137141265"><ele>539.6666666666666</ele><time>2026-04-18T13:42:35.009Z</time></trkpt><trkpt lat="45.46221254769243" lon="7.998128351785904"><ele>542.0</ele><time>2026-04-18T13:42:36.009Z</time></trkpt><trkpt lat="45.46223446158154" lon="7.99794436102844"><ele>542.0</ele><time>2026-04-18T13:42:38.009Z</time></trkpt><trkpt lat="45.46226370623096" lon="7.99782964848463"><ele>542.0</ele><time>2026-04-18T13:42:39.009Z</time></trkpt><trkpt lat="45.46226324844528" lon="7.9977264613057795"><ele>542.0</ele><time>2026-04-18T13:42:40.009Z</time></trkpt><trkpt lat="45.46227322480693" lon="7.997616943480252"><ele>542.0</ele><time>2026-04-18T13:42:41.009Z</time></trkpt><trkpt lat="45.462282163085774" lon="7.997514101565439"><ele>542.0</ele><time>2026-04-18T13:42:42.009Z</time></trkpt><trkpt lat="45.46229224735837" lon="7.9974186955503574"><ele>542.0</ele><time>2026-04-18T13:42:43.009Z</time></trkpt><trkpt lat="45.46229473032401" lon="7.997314037901646"><ele>542.0</ele><time>2026-04-18T13:42:44.009Z</time></trkpt><trkpt lat="45.46229628270256" lon="7.997203930001653"><ele>539.2</ele><time>2026-04-18T13:42:45.009Z</time></trkpt><trkpt lat="45.4623100620182" lon="7.997107025120223"><ele>536.4000000000001</ele><time>2026-04-18T13:42:47.009Z</time></trkpt><trkpt lat="45.46233862691311" lon="7.996956954043414"><ele>533.5999999999999</ele><time>2026-04-18T13:42:48.009Z</time></trkpt><trkpt lat="45.462302654214454" lon="7.996842939456534"><ele>530.8</ele><time>2026-04-18T13:42:49.01Z</time></trkpt><trkpt lat="45.46221614285907" lon="7.9967265068832765"><ele>528.0</ele><time>2026-04-18T13:42:50.01Z</time></trkpt><trkpt lat="45.46214492084393" lon="7.996660956047244"><ele>521.8333333333334</ele><time>2026-04-18T13:42:51.01Z</time></trkpt><trkpt lat="45.462085967695245" lon="7.996614408094343"><ele>515.6666666666666</ele><time>2026-04-18T13:42:52.01Z</time></trkpt><trkpt lat="45.46201013812696" lon="7.9965670750053555"><ele>509.5</ele><time>2026-04-18T13:42:54.01Z</time></trkpt><trkpt lat="45.46193576403253" lon="7.996517453599649"><ele>503.3333333333333</ele><time>2026-04-18T13:42:57.01Z</time></trkpt><trkpt lat="45.46186350674618" lon="7.99656610505076"><ele>497.16666666666663</ele><time>2026-04-18T13:43:21.01Z</time></trkpt><trkpt lat="45.46178630459772" lon="7.996565131977744"><ele>491.0</ele><time>2026-04-18T13:43:22.01Z</time></trkpt><trkpt lat="45.46171892632233" lon="7.9965941867023025"><ele>491.0</ele><time>2026-04-18T13:43:23.01Z</time></trkpt><trkpt lat="45.46164491306084" lon="7.9966089165752114"><ele>490.99999999999994</ele><time>2026-04-18T13:43:24.01Z</time></trkpt><trkpt lat="45.46158194825647" lon="7.996649343396827"><ele>491.0</ele><time>2026-04-18T13:43:25.011Z</time></trkpt><trkpt lat="45.46151545037142" lon="7.996695648745019"><ele>491.0</ele><time>2026-04-18T13:43:26.011Z</time></trkpt><trkpt lat="45.46145093843559" lon="7.996746696740207"><ele>490.99999999999994</ele><time>2026-04-18T13:43:27.011Z</time></trkpt><trkpt lat="45.4613919112764" lon="7.9967879854616895"><ele>491.0</ele><time>2026-04-18T13:43:28.011Z</time></trkpt><trkpt lat="45.461331644545346" lon="7.9968243443579246"><ele>491.0</ele><time>2026-04-18T13:43:29.011Z</time></trkpt><trkpt lat="45.46126960014909" lon="7.996876009978575"><ele>491.16666666666663</ele><time>2026-04-18T13:43:30.011Z</time></trkpt><trkpt lat="45.4612097713236" lon="7.996932184897981"><ele>491.3333333333333</ele><time>2026-04-18T13:43:31.011Z</time></trkpt><trkpt lat="45.46111863153363" lon="7.997044247737457"><ele>491.5</ele><time>2026-04-18T13:43:33.011Z</time></trkpt><trkpt lat="45.46103682326283" lon="7.997140090127276"><ele>491.66666666666663</ele><time>2026-04-18T13:43:35.011Z</time></trkpt><trkpt lat="45.461011100204566" lon="7.997236773717926"><ele>491.8333333333333</ele><time>2026-04-18T13:43:37.011Z</time></trkpt><trkpt lat="45.46097834601724" lon="7.99732035000468"><ele>492.0</ele><time>2026-04-18T13:43:39.011Z</time></trkpt><trkpt lat="45.46093387075883" lon="7.997433834275618"><ele>492.0</ele><time>2026-04-18T13:43:41.011Z</time></trkpt><trkpt lat="45.46073429294188" lon="7.997378293178602"><ele>492.00000000000006</ele><time>2026-04-18T13:43:47.011Z</time></trkpt><trkpt lat="45.4606897052081" lon="7.997451869307269"><ele>492.00000000000006</ele><time>2026-04-18T13:43:51.011Z</time></trkpt><trkpt lat="45.46062537885597" lon="7.99743531162602"><ele>492.0</ele><time>2026-04-18T13:43:55.011Z</time></trkpt><trkpt lat="45.46055080736621" lon="7.997459874615703"><ele>492.0</ele><time>2026-04-18T13:43:58.011Z</time></trkpt><trkpt lat="45.46043790337159" lon="7.997503175748943"><ele>494.57142857142867</ele><time>2026-04-18T13:44:01.011Z</time></trkpt><trkpt lat="45.460359825961554" lon="7.997573870325976"><ele>497.14285714285717</ele><time>2026-04-18T13:44:04.012Z</time></trkpt><trkpt lat="45.46030658894951" lon="7.9976308424486255"><ele>499.7142857142858</ele><time>2026-04-18T13:44:08.012Z</time></trkpt><trkpt lat="45.46023623441911" lon="7.997692562574878"><ele>502.28571428571433</ele><time>2026-04-18T13:44:15.012Z</time></trkpt><trkpt lat="45.460181393714834" lon="7.997737365276351"><ele>504.8571428571429</ele><time>2026-04-18T13:44:18.012Z</time></trkpt><trkpt lat="45.46012453952281" lon="7.997786924703852"><ele>507.42857142857144</ele><time>2026-04-18T13:44:21.012Z</time></trkpt><trkpt lat="45.460066606974856" lon="7.997833368450133"><ele>510.0</ele><time>2026-04-18T13:44:23.012Z</time></trkpt><trkpt lat="45.46001767421754" lon="7.99790483819673"><ele>510.0</ele><time>2026-04-18T13:44:26.012Z</time></trkpt><trkpt lat="45.45993725194946" lon="7.997926321838137"><ele>510.0</ele><time>2026-04-18T13:44:29.012Z</time></trkpt><trkpt lat="45.459867763956225" lon="7.997947145762303"><ele>510.0</ele><time>2026-04-18T13:44:31.012Z</time></trkpt><trkpt lat="45.45982265770855" lon="7.99801896951291"><ele>510.0</ele><time>2026-04-18T13:44:34.012Z</time></trkpt><trkpt lat="45.459745252270615" lon="7.9980815029166274"><ele>510.0</ele><time>2026-04-18T13:44:38.013Z</time></trkpt><trkpt lat="45.4596826250042" lon="7.998132453775435"><ele>510.0</ele><time>2026-04-18T13:44:41.013Z</time></trkpt><trkpt lat="45.45961820369667" lon="7.998233766825027"><ele>509.8333333333333</ele><time>2026-04-18T13:44:44.013Z</time></trkpt><trkpt lat="45.459557288135535" lon="7.99829593787914"><ele>509.66666666666663</ele><time>2026-04-18T13:44:46.013Z</time></trkpt><trkpt lat="45.459512847603875" lon="7.998410014225866"><ele>509.5</ele><time>2026-04-18T13:44:49.013Z</time></trkpt><trkpt lat="45.459453976947984" lon="7.9984946206074525"><ele>509.3333333333333</ele><time>2026-04-18T13:44:52.013Z</time></trkpt><trkpt lat="45.4594420105985" lon="7.998590866406662"><ele>509.16666666666663</ele><time>2026-04-18T13:44:55.013Z</time></trkpt><trkpt lat="45.45940606398574" lon="7.99866536956424"><ele>509.0</ele><time>2026-04-18T13:44:58.013Z</time></trkpt><trkpt lat="45.459337421164456" lon="7.998752236150112"><ele>509.66666666666663</ele><time>2026-04-18T13:45:01.013Z</time></trkpt><trkpt lat="45.45930455697122" lon="7.998828965679535"><ele>510.3333333333333</ele><time>2026-04-18T13:45:03.013Z</time></trkpt><trkpt lat="45.459231855766404" lon="7.998911538758323"><ele>511.0</ele><time>2026-04-18T13:45:06.013Z</time></trkpt><trkpt lat="45.459185242953936" lon="7.999021545337953"><ele>511.66666666666663</ele><time>2026-04-18T13:45:09.013Z</time></trkpt><trkpt lat="45.45914877090803" lon="7.999147160716932"><ele>512.3333333333334</ele><time>2026-04-18T13:45:12.013Z</time></trkpt><trkpt lat="45.45909681613506" lon="7.999236261416762"><ele>513.0</ele><time>2026-04-18T13:45:14.014Z</time></trkpt><trkpt lat="45.459037510568166" lon="7.9993064012615385"><ele>513.0</ele><time>2026-04-18T13:45:17.014Z</time></trkpt><trkpt lat="45.459005907168816" lon="7.999388473194229"><ele>513.0</ele><time>2026-04-18T13:45:19.014Z</time></trkpt><trkpt lat="45.458959828084815" lon="7.999483260711132"><ele>513.0</ele><time>2026-04-18T13:45:22.014Z</time></trkpt><trkpt lat="45.45895010693674" lon="7.999586297324956"><ele>513.0</ele><time>2026-04-18T13:45:25.014Z</time></trkpt><trkpt lat="45.45890493063992" lon="7.999657456425007"><ele>513.0</ele><time>2026-04-18T13:45:27.014Z</time></trkpt><trkpt lat="45.458877165296514" lon="7.99977093069509"><ele>513.0</ele><time>2026-04-18T13:45:30.014Z</time></trkpt><trkpt lat="45.45883279851449" lon="7.999873990362569"><ele>513.0</ele><time>2026-04-18T13:45:33.014Z</time></trkpt><trkpt lat="45.458785203667546" lon="8.000011700490408"><ele>513.0</ele><time>2026-04-18T13:45:36.014Z</time></trkpt><trkpt lat="45.45873917023398" lon="8.00010429610572"><ele>513.0</ele><time>2026-04-18T13:45:38.014Z</time></trkpt><trkpt lat="45.458717765579586" lon="8.000212863886471"><ele>513.0</ele><time>2026-04-18T13:45:40.014Z</time></trkpt><trkpt lat="45.45865587734564" lon="8.00037796880536"><ele>513.0</ele><time>2026-04-18T13:45:43.014Z</time></trkpt><trkpt lat="45.4586159797982" lon="8.000466999101848"><ele>513.1428571428572</ele><time>2026-04-18T13:45:45.014Z</time></trkpt><trkpt lat="45.45859515147363" lon="8.00057686093591"><ele>513.2857142857143</ele><time>2026-04-18T13:45:47.014Z</time></trkpt><trkpt lat="45.45855084011135" lon="8.000679803343685"><ele>513.4285714285714</ele><time>2026-04-18T13:45:49.014Z</time></trkpt><trkpt lat="45.458518975064564" lon="8.000771724879856"><ele>513.5714285714287</ele><time>2026-04-18T13:45:52.015Z</time></trkpt><trkpt lat="45.45849369316855" lon="8.000864153138995"><ele>513.7142857142858</ele><time>2026-04-18T13:45:56.015Z</time></trkpt><trkpt lat="45.458461732924725" lon="8.0009449911615"><ele>513.8571428571429</ele><time>2026-04-18T13:46:00.015Z</time></trkpt><trkpt lat="45.45841428957739" lon="8.001024262184012"><ele>514.0</ele><time>2026-04-18T13:46:07.015Z</time></trkpt><trkpt lat="45.458373587609" lon="8.001102174274152"><ele>514.0</ele><time>2026-04-18T13:46:10.015Z</time></trkpt><trkpt lat="45.458334762100364" lon="8.001194112002024"><ele>514.0</ele><time>2026-04-18T13:46:13.015Z</time></trkpt><trkpt lat="45.45833950405199" lon="8.00133695705802"><ele>514.0</ele><time>2026-04-18T13:46:17.015Z</time></trkpt><trkpt lat="45.45833261052372" lon="8.001436174687807"><ele>514.0</ele><time>2026-04-18T13:46:20.015Z</time></trkpt><trkpt lat="45.458311025070856" lon="8.001525359567585"><ele>514.0</ele><time>2026-04-18T13:46:22.015Z</time></trkpt><trkpt lat="45.458238610607985" lon="8.001623189702581"><ele>514.0</ele><time>2026-04-18T13:46:25.015Z</time></trkpt><trkpt lat="45.45820791485697" lon="8.001718397218436"><ele>513.8333333333334</ele><time>2026-04-18T13:46:29.016Z</time></trkpt><trkpt lat="45.45816127136345" lon="8.001810147803258"><ele>513.6666666666667</ele><time>2026-04-18T13:46:31.016Z</time></trkpt><trkpt lat="45.458099207745356" lon="8.001882365574927"><ele>513.5</ele><time>2026-04-18T13:46:33.016Z</time></trkpt><trkpt lat="45.45809775086369" lon="8.001992237155612"><ele>513.3333333333334</ele><time>2026-04-18T13:46:36.016Z</time></trkpt><trkpt lat="45.45803943724882" lon="8.002069511644752"><ele>513.1666666666666</ele><time>2026-04-18T13:46:39.016Z</time></trkpt><trkpt lat="45.458012432801944" lon="8.002169187001568"><ele>513.0</ele><time>2026-04-18T13:46:42.016Z</time></trkpt><trkpt lat="45.45799332474043" lon="8.00225608733813"><ele>513.0</ele><time>2026-04-18T13:46:44.016Z</time></trkpt><trkpt lat="45.45797711357314" lon="8.002372939238285"><ele>513.0</ele><time>2026-04-18T13:46:47.016Z</time></trkpt><trkpt lat="45.4579314684915" lon="8.002460487127015"><ele>513.0</ele><time>2026-04-18T13:46:50.016Z</time></trkpt><trkpt lat="45.457914070361355" lon="8.002553266770034"><ele>513.0</ele><time>2026-04-18T13:46:54.016Z</time></trkpt><trkpt lat="45.457899044184906" lon="8.00265272433924"><ele>513.0</ele><time>2026-04-18T13:46:58.016Z</time></trkpt><trkpt lat="45.4578666685961" lon="8.002744260541933"><ele>513.0</ele><time>2026-04-18T13:47:01.016Z</time></trkpt><trkpt lat="45.45783411235401" lon="8.002851814525963"><ele>512.6666666666666</ele><time>2026-04-18T13:47:04.017Z</time></trkpt><trkpt lat="45.45777509391438" lon="8.002975636842438"><ele>512.3333333333334</ele><time>2026-04-18T13:47:07.017Z</time></trkpt><trkpt lat="45.45772339326333" lon="8.003083970185648"><ele>512.0</ele><time>2026-04-18T13:47:10.017Z</time></trkpt><trkpt lat="45.457689481444596" lon="8.003172238072855"><ele>511.6666666666667</ele><time>2026-04-18T13:47:13.017Z</time></trkpt><trkpt lat="45.457650968296534" lon="8.003293034342331"><ele>511.33333333333337</ele><time>2026-04-18T13:47:16.017Z</time></trkpt><trkpt lat="45.45762469082987" lon="8.003377065812787"><ele>511.0</ele><time>2026-04-18T13:47:20.017Z</time></trkpt><trkpt lat="45.457590403271254" lon="8.003454818767754"><ele>511.6666666666667</ele><time>2026-04-18T13:47:22.017Z</time></trkpt><trkpt lat="45.45752961623173" lon="8.003540466591051"><ele>512.3333333333334</ele><time>2026-04-18T13:47:24.017Z</time></trkpt><trkpt lat="45.45750254645338" lon="8.003627026751687"><ele>513.0</ele><time>2026-04-18T13:47:27.017Z</time></trkpt><trkpt lat="45.45746465966831" lon="8.003744672826297"><ele>513.6666666666666</ele><time>2026-04-18T13:47:30.017Z</time></trkpt><trkpt lat="45.457421958231784" lon="8.003842322218038"><ele>514.3333333333333</ele><time>2026-04-18T13:47:33.017Z</time></trkpt><trkpt lat="45.45738686475783" lon="8.003947156265042"><ele>515.0</ele><time>2026-04-18T13:47:37.017Z</time></trkpt><trkpt lat="45.45738353643523" lon="8.004059614880742"><ele>515.0</ele><time>2026-04-18T13:47:39.017Z</time></trkpt><trkpt lat="45.45734323833763" lon="8.0041361044672"><ele>515.0</ele><time>2026-04-18T13:47:41.018Z</time></trkpt><trkpt lat="45.45728917745938" lon="8.004260352323572"><ele>515.0</ele><time>2026-04-18T13:47:44.018Z</time></trkpt><trkpt lat="45.457266766155875" lon="8.004358543202901"><ele>515.0</ele><time>2026-04-18T13:47:46.018Z</time></trkpt><trkpt lat="45.45723034630618" lon="8.004461744197059"><ele>515.0</ele><time>2026-04-18T13:47:49.018Z</time></trkpt><trkpt lat="45.45721028338152" lon="8.004586589534629"><ele>515.0</ele><time>2026-04-18T13:47:52.018Z</time></trkpt><trkpt lat="45.45715915955071" lon="8.004654010026307"><ele>514.5</ele><time>2026-04-18T13:47:54.018Z</time></trkpt><trkpt lat="45.457121872887406" lon="8.004727218280735"><ele>514.0</ele><time>2026-04-18T13:47:57.018Z</time></trkpt><trkpt lat="45.45707948724747" lon="8.004849058337802"><ele>513.5</ele><time>2026-04-18T13:48:00.018Z</time></trkpt><trkpt lat="45.457047714655666" lon="8.004927127019991"><ele>513.0</ele><time>2026-04-18T13:48:02.018Z</time></trkpt><trkpt lat="45.45701538953609" lon="8.005039645756971"><ele>512.5</ele><time>2026-04-18T13:48:05.018Z</time></trkpt><trkpt lat="45.456990353244954" lon="8.005134344158401"><ele>512.0</ele><time>2026-04-18T13:48:07.018Z</time></trkpt><trkpt lat="45.45694272685077" lon="8.005210835217019"><ele>511.1428571428571</ele><time>2026-04-18T13:48:09.018Z</time></trkpt><trkpt lat="45.45690096232027" lon="8.00528731564773"><ele>510.2857142857142</ele><time>2026-04-18T13:48:12.018Z</time></trkpt><trkpt lat="45.45683825379368" lon="8.005368696485483"><ele>509.42857142857144</ele><time>2026-04-18T13:48:15.018Z</time></trkpt><trkpt lat="45.45679880402258" lon="8.005440431590586"><ele>508.57142857142856</ele><time>2026-04-18T13:48:17.019Z</time></trkpt><trkpt lat="45.45675051471572" lon="8.00553840134543"><ele>507.7142857142857</ele><time>2026-04-18T13:48:20.019Z</time></trkpt><trkpt lat="45.456707628116" lon="8.005609120804552"><ele>506.8571428571429</ele><time>2026-04-18T13:48:22.019Z</time></trkpt><trkpt lat="45.45664575909201" lon="8.005671191973724"><ele>506.00000000000006</ele><time>2026-04-18T13:48:24.019Z</time></trkpt><trkpt lat="45.45661400292905" lon="8.005751885023471"><ele>506.00000000000006</ele><time>2026-04-18T13:48:26.019Z</time></trkpt><trkpt lat="45.456566055747764" lon="8.00581114107197"><ele>506.0</ele><time>2026-04-18T13:48:29.019Z</time></trkpt><trkpt lat="45.456564624515806" lon="8.005909537457919"><ele>506.00000000000006</ele><time>2026-04-18T13:48:32.019Z</time></trkpt><trkpt lat="45.45654118134199" lon="8.006014318438385"><ele>506.00000000000006</ele><time>2026-04-18T13:48:36.019Z</time></trkpt><trkpt lat="45.456521781421074" lon="8.006120565524984"><ele>506.0</ele><time>2026-04-18T13:48:40.019Z</time></trkpt><trkpt lat="45.45649253626797" lon="8.00620148544208"><ele>506.00000000000006</ele><time>2026-04-18T13:48:43.019Z</time></trkpt><trkpt lat="45.45645783265687" lon="8.006296400195192"><ele>506.00000000000006</ele><time>2026-04-18T13:48:50.019Z</time></trkpt><trkpt lat="45.456440413407414" lon="8.006394319706851"><ele>505.8333333333333</ele><time>2026-04-18T13:48:53.02Z</time></trkpt><trkpt lat="45.45642033460989" lon="8.006506022124649"><ele>505.66666666666663</ele><time>2026-04-18T13:48:55.02Z</time></trkpt><trkpt lat="45.45638174797141" lon="8.006604042398118"><ele>505.5</ele><time>2026-04-18T13:48:57.02Z</time></trkpt><trkpt lat="45.45633386375303" lon="8.006692352512507"><ele>505.33333333333337</ele><time>2026-04-18T13:48:59.02Z</time></trkpt><trkpt lat="45.45626285006179" lon="8.006803713142201"><ele>505.1666666666667</ele><time>2026-04-18T13:49:04.02Z</time></trkpt><trkpt lat="45.45621205329594" lon="8.006878313173045"><ele>505.0</ele><time>2026-04-18T13:49:06.02Z</time></trkpt><trkpt lat="45.456154805292776" lon="8.006962387595655"><ele>505.0</ele><time>2026-04-18T13:49:09.02Z</time></trkpt><trkpt lat="45.4561163526939" lon="8.00703626155938"><ele>504.99999999999994</ele><time>2026-04-18T13:49:12.02Z</time></trkpt><trkpt lat="45.456074799911974" lon="8.007121840462462"><ele>505.0</ele><time>2026-04-18T13:49:18.02Z</time></trkpt><trkpt lat="45.456024936452295" lon="8.00721328396336"><ele>505.0</ele><time>2026-04-18T13:49:22.02Z</time></trkpt><trkpt lat="45.45601281866081" lon="8.007302675813161"><ele>504.99999999999994</ele><time>2026-04-18T13:49:26.02Z</time></trkpt><trkpt lat="45.455957912226204" lon="8.007350752760498"><ele>505.0</ele><time>2026-04-18T13:49:31.021Z</time></trkpt><trkpt lat="45.455949176854226" lon="8.007458466532563"><ele>505.0</ele><time>2026-04-18T13:49:34.021Z</time></trkpt><trkpt lat="45.455897938932324" lon="8.007525315930554"><ele>505.00000000000006</ele><time>2026-04-18T13:49:37.021Z</time></trkpt><trkpt lat="45.45586900147542" lon="8.00764045460543"><ele>505.0</ele><time>2026-04-18T13:49:41.021Z</time></trkpt><trkpt lat="45.45585738063555" lon="8.007737432784651"><ele>505.0</ele><time>2026-04-18T13:49:44.021Z</time></trkpt><trkpt lat="45.45583714700517" lon="8.007827228863574"><ele>505.0</ele><time>2026-04-18T13:49:46.021Z</time></trkpt><trkpt lat="45.455775534110266" lon="8.007897637327238"><ele>505.00000000000006</ele><time>2026-04-18T13:49:49.021Z</time></trkpt><trkpt lat="45.45572664169025" lon="8.00797441552675"><ele>505.0</ele><time>2026-04-18T13:49:52.021Z</time></trkpt><trkpt lat="45.45568599065297" lon="8.00806947605113"><ele>505.00000000000006</ele><time>2026-04-18T13:49:54.021Z</time></trkpt><trkpt lat="45.45566887509682" lon="8.008203112083187"><ele>505.0</ele><time>2026-04-18T13:49:58.021Z</time></trkpt><trkpt lat="45.45563777168984" lon="8.008286274250977"><ele>505.0</ele><time>2026-04-18T13:50:00.021Z</time></trkpt><trkpt lat="45.455568002749075" lon="8.00838936158286"><ele>505.0</ele><time>2026-04-18T13:50:02.021Z</time></trkpt><trkpt lat="45.45551701607325" lon="8.008486366065013"><ele>505.00000000000006</ele><time>2026-04-18T13:50:04.021Z</time></trkpt><trkpt lat="45.45550226919537" lon="8.008587339287269"><ele>505.0</ele><time>2026-04-18T13:50:07.022Z</time></trkpt><trkpt lat="45.455469871508264" lon="8.0087213496205"><ele>503.85714285714283</ele><time>2026-04-18T13:50:10.022Z</time></trkpt><trkpt lat="45.455427401169175" lon="8.008828079671082"><ele>502.71428571428567</ele><time>2026-04-18T13:50:13.022Z</time></trkpt><trkpt lat="45.45538385525664" lon="8.008893494109795"><ele>501.57142857142856</ele><time>2026-04-18T13:50:16.022Z</time></trkpt><trkpt lat="45.45534967143762" lon="8.008977971983812"><ele>500.42857142857144</ele><time>2026-04-18T13:50:19.022Z</time></trkpt><trkpt lat="45.4553167442555" lon="8.00905741929535"><ele>499.2857142857143</ele><time>2026-04-18T13:50:23.022Z</time></trkpt><trkpt lat="45.45528217214975" lon="8.00913507359265"><ele>498.1428571428571</ele><time>2026-04-18T13:50:27.022Z</time></trkpt><trkpt lat="45.45522786132557" lon="8.009193668581476"><ele>497.0</ele><time>2026-04-18T13:50:33.022Z</time></trkpt><trkpt lat="45.45521071665855" lon="8.009300665498058"><ele>497.0</ele><time>2026-04-18T13:50:37.022Z</time></trkpt><trkpt lat="45.45518448825575" lon="8.009401911003765"><ele>497.0</ele><time>2026-04-18T13:50:40.022Z</time></trkpt><trkpt lat="45.45514826924245" lon="8.009480054020822"><ele>497.0</ele><time>2026-04-18T13:50:43.023Z</time></trkpt><trkpt lat="45.45511199588601" lon="8.009589309703912"><ele>497.0</ele><time>2026-04-18T13:50:47.023Z</time></trkpt><trkpt lat="45.455079524674154" lon="8.009676632715781"><ele>497.0</ele><time>2026-04-18T13:50:50.023Z</time></trkpt><trkpt lat="45.45504623502387" lon="8.00976294616483"><ele>497.0</ele><time>2026-04-18T13:50:54.023Z</time></trkpt><trkpt lat="45.4550126483196" lon="8.009849616189022"><ele>497.0</ele><time>2026-04-18T13:50:56.023Z</time></trkpt><trkpt lat="45.454985644920484" lon="8.009938756401596"><ele>497.7142857142857</ele><time>2026-04-18T13:50:58.023Z</time></trkpt><trkpt lat="45.454962926249195" lon="8.010025316445786"><ele>498.42857142857144</ele><time>2026-04-18T13:51:00.023Z</time></trkpt><trkpt lat="45.4549519491509" lon="8.01012320901955"><ele>499.1428571428571</ele><time>2026-04-18T13:51:03.023Z</time></trkpt><trkpt lat="45.45491342120425" lon="8.010210261083841"><ele>499.85714285714283</ele><time>2026-04-18T13:51:06.023Z</time></trkpt><trkpt lat="45.454866577598445" lon="8.010306857554559"><ele>500.57142857142856</ele><time>2026-04-18T13:51:09.023Z</time></trkpt><trkpt lat="45.45486215895823" lon="8.01040649038421"><ele>501.2857142857142</ele><time>2026-04-18T13:51:13.023Z</time></trkpt><trkpt lat="45.45479959032659" lon="8.010475368638112"><ele>501.99999999999994</ele><time>2026-04-18T13:51:16.023Z</time></trkpt><trkpt lat="45.45476797752284" lon="8.01055316704773"><ele>502.00000000000006</ele><time>2026-04-18T13:51:19.024Z</time></trkpt><trkpt lat="45.45474589175177" lon="8.010660655794203"><ele>502.0</ele><time>2026-04-18T13:51:22.024Z</time></trkpt><trkpt lat="45.454702581401094" lon="8.01073742720029"><ele>502.0</ele><time>2026-04-18T13:51:25.024Z</time></trkpt><trkpt lat="45.45468021003769" lon="8.010866365051754"><ele>502.0</ele><time>2026-04-18T13:51:28.024Z</time></trkpt><trkpt lat="45.454646080435374" lon="8.010946450975053"><ele>502.00000000000006</ele><time>2026-04-18T13:51:31.024Z</time></trkpt><trkpt lat="45.45463633267629" lon="8.011049708408462"><ele>502.0</ele><time>2026-04-18T13:51:34.024Z</time></trkpt><trkpt lat="45.454594987726836" lon="8.011155690224998"><ele>501.33333333333337</ele><time>2026-04-18T13:51:37.024Z</time></trkpt><trkpt lat="45.45454431946981" lon="8.0112436270318"><ele>500.6666666666667</ele><time>2026-04-18T13:51:40.024Z</time></trkpt><trkpt lat="45.45450969358494" lon="8.01132452659113"><ele>500.0</ele><time>2026-04-18T13:51:43.024Z</time></trkpt><trkpt lat="45.45447682778105" lon="8.011414436291068"><ele>499.33333333333337</ele><time>2026-04-18T13:51:46.024Z</time></trkpt><trkpt lat="45.45445435748972" lon="8.011512420950067"><ele>498.6666666666667</ele><time>2026-04-18T13:51:49.024Z</time></trkpt><trkpt lat="45.454401410935986" lon="8.011607721425376"><ele>498.0</ele><time>2026-04-18T13:51:51.024Z</time></trkpt><trkpt lat="45.45437131639146" lon="8.011705538750693"><ele>498.0</ele><time>2026-04-18T13:51:54.024Z</time></trkpt><trkpt lat="45.454331547093595" lon="8.01179873181021"><ele>498.0</ele><time>2026-04-18T13:51:58.025Z</time></trkpt><trkpt lat="45.45430083354407" lon="8.0118935877576"><ele>498.0</ele><time>2026-04-18T13:52:01.025Z</time></trkpt><trkpt lat="45.45426732368761" lon="8.012024952208918"><ele>498.0</ele><time>2026-04-18T13:52:04.025Z</time></trkpt><trkpt lat="45.45427346647785" lon="8.012127668115234"><ele>498.0</ele><time>2026-04-18T13:52:06.025Z</time></trkpt><trkpt lat="45.454264310567275" lon="8.012233380490152"><ele>498.0</ele><time>2026-04-18T13:52:08.025Z</time></trkpt><trkpt lat="45.45420095546669" lon="8.012315665171313"><ele>498.0</ele><time>2026-04-18T13:52:11.025Z</time></trkpt><trkpt lat="45.454155849690544" lon="8.012404887096856"><ele>497.99999999999994</ele><time>2026-04-18T13:52:13.025Z</time></trkpt><trkpt lat="45.454152589422655" lon="8.012500487935858"><ele>498.0</ele><time>2026-04-18T13:52:15.025Z</time></trkpt><trkpt lat="45.454121024317274" lon="8.012612881563259"><ele>498.0</ele><time>2026-04-18T13:52:18.025Z</time></trkpt><trkpt lat="45.45408706221157" lon="8.012719872034271"><ele>497.99999999999994</ele><time>2026-04-18T13:52:21.025Z</time></trkpt><trkpt lat="45.45408633321094" lon="8.012815813677882"><ele>498.0</ele><time>2026-04-18T13:52:23.025Z</time></trkpt><trkpt lat="45.454068544952044" lon="8.012904352937534"><ele>498.0</ele><time>2026-04-18T13:52:25.025Z</time></trkpt><trkpt lat="45.454020426743355" lon="8.012971118682485"><ele>498.0</ele><time>2026-04-18T13:52:27.025Z</time></trkpt><trkpt lat="45.454006742249874" lon="8.013080648630936"><ele>498.0</ele><time>2026-04-18T13:52:30.025Z</time></trkpt><trkpt lat="45.45397855839319" lon="8.013209447212121"><ele>498.0</ele><time>2026-04-18T13:52:33.026Z</time></trkpt><trkpt lat="45.45393909794849" lon="8.013286730610377"><ele>498.0</ele><time>2026-04-18T13:52:35.026Z</time></trkpt><trkpt lat="45.453904580385164" lon="8.013387845980697"><ele>498.0</ele><time>2026-04-18T13:52:38.026Z</time></trkpt><trkpt lat="45.45387125358203" lon="8.013465749150468"><ele>498.0</ele><time>2026-04-18T13:52:40.026Z</time></trkpt><trkpt lat="45.4538367411957" lon="8.013581103614284"><ele>498.0</ele><time>2026-04-18T13:52:43.026Z</time></trkpt><trkpt lat="45.45382962744495" lon="8.013707795433564"><ele>498.0</ele><time>2026-04-18T13:52:46.026Z</time></trkpt><trkpt lat="45.45378655066213" lon="8.013825827667903"><ele>498.0</ele><time>2026-04-18T13:52:49.026Z</time></trkpt><trkpt lat="45.453759290579434" lon="8.013917503600021"><ele>498.0</ele><time>2026-04-18T13:52:53.026Z</time></trkpt><trkpt lat="45.4536937877205" lon="8.01405825060239"><ele>498.0</ele><time>2026-04-18T13:53:06.026Z</time></trkpt><trkpt lat="45.45364900704891" lon="8.0141227605297"><ele>498.0</ele><time>2026-04-18T13:53:11.027Z</time></trkpt><trkpt lat="45.45358557152091" lon="8.014156717200926"><ele>497.0</ele><time>2026-04-18T13:53:13.027Z</time></trkpt><trkpt lat="45.45351493338261" lon="8.014195530205972"><ele>495.99999999999994</ele><time>2026-04-18T13:53:17.027Z</time></trkpt><trkpt lat="45.45343271369744" lon="8.014260430065162"><ele>494.99999999999994</ele><time>2026-04-18T13:53:21.027Z</time></trkpt><trkpt lat="45.45335849448041" lon="8.0143761700043"><ele>494.0</ele><time>2026-04-18T13:53:23.027Z</time></trkpt><trkpt lat="45.45341066851225" lon="8.014538087156339"><ele>493.0</ele><time>2026-04-18T13:53:25.027Z</time></trkpt><trkpt lat="45.4533425353943" lon="8.014664969479936"><ele>493.00000000000006</ele><time>2026-04-18T13:53:27.027Z</time></trkpt><trkpt lat="45.453290807001885" lon="8.014769935735359"><ele>493.0</ele><time>2026-04-18T13:53:29.027Z</time></trkpt><trkpt lat="45.453230746669234" lon="8.014881105335006"><ele>493.0</ele><time>2026-04-18T13:53:31.027Z</time></trkpt><trkpt lat="45.45316703554798" lon="8.014980650359682"><ele>493.0</ele><time>2026-04-18T13:53:33.027Z</time></trkpt><trkpt lat="45.45311967376975" lon="8.015050603378986"><ele>493.00000000000006</ele><time>2026-04-18T13:53:34.027Z</time></trkpt><trkpt lat="45.45311456837329" lon="8.015167610700423"><ele>493.0</ele><time>2026-04-18T13:53:36.027Z</time></trkpt><trkpt lat="45.453102004431074" lon="8.015294752829202"><ele>494.0</ele><time>2026-04-18T13:53:38.027Z</time></trkpt><trkpt lat="45.453052113485704" lon="8.015389172501298"><ele>494.99999999999994</ele><time>2026-04-18T13:53:39.027Z</time></trkpt><trkpt lat="45.45300957852392" lon="8.015518197642248"><ele>495.99999999999994</ele><time>2026-04-18T13:53:41.027Z</time></trkpt><trkpt lat="45.45296306807677" lon="8.015666257955273"><ele>497.0</ele><time>2026-04-18T13:53:43.027Z</time></trkpt><trkpt lat="45.452939769186926" lon="8.015784343263883"><ele>498.0</ele><time>2026-04-18T13:53:45.028Z</time></trkpt><trkpt lat="45.452899999595886" lon="8.015882740767195"><ele>496.1428571428571</ele><time>2026-04-18T13:53:48.028Z</time></trkpt><trkpt lat="45.45283377485723" lon="8.015958304011182"><ele>494.2857142857142</ele><time>2026-04-18T13:53:51.028Z</time></trkpt><trkpt lat="45.45280901452783" lon="8.016047876720508"><ele>492.42857142857144</ele><time>2026-04-18T13:53:54.028Z</time></trkpt><trkpt lat="45.45277516854678" lon="8.016136800790994"><ele>490.57142857142856</ele><time>2026-04-18T13:53:58.028Z</time></trkpt><trkpt lat="45.452744775584584" lon="8.01621968873673"><ele>488.7142857142857</ele><time>2026-04-18T13:54:01.028Z</time></trkpt><trkpt lat="45.452730230687756" lon="8.016315337269933"><ele>486.8571428571429</ele><time>2026-04-18T13:54:05.028Z</time></trkpt><trkpt lat="45.452691484569264" lon="8.016416984104271"><ele>485.00000000000006</ele><time>2026-04-18T13:54:19.028Z</time></trkpt><trkpt lat="45.452695337738234" lon="8.01652066655858"><ele>485.00000000000006</ele><time>2026-04-18T13:55:13.03Z</time></trkpt><trkpt lat="45.45263072603764" lon="8.016546726800483"><ele>485.0</ele><time>2026-04-18T14:14:33.003Z</time></trkpt><trkpt lat="45.452647817340996" lon="8.01666424338913"><ele>485.00000000000006</ele><time>2026-04-18T14:18:54.004Z</time></trkpt><trkpt lat="45.45260442990212" lon="8.016753434256895"><ele>485.00000000000006</ele><time>2026-04-18T14:18:57.004Z</time></trkpt><trkpt lat="45.452583062859404" lon="8.016847346351266"><ele>485.0</ele><time>2026-04-18T14:19:00.004Z</time></trkpt><trkpt lat="45.45256060556437" lon="8.016932734285655"><ele>485.00000000000006</ele><time>2026-04-18T14:19:02.004Z</time></trkpt><trkpt lat="45.452538222513034" lon="8.017033638459209"><ele>485.00000000000006</ele><time>2026-04-18T14:19:05.004Z</time></trkpt><trkpt lat="45.45250924253355" lon="8.017122564498358"><ele>485.8571428571429</ele><time>2026-04-18T14:19:07.005Z</time></trkpt><trkpt lat="45.45248893344438" lon="8.017226927242973"><ele>486.7142857142857</ele><time>2026-04-18T14:19:09.005Z</time></trkpt><trkpt lat="45.45246075723074" lon="8.017324355323467"><ele>487.57142857142856</ele><time>2026-04-18T14:19:11.005Z</time></trkpt><trkpt lat="45.452435627703274" lon="8.017408235161467"><ele>488.42857142857144</ele><time>2026-04-18T14:19:13.005Z</time></trkpt><trkpt lat="45.45240106184376" lon="8.017516288030519"><ele>489.2857142857142</ele><time>2026-04-18T14:19:15.005Z</time></trkpt><trkpt lat="45.4523657474317" lon="8.017594802865265"><ele>490.1428571428571</ele><time>2026-04-18T14:19:16.005Z</time></trkpt><trkpt lat="45.452320421690416" lon="8.01770011141997"><ele>491.0</ele><time>2026-04-18T14:19:19.005Z</time></trkpt><trkpt lat="45.45223309571166" lon="8.017749265939377"><ele>485.75</ele><time>2026-04-18T14:19:22.005Z</time></trkpt><trkpt lat="45.452039423934586" lon="8.017633579523709"><ele>480.5</ele><time>2026-04-18T14:19:24.005Z</time></trkpt><trkpt lat="45.45195499220788" lon="8.017588231464641"><ele>475.25</ele><time>2026-04-18T14:19:27.005Z</time></trkpt><trkpt lat="45.45185683069106" lon="8.017655441293359"><ele>470.0</ele><time>2026-04-18T14:19:29.005Z</time></trkpt><trkpt lat="45.45174681554799" lon="8.017733156338275"><ele>469.99999999999994</ele><time>2026-04-18T14:19:31.005Z</time></trkpt><trkpt lat="45.45168502855918" lon="8.017753061498244"><ele>470.0</ele><time>2026-04-18T14:19:32.005Z</time></trkpt><trkpt lat="45.45160589085157" lon="8.017791293946932"><ele>470.0</ele><time>2026-04-18T14:19:34.005Z</time></trkpt><trkpt lat="45.45154999746389" lon="8.017891897937515"><ele>470.0</ele><time>2026-04-18T14:19:36.005Z</time></trkpt><trkpt lat="45.45150662035486" lon="8.017965515729982"><ele>469.99999999999994</ele><time>2026-04-18T14:19:37.005Z</time></trkpt><trkpt lat="45.451474016055194" lon="8.018044390489472"><ele>470.0</ele><time>2026-04-18T14:19:38.005Z</time></trkpt><trkpt lat="45.45142577961933" lon="8.018203798944025"><ele>470.0</ele><time>2026-04-18T14:19:40.005Z</time></trkpt><trkpt lat="45.45134208977415" lon="8.018299590348523"><ele>470.0</ele><time>2026-04-18T14:19:42.005Z</time></trkpt><trkpt lat="45.451261612738904" lon="8.018318499318129"><ele>470.0</ele><time>2026-04-18T14:19:44.006Z</time></trkpt><trkpt lat="45.45116973126992" lon="8.018372201588232"><ele>470.0</ele><time>2026-04-18T14:19:46.006Z</time></trkpt><trkpt lat="45.45110992587253" lon="8.018455111646537"><ele>470.0</ele><time>2026-04-18T14:19:48.006Z</time></trkpt><trkpt lat="45.4510320461833" lon="8.01856474325737"><ele>465.16666666666663</ele><time>2026-04-18T14:19:50.006Z</time></trkpt><trkpt lat="45.45098381818186" lon="8.018643162408447"><ele>460.3333333333333</ele><time>2026-04-18T14:19:52.006Z</time></trkpt><trkpt lat="45.450926395977994" lon="8.018718862792294"><ele>455.5</ele><time>2026-04-18T14:19:54.006Z</time></trkpt><trkpt lat="45.450865098500635" lon="8.018773343487657"><ele>450.66666666666663</ele><time>2026-04-18T14:19:56.006Z</time></trkpt><trkpt lat="45.45077964078455" lon="8.018868681195498"><ele>445.8333333333333</ele><time>2026-04-18T14:19:58.006Z</time></trkpt><trkpt lat="45.45072649032611" lon="8.018931381740156"><ele>441.0</ele><time>2026-04-18T14:19:59.006Z</time></trkpt><trkpt lat="45.450649058224606" lon="8.019057867411412"><ele>443.4</ele><time>2026-04-18T14:20:01.006Z</time></trkpt><trkpt lat="45.45057314220866" lon="8.019185277556426"><ele>445.8</ele><time>2026-04-18T14:20:03.006Z</time></trkpt><trkpt lat="45.45053044629839" lon="8.019304653683163"><ele>448.19999999999993</ele><time>2026-04-18T14:20:05.006Z</time></trkpt><trkpt lat="45.45048505937001" lon="8.019399610982155"><ele>450.59999999999997</ele><time>2026-04-18T14:20:06.006Z</time></trkpt><trkpt lat="45.45043291100758" lon="8.01947333881589"><ele>453.0</ele><time>2026-04-18T14:20:07.006Z</time></trkpt><trkpt lat="45.450369095033565" lon="8.01961018913956"><ele>448.99999999999994</ele><time>2026-04-18T14:20:09.006Z</time></trkpt><trkpt lat="45.45031604626862" lon="8.019698685255147"><ele>445.0</ele><time>2026-04-18T14:20:10.006Z</time></trkpt><trkpt lat="45.45026912378152" lon="8.01978036498747"><ele>441.0</ele><time>2026-04-18T14:20:11.006Z</time></trkpt><trkpt lat="45.4502289630268" lon="8.019860548361551"><ele>437.0</ele><time>2026-04-18T14:20:12.006Z</time></trkpt><trkpt lat="45.45017226964849" lon="8.01990340453421"><ele>433.0</ele><time>2026-04-18T14:20:13.006Z</time></trkpt><trkpt lat="45.450104632085996" lon="8.019946726177677"><ele>429.0</ele><time>2026-04-18T14:20:14.006Z</time></trkpt><trkpt lat="45.45004221604325" lon="8.02000074877889"><ele>425.0</ele><time>2026-04-18T14:20:15.006Z</time></trkpt><trkpt lat="45.4499827333037" lon="8.020039538303633"><ele>425.0</ele><time>2026-04-18T14:20:16.006Z</time></trkpt><trkpt lat="45.44988948911732" lon="8.020167049898587"><ele>425.0</ele><time>2026-04-18T14:20:18.006Z</time></trkpt><trkpt lat="45.449840997305536" lon="8.02023361357466"><ele>425.0</ele><time>2026-04-18T14:20:19.006Z</time></trkpt><trkpt lat="45.44976087378317" lon="8.020339927881528"><ele>425.0</ele><time>2026-04-18T14:20:21.007Z</time></trkpt><trkpt lat="45.449702290288286" lon="8.020413848586665"><ele>425.0</ele><time>2026-04-18T14:20:23.007Z</time></trkpt><trkpt lat="45.44963720425881" lon="8.02045205671085"><ele>420.16666666666663</ele><time>2026-04-18T14:20:25.007Z</time></trkpt><trkpt lat="45.449556541036856" lon="8.020487073523531"><ele>415.3333333333333</ele><time>2026-04-18T14:20:28.007Z</time></trkpt><trkpt lat="45.44950221936618" lon="8.02053648847011"><ele>410.5</ele><time>2026-04-18T14:20:33.007Z</time></trkpt><trkpt lat="45.44943748893555" lon="8.020619351539299"><ele>405.66666666666663</ele><time>2026-04-18T14:20:45.004Z</time></trkpt><trkpt lat="45.44946050591941" lon="8.020470108992523"><ele>400.8333333333333</ele><time>2026-04-18T14:21:02.003Z</time></trkpt><trkpt lat="45.44947015078283" lon="8.020365042504196"><ele>396.0</ele><time>2026-04-18T14:21:03.003Z</time></trkpt><trkpt lat="45.44951748877589" lon="8.02015331510309"><ele>396.0</ele><time>2026-04-18T14:21:04.003Z</time></trkpt><trkpt lat="45.449549797712116" lon="8.020013201866215"><ele>396.0</ele><time>2026-04-18T14:21:05.004Z</time></trkpt><trkpt lat="45.449583400523714" lon="8.01988914409642"><ele>396.0</ele><time>2026-04-18T14:21:06.004Z</time></trkpt><trkpt lat="45.44961732331637" lon="8.019759848575875"><ele>396.0</ele><time>2026-04-18T14:21:07.004Z</time></trkpt><trkpt lat="45.44963550647444" lon="8.01963889889367"><ele>396.0</ele><time>2026-04-18T14:21:08.004Z</time></trkpt><trkpt lat="45.44963700068202" lon="8.01953215439369"><ele>397.8</ele><time>2026-04-18T14:21:09.004Z</time></trkpt><trkpt lat="45.44965267324858" lon="8.019415103453355"><ele>399.6</ele><time>2026-04-18T14:21:10.004Z</time></trkpt><trkpt lat="45.449661673099506" lon="8.019290344302313"><ele>401.4</ele><time>2026-04-18T14:21:11.004Z</time></trkpt><trkpt lat="45.44967767363925" lon="8.019121794036755"><ele>403.2</ele><time>2026-04-18T14:21:12.004Z</time></trkpt><trkpt lat="45.449718771853746" lon="8.018935211884438"><ele>405.0</ele><time>2026-04-18T14:21:13.004Z</time></trkpt><trkpt lat="45.44977402359046" lon="8.018750777918413"><ele>405.0</ele><time>2026-04-18T14:21:14.004Z</time></trkpt><trkpt lat="45.44982318371033" lon="8.018591332514768"><ele>405.0</ele><time>2026-04-18T14:21:15.004Z</time></trkpt><trkpt lat="45.449867154517854" lon="8.018473948965505"><ele>405.0</ele><time>2026-04-18T14:21:16.004Z</time></trkpt><trkpt lat="45.44990861612099" lon="8.018373531058533"><ele>405.0</ele><time>2026-04-18T14:21:17.004Z</time></trkpt><trkpt lat="45.44995181276339" lon="8.018271968651293"><ele>405.0</ele><time>2026-04-18T14:21:18.004Z</time></trkpt><trkpt lat="45.44997743380365" lon="8.018183872243297"><ele>405.0</ele><time>2026-04-18T14:21:19.004Z</time></trkpt><trkpt lat="45.45001248712782" lon="8.018071389141046"><ele>402.2</ele><time>2026-04-18T14:21:21.004Z</time></trkpt><trkpt lat="45.45007576497479" lon="8.017923933933167"><ele>399.4</ele><time>2026-04-18T14:21:23.004Z</time></trkpt><trkpt lat="45.45010406880611" lon="8.017821285608454"><ele>396.6</ele><time>2026-04-18T14:21:24.004Z</time></trkpt><trkpt lat="45.450131540719596" lon="8.017729909788093"><ele>393.8</ele><time>2026-04-18T14:21:25.004Z</time></trkpt><trkpt lat="45.45016421574377" lon="8.017638192450484"><ele>391.0</ele><time>2026-04-18T14:21:26.004Z</time></trkpt><trkpt lat="45.45020064383324" lon="8.017472961174168"><ele>389.33333333333337</ele><time>2026-04-18T14:21:28.004Z</time></trkpt><trkpt lat="45.45019835892882" lon="8.017336111743194"><ele>387.6666666666667</ele><time>2026-04-18T14:21:30.004Z</time></trkpt><trkpt lat="45.4501948417863" lon="8.017233454689402"><ele>386.0</ele><time>2026-04-18T14:21:34.004Z</time></trkpt><trkpt lat="45.45023649448105" lon="8.01715727277656"><ele>384.33333333333337</ele><time>2026-04-18T14:21:39.004Z</time></trkpt><trkpt lat="45.45029749474989" lon="8.017055731506806"><ele>382.6666666666667</ele><time>2026-04-18T14:21:41.005Z</time></trkpt><trkpt lat="45.45032785082598" lon="8.016972763707221"><ele>381.0</ele><time>2026-04-18T14:21:42.005Z</time></trkpt><trkpt lat="45.45037616960891" lon="8.016886939276771"><ele>381.0</ele><time>2026-04-18T14:21:43.005Z</time></trkpt><trkpt lat="45.450418136328906" lon="8.016678381449715"><ele>381.0</ele><time>2026-04-18T14:21:44.005Z</time></trkpt><trkpt lat="45.45047562673363" lon="8.016516278486971"><ele>381.0</ele><time>2026-04-18T14:21:45.005Z</time></trkpt><trkpt lat="45.45052359050004" lon="8.01638827583845"><ele>381.0</ele><time>2026-04-18T14:21:46.005Z</time></trkpt><trkpt lat="45.450582622391956" lon="8.016329010221783"><ele>383.4</ele><time>2026-04-18T14:21:47.005Z</time></trkpt><trkpt lat="45.45064410696454" lon="8.01629215522904"><ele>385.8</ele><time>2026-04-18T14:21:48.005Z</time></trkpt><trkpt lat="45.450708213160944" lon="8.016216203468145"><ele>388.2</ele><time>2026-04-18T14:21:49.005Z</time></trkpt><trkpt lat="45.45076856520015" lon="8.016120112627254"><ele>390.59999999999997</ele><time>2026-04-18T14:21:50.005Z</time></trkpt><trkpt lat="45.45081396221508" lon="8.01598426985845"><ele>393.0</ele><time>2026-04-18T14:21:51.005Z</time></trkpt><trkpt lat="45.45085548462547" lon="8.015814052369869"><ele>393.0</ele><time>2026-04-18T14:21:52.005Z</time></trkpt><trkpt lat="45.45091445525181" lon="8.015679817818402"><ele>393.0</ele><time>2026-04-18T14:21:53.005Z</time></trkpt><trkpt lat="45.45097785701062" lon="8.015548324832201"><ele>393.0</ele><time>2026-04-18T14:21:54.005Z</time></trkpt><trkpt lat="45.45103301990813" lon="8.015409033288696"><ele>393.0</ele><time>2026-04-18T14:21:55.005Z</time></trkpt><trkpt lat="45.451073512520374" lon="8.015288255985793"><ele>393.0</ele><time>2026-04-18T14:21:56.005Z</time></trkpt><trkpt lat="45.45112260647584" lon="8.015163388500065"><ele>393.0</ele><time>2026-04-18T14:21:57.005Z</time></trkpt><trkpt lat="45.451187908358676" lon="8.01506705594921"><ele>393.0</ele><time>2026-04-18T14:21:58.005Z</time></trkpt><trkpt lat="45.45123568245379" lon="8.01496486073852"><ele>393.0</ele><time>2026-04-18T14:21:59.005Z</time></trkpt><trkpt lat="45.45128668374357" lon="8.014835448708556"><ele>393.0</ele><time>2026-04-18T14:22:00.005Z</time></trkpt><trkpt lat="45.451323129726724" lon="8.014696634862041"><ele>393.0</ele><time>2026-04-18T14:22:01.005Z</time></trkpt><trkpt lat="45.451376795444155" lon="8.014560577875194"><ele>395.79999999999995</ele><time>2026-04-18T14:22:02.005Z</time></trkpt><trkpt lat="45.45143479460195" lon="8.014414544319305"><ele>398.6</ele><time>2026-04-18T14:22:03.005Z</time></trkpt><trkpt lat="45.45148213741822" lon="8.014289252838381"><ele>401.4</ele><time>2026-04-18T14:22:04.005Z</time></trkpt><trkpt lat="45.45152564921208" lon="8.014146679603575"><ele>404.20000000000005</ele><time>2026-04-18T14:22:05.005Z</time></trkpt><trkpt lat="45.451577128804736" lon="8.014006453581604"><ele>407.0</ele><time>2026-04-18T14:22:06.005Z</time></trkpt><trkpt lat="45.451619272020466" lon="8.013846962261944"><ele>407.0</ele><time>2026-04-18T14:22:07.005Z</time></trkpt><trkpt lat="45.451662161577836" lon="8.01368237553121"><ele>407.0</ele><time>2026-04-18T14:22:08.005Z</time></trkpt><trkpt lat="45.451708850011265" lon="8.01354402779427"><ele>407.0</ele><time>2026-04-18T14:22:09.005Z</time></trkpt><trkpt lat="45.45175311139564" lon="8.013440511270742"><ele>407.0</ele><time>2026-04-18T14:22:10.005Z</time></trkpt><trkpt lat="45.45177980604901" lon="8.01333558330348"><ele>407.0</ele><time>2026-04-18T14:22:11.005Z</time></trkpt><trkpt lat="45.45181718114458" lon="8.013223143415773"><ele>405.0</ele><time>2026-04-18T14:22:12.005Z</time></trkpt><trkpt lat="45.45184771324576" lon="8.013101957420371"><ele>403.0</ele><time>2026-04-18T14:22:13.005Z</time></trkpt><trkpt lat="45.45188500066968" lon="8.012996001283415"><ele>401.0</ele><time>2026-04-18T14:22:14.005Z</time></trkpt><trkpt lat="45.451934088116616" lon="8.012866256382415"><ele>399.0</ele><time>2026-04-18T14:22:15.005Z</time></trkpt><trkpt lat="45.4519724133029" lon="8.012723385074993"><ele>397.0</ele><time>2026-04-18T14:22:16.005Z</time></trkpt><trkpt lat="45.45200069260819" lon="8.0125845116072"><ele>394.40000000000003</ele><time>2026-04-18T14:22:17.005Z</time></trkpt><trkpt lat="45.45201206180592" lon="8.012455206825653"><ele>391.8</ele><time>2026-04-18T14:22:18.006Z</time></trkpt><trkpt lat="45.45203634627847" lon="8.012340318701082"><ele>389.2</ele><time>2026-04-18T14:22:20.006Z</time></trkpt><trkpt lat="45.45209324574674" lon="8.012196725324124"><ele>386.6</ele><time>2026-04-18T14:22:23.006Z</time></trkpt><trkpt lat="45.4521349300478" lon="8.012109061284598"><ele>384.0</ele><time>2026-04-18T14:22:24.006Z</time></trkpt><trkpt lat="45.45218692518875" lon="8.011995096530583"><ele>387.4</ele><time>2026-04-18T14:22:25.006Z</time></trkpt><trkpt lat="45.4522308012606" lon="8.011903531211834"><ele>390.79999999999995</ele><time>2026-04-18T14:22:26.006Z</time></trkpt><trkpt lat="45.45227941521963" lon="8.011776810329986"><ele>394.20000000000005</ele><time>2026-04-18T14:22:27.006Z</time></trkpt><trkpt lat="45.4523300111257" lon="8.01163220434585"><ele>397.6</ele><time>2026-04-18T14:22:28.006Z</time></trkpt><trkpt lat="45.452385025757856" lon="8.011508517461216"><ele>401.0</ele><time>2026-04-18T14:22:29.006Z</time></trkpt><trkpt lat="45.45244161298462" lon="8.011362905791584"><ele>401.0</ele><time>2026-04-18T14:22:30.006Z</time></trkpt><trkpt lat="45.452487478506875" lon="8.01122375276286"><ele>401.0</ele><time>2026-04-18T14:22:31.006Z</time></trkpt><trkpt lat="45.45249427260287" lon="8.011103020683077"><ele>401.0</ele><time>2026-04-18T14:22:32.006Z</time></trkpt><trkpt lat="45.45252680598289" lon="8.010984927959425"><ele>401.0</ele><time>2026-04-18T14:22:33.006Z</time></trkpt><trkpt lat="45.45255195138842" lon="8.01086290595092"><ele>401.0</ele><time>2026-04-18T14:22:34.006Z</time></trkpt><trkpt lat="45.45259373496703" lon="8.010726011977749"><ele>397.0</ele><time>2026-04-18T14:22:35.006Z</time></trkpt><trkpt lat="45.452663086176656" lon="8.010588989617322"><ele>393.0</ele><time>2026-04-18T14:22:36.006Z</time></trkpt><trkpt lat="45.452712834476564" lon="8.010429191254532"><ele>389.0</ele><time>2026-04-18T14:22:37.006Z</time></trkpt><trkpt lat="45.452769684357555" lon="8.010268941284654"><ele>385.0</ele><time>2026-04-18T14:22:38.006Z</time></trkpt><trkpt lat="45.452808540236006" lon="8.01013338805662"><ele>385.0</ele><time>2026-04-18T14:22:39.006Z</time></trkpt><trkpt lat="45.45285137134384" lon="8.009998686964982"><ele>385.0</ele><time>2026-04-18T14:22:40.006Z</time></trkpt><trkpt lat="45.45289595611834" lon="8.009857728675085"><ele>385.0</ele><time>2026-04-18T14:22:41.006Z</time></trkpt><trkpt lat="45.45296123569077" lon="8.009726969199772"><ele>385.0</ele><time>2026-04-18T14:22:42.006Z</time></trkpt><trkpt lat="45.45303388459763" lon="8.009601558597401"><ele>385.0</ele><time>2026-04-18T14:22:43.006Z</time></trkpt><trkpt lat="45.45309470949454" lon="8.009456024817414"><ele>388.75</ele><time>2026-04-18T14:22:44.006Z</time></trkpt><trkpt lat="45.453143331350475" lon="8.009296718570043"><ele>392.5</ele><time>2026-04-18T14:22:45.006Z</time></trkpt><trkpt lat="45.45317993849265" lon="8.009137056499926"><ele>396.25</ele><time>2026-04-18T14:22:46.004Z</time></trkpt><trkpt lat="45.453238603804465" lon="8.008989312804864"><ele>400.0</ele><time>2026-04-18T14:22:47.003Z</time></trkpt><trkpt lat="45.453295706916066" lon="8.008854201641752"><ele>400.0</ele><time>2026-04-18T14:22:48.003Z</time></trkpt><trkpt lat="45.453359917457654" lon="8.008694224609645"><ele>400.0</ele><time>2026-04-18T14:22:49.003Z</time></trkpt><trkpt lat="45.453424079457896" lon="8.008541107096924"><ele>400.0</ele><time>2026-04-18T14:22:50.003Z</time></trkpt><trkpt lat="45.4535006473121" lon="8.008406244819477"><ele>400.0</ele><time>2026-04-18T14:22:51.003Z</time></trkpt><trkpt lat="45.453566246680964" lon="8.008280201412267"><ele>397.6</ele><time>2026-04-18T14:22:52.003Z</time></trkpt><trkpt lat="45.45361155714529" lon="8.008140640983354"><ele>395.2</ele><time>2026-04-18T14:22:53.003Z</time></trkpt><trkpt lat="45.453671013050034" lon="8.008002217610521"><ele>392.79999999999995</ele><time>2026-04-18T14:22:54.004Z</time></trkpt><trkpt lat="45.453729209393565" lon="8.007863506062884"><ele>390.4</ele><time>2026-04-18T14:22:55.003Z</time></trkpt><trkpt lat="45.453777235206516" lon="8.007731477628079"><ele>388.0</ele><time>2026-04-18T14:22:56.003Z</time></trkpt><trkpt lat="45.45384263243401" lon="8.007604210580519"><ele>394.5</ele><time>2026-04-18T14:22:57.003Z</time></trkpt><trkpt lat="45.453893722028255" lon="8.007469662914454"><ele>401.0</ele><time>2026-04-18T14:22:58.003Z</time></trkpt><trkpt lat="45.45393128186085" lon="8.007344826296324"><ele>407.5</ele><time>2026-04-18T14:22:59.003Z</time></trkpt><trkpt lat="45.454007414423245" lon="8.007190520738195"><ele>414.0</ele><time>2026-04-18T14:23:00.003Z</time></trkpt><trkpt lat="45.45407932721593" lon="8.007023998807643"><ele>414.0</ele><time>2026-04-18T14:23:01.003Z</time></trkpt><trkpt lat="45.454146925711555" lon="8.006897546838104"><ele>414.0</ele><time>2026-04-18T14:23:02.003Z</time></trkpt><trkpt lat="45.4542001447022" lon="8.00677045953274"><ele>414.0</ele><time>2026-04-18T14:23:03.003Z</time></trkpt><trkpt lat="45.45424970325678" lon="8.006637262008088"><ele>414.0</ele><time>2026-04-18T14:23:04.003Z</time></trkpt><trkpt lat="45.45432443105971" lon="8.006512964799153"><ele>414.0</ele><time>2026-04-18T14:23:05.003Z</time></trkpt><trkpt lat="45.454386892187166" lon="8.006400604783096"><ele>411.6</ele><time>2026-04-18T14:23:06.003Z</time></trkpt><trkpt lat="45.454462859637026" lon="8.006281050037453"><ele>409.2</ele><time>2026-04-18T14:23:07.003Z</time></trkpt><trkpt lat="45.45451836432773" lon="8.006157343231987"><ele>406.8</ele><time>2026-04-18T14:23:08.003Z</time></trkpt><trkpt lat="45.454575178283434" lon="8.006053647266047"><ele>404.40000000000003</ele><time>2026-04-18T14:23:09.003Z</time></trkpt><trkpt lat="45.4546579263569" lon="8.005934255105636"><ele>402.0</ele><time>2026-04-18T14:23:10.003Z</time></trkpt><trkpt lat="45.45472828817617" lon="8.00581505450684"><ele>406.8</ele><time>2026-04-18T14:23:11.003Z</time></trkpt><trkpt lat="45.454795335039115" lon="8.005723628730848"><ele>411.6</ele><time>2026-04-18T14:23:12.003Z</time></trkpt><trkpt lat="45.45487829303506" lon="8.005625977284648"><ele>416.40000000000003</ele><time>2026-04-18T14:23:13.003Z</time></trkpt><trkpt lat="45.454935390665156" lon="8.00551315030648"><ele>421.20000000000005</ele><time>2026-04-18T14:23:14.003Z</time></trkpt><trkpt lat="45.45498216155767" lon="8.005365928782608"><ele>426.0</ele><time>2026-04-18T14:23:15.003Z</time></trkpt><trkpt lat="45.45503613936645" lon="8.005232145105076"><ele>426.0</ele><time>2026-04-18T14:23:16.003Z</time></trkpt><trkpt lat="45.455079992078325" lon="8.00508119754607"><ele>426.0</ele><time>2026-04-18T14:23:17.003Z</time></trkpt><trkpt lat="45.45512728139767" lon="8.004916297907663"><ele>426.0</ele><time>2026-04-18T14:23:18.003Z</time></trkpt><trkpt lat="45.455174948050676" lon="8.004767451133647"><ele>426.0</ele><time>2026-04-18T14:23:19.003Z</time></trkpt><trkpt lat="45.45522767856559" lon="8.004608203809159"><ele>424.4</ele><time>2026-04-18T14:23:20.004Z</time></trkpt><trkpt lat="45.45528051365533" lon="8.004471243245975"><ele>422.8</ele><time>2026-04-18T14:23:21.004Z</time></trkpt><trkpt lat="45.45532818410037" lon="8.00434741422212"><ele>421.2</ele><time>2026-04-18T14:23:22.004Z</time></trkpt><trkpt lat="45.45539001321099" lon="8.00421601642837"><ele>419.59999999999997</ele><time>2026-04-18T14:23:23.004Z</time></trkpt><trkpt lat="45.455445700489975" lon="8.0041221443908"><ele>418.0</ele><time>2026-04-18T14:23:24.004Z</time></trkpt><trkpt lat="45.45548543525956" lon="8.004019264438034"><ele>422.59999999999997</ele><time>2026-04-18T14:23:25.004Z</time></trkpt><trkpt lat="45.455513547428886" lon="8.003912265554291"><ele>427.2</ele><time>2026-04-18T14:23:26.004Z</time></trkpt><trkpt lat="45.45554028329243" lon="8.003817611313181"><ele>431.8</ele><time>2026-04-18T14:23:27.004Z</time></trkpt><trkpt lat="45.45556196907351" lon="8.003701351003444"><ele>436.4</ele><time>2026-04-18T14:23:28.004Z</time></trkpt><trkpt lat="45.455598893795816" lon="8.003562618388587"><ele>441.0</ele><time>2026-04-18T14:23:29.004Z</time></trkpt><trkpt lat="45.45563392405844" lon="8.00340878076307"><ele>438.20000000000005</ele><time>2026-04-18T14:23:30.004Z</time></trkpt><trkpt lat="45.45569996798864" lon="8.00328419264096"><ele>435.40000000000003</ele><time>2026-04-18T14:23:31.004Z</time></trkpt><trkpt lat="45.455738008486286" lon="8.003177666589375"><ele>432.6</ele><time>2026-04-18T14:23:32.004Z</time></trkpt><trkpt lat="45.45576022238604" lon="8.00306407595203"><ele>429.8</ele><time>2026-04-18T14:23:33.004Z</time></trkpt><trkpt lat="45.45577341825001" lon="8.002933003170565"><ele>427.0</ele><time>2026-04-18T14:23:34.004Z</time></trkpt><trkpt lat="45.455793860729585" lon="8.00280429932859"><ele>427.0</ele><time>2026-04-18T14:23:35.004Z</time></trkpt><trkpt lat="45.45579986747036" lon="8.002660572016136"><ele>427.0</ele><time>2026-04-18T14:23:36.004Z</time></trkpt><trkpt lat="45.45579530062433" lon="8.002518756491778"><ele>427.0</ele><time>2026-04-18T14:23:37.004Z</time></trkpt><trkpt lat="45.45579154282256" lon="8.00233862572817"><ele>427.0</ele><time>2026-04-18T14:23:38.004Z</time></trkpt><trkpt lat="45.45582021947625" lon="8.00215618475598"><ele>424.40000000000003</ele><time>2026-04-18T14:23:39.004Z</time></trkpt><trkpt lat="45.455850325531124" lon="8.002011836890894"><ele>421.80000000000007</ele><time>2026-04-18T14:23:40.004Z</time></trkpt><trkpt lat="45.45585575425558" lon="8.001864222202778"><ele>419.2</ele><time>2026-04-18T14:23:41.004Z</time></trkpt><trkpt lat="45.45587282602928" lon="8.001733187182468"><ele>416.6</ele><time>2026-04-18T14:23:42.004Z</time></trkpt><trkpt lat="45.455912364149434" lon="8.001629513133086"><ele>414.0</ele><time>2026-04-18T14:23:43.004Z</time></trkpt><trkpt lat="45.45596107936816" lon="8.001522840389622"><ele>413.0</ele><time>2026-04-18T14:23:45.004Z</time></trkpt><trkpt lat="45.45600777365072" lon="8.001387990309558"><ele>412.0</ele><time>2026-04-18T14:23:47.004Z</time></trkpt><trkpt lat="45.45604647783654" lon="8.001262891014145"><ele>411.0</ele><time>2026-04-18T14:23:48.004Z</time></trkpt><trkpt lat="45.456107591832605" lon="8.001165531132203"><ele>410.0</ele><time>2026-04-18T14:23:49.004Z</time></trkpt><trkpt lat="45.45615509163537" lon="8.001076950457666"><ele>409.0</ele><time>2026-04-18T14:23:50.004Z</time></trkpt><trkpt lat="45.45621200943189" lon="8.000961545324703"><ele>415.75</ele><time>2026-04-18T14:23:51.004Z</time></trkpt><trkpt lat="45.45630367205057" lon="8.000806150183717"><ele>422.5</ele><time>2026-04-18T14:23:52.004Z</time></trkpt><trkpt lat="45.45642509614048" lon="8.000608058284419"><ele>429.25</ele><time>2026-04-18T14:23:53.004Z</time></trkpt><trkpt lat="45.45649201418194" lon="8.000476606815718"><ele>436.0</ele><time>2026-04-18T14:23:54.004Z</time></trkpt><trkpt lat="45.456537563873084" lon="8.000374071815322"><ele>436.0</ele><time>2026-04-18T14:23:55.004Z</time></trkpt><trkpt lat="45.456606258829446" lon="8.000256621872827"><ele>436.0</ele><time>2026-04-18T14:23:57.005Z</time></trkpt><trkpt lat="45.4566835491497" lon="8.000152862372845"><ele>436.0</ele><time>2026-04-18T14:23:59.005Z</time></trkpt><trkpt lat="45.45676045582532" lon="8.00000292637796"><ele>436.0</ele><time>2026-04-18T14:24:01.005Z</time></trkpt><trkpt lat="45.45682993731266" lon="7.999900619546408"><ele>436.0</ele><time>2026-04-18T14:24:03.005Z</time></trkpt><trkpt lat="45.45691731636041" lon="7.999806721795776"><ele>436.00000000000006</ele><time>2026-04-18T14:24:05.005Z</time></trkpt><trkpt lat="45.45697296924608" lon="7.999751938670718"><ele>436.0</ele><time>2026-04-18T14:24:06.005Z</time></trkpt><trkpt lat="45.457042725626906" lon="7.999651578316853"><ele>436.0</ele><time>2026-04-18T14:24:07.005Z</time></trkpt><trkpt lat="45.45709835724908" lon="7.999532165005197"><ele>436.0</ele><time>2026-04-18T14:24:08.005Z</time></trkpt><trkpt lat="45.4571670270957" lon="7.999443952638544"><ele>436.00000000000006</ele><time>2026-04-18T14:24:09.005Z</time></trkpt><trkpt lat="45.45721721051872" lon="7.9993841585114795"><ele>436.0</ele><time>2026-04-18T14:24:10.005Z</time></trkpt><trkpt lat="45.45727917850986" lon="7.999321505707656"><ele>439.20000000000005</ele><time>2026-04-18T14:24:11.005Z</time></trkpt><trkpt lat="45.45733523896928" lon="7.999253389130038"><ele>442.40000000000003</ele><time>2026-04-18T14:24:12.005Z</time></trkpt><trkpt lat="45.45739205535419" lon="7.999164573291933"><ele>445.6</ele><time>2026-04-18T14:24:13.005Z</time></trkpt><trkpt lat="45.45747706014764" lon="7.99898756210178"><ele>448.8</ele><time>2026-04-18T14:24:14.005Z</time></trkpt><trkpt lat="45.457539764946766" lon="7.998889060364152"><ele>452.0</ele><time>2026-04-18T14:24:15.005Z</time></trkpt><trkpt lat="45.4575966455171" lon="7.998796994688905"><ele>452.0</ele><time>2026-04-18T14:24:16.005Z</time></trkpt><trkpt lat="45.45765087643964" lon="7.998723781363703"><ele>452.00000000000006</ele><time>2026-04-18T14:24:17.005Z</time></trkpt><trkpt lat="45.45769502755626" lon="7.998658139429815"><ele>452.00000000000006</ele><time>2026-04-18T14:24:18.005Z</time></trkpt><trkpt lat="45.45779886706702" lon="7.998587955713972"><ele>452.0</ele><time>2026-04-18T14:24:20.005Z</time></trkpt><trkpt lat="45.45790014478839" lon="7.998454955900682"><ele>452.0</ele><time>2026-04-18T14:24:22.005Z</time></trkpt><trkpt lat="45.457989311221866" lon="7.998298488277627"><ele>457.75</ele><time>2026-04-18T14:24:23.005Z</time></trkpt><trkpt lat="45.458084420408056" lon="7.9981499659603745"><ele>463.5</ele><time>2026-04-18T14:24:24.005Z</time></trkpt><trkpt lat="45.45817726880718" lon="7.998037463196416"><ele>469.25</ele><time>2026-04-18T14:24:25.005Z</time></trkpt><trkpt lat="45.45828990943955" lon="7.997917091698429"><ele>475.0</ele><time>2026-04-18T14:24:26.005Z</time></trkpt><trkpt lat="45.458405061969174" lon="7.99779439534362"><ele>475.0</ele><time>2026-04-18T14:24:27.005Z</time></trkpt><trkpt lat="45.458501121339054" lon="7.99769089319303"><ele>475.0</ele><time>2026-04-18T14:24:28.005Z</time></trkpt><trkpt lat="45.45860396727253" lon="7.99760574948046"><ele>475.0</ele><time>2026-04-18T14:24:29.005Z</time></trkpt><trkpt lat="45.458688362554156" lon="7.997517056907306"><ele>475.0</ele><time>2026-04-18T14:24:30.005Z</time></trkpt><trkpt lat="45.4587546721973" lon="7.997452971055809"><ele>475.0</ele><time>2026-04-18T14:24:31.005Z</time></trkpt><trkpt lat="45.45882530421833" lon="7.997397202351687"><ele>476.83333333333337</ele><time>2026-04-18T14:24:32.005Z</time></trkpt><trkpt lat="45.45891483208537" lon="7.997420025493049"><ele>478.6666666666667</ele><time>2026-04-18T14:24:33.006Z</time></trkpt><trkpt lat="45.45899464268473" lon="7.997460325755533"><ele>480.5</ele><time>2026-04-18T14:24:34.006Z</time></trkpt><trkpt lat="45.45906647381185" lon="7.997508734534629"><ele>482.33333333333337</ele><time>2026-04-18T14:24:35.006Z</time></trkpt><trkpt lat="45.459130238720036" lon="7.997559069113183"><ele>484.1666666666667</ele><time>2026-04-18T14:24:36.006Z</time></trkpt><trkpt lat="45.4592495337597" lon="7.997580427830468"><ele>486.0</ele><time>2026-04-18T14:24:38.006Z</time></trkpt><trkpt lat="45.45934880879977" lon="7.99751655913626"><ele>486.0</ele><time>2026-04-18T14:24:39.006Z</time></trkpt><trkpt lat="45.45945244955308" lon="7.997475352961383"><ele>486.0</ele><time>2026-04-18T14:24:40.006Z</time></trkpt><trkpt lat="45.45953573050965" lon="7.997428106983534"><ele>486.0</ele><time>2026-04-18T14:24:41.006Z</time></trkpt><trkpt lat="45.45961880184296" lon="7.997397663547586"><ele>486.0</ele><time>2026-04-18T14:24:42.006Z</time></trkpt><trkpt lat="45.459689282189466" lon="7.99738099102607"><ele>486.0</ele><time>2026-04-18T14:24:43.006Z</time></trkpt><trkpt lat="45.45979588133247" lon="7.997368029206192"><ele>487.8</ele><time>2026-04-18T14:24:45.006Z</time></trkpt><trkpt lat="45.45991030766436" lon="7.9973287556307815"><ele>489.6</ele><time>2026-04-18T14:24:47.006Z</time></trkpt><trkpt lat="45.46000982537351" lon="7.997270293060501"><ele>491.4</ele><time>2026-04-18T14:24:48.006Z</time></trkpt><trkpt lat="45.46010080241681" lon="7.997236313323601"><ele>493.2</ele><time>2026-04-18T14:24:49.006Z</time></trkpt><trkpt lat="45.46017037941959" lon="7.997201425698113"><ele>495.0</ele><time>2026-04-18T14:24:50.006Z</time></trkpt><trkpt lat="45.46004080584395" lon="7.997212087947889"><ele>495.0</ele><time>2026-04-18T14:24:59.004Z</time></trkpt><trkpt lat="45.45989659971432" lon="7.997282075547981"><ele>495.0</ele><time>2026-04-18T14:25:00.004Z</time></trkpt><trkpt lat="45.45973943837756" lon="7.997315054558351"><ele>495.0</ele><time>2026-04-18T14:25:01.003Z</time></trkpt><trkpt lat="45.45962854052114" lon="7.997336701032384"><ele>495.0</ele><time>2026-04-18T14:25:02.003Z</time></trkpt><trkpt lat="45.459543827358345" lon="7.997386622973956"><ele>493.5</ele><time>2026-04-18T14:25:03.003Z</time></trkpt><trkpt lat="45.45948060581837" lon="7.997449986918942"><ele>492.0</ele><time>2026-04-18T14:25:04.003Z</time></trkpt><trkpt lat="45.45942245173664" lon="7.997496835989334"><ele>490.5</ele><time>2026-04-18T14:25:05.003Z</time></trkpt><trkpt lat="45.45931174608386" lon="7.997512206736363"><ele>489.0</ele><time>2026-04-18T14:25:07.003Z</time></trkpt><trkpt lat="45.45922614857033" lon="7.997500510690836"><ele>487.5</ele><time>2026-04-18T14:25:09.003Z</time></trkpt><trkpt lat="45.45915313147903" lon="7.997446620467513"><ele>486.0</ele><time>2026-04-18T14:25:11.003Z</time></trkpt><trkpt lat="45.45908723140154" lon="7.997386135867666"><ele>486.0</ele><time>2026-04-18T14:25:13.003Z</time></trkpt><trkpt lat="45.45902199155499" lon="7.997372716738995"><ele>486.0</ele><time>2026-04-18T14:25:14.003Z</time></trkpt><trkpt lat="45.45893685315375" lon="7.997399471756826"><ele>486.0</ele><time>2026-04-18T14:25:16.003Z</time></trkpt><trkpt lat="45.458836562118904" lon="7.997427278137506"><ele>486.0</ele><time>2026-04-18T14:25:18.003Z</time></trkpt><trkpt lat="45.45876459771951" lon="7.997459556304517"><ele>486.0</ele><time>2026-04-18T14:25:20.003Z</time></trkpt><trkpt lat="45.45869797005609" lon="7.997474260716218"><ele>486.0</ele><time>2026-04-18T14:25:24.003Z</time></trkpt><trkpt lat="45.45862574165015" lon="7.997472684742746"><ele>483.8</ele><time>2026-04-18T14:25:29.003Z</time></trkpt><trkpt lat="45.45849691520582" lon="7.99757402029105"><ele>481.6</ele><time>2026-04-18T14:25:31.004Z</time></trkpt><trkpt lat="45.45841468282806" lon="7.997642594734299"><ele>479.4</ele><time>2026-04-18T14:25:32.004Z</time></trkpt><trkpt lat="45.45834298475507" lon="7.997724952439082"><ele>477.2</ele><time>2026-04-18T14:25:33.004Z</time></trkpt><trkpt lat="45.4582701632603" lon="7.997830411741176"><ele>475.0</ele><time>2026-04-18T14:25:34.004Z</time></trkpt><trkpt lat="45.45817849628909" lon="7.997942174539726"><ele>475.0</ele><time>2026-04-18T14:25:35.004Z</time></trkpt><trkpt lat="45.45809739425335" lon="7.9980560461628105"><ele>475.0</ele><time>2026-04-18T14:25:36.004Z</time></trkpt><trkpt lat="45.45803053901057" lon="7.998169864974996"><ele>475.0</ele><time>2026-04-18T14:25:37.004Z</time></trkpt><trkpt lat="45.45797296583535" lon="7.998267048352139"><ele>475.0</ele><time>2026-04-18T14:25:38.004Z</time></trkpt><trkpt lat="45.457914569487755" lon="7.998346277630352"><ele>475.0</ele><time>2026-04-18T14:25:39.004Z</time></trkpt><trkpt lat="45.45785108792761" lon="7.998404081720396"><ele>470.4</ele><time>2026-04-18T14:25:40.004Z</time></trkpt><trkpt lat="45.457784208927244" lon="7.998418717081246"><ele>465.8</ele><time>2026-04-18T14:25:41.004Z</time></trkpt><trkpt lat="45.45771964209296" lon="7.998466687196342"><ele>461.20000000000005</ele><time>2026-04-18T14:25:42.004Z</time></trkpt><trkpt lat="45.45765792918452" lon="7.998627314128645"><ele>456.6</ele><time>2026-04-18T14:25:44.004Z</time></trkpt><trkpt lat="45.457598749229014" lon="7.9987604471453695"><ele>452.0</ele><time>2026-04-18T14:25:45.004Z</time></trkpt><trkpt lat="45.45753204030091" lon="7.9988930745215505"><ele>452.0</ele><time>2026-04-18T14:25:46.004Z</time></trkpt><trkpt lat="45.45746621739668" lon="7.999024704877305"><ele>452.00000000000006</ele><time>2026-04-18T14:25:47.004Z</time></trkpt><trkpt lat="45.45740499421044" lon="7.9991133468839895"><ele>452.00000000000006</ele><time>2026-04-18T14:25:48.004Z</time></trkpt><trkpt lat="45.45732744045072" lon="7.999179481857194"><ele>452.0</ele><time>2026-04-18T14:25:49.004Z</time></trkpt><trkpt lat="45.45725719446138" lon="7.99925637387184"><ele>452.0</ele><time>2026-04-18T14:25:51.004Z</time></trkpt><trkpt lat="45.45717491279215" lon="7.999362508951499"><ele>448.8</ele><time>2026-04-18T14:25:53.004Z</time></trkpt><trkpt lat="45.4570811618122" lon="7.999479066680492"><ele>445.6</ele><time>2026-04-18T14:25:54.004Z</time></trkpt><trkpt lat="45.457028738614795" lon="7.999560096113476"><ele>442.40000000000003</ele><time>2026-04-18T14:25:55.004Z</time></trkpt><trkpt lat="45.456945387455775" lon="7.999621317180826"><ele>439.20000000000005</ele><time>2026-04-18T14:25:56.004Z</time></trkpt><trkpt lat="45.45687743414412" lon="7.999686859292509"><ele>436.0</ele><time>2026-04-18T14:25:57.004Z</time></trkpt><trkpt lat="45.45682227487064" lon="7.999776578117264"><ele>436.00000000000006</ele><time>2026-04-18T14:25:58.004Z</time></trkpt><trkpt lat="45.45677532342043" lon="7.999886508582208"><ele>436.0</ele><time>2026-04-18T14:25:59.004Z</time></trkpt><trkpt lat="45.45673959216468" lon="7.999965012232817"><ele>436.0</ele><time>2026-04-18T14:26:00.004Z</time></trkpt><trkpt lat="45.456690168237415" lon="8.000052126551745"><ele>436.0</ele><time>2026-04-18T14:26:01.004Z</time></trkpt><trkpt lat="45.45663357852626" lon="8.000158134237006"><ele>436.00000000000006</ele><time>2026-04-18T14:26:02.004Z</time></trkpt><trkpt lat="45.456568480430406" lon="8.000251138076408"><ele>436.0</ele><time>2026-04-18T14:26:03.004Z</time></trkpt><trkpt lat="45.45650122246896" lon="8.000322611284252"><ele>436.0</ele><time>2026-04-18T14:26:04.004Z</time></trkpt><trkpt lat="45.45643199632268" lon="8.00043797491806"><ele>436.0</ele><time>2026-04-18T14:26:06.004Z</time></trkpt><trkpt lat="45.456376735565634" lon="8.00039425935665"><ele>436.0</ele><time>2026-04-18T14:26:08.005Z</time></trkpt><trkpt lat="45.45631201522954" lon="8.000437078115024"><ele>436.0</ele><time>2026-04-18T14:26:15.005Z</time></trkpt><trkpt lat="45.45625395822338" lon="8.000395620580546"><ele>436.0</ele><time>2026-04-18T14:26:32.005Z</time></trkpt><trkpt lat="45.45627966432927" lon="8.000309972434898"><ele>436.0</ele><time>2026-04-18T14:26:41.005Z</time></trkpt><trkpt lat="45.456342118847886" lon="8.00025255672209"><ele>436.0</ele><time>2026-04-18T14:26:50.006Z</time></trkpt><trkpt lat="45.45638551741862" lon="8.000136389794513"><ele>436.0</ele><time>2026-04-18T14:26:52.006Z</time></trkpt><trkpt lat="45.45642105054431" lon="8.000037319211476"><ele>436.0</ele><time>2026-04-18T14:26:53.006Z</time></trkpt><trkpt lat="45.45646897962346" lon="7.999874110838199"><ele>436.0</ele><time>2026-04-18T14:26:54.006Z</time></trkpt><trkpt lat="45.45651715598398" lon="7.999703858813406"><ele>436.0</ele><time>2026-04-18T14:26:55.006Z</time></trkpt><trkpt lat="45.45655533284197" lon="7.999571773752127"><ele>436.0</ele><time>2026-04-18T14:26:56.006Z</time></trkpt><trkpt lat="45.45662446105222" lon="7.999446601152241"><ele>436.0</ele><time>2026-04-18T14:26:57.006Z</time></trkpt><trkpt lat="45.456693649059574" lon="7.999329353351953"><ele>436.0</ele><time>2026-04-18T14:26:58.003Z</time></trkpt><trkpt lat="45.45677291870362" lon="7.999239281618463"><ele>436.0</ele><time>2026-04-18T14:26:59.002Z</time></trkpt><trkpt lat="45.45683755379993" lon="7.999151061629874"><ele>436.0</ele><time>2026-04-18T14:27:00.002Z</time></trkpt><trkpt lat="45.456884671274786" lon="7.999080682632473"><ele>436.0</ele><time>2026-04-18T14:27:01.003Z</time></trkpt><trkpt lat="45.45694037599491" lon="7.998972503299134"><ele>433.4</ele><time>2026-04-18T14:27:03.003Z</time></trkpt><trkpt lat="45.45696231222608" lon="7.998853427833282"><ele>430.8</ele><time>2026-04-18T14:27:04.003Z</time></trkpt><trkpt lat="45.45696926558752" lon="7.998756471911379"><ele>428.2</ele><time>2026-04-18T14:27:05.002Z</time></trkpt><trkpt lat="45.45699693471186" lon="7.9985631269051805"><ele>425.59999999999997</ele><time>2026-04-18T14:27:07.002Z</time></trkpt><trkpt lat="45.457035840477864" lon="7.998437445715098"><ele>423.0</ele><time>2026-04-18T14:27:08.003Z</time></trkpt><trkpt lat="45.45703857628727" lon="7.998325573209035"><ele>421.4</ele><time>2026-04-18T14:27:09.003Z</time></trkpt><trkpt lat="45.45703474040234" lon="7.998167759814086"><ele>419.79999999999995</ele><time>2026-04-18T14:27:11.002Z</time></trkpt><trkpt lat="45.45701860401315" lon="7.998003059399821"><ele>418.2</ele><time>2026-04-18T14:27:13.002Z</time></trkpt><trkpt lat="45.457045833071156" lon="7.9979039461312755"><ele>416.6</ele><time>2026-04-18T14:27:14.002Z</time></trkpt><trkpt lat="45.45708741006924" lon="7.997798768093121"><ele>415.0</ele><time>2026-04-18T14:27:15.002Z</time></trkpt><trkpt lat="45.45715393610276" lon="7.997683903432027"><ele>418.8</ele><time>2026-04-18T14:27:16.002Z</time></trkpt><trkpt lat="45.457227018195795" lon="7.997598398835011"><ele>422.6</ele><time>2026-04-18T14:27:17.002Z</time></trkpt><trkpt lat="45.45729593474629" lon="7.997548326091468"><ele>426.4</ele><time>2026-04-18T14:27:18.002Z</time></trkpt><trkpt lat="45.457368168906804" lon="7.997454978107659"><ele>430.2</ele><time>2026-04-18T14:27:20.003Z</time></trkpt><trkpt lat="45.45745726444993" lon="7.997374227156004"><ele>434.0</ele><time>2026-04-18T14:27:22.003Z</time></trkpt><trkpt lat="45.45757788521742" lon="7.997276000048122"><ele>434.0</ele><time>2026-04-18T14:27:24.003Z</time></trkpt><trkpt lat="45.45765191916467" lon="7.997225770016346"><ele>434.0</ele><time>2026-04-18T14:27:25.003Z</time></trkpt><trkpt lat="45.457730321523904" lon="7.997157446533741"><ele>434.0</ele><time>2026-04-18T14:27:26.003Z</time></trkpt><trkpt lat="45.45782737844952" lon="7.997082962264155"><ele>434.0</ele><time>2026-04-18T14:27:27.003Z</time></trkpt><trkpt lat="45.4579262263736" lon="7.997019428671583"><ele>434.0</ele><time>2026-04-18T14:27:28.003Z</time></trkpt><trkpt lat="45.45802084172674" lon="7.996946724801685"><ele>434.4</ele><time>2026-04-18T14:27:29.003Z</time></trkpt><trkpt lat="45.45809900485513" lon="7.996849201829175"><ele>434.79999999999995</ele><time>2026-04-18T14:27:30.003Z</time></trkpt><trkpt lat="45.45816193120135" lon="7.996769336690064"><ele>435.20000000000005</ele><time>2026-04-18T14:27:31.003Z</time></trkpt><trkpt lat="45.45823208557335" lon="7.996724245562527"><ele>435.6</ele><time>2026-04-18T14:27:32.003Z</time></trkpt><trkpt lat="45.45831884857854" lon="7.996692319022549"><ele>436.0</ele><time>2026-04-18T14:27:33.003Z</time></trkpt><trkpt lat="45.45842170353525" lon="7.9966374165117475"><ele>436.00000000000006</ele><time>2026-04-18T14:27:34.003Z</time></trkpt><trkpt lat="45.45853156333031" lon="7.996613651375781"><ele>436.0</ele><time>2026-04-18T14:27:35.003Z</time></trkpt><trkpt lat="45.45863331017276" lon="7.996563051554643"><ele>436.0</ele><time>2026-04-18T14:27:36.003Z</time></trkpt><trkpt lat="45.45870823736843" lon="7.996515880459375"><ele>436.0</ele><time>2026-04-18T14:27:37.003Z</time></trkpt><trkpt lat="45.45876729783054" lon="7.9964840009505105"><ele>436.00000000000006</ele><time>2026-04-18T14:27:38.003Z</time></trkpt><trkpt lat="45.45883581454092" lon="7.996441862439154"><ele>436.0</ele><time>2026-04-18T14:27:39.003Z</time></trkpt><trkpt lat="45.4588984806177" lon="7.996484184274489"><ele>439.5</ele><time>2026-04-18T14:27:40.003Z</time></trkpt><trkpt lat="45.45900751476325" lon="7.9965672086358115"><ele>443.0</ele><time>2026-04-18T14:27:42.003Z</time></trkpt><trkpt lat="45.45910703081062" lon="7.9965599666829945"><ele>446.5</ele><time>2026-04-18T14:27:44.003Z</time></trkpt><trkpt lat="45.459219542307345" lon="7.996446715479594"><ele>450.0</ele><time>2026-04-18T14:27:46.003Z</time></trkpt><trkpt lat="45.45931489812113" lon="7.996358193118876"><ele>450.0</ele><time>2026-04-18T14:27:47.003Z</time></trkpt><trkpt lat="45.45942354511238" lon="7.9962811238585925"><ele>450.0</ele><time>2026-04-18T14:27:48.003Z</time></trkpt><trkpt lat="45.45952299234277" lon="7.996260353395648"><ele>450.0</ele><time>2026-04-18T14:27:49.003Z</time></trkpt><trkpt lat="45.459619846825085" lon="7.996245943932071"><ele>450.0</ele><time>2026-04-18T14:27:50.003Z</time></trkpt><trkpt lat="45.45972656517404" lon="7.996172033036818"><ele>450.0</ele><time>2026-04-18T14:27:51.003Z</time></trkpt><trkpt lat="45.45982945449217" lon="7.996091782646364"><ele>451.6</ele><time>2026-04-18T14:27:52.003Z</time></trkpt><trkpt lat="45.45994007742926" lon="7.996028470466574"><ele>453.2</ele><time>2026-04-18T14:27:53.003Z</time></trkpt><trkpt lat="45.46004122996018" lon="7.9959629172492726"><ele>454.79999999999995</ele><time>2026-04-18T14:27:54.003Z</time></trkpt><trkpt lat="45.460149172314836" lon="7.995906366603809"><ele>456.4</ele><time>2026-04-18T14:27:55.003Z</time></trkpt><trkpt lat="45.46024325278655" lon="7.995852344376641"><ele>458.0</ele><time>2026-04-18T14:27:56.004Z</time></trkpt><trkpt lat="45.46032329473904" lon="7.995789168957736"><ele>454.0</ele><time>2026-04-18T14:27:57.004Z</time></trkpt><trkpt lat="45.46041856847737" lon="7.995697868318013"><ele>450.0</ele><time>2026-04-18T14:27:58.004Z</time></trkpt><trkpt lat="45.460517672414895" lon="7.995608458114878"><ele>446.0</ele><time>2026-04-18T14:27:59.004Z</time></trkpt><trkpt lat="45.4606189983309" lon="7.995477638930287"><ele>442.0</ele><time>2026-04-18T14:28:00.004Z</time></trkpt><trkpt lat="45.46071083120456" lon="7.995380693584703"><ele>442.00000000000006</ele><time>2026-04-18T14:28:01.004Z</time></trkpt><trkpt lat="45.46077623637492" lon="7.99528281937143"><ele>442.0</ele><time>2026-04-18T14:28:02.004Z</time></trkpt><trkpt lat="45.46083436427378" lon="7.995195708525505"><ele>442.0</ele><time>2026-04-18T14:28:03.004Z</time></trkpt><trkpt lat="45.46087361207148" lon="7.995094206830747"><ele>442.0</ele><time>2026-04-18T14:28:04.004Z</time></trkpt><trkpt lat="45.460909467042875" lon="7.994999209935706"><ele>442.00000000000006</ele><time>2026-04-18T14:28:05.004Z</time></trkpt><trkpt lat="45.4609419046628" lon="7.994913416336171"><ele>442.0</ele><time>2026-04-18T14:28:06.004Z</time></trkpt><trkpt lat="45.46098115729512" lon="7.99476574593762"><ele>435.8</ele><time>2026-04-18T14:28:08.004Z</time></trkpt><trkpt lat="45.46103005641635" lon="7.994677765999597"><ele>429.6</ele><time>2026-04-18T14:28:09.004Z</time></trkpt><trkpt lat="45.461060448870114" lon="7.994579792240684"><ele>423.40000000000003</ele><time>2026-04-18T14:28:10.004Z</time></trkpt><trkpt lat="45.461088455127765" lon="7.994461413946312"><ele>417.20000000000005</ele><time>2026-04-18T14:28:11.004Z</time></trkpt><trkpt lat="45.46114779654317" lon="7.994332302683216"><ele>411.0</ele><time>2026-04-18T14:28:12.004Z</time></trkpt><trkpt lat="45.46121832681043" lon="7.994197570975194"><ele>416.0</ele><time>2026-04-18T14:28:13.004Z</time></trkpt><trkpt lat="45.46129629565448" lon="7.994031924623499"><ele>421.0</ele><time>2026-04-18T14:28:14.004Z</time></trkpt><trkpt lat="45.46137663614577" lon="7.993853127340543"><ele>426.0</ele><time>2026-04-18T14:28:15.004Z</time></trkpt><trkpt lat="45.461437717273206" lon="7.993691911703663"><ele>431.0</ele><time>2026-04-18T14:28:16.004Z</time></trkpt><trkpt lat="45.4614999998482" lon="7.993557985724683"><ele>431.0</ele><time>2026-04-18T14:28:17.004Z</time></trkpt><trkpt lat="45.46152346489028" lon="7.9934617189528705"><ele>431.0</ele><time>2026-04-18T14:28:18.004Z</time></trkpt><trkpt lat="45.46150355286788" lon="7.99334882292273"><ele>431.0</ele><time>2026-04-18T14:28:19.004Z</time></trkpt><trkpt lat="45.461477910926" lon="7.993199038194526"><ele>431.0</ele><time>2026-04-18T14:28:20.004Z</time></trkpt><trkpt lat="45.46146134209358" lon="7.99306127623603"><ele>431.0</ele><time>2026-04-18T14:28:21.004Z</time></trkpt><trkpt lat="45.461429836695345" lon="7.9929324582745584"><ele>427.6</ele><time>2026-04-18T14:28:22.004Z</time></trkpt><trkpt lat="45.46139096566936" lon="7.992814095172221"><ele>424.20000000000005</ele><time>2026-04-18T14:28:23.004Z</time></trkpt><trkpt lat="45.461353731765904" lon="7.992704334609537"><ele>420.79999999999995</ele><time>2026-04-18T14:28:24.004Z</time></trkpt><trkpt lat="45.461311451624915" lon="7.992599454651797"><ele>417.4</ele><time>2026-04-18T14:28:25.004Z</time></trkpt><trkpt lat="45.46125636232959" lon="7.992497060431167"><ele>414.0</ele><time>2026-04-18T14:28:27.004Z</time></trkpt><trkpt lat="45.46116160091239" lon="7.992427714488301"><ele>407.6</ele><time>2026-04-18T14:28:29.004Z</time></trkpt><trkpt lat="45.46106435833545" lon="7.992326988160069"><ele>401.2</ele><time>2026-04-18T14:28:31.004Z</time></trkpt><trkpt lat="45.46101802610441" lon="7.992242430107204"><ele>394.8</ele><time>2026-04-18T14:28:32.005Z</time></trkpt><trkpt lat="45.46096289890136" lon="7.9921132416742395"><ele>388.40000000000003</ele><time>2026-04-18T14:28:33.005Z</time></trkpt><trkpt lat="45.460912890453336" lon="7.9920220030327735"><ele>382.0</ele><time>2026-04-18T14:28:34.005Z</time></trkpt><trkpt lat="45.46086904248305" lon="7.991914765877174"><ele>382.0</ele><time>2026-04-18T14:28:35.005Z</time></trkpt><trkpt lat="45.460830299460724" lon="7.991784400581861"><ele>382.0</ele><time>2026-04-18T14:28:36.005Z</time></trkpt><trkpt lat="45.46081498467825" lon="7.991679055056667"><ele>382.0</ele><time>2026-04-18T14:28:37.005Z</time></trkpt><trkpt lat="45.46076977609601" lon="7.991522499249249"><ele>382.0</ele><time>2026-04-18T14:28:39.005Z</time></trkpt><trkpt lat="45.460803965430756" lon="7.991374594996354"><ele>382.0</ele><time>2026-04-18T14:28:41.005Z</time></trkpt><trkpt lat="45.46089993404634" lon="7.9912364287312405"><ele>381.8</ele><time>2026-04-18T14:28:43.005Z</time></trkpt><trkpt lat="45.46096611958846" lon="7.991116906774857"><ele>381.6</ele><time>2026-04-18T14:28:44.005Z</time></trkpt><trkpt lat="45.46103618259799" lon="7.991000278772455"><ele>381.40000000000003</ele><time>2026-04-18T14:28:45.005Z</time></trkpt><trkpt lat="45.46112483027109" lon="7.990904063871662"><ele>381.20000000000005</ele><time>2026-04-18T14:28:46.005Z</time></trkpt><trkpt lat="45.46119921165211" lon="7.990814617936797"><ele>381.0</ele><time>2026-04-18T14:28:47.005Z</time></trkpt><trkpt lat="45.46126843254349" lon="7.990747027966617"><ele>381.0</ele><time>2026-04-18T14:28:48.005Z</time></trkpt><trkpt lat="45.46134502941221" lon="7.990708958712794"><ele>381.0</ele><time>2026-04-18T14:28:49.005Z</time></trkpt><trkpt lat="45.461464610528616" lon="7.990676216371402"><ele>381.0</ele><time>2026-04-18T14:28:51.005Z</time></trkpt><trkpt lat="45.46153052125304" lon="7.9906397521458885"><ele>381.0</ele><time>2026-04-18T14:28:52.005Z</time></trkpt><trkpt lat="45.46162851176967" lon="7.990607990947249"><ele>381.0</ele><time>2026-04-18T14:28:53.005Z</time></trkpt><trkpt lat="45.4617389193966" lon="7.990571325061267"><ele>381.0</ele><time>2026-04-18T14:28:54.005Z</time></trkpt><trkpt lat="45.46184116399174" lon="7.990537380970607"><ele>381.0</ele><time>2026-04-18T14:28:55.005Z</time></trkpt><trkpt lat="45.4619391142511" lon="7.990481653301768"><ele>381.0</ele><time>2026-04-18T14:28:56.005Z</time></trkpt><trkpt lat="45.462040270723016" lon="7.990422781843297"><ele>381.0</ele><time>2026-04-18T14:28:57.005Z</time></trkpt><trkpt lat="45.46211632874541" lon="7.9903588434317125"><ele>381.0</ele><time>2026-04-18T14:28:58.005Z</time></trkpt><trkpt lat="45.462160332318284" lon="7.990261819057547"><ele>379.4</ele><time>2026-04-18T14:28:59.005Z</time></trkpt><trkpt lat="45.46221167547442" lon="7.990120603695839"><ele>377.8</ele><time>2026-04-18T14:29:00.005Z</time></trkpt><trkpt lat="45.462281591396916" lon="7.989990607789256"><ele>376.2</ele><time>2026-04-18T14:29:01.005Z</time></trkpt><trkpt lat="45.462339036719555" lon="7.989879537684071"><ele>374.59999999999997</ele><time>2026-04-18T14:29:02.005Z</time></trkpt><trkpt lat="45.46237823762374" lon="7.989766388926774"><ele>373.0</ele><time>2026-04-18T14:29:03.005Z</time></trkpt><trkpt lat="45.46241783437949" lon="7.9896434556083955"><ele>373.0</ele><time>2026-04-18T14:29:04.003Z</time></trkpt><trkpt lat="45.462463051400384" lon="7.989495981841189"><ele>373.0</ele><time>2026-04-18T14:29:05.003Z</time></trkpt><trkpt lat="45.46250645735619" lon="7.989350834164229"><ele>373.0</ele><time>2026-04-18T14:29:06.003Z</time></trkpt><trkpt lat="45.46253850778554" lon="7.9892393947748195"><ele>373.0</ele><time>2026-04-18T14:29:07.002Z</time></trkpt><trkpt lat="45.46256496591525" lon="7.9891042615322245"><ele>373.0</ele><time>2026-04-18T14:29:09.002Z</time></trkpt><trkpt lat="45.46263468753211" lon="7.98900213842192"><ele>370.16666666666663</ele><time>2026-04-18T14:29:11.002Z</time></trkpt><trkpt lat="45.4626595449628" lon="7.9888965493791195"><ele>367.3333333333333</ele><time>2026-04-18T14:29:12.002Z</time></trkpt><trkpt lat="45.462675926091414" lon="7.988748963854237"><ele>364.5</ele><time>2026-04-18T14:29:13.002Z</time></trkpt><trkpt lat="45.46269991036137" lon="7.988637994963019"><ele>361.6666666666667</ele><time>2026-04-18T14:29:15.002Z</time></trkpt><trkpt lat="45.462652918717346" lon="7.988566914095229"><ele>358.83333333333337</ele><time>2026-04-18T14:29:17.002Z</time></trkpt><trkpt lat="45.462564335486256" lon="7.988645082392677"><ele>356.0</ele><time>2026-04-18T14:29:21.002Z</time></trkpt><trkpt lat="45.46250886673669" lon="7.988706272206933"><ele>356.0</ele><time>2026-04-18T14:29:22.002Z</time></trkpt><trkpt lat="45.46244015176498" lon="7.988754131829099"><ele>356.0</ele><time>2026-04-18T14:29:23.002Z</time></trkpt><trkpt lat="45.4623657593485" lon="7.988798944823391"><ele>356.0</ele><time>2026-04-18T14:29:24.002Z</time></trkpt><trkpt lat="45.46228094379956" lon="7.988812303666554"><ele>356.0</ele><time>2026-04-18T14:29:25.002Z</time></trkpt><trkpt lat="45.46220770555229" lon="7.988826967301961"><ele>356.0</ele><time>2026-04-18T14:29:26.002Z</time></trkpt><trkpt lat="45.4621426944408" lon="7.988848307935521"><ele>356.0</ele><time>2026-04-18T14:29:27.002Z</time></trkpt><trkpt lat="45.462074499999076" lon="7.988901532894469"><ele>356.0</ele><time>2026-04-18T14:29:28.002Z</time></trkpt><trkpt lat="45.46200290232013" lon="7.988977243261064"><ele>356.0</ele><time>2026-04-18T14:29:30.003Z</time></trkpt><trkpt lat="45.46199452977941" lon="7.988877279164679"><ele>356.0</ele><time>2026-04-18T14:29:33.003Z</time></trkpt><trkpt lat="45.46200083992498" lon="7.988777119165509"><ele>356.0</ele><time>2026-04-18T14:29:34.003Z</time></trkpt><trkpt lat="45.46204948486477" lon="7.988688744509997"><ele>356.0</ele><time>2026-04-18T14:29:35.003Z</time></trkpt><trkpt lat="45.462086186631886" lon="7.988613611844318"><ele>356.0</ele><time>2026-04-18T14:29:36.003Z</time></trkpt><trkpt lat="45.46212558045848" lon="7.988513991862552"><ele>356.0</ele><time>2026-04-18T14:29:37.003Z</time></trkpt><trkpt lat="45.46214804469556" lon="7.98840534609997"><ele>356.0</ele><time>2026-04-18T14:29:38.003Z</time></trkpt><trkpt lat="45.46217528461646" lon="7.988297754142356"><ele>356.0</ele><time>2026-04-18T14:29:39.003Z</time></trkpt><trkpt lat="45.46218455686076" lon="7.9881841663039435"><ele>356.0</ele><time>2026-04-18T14:29:40.003Z</time></trkpt><trkpt lat="45.46219791802811" lon="7.988080923730845"><ele>356.0</ele><time>2026-04-18T14:29:41.003Z</time></trkpt><trkpt lat="45.46222173880178" lon="7.987990279202978"><ele>356.0</ele><time>2026-04-18T14:29:42.003Z</time></trkpt><trkpt lat="45.46224918297088" lon="7.9878923538097295"><ele>353.0</ele><time>2026-04-18T14:29:43.003Z</time></trkpt><trkpt lat="45.46227207355853" lon="7.987779273267804"><ele>350.0</ele><time>2026-04-18T14:29:44.003Z</time></trkpt><trkpt lat="45.462302553076576" lon="7.987656389069808"><ele>347.0</ele><time>2026-04-18T14:29:45.003Z</time></trkpt><trkpt lat="45.462339561820826" lon="7.98751728850884"><ele>344.0</ele><time>2026-04-18T14:29:46.003Z</time></trkpt><trkpt lat="45.4623728252015" lon="7.987390425792426"><ele>341.0</ele><time>2026-04-18T14:29:47.003Z</time></trkpt><trkpt lat="45.4624171382988" lon="7.9872451643987095"><ele>338.20000000000005</ele><time>2026-04-18T14:29:48.003Z</time></trkpt><trkpt lat="45.462430913556155" lon="7.987100457489502"><ele>335.40000000000003</ele><time>2026-04-18T14:29:49.003Z</time></trkpt><trkpt lat="45.46243623589824" lon="7.986960494618234"><ele>332.6</ele><time>2026-04-18T14:29:50.003Z</time></trkpt><trkpt lat="45.46242888467286" lon="7.986830172788633"><ele>329.8</ele><time>2026-04-18T14:29:51.003Z</time></trkpt><trkpt lat="45.46240592529563" lon="7.986691995037849"><ele>327.0</ele><time>2026-04-18T14:29:52.003Z</time></trkpt><trkpt lat="45.46238144638732" lon="7.986530603067573"><ele>324.6</ele><time>2026-04-18T14:29:53.003Z</time></trkpt><trkpt lat="45.462361574732846" lon="7.986376695411362"><ele>322.20000000000005</ele><time>2026-04-18T14:29:54.003Z</time></trkpt><trkpt lat="45.462353008648805" lon="7.986228612308231"><ele>319.8</ele><time>2026-04-18T14:29:55.003Z</time></trkpt><trkpt lat="45.46234600749286" lon="7.986081797328793"><ele>317.4</ele><time>2026-04-18T14:29:56.003Z</time></trkpt><trkpt lat="45.462334604414416" lon="7.985933738663675"><ele>315.0</ele><time>2026-04-18T14:29:57.003Z</time></trkpt><trkpt lat="45.46232431765787" lon="7.9857928618372505"><ele>314.0</ele><time>2026-04-18T14:29:58.003Z</time></trkpt><trkpt lat="45.46231307175141" lon="7.9856556085367965"><ele>313.0</ele><time>2026-04-18T14:29:59.003Z</time></trkpt><trkpt lat="45.462290732452" lon="7.985526035447499"><ele>312.0</ele><time>2026-04-18T14:30:00.003Z</time></trkpt><trkpt lat="45.46225423973829" lon="7.985397880680553"><ele>311.0</ele><time>2026-04-18T14:30:01.003Z</time></trkpt><trkpt lat="45.46223237651946" lon="7.985296147860664"><ele>310.0</ele><time>2026-04-18T14:30:02.003Z</time></trkpt><trkpt lat="45.46221661034111" lon="7.985192798548284"><ele>309.0</ele><time>2026-04-18T14:30:03.003Z</time></trkpt><trkpt lat="45.462216616045545" lon="7.985090474833203"><ele>308.0</ele><time>2026-04-18T14:30:04.003Z</time></trkpt><trkpt lat="45.46221648192358" lon="7.9849902459975475"><ele>307.0</ele><time>2026-04-18T14:30:05.004Z</time></trkpt><trkpt lat="45.46221739136058" lon="7.984877623986677"><ele>306.0</ele><time>2026-04-18T14:30:06.004Z</time></trkpt><trkpt lat="45.46221349372782" lon="7.984757966188142"><ele>305.0</ele><time>2026-04-18T14:30:07.004Z</time></trkpt><trkpt lat="45.462194284769126" lon="7.984627602400824"><ele>304.0</ele><time>2026-04-18T14:30:08.004Z</time></trkpt><trkpt lat="45.462164122405625" lon="7.984463360072673"><ele>303.0</ele><time>2026-04-18T14:30:09.004Z</time></trkpt><trkpt lat="45.46214197101406" lon="7.984336676181511"><ele>300.0</ele><time>2026-04-18T14:30:10.004Z</time></trkpt><trkpt lat="45.462106702430376" lon="7.984260590337371"><ele>297.0</ele><time>2026-04-18T14:30:11.004Z</time></trkpt><trkpt lat="45.46197032871929" lon="7.984248834701696"><ele>294.0</ele><time>2026-04-18T14:30:13.004Z</time></trkpt><trkpt lat="45.461866140653534" lon="7.984286534919359"><ele>291.0</ele><time>2026-04-18T14:30:14.004Z</time></trkpt><trkpt lat="45.461756246675606" lon="7.984326924402079"><ele>288.0</ele><time>2026-04-18T14:30:15.004Z</time></trkpt><trkpt lat="45.46164797371074" lon="7.9843565809374475"><ele>288.0</ele><time>2026-04-18T14:30:16.004Z</time></trkpt><trkpt lat="45.46154404069809" lon="7.984367300459989"><ele>288.0</ele><time>2026-04-18T14:30:17.004Z</time></trkpt><trkpt lat="45.46143812018255" lon="7.984384736398708"><ele>288.0</ele><time>2026-04-18T14:30:18.004Z</time></trkpt><trkpt lat="45.46133557972113" lon="7.984379498887944"><ele>288.0</ele><time>2026-04-18T14:30:19.004Z</time></trkpt><trkpt lat="45.46124462565522" lon="7.9843760687783165"><ele>288.0</ele><time>2026-04-18T14:30:20.004Z</time></trkpt><trkpt lat="45.46115089038223" lon="7.984393428241454"><ele>285.4</ele><time>2026-04-18T14:30:21.004Z</time></trkpt><trkpt lat="45.46105524582864" lon="7.984421816641094"><ele>282.8</ele><time>2026-04-18T14:30:22.004Z</time></trkpt><trkpt lat="45.46095185832734" lon="7.984435019037609"><ele>280.2</ele><time>2026-04-18T14:30:23.004Z</time></trkpt><trkpt lat="45.46086337262602" lon="7.984433105211029"><ele>277.6</ele><time>2026-04-18T14:30:24.004Z</time></trkpt><trkpt lat="45.460794018622316" lon="7.984404785435596"><ele>275.0</ele><time>2026-04-18T14:30:25.004Z</time></trkpt><trkpt lat="45.46075505640225" lon="7.984272298330437"><ele>274.4</ele><time>2026-04-18T14:30:26.004Z</time></trkpt><trkpt lat="45.46066444907813" lon="7.984141465243771"><ele>273.8</ele><time>2026-04-18T14:30:28.004Z</time></trkpt><trkpt lat="45.460611321879874" lon="7.983967383202542"><ele>273.2</ele><time>2026-04-18T14:30:30.004Z</time></trkpt><trkpt lat="45.46056808401943" lon="7.98385871555097"><ele>272.6</ele><time>2026-04-18T14:30:31.004Z</time></trkpt><trkpt lat="45.460483946820666" lon="7.983787839630811"><ele>272.0</ele><time>2026-04-18T14:30:32.004Z</time></trkpt><trkpt lat="45.4604049291332" lon="7.983727844493051"><ele>270.4</ele><time>2026-04-18T14:30:33.004Z</time></trkpt><trkpt lat="45.46033947607039" lon="7.983672774762192"><ele>268.79999999999995</ele><time>2026-04-18T14:30:34.004Z</time></trkpt><trkpt lat="45.46025948854372" lon="7.983630573942089"><ele>267.2</ele><time>2026-04-18T14:30:36.004Z</time></trkpt><trkpt lat="45.46030907993142" lon="7.98343659939964"><ele>265.59999999999997</ele><time>2026-04-18T14:30:40.004Z</time></trkpt><trkpt lat="45.4603533440187" lon="7.983314090152541"><ele>264.0</ele><time>2026-04-18T14:30:41.004Z</time></trkpt><trkpt lat="45.460397911282094" lon="7.983174887217087"><ele>263.8</ele><time>2026-04-18T14:30:42.005Z</time></trkpt><trkpt lat="45.46043511730758" lon="7.983055239000776"><ele>263.59999999999997</ele><time>2026-04-18T14:30:43.005Z</time></trkpt><trkpt lat="45.460474337644776" lon="7.982922866226833"><ele>263.4</ele><time>2026-04-18T14:30:44.005Z</time></trkpt><trkpt lat="45.46051081316837" lon="7.982758429974484"><ele>263.2</ele><time>2026-04-18T14:30:45.005Z</time></trkpt><trkpt lat="45.46054759911149" lon="7.9826039139744775"><ele>263.0</ele><time>2026-04-18T14:30:46.005Z</time></trkpt><trkpt lat="45.46058309070885" lon="7.982428519180803"><ele>263.0</ele><time>2026-04-18T14:30:47.005Z</time></trkpt><trkpt lat="45.460624409013086" lon="7.982266543531664"><ele>263.0</ele><time>2026-04-18T14:30:48.005Z</time></trkpt><trkpt lat="45.46066644634641" lon="7.982102530579156"><ele>263.0</ele><time>2026-04-18T14:30:49.005Z</time></trkpt><trkpt lat="45.46070738795231" lon="7.981939287735531"><ele>263.0</ele><time>2026-04-18T14:30:50.005Z</time></trkpt><trkpt lat="45.460742540138966" lon="7.981776415473996"><ele>262.5</ele><time>2026-04-18T14:30:51.005Z</time></trkpt><trkpt lat="45.46078369437414" lon="7.9816140315851545"><ele>262.0</ele><time>2026-04-18T14:30:52.005Z</time></trkpt><trkpt lat="45.46083037983328" lon="7.981459617936737"><ele>261.5</ele><time>2026-04-18T14:30:53.005Z</time></trkpt><trkpt lat="45.46088370142898" lon="7.981303040586531"><ele>261.0</ele><time>2026-04-18T14:30:54.005Z</time></trkpt><trkpt lat="45.46094494658957" lon="7.981142176549722"><ele>261.0</ele><time>2026-04-18T14:30:55.005Z</time></trkpt><trkpt lat="45.46101166348264" lon="7.980984627439675"><ele>261.0</ele><time>2026-04-18T14:30:56.005Z</time></trkpt><trkpt lat="45.46107028462942" lon="7.980826147124188"><ele>261.0</ele><time>2026-04-18T14:30:57.005Z</time></trkpt><trkpt lat="45.461122250205165" lon="7.980660179783965"><ele>261.0</ele><time>2026-04-18T14:30:58.005Z</time></trkpt><trkpt lat="45.46116708060647" lon="7.980500933533993"><ele>260.5</ele><time>2026-04-18T14:30:59.005Z</time></trkpt><trkpt lat="45.46121202203809" lon="7.980344593444467"><ele>260.0</ele><time>2026-04-18T14:31:00.005Z</time></trkpt><trkpt lat="45.46125718212933" lon="7.980192645436994"><ele>259.5</ele><time>2026-04-18T14:31:01.005Z</time></trkpt><trkpt lat="45.461299838491065" lon="7.980038495419775"><ele>259.0</ele><time>2026-04-18T14:31:02.005Z</time></trkpt><trkpt lat="45.46134519260423" lon="7.979889101254338"><ele>260.0</ele><time>2026-04-18T14:31:03.005Z</time></trkpt><trkpt lat="45.46139210270814" lon="7.979736873915405"><ele>261.0</ele><time>2026-04-18T14:31:04.005Z</time></trkpt><trkpt lat="45.4614373971544" lon="7.9795869265555215"><ele>262.0</ele><time>2026-04-18T14:31:05.005Z</time></trkpt><trkpt lat="45.46148503114816" lon="7.979439976976398"><ele>263.0</ele><time>2026-04-18T14:31:06.005Z</time></trkpt><trkpt lat="45.461522779985955" lon="7.97928788209415"><ele>263.0</ele><time>2026-04-18T14:31:07.005Z</time></trkpt><trkpt lat="45.46155546378902" lon="7.97912710229401"><ele>263.0</ele><time>2026-04-18T14:31:08.005Z</time></trkpt><trkpt lat="45.46158816342335" lon="7.978957395209005"><ele>263.0</ele><time>2026-04-18T14:31:09.005Z</time></trkpt><trkpt lat="45.46160701000229" lon="7.9787849138674956"><ele>263.0</ele><time>2026-04-18T14:31:10.003Z</time></trkpt><trkpt lat="45.461649666751086" lon="7.9786023658979754"><ele>263.0</ele><time>2026-04-18T14:31:11.003Z</time></trkpt><trkpt lat="45.46166371193932" lon="7.978429571109272"><ele>263.0</ele><time>2026-04-18T14:31:12.003Z</time></trkpt><trkpt lat="45.46167546328243" lon="7.978243786242152"><ele>263.0</ele><time>2026-04-18T14:31:13.003Z</time></trkpt><trkpt lat="45.461685534320075" lon="7.978061513907725"><ele>263.0</ele><time>2026-04-18T14:31:14.003Z</time></trkpt><trkpt lat="45.461692096367415" lon="7.977871370173572"><ele>262.25</ele><time>2026-04-18T14:31:15.003Z</time></trkpt><trkpt lat="45.46170501756481" lon="7.977688994128981"><ele>261.5</ele><time>2026-04-18T14:31:16.003Z</time></trkpt><trkpt lat="45.46171462910305" lon="7.977501071270882"><ele>260.75</ele><time>2026-04-18T14:31:17.002Z</time></trkpt><trkpt lat="45.461724975882234" lon="7.977326868229211"><ele>260.0</ele><time>2026-04-18T14:31:18.002Z</time></trkpt><trkpt lat="45.46173199668331" lon="7.9771522316453005"><ele>258.75</ele><time>2026-04-18T14:31:19.003Z</time></trkpt><trkpt lat="45.46172883687865" lon="7.976956166018295"><ele>257.5</ele><time>2026-04-18T14:31:20.003Z</time></trkpt><trkpt lat="45.461740775801054" lon="7.9767723317762105"><ele>256.25</ele><time>2026-04-18T14:31:21.003Z</time></trkpt><trkpt lat="45.46174381519533" lon="7.976590418606554"><ele>255.0</ele><time>2026-04-18T14:31:22.003Z</time></trkpt><trkpt lat="45.4617405589184" lon="7.976413271323164"><ele>254.0</ele><time>2026-04-18T14:31:23.003Z</time></trkpt><trkpt lat="45.46174102630844" lon="7.9762539803800045"><ele>253.0</ele><time>2026-04-18T14:31:24.003Z</time></trkpt><trkpt lat="45.46173384202903" lon="7.976111682775788"><ele>252.0</ele><time>2026-04-18T14:31:25.003Z</time></trkpt><trkpt lat="45.461722317262875" lon="7.975978923959045"><ele>251.0</ele><time>2026-04-18T14:31:26.003Z</time></trkpt><trkpt lat="45.46170266728093" lon="7.975862877169392"><ele>250.0</ele><time>2026-04-18T14:31:27.003Z</time></trkpt><trkpt lat="45.461684638298536" lon="7.975776265365858"><ele>249.75</ele><time>2026-04-18T14:31:28.003Z</time></trkpt><trkpt lat="45.46163425665519" lon="7.975693270983914"><ele>249.5</ele><time>2026-04-18T14:31:30.003Z</time></trkpt><trkpt lat="45.461670238008665" lon="7.975566790023651"><ele>249.25</ele><time>2026-04-18T14:31:33.003Z</time></trkpt><trkpt lat="45.46143356866012" lon="7.9755015492331385"><ele>249.0</ele><time>2026-04-18T14:31:36.003Z</time></trkpt><trkpt lat="45.46130711392415" lon="7.975437671896395"><ele>248.2</ele><time>2026-04-18T14:31:37.003Z</time></trkpt><trkpt lat="45.46120872244388" lon="7.975328811251929"><ele>247.39999999999998</ele><time>2026-04-18T14:31:38.003Z</time></trkpt><trkpt lat="45.46112935992091" lon="7.975215910525851"><ele>246.6</ele><time>2026-04-18T14:31:39.003Z</time></trkpt><trkpt lat="45.46106588913267" lon="7.975110141725694"><ele>245.8</ele><time>2026-04-18T14:31:40.004Z</time></trkpt><trkpt lat="45.46101043377851" lon="7.974981085375705"><ele>245.0</ele><time>2026-04-18T14:31:41.004Z</time></trkpt><trkpt lat="45.46097172876636" lon="7.974830626485761"><ele>245.0</ele><time>2026-04-18T14:31:42.004Z</time></trkpt><trkpt lat="45.4609265465661" lon="7.974667558840381"><ele>245.0</ele><time>2026-04-18T14:31:43.004Z</time></trkpt><trkpt lat="45.460895156675335" lon="7.974505328000092"><ele>245.0</ele><time>2026-04-18T14:31:44.004Z</time></trkpt><trkpt lat="45.460873746874285" lon="7.974344216781056"><ele>245.0</ele><time>2026-04-18T14:31:45.004Z</time></trkpt><trkpt lat="45.46085177210878" lon="7.974159494664573"><ele>245.0</ele><time>2026-04-18T14:31:46.004Z</time></trkpt><trkpt lat="45.46084759540977" lon="7.973973228508382"><ele>245.0</ele><time>2026-04-18T14:31:47.004Z</time></trkpt><trkpt lat="45.46084552129113" lon="7.973792700742994"><ele>245.0</ele><time>2026-04-18T14:31:48.004Z</time></trkpt><trkpt lat="45.46086719577555" lon="7.973622279372776"><ele>245.0</ele><time>2026-04-18T14:31:49.004Z</time></trkpt><trkpt lat="45.46090724207041" lon="7.973453171950254"><ele>244.75</ele><time>2026-04-18T14:31:50.004Z</time></trkpt><trkpt lat="45.4609578098769" lon="7.973291554298476"><ele>244.5</ele><time>2026-04-18T14:31:51.004Z</time></trkpt><trkpt lat="45.46100150828406" lon="7.973124102657691"><ele>244.25</ele><time>2026-04-18T14:31:52.004Z</time></trkpt><trkpt lat="45.461044468570066" lon="7.972965194821134"><ele>244.0</ele><time>2026-04-18T14:31:53.004Z</time></trkpt><trkpt lat="45.4610913560177" lon="7.972800600205375"><ele>244.0</ele><time>2026-04-18T14:31:54.004Z</time></trkpt><trkpt lat="45.46116087364135" lon="7.972664800257666"><ele>244.0</ele><time>2026-04-18T14:31:55.004Z</time></trkpt><trkpt lat="45.4612165356415" lon="7.972521907705734"><ele>244.0</ele><time>2026-04-18T14:31:56.004Z</time></trkpt><trkpt lat="45.4612815100939" lon="7.972386257652285"><ele>244.0</ele><time>2026-04-18T14:31:57.004Z</time></trkpt><trkpt lat="45.46134074022932" lon="7.97225306314189"><ele>245.25</ele><time>2026-04-18T14:31:58.004Z</time></trkpt><trkpt lat="45.461474917090676" lon="7.972126331779694"><ele>246.5</ele><time>2026-04-18T14:31:59.004Z</time></trkpt><trkpt lat="45.46153082960337" lon="7.971982105306838"><ele>247.75</ele><time>2026-04-18T14:32:00.004Z</time></trkpt><trkpt lat="45.46159567508698" lon="7.971835136903534"><ele>249.0</ele><time>2026-04-18T14:32:01.004Z</time></trkpt><trkpt lat="45.461649668518504" lon="7.9716743643268035"><ele>249.0</ele><time>2026-04-18T14:32:02.004Z</time></trkpt><trkpt lat="45.46170956076332" lon="7.9715176098406095"><ele>249.0</ele><time>2026-04-18T14:32:03.004Z</time></trkpt><trkpt lat="45.46177550970656" lon="7.9713780090201425"><ele>249.0</ele><time>2026-04-18T14:32:04.004Z</time></trkpt><trkpt lat="45.46184916912109" lon="7.971216571425725"><ele>249.0</ele><time>2026-04-18T14:32:05.004Z</time></trkpt><trkpt lat="45.4619149445138" lon="7.971065319956698"><ele>249.0</ele><time>2026-04-18T14:32:06.004Z</time></trkpt><trkpt lat="45.46197347566759" lon="7.970915526781304"><ele>249.0</ele><time>2026-04-18T14:32:07.004Z</time></trkpt><trkpt lat="45.46203863341301" lon="7.970774125696962"><ele>249.0</ele><time>2026-04-18T14:32:08.004Z</time></trkpt><trkpt lat="45.462104131209465" lon="7.9706338996596635"><ele>249.0</ele><time>2026-04-18T14:32:09.004Z</time></trkpt><trkpt lat="45.46216703986467" lon="7.970486893996703"><ele>249.5</ele><time>2026-04-18T14:32:10.004Z</time></trkpt><trkpt lat="45.462230676965355" lon="7.9703410756454875"><ele>250.0</ele><time>2026-04-18T14:32:11.004Z</time></trkpt><trkpt lat="45.462296509549404" lon="7.970195400042064"><ele>250.5</ele><time>2026-04-18T14:32:12.004Z</time></trkpt><trkpt lat="45.46236242093401" lon="7.970047073836908"><ele>251.0</ele><time>2026-04-18T14:32:13.004Z</time></trkpt><trkpt lat="45.46243762082237" lon="7.969907627681987"><ele>249.0</ele><time>2026-04-18T14:32:14.004Z</time></trkpt><trkpt lat="45.46250739382786" lon="7.969761821138293"><ele>247.0</ele><time>2026-04-18T14:32:15.004Z</time></trkpt><trkpt lat="45.46257965274958" lon="7.969609217440082"><ele>245.0</ele><time>2026-04-18T14:32:16.005Z</time></trkpt><trkpt lat="45.462651441341755" lon="7.969453350960172"><ele>243.0</ele><time>2026-04-18T14:32:17.005Z</time></trkpt><trkpt lat="45.46271950748228" lon="7.969297462675117"><ele>242.0</ele><time>2026-04-18T14:32:18.005Z</time></trkpt><trkpt lat="45.462790133588165" lon="7.969134804967908"><ele>241.0</ele><time>2026-04-18T14:32:19.005Z</time></trkpt><trkpt lat="45.46286421728582" lon="7.968995457451013"><ele>240.0</ele><time>2026-04-18T14:32:20.005Z</time></trkpt><trkpt lat="45.46294131831986" lon="7.968849974369532"><ele>239.0</ele><time>2026-04-18T14:32:21.005Z</time></trkpt><trkpt lat="45.463025697118205" lon="7.9687042003806505"><ele>240.5</ele><time>2026-04-18T14:32:22.005Z</time></trkpt><trkpt lat="45.46310459776183" lon="7.968569966340739"><ele>242.0</ele><time>2026-04-18T14:32:23.005Z</time></trkpt><trkpt lat="45.46317961287707" lon="7.968430793148225"><ele>243.5</ele><time>2026-04-18T14:32:24.005Z</time></trkpt><trkpt lat="45.463254933910285" lon="7.968293594792141"><ele>245.0</ele><time>2026-04-18T14:32:25.005Z</time></trkpt><trkpt lat="45.46333422742728" lon="7.968137993359616"><ele>245.0</ele><time>2026-04-18T14:32:26.005Z</time></trkpt><trkpt lat="45.463410164459255" lon="7.967988736318406"><ele>245.0</ele><time>2026-04-18T14:32:27.005Z</time></trkpt><trkpt lat="45.46348223159823" lon="7.967840213186752"><ele>245.0</ele><time>2026-04-18T14:32:28.005Z</time></trkpt><trkpt lat="45.46355486756717" lon="7.9677011865135645"><ele>245.0</ele><time>2026-04-18T14:32:29.005Z</time></trkpt><trkpt lat="45.46363414367392" lon="7.967556097255659"><ele>243.75</ele><time>2026-04-18T14:32:30.005Z</time></trkpt><trkpt lat="45.46371208807766" lon="7.9674102693662645"><ele>242.5</ele><time>2026-04-18T14:32:31.005Z</time></trkpt><trkpt lat="45.46378259679542" lon="7.9672579864795585"><ele>241.25</ele><time>2026-04-18T14:32:32.005Z</time></trkpt><trkpt lat="45.46383307997072" lon="7.967095810722099"><ele>240.0</ele><time>2026-04-18T14:32:33.005Z</time></trkpt><trkpt lat="45.46389168413424" lon="7.966935642172489"><ele>242.0</ele><time>2026-04-18T14:32:34.005Z</time></trkpt><trkpt lat="45.46394975782665" lon="7.966778421038927"><ele>244.0</ele><time>2026-04-18T14:32:35.005Z</time></trkpt><trkpt lat="45.464009274997636" lon="7.966612210132851"><ele>246.0</ele><time>2026-04-18T14:32:36.005Z</time></trkpt><trkpt lat="45.464064704649104" lon="7.96644327808109"><ele>248.0</ele><time>2026-04-18T14:32:37.005Z</time></trkpt><trkpt lat="45.464111283354065" lon="7.966271592866145"><ele>248.0</ele><time>2026-04-18T14:32:38.005Z</time></trkpt><trkpt lat="45.46415134391195" lon="7.96610214272257"><ele>248.0</ele><time>2026-04-18T14:32:39.005Z</time></trkpt><trkpt lat="45.46417264438356" lon="7.965927075851387"><ele>248.0</ele><time>2026-04-18T14:32:40.005Z</time></trkpt><trkpt lat="45.464188784008414" lon="7.965750887252771"><ele>248.0</ele><time>2026-04-18T14:32:41.005Z</time></trkpt><trkpt lat="45.46420747514501" lon="7.965573691599624"><ele>247.2</ele><time>2026-04-18T14:32:42.005Z</time></trkpt><trkpt lat="45.46422422191643" lon="7.965406728472565"><ele>246.4</ele><time>2026-04-18T14:32:43.005Z</time></trkpt><trkpt lat="45.46424107600216" lon="7.965245586328561"><ele>245.59999999999997</ele><time>2026-04-18T14:32:44.005Z</time></trkpt><trkpt lat="45.464265072206146" lon="7.965113606036504"><ele>244.79999999999998</ele><time>2026-04-18T14:32:45.005Z</time></trkpt><trkpt lat="45.46429451150513" lon="7.964998973419154"><ele>244.0</ele><time>2026-04-18T14:32:46.005Z</time></trkpt><trkpt lat="45.46431459211917" lon="7.964906376631402"><ele>243.99999999999997</ele><time>2026-04-18T14:32:47.005Z</time></trkpt><trkpt lat="45.464300664326515" lon="7.964817970634573"><ele>244.0</ele><time>2026-04-18T14:32:48.005Z</time></trkpt><trkpt lat="45.46425455617767" lon="7.964732176432037"><ele>244.0</ele><time>2026-04-18T14:32:49.005Z</time></trkpt><trkpt lat="45.464186539923034" lon="7.964652913438421"><ele>244.0</ele><time>2026-04-18T14:32:50.005Z</time></trkpt><trkpt lat="45.46408951918641" lon="7.964575647304716"><ele>243.99999999999997</ele><time>2026-04-18T14:32:51.005Z</time></trkpt><trkpt lat="45.46398992341027" lon="7.964511913172261"><ele>244.0</ele><time>2026-04-18T14:32:52.005Z</time></trkpt><trkpt lat="45.463888387486854" lon="7.964435396149729"><ele>244.0</ele><time>2026-04-18T14:32:53.006Z</time></trkpt><trkpt lat="45.46379035534787" lon="7.964359112765815"><ele>243.99999999999997</ele><time>2026-04-18T14:32:54.006Z</time></trkpt><trkpt lat="45.463707445893895" lon="7.9642508677921935"><ele>243.99999999999997</ele><time>2026-04-18T14:32:55.006Z</time></trkpt><trkpt lat="45.46364147658139" lon="7.964154159474707"><ele>244.0</ele><time>2026-04-18T14:32:56.006Z</time></trkpt><trkpt lat="45.46358683740927" lon="7.964044295908091"><ele>244.0</ele><time>2026-04-18T14:32:57.006Z</time></trkpt><trkpt lat="45.46356591446412" lon="7.96392460097186"><ele>242.25</ele><time>2026-04-18T14:32:58.006Z</time></trkpt><trkpt lat="45.46358200608131" lon="7.9637932643917155"><ele>240.5</ele><time>2026-04-18T14:32:59.006Z</time></trkpt><trkpt lat="45.463616637830285" lon="7.9636473727263155"><ele>238.75</ele><time>2026-04-18T14:33:00.006Z</time></trkpt><trkpt lat="45.46366611259323" lon="7.963484538539122"><ele>237.0</ele><time>2026-04-18T14:33:01.006Z</time></trkpt><trkpt lat="45.46372970572697" lon="7.963326154758383"><ele>237.25</ele><time>2026-04-18T14:33:02.006Z</time></trkpt><trkpt lat="45.46380365677324" lon="7.96318059540335"><ele>237.5</ele><time>2026-04-18T14:33:03.006Z</time></trkpt><trkpt lat="45.463862964888726" lon="7.963031995059235"><ele>237.75</ele><time>2026-04-18T14:33:04.006Z</time></trkpt><trkpt lat="45.46390184447553" lon="7.962888931920047"><ele>238.0</ele><time>2026-04-18T14:33:05.006Z</time></trkpt><trkpt lat="45.4639127234722" lon="7.962741898740207"><ele>238.0</ele><time>2026-04-18T14:33:06.006Z</time></trkpt><trkpt lat="45.46390961085965" lon="7.962600414991702"><ele>238.0</ele><time>2026-04-18T14:33:07.006Z</time></trkpt><trkpt lat="45.463906996524045" lon="7.962458967112962"><ele>238.0</ele><time>2026-04-18T14:33:08.006Z</time></trkpt><trkpt lat="45.46390538022821" lon="7.96232582253283"><ele>238.0</ele><time>2026-04-18T14:33:09.006Z</time></trkpt><trkpt lat="45.46390628891392" lon="7.962212918867892"><ele>238.0</ele><time>2026-04-18T14:33:10.006Z</time></trkpt><trkpt lat="45.46390448474259" lon="7.962092733727177"><ele>238.0</ele><time>2026-04-18T14:33:11.006Z</time></trkpt><trkpt lat="45.46391038008409" lon="7.961955004449156"><ele>238.0</ele><time>2026-04-18T14:33:12.006Z</time></trkpt><trkpt lat="45.46392375825443" lon="7.961797479876279"><ele>238.0</ele><time>2026-04-18T14:33:13.006Z</time></trkpt><trkpt lat="45.463930263726034" lon="7.961613760469877"><ele>238.0</ele><time>2026-04-18T14:33:14.006Z</time></trkpt><trkpt lat="45.46392800546517" lon="7.961405168014344"><ele>237.66666666666666</ele><time>2026-04-18T14:33:15.006Z</time></trkpt><trkpt lat="45.463922882568106" lon="7.961178073020705"><ele>237.33333333333331</ele><time>2026-04-18T14:33:16.003Z</time></trkpt><trkpt lat="45.46392155339742" lon="7.960933944693307"><ele>237.0</ele><time>2026-04-18T14:33:17.003Z</time></trkpt><trkpt lat="45.46392197962902" lon="7.960703595108158"><ele>237.0</ele><time>2026-04-18T14:33:18.003Z</time></trkpt><trkpt lat="45.46393797054373" lon="7.960505790671305"><ele>237.0</ele><time>2026-04-18T14:33:19.003Z</time></trkpt><trkpt lat="45.46398326350169" lon="7.9603357720855"><ele>237.0</ele><time>2026-04-18T14:33:20.003Z</time></trkpt><trkpt lat="45.46404893130539" lon="7.9601894047576"><ele>237.0</ele><time>2026-04-18T14:33:21.003Z</time></trkpt><trkpt lat="45.464137144665834" lon="7.960033665115785"><ele>236.75</ele><time>2026-04-18T14:33:22.003Z</time></trkpt><trkpt lat="45.46424122048431" lon="7.959876402040063"><ele>236.5</ele><time>2026-04-18T14:33:23.003Z</time></trkpt><trkpt lat="45.46431329302119" lon="7.959723671242526"><ele>236.25</ele><time>2026-04-18T14:33:24.003Z</time></trkpt><trkpt lat="45.4643624262237" lon="7.95955166098602"><ele>236.0</ele><time>2026-04-18T14:33:25.003Z</time></trkpt><trkpt lat="45.46439384881317" lon="7.9594008675600225"><ele>236.0</ele><time>2026-04-18T14:33:26.003Z</time></trkpt><trkpt lat="45.464382591874035" lon="7.959235007965971"><ele>236.0</ele><time>2026-04-18T14:33:27.003Z</time></trkpt><trkpt lat="45.46434741992583" lon="7.959038679902389"><ele>236.0</ele><time>2026-04-18T14:33:28.003Z</time></trkpt><trkpt lat="45.46429799575242" lon="7.958797051137971"><ele>236.0</ele><time>2026-04-18T14:33:29.003Z</time></trkpt><trkpt lat="45.464267899126476" lon="7.958551015732873"><ele>236.33333333333334</ele><time>2026-04-18T14:33:30.003Z</time></trkpt><trkpt lat="45.464243141768485" lon="7.958316412339845"><ele>236.66666666666669</ele><time>2026-04-18T14:33:31.003Z</time></trkpt><trkpt lat="45.46420895055069" lon="7.958095598521623"><ele>237.0</ele><time>2026-04-18T14:33:32.003Z</time></trkpt><trkpt lat="45.464173765874456" lon="7.957867052832337"><ele>237.0</ele><time>2026-04-18T14:33:33.003Z</time></trkpt><trkpt lat="45.46414151921439" lon="7.957651406370943"><ele>237.0</ele><time>2026-04-18T14:33:34.003Z</time></trkpt><trkpt lat="45.46411288708913" lon="7.957429399469373"><ele>237.0</ele><time>2026-04-18T14:33:35.003Z</time></trkpt><trkpt lat="45.46408462164529" lon="7.95721201807779"><ele>236.66666666666669</ele><time>2026-04-18T14:33:36.003Z</time></trkpt><trkpt lat="45.46406475244207" lon="7.9569832675465415"><ele>236.33333333333334</ele><time>2026-04-18T14:33:37.003Z</time></trkpt><trkpt lat="45.464050492892966" lon="7.956762527120655"><ele>236.0</ele><time>2026-04-18T14:33:38.003Z</time></trkpt><trkpt lat="45.464037539586165" lon="7.9565491960443815"><ele>236.0</ele><time>2026-04-18T14:33:39.003Z</time></trkpt><trkpt lat="45.46402882741681" lon="7.956329393110975"><ele>236.0</ele><time>2026-04-18T14:33:40.003Z</time></trkpt><trkpt lat="45.46402137151276" lon="7.956103285655804"><ele>236.0</ele><time>2026-04-18T14:33:41.003Z</time></trkpt><trkpt lat="45.4640250710603" lon="7.955890318222529"><ele>236.25</ele><time>2026-04-18T14:33:42.003Z</time></trkpt><trkpt lat="45.464022099531284" lon="7.955668304534083"><ele>236.5</ele><time>2026-04-18T14:33:43.003Z</time></trkpt><trkpt lat="45.46401987559832" lon="7.955453438066672"><ele>236.75</ele><time>2026-04-18T14:33:44.003Z</time></trkpt><trkpt lat="45.464020434669294" lon="7.95525530051917"><ele>237.0</ele><time>2026-04-18T14:33:45.003Z</time></trkpt><trkpt lat="45.46401568950684" lon="7.955062121373396"><ele>237.25</ele><time>2026-04-18T14:33:46.003Z</time></trkpt><trkpt lat="45.46402041859126" lon="7.954877519821906"><ele>237.5</ele><time>2026-04-18T14:33:47.003Z</time></trkpt><trkpt lat="45.464012864566726" lon="7.954695328755979"><ele>237.75</ele><time>2026-04-18T14:33:48.004Z</time></trkpt><trkpt lat="45.464000336568326" lon="7.954535764504665"><ele>238.0</ele><time>2026-04-18T14:33:49.004Z</time></trkpt><trkpt lat="45.46398870346017" lon="7.954389318645098"><ele>237.99999999999997</ele><time>2026-04-18T14:33:50.004Z</time></trkpt><trkpt lat="45.4639952094304" lon="7.954262919639556"><ele>238.0</ele><time>2026-04-18T14:33:51.004Z</time></trkpt><trkpt lat="45.46402993619367" lon="7.954185753558936"><ele>238.0</ele><time>2026-04-18T14:33:52.004Z</time></trkpt><trkpt lat="45.464083837607156" lon="7.954135229641047"><ele>238.0</ele><time>2026-04-18T14:33:53.004Z</time></trkpt><trkpt lat="45.464150970755625" lon="7.954092358574781"><ele>237.99999999999997</ele><time>2026-04-18T14:33:54.004Z</time></trkpt><trkpt lat="45.46423702860159" lon="7.954063046380952"><ele>238.0</ele><time>2026-04-18T14:33:55.004Z</time></trkpt><trkpt lat="45.464352028625356" lon="7.954050276310756"><ele>237.8</ele><time>2026-04-18T14:33:56.004Z</time></trkpt><trkpt lat="45.464468224911634" lon="7.954030639584501"><ele>237.60000000000002</ele><time>2026-04-18T14:33:57.004Z</time></trkpt><trkpt lat="45.464576448161274" lon="7.953996629099874"><ele>237.39999999999998</ele><time>2026-04-18T14:33:58.004Z</time></trkpt><trkpt lat="45.46465507501529" lon="7.953929317380718"><ele>237.2</ele><time>2026-04-18T14:33:59.004Z</time></trkpt><trkpt lat="45.46470579997401" lon="7.953825194065544"><ele>237.0</ele><time>2026-04-18T14:34:00.004Z</time></trkpt><trkpt lat="45.46472564460407" lon="7.95371143417911"><ele>237.0</ele><time>2026-04-18T14:34:01.004Z</time></trkpt><trkpt lat="45.46472222910569" lon="7.9535942191559155"><ele>237.0</ele><time>2026-04-18T14:34:02.004Z</time></trkpt><trkpt lat="45.46472267185043" lon="7.953462593895612"><ele>237.0</ele><time>2026-04-18T14:34:03.004Z</time></trkpt><trkpt lat="45.46474543058992" lon="7.953306863760849"><ele>237.0</ele><time>2026-04-18T14:34:04.004Z</time></trkpt><trkpt lat="45.46477519217141" lon="7.953127421313554"><ele>237.0</ele><time>2026-04-18T14:34:05.004Z</time></trkpt><trkpt lat="45.46480486490221" lon="7.95293125414661"><ele>237.0</ele><time>2026-04-18T14:34:06.004Z</time></trkpt><trkpt lat="45.46483808800611" lon="7.95272639283384"><ele>237.0</ele><time>2026-04-18T14:34:07.004Z</time></trkpt><trkpt lat="45.46487725541768" lon="7.95253287753226"><ele>237.0</ele><time>2026-04-18T14:34:08.004Z</time></trkpt><trkpt lat="45.464919948151966" lon="7.952342567131995"><ele>237.0</ele><time>2026-04-18T14:34:09.004Z</time></trkpt><trkpt lat="45.46496546901623" lon="7.9521535840713815"><ele>237.0</ele><time>2026-04-18T14:34:10.004Z</time></trkpt><trkpt lat="45.46501254639356" lon="7.951958728350418"><ele>237.0</ele><time>2026-04-18T14:34:11.004Z</time></trkpt><trkpt lat="45.465063299880335" lon="7.95177019055881"><ele>237.0</ele><time>2026-04-18T14:34:12.004Z</time></trkpt><trkpt lat="45.46511376485058" lon="7.951591091916152"><ele>237.0</ele><time>2026-04-18T14:34:13.004Z</time></trkpt><trkpt lat="45.465161229281975" lon="7.951413637689988"><ele>236.75</ele><time>2026-04-18T14:34:14.004Z</time></trkpt><trkpt lat="45.46519832586729" lon="7.951236828727923"><ele>236.5</ele><time>2026-04-18T14:34:15.004Z</time></trkpt><trkpt lat="45.46523858520922" lon="7.951065256067089"><ele>236.25</ele><time>2026-04-18T14:34:16.004Z</time></trkpt><trkpt lat="45.46528562111238" lon="7.950898957749462"><ele>236.0</ele><time>2026-04-18T14:34:17.004Z</time></trkpt><trkpt lat="45.46534813830514" lon="7.950733371758061"><ele>236.0</ele><time>2026-04-18T14:34:18.004Z</time></trkpt><trkpt lat="45.465419842730235" lon="7.9505769191019775"><ele>236.0</ele><time>2026-04-18T14:34:19.004Z</time></trkpt><trkpt lat="45.465495357785926" lon="7.9504227155185525"><ele>236.0</ele><time>2026-04-18T14:34:20.004Z</time></trkpt><trkpt lat="45.46556791136398" lon="7.950278383840373"><ele>236.0</ele><time>2026-04-18T14:34:21.004Z</time></trkpt><trkpt lat="45.46563281613894" lon="7.950135025003207"><ele>236.00000000000003</ele><time>2026-04-18T14:34:22.004Z</time></trkpt><trkpt lat="45.46568775600343" lon="7.9500324080972185"><ele>236.0</ele><time>2026-04-18T14:34:23.004Z</time></trkpt><trkpt lat="45.465729765726344" lon="7.949954245146692"><ele>236.0</ele><time>2026-04-18T14:34:24.004Z</time></trkpt><trkpt lat="45.46581180516573" lon="7.949819828121597"><ele>236.0</ele><time>2026-04-18T14:34:26.005Z</time></trkpt><trkpt lat="45.46585346230311" lon="7.949749121424451"><ele>236.00000000000003</ele><time>2026-04-18T14:34:27.005Z</time></trkpt><trkpt lat="45.465887720098515" lon="7.949671682021111"><ele>236.0</ele><time>2026-04-18T14:34:28.005Z</time></trkpt><trkpt lat="45.465923740733245" lon="7.949580000937906"><ele>236.0</ele><time>2026-04-18T14:34:29.005Z</time></trkpt><trkpt lat="45.46596038048442" lon="7.9494747537011134"><ele>236.00000000000003</ele><time>2026-04-18T14:34:30.005Z</time></trkpt><trkpt lat="45.46599543896818" lon="7.9493586868711335"><ele>236.00000000000003</ele><time>2026-04-18T14:34:31.005Z</time></trkpt><trkpt lat="45.46603988105437" lon="7.9492357666359625"><ele>236.0</ele><time>2026-04-18T14:34:32.005Z</time></trkpt><trkpt lat="45.46609555913395" lon="7.949104296756335"><ele>236.0</ele><time>2026-04-18T14:34:33.005Z</time></trkpt><trkpt lat="45.466161170654345" lon="7.948976842530765"><ele>236.20000000000002</ele><time>2026-04-18T14:34:34.005Z</time></trkpt><trkpt lat="45.46623180618919" lon="7.948867100493688"><ele>236.40000000000003</ele><time>2026-04-18T14:34:35.005Z</time></trkpt><trkpt lat="45.46629507675662" lon="7.948765987765004"><ele>236.6</ele><time>2026-04-18T14:34:36.005Z</time></trkpt><trkpt lat="45.46636001652869" lon="7.9486665320495264"><ele>236.8</ele><time>2026-04-18T14:34:37.005Z</time></trkpt><trkpt lat="45.46641359861464" lon="7.948571631481665"><ele>237.0</ele><time>2026-04-18T14:34:38.005Z</time></trkpt><trkpt lat="45.46645972961974" lon="7.948477058198647"><ele>237.33333333333334</ele><time>2026-04-18T14:34:39.005Z</time></trkpt><trkpt lat="45.46648699550251" lon="7.948363695619291"><ele>237.66666666666669</ele><time>2026-04-18T14:34:40.005Z</time></trkpt><trkpt lat="45.466490761349945" lon="7.948238945955778"><ele>238.0</ele><time>2026-04-18T14:34:41.005Z</time></trkpt><trkpt lat="45.46648981877676" lon="7.948114623303386"><ele>238.33333333333334</ele><time>2026-04-18T14:34:42.005Z</time></trkpt><trkpt lat="45.466493932981145" lon="7.948012846255634"><ele>238.66666666666669</ele><time>2026-04-18T14:34:43.005Z</time></trkpt><trkpt lat="45.466494800412086" lon="7.947916972565082"><ele>239.0</ele><time>2026-04-18T14:34:44.005Z</time></trkpt><trkpt lat="45.46646498743698" lon="7.947830378101641"><ele>239.0</ele><time>2026-04-18T14:34:46.005Z</time></trkpt><trkpt lat="45.46642513906821" lon="7.947705409698835"><ele>238.99999999999997</ele><time>2026-04-18T14:34:49.005Z</time></trkpt><trkpt lat="45.466393376844394" lon="7.9476152024834255"><ele>238.99999999999997</ele><time>2026-04-18T14:34:50.005Z</time></trkpt><trkpt lat="45.46636011072822" lon="7.947491982072801"><ele>239.0</ele><time>2026-04-18T14:34:51.005Z</time></trkpt><trkpt lat="45.4663324137576" lon="7.947333985499609"><ele>239.0</ele><time>2026-04-18T14:34:52.005Z</time></trkpt><trkpt lat="45.46633224384675" lon="7.94718349079996"><ele>239.25</ele><time>2026-04-18T14:34:53.005Z</time></trkpt><trkpt lat="45.466335017721" lon="7.947024067973564"><ele>239.5</ele><time>2026-04-18T14:34:54.005Z</time></trkpt><trkpt lat="45.466337286823425" lon="7.946856492788301"><ele>239.75</ele><time>2026-04-18T14:34:55.005Z</time></trkpt><trkpt lat="45.46633590749153" lon="7.946691226348687"><ele>240.0</ele><time>2026-04-18T14:34:56.005Z</time></trkpt><trkpt lat="45.46633621406082" lon="7.946524235041271"><ele>240.0</ele><time>2026-04-18T14:34:57.005Z</time></trkpt><trkpt lat="45.46633576170822" lon="7.94635065932826"><ele>240.0</ele><time>2026-04-18T14:34:58.005Z</time></trkpt><trkpt lat="45.46634005589798" lon="7.946183022376045"><ele>240.0</ele><time>2026-04-18T14:34:59.005Z</time></trkpt><trkpt lat="45.466340180925826" lon="7.946003022179358"><ele>240.0</ele><time>2026-04-18T14:35:00.005Z</time></trkpt><trkpt lat="45.46634596374548" lon="7.945825828426038"><ele>239.75</ele><time>2026-04-18T14:35:01.006Z</time></trkpt><trkpt lat="45.46636367725812" lon="7.94565096445911"><ele>239.5</ele><time>2026-04-18T14:35:02.006Z</time></trkpt><trkpt lat="45.46637953913232" lon="7.945468364254103"><ele>239.25</ele><time>2026-04-18T14:35:03.006Z</time></trkpt><trkpt lat="45.46639860470803" lon="7.9452925996521335"><ele>239.0</ele><time>2026-04-18T14:35:04.006Z</time></trkpt><trkpt lat="45.466404496699" lon="7.945116083025288"><ele>238.75</ele><time>2026-04-18T14:35:05.006Z</time></trkpt><trkpt lat="45.46641426693555" lon="7.944942875110868"><ele>238.5</ele><time>2026-04-18T14:35:06.006Z</time></trkpt><trkpt lat="45.46641972756344" lon="7.944769972529526"><ele>238.25</ele><time>2026-04-18T14:35:07.006Z</time></trkpt><trkpt lat="45.466422200408715" lon="7.944594222131844"><ele>238.0</ele><time>2026-04-18T14:35:08.006Z</time></trkpt><trkpt lat="45.466420670065816" lon="7.944424147695803"><ele>238.0</ele><time>2026-04-18T14:35:09.006Z</time></trkpt><trkpt lat="45.46641965967741" lon="7.94425725460725"><ele>238.0</ele><time>2026-04-18T14:35:10.006Z</time></trkpt><trkpt lat="45.46641576223705" lon="7.944103432093383"><ele>238.0</ele><time>2026-04-18T14:35:11.006Z</time></trkpt><trkpt lat="45.46641227178196" lon="7.943965416623607"><ele>238.0</ele><time>2026-04-18T14:35:12.006Z</time></trkpt><trkpt lat="45.46640747828622" lon="7.943836809767887"><ele>238.0</ele><time>2026-04-18T14:35:13.006Z</time></trkpt><trkpt lat="45.466408819197575" lon="7.94371082384756"><ele>237.99999999999997</ele><time>2026-04-18T14:35:14.006Z</time></trkpt><trkpt lat="45.466430252334355" lon="7.943596840962862"><ele>238.0</ele><time>2026-04-18T14:35:15.006Z</time></trkpt><trkpt lat="45.466468601787064" lon="7.943502386101365"><ele>238.0</ele><time>2026-04-18T14:35:16.006Z</time></trkpt><trkpt lat="45.466549822480474" lon="7.943480887443447"><ele>238.0</ele><time>2026-04-18T14:35:17.006Z</time></trkpt><trkpt lat="45.46661237925242" lon="7.943462710275663"><ele>237.99999999999997</ele><time>2026-04-18T14:35:18.006Z</time></trkpt><trkpt lat="45.46668955788431" lon="7.94342209352167"><ele>238.0</ele><time>2026-04-18T14:35:19.006Z</time></trkpt><trkpt lat="45.46679287878836" lon="7.943367101316003"><ele>238.0</ele><time>2026-04-18T14:35:20.006Z</time></trkpt><trkpt lat="45.46690561283485" lon="7.943307099004003"><ele>238.0</ele><time>2026-04-18T14:35:21.006Z</time></trkpt><trkpt lat="45.46702913973104" lon="7.943240096727454"><ele>238.0</ele><time>2026-04-18T14:35:22.004Z</time></trkpt><trkpt lat="45.467132643007794" lon="7.943158687592308"><ele>238.0</ele><time>2026-04-18T14:35:23.003Z</time></trkpt><trkpt lat="45.46725115046312" lon="7.943102385346158"><ele>238.0</ele><time>2026-04-18T14:35:24.003Z</time></trkpt><trkpt lat="45.46735414056861" lon="7.9430458347595"><ele>238.0</ele><time>2026-04-18T14:35:25.003Z</time></trkpt><trkpt lat="45.467460190554334" lon="7.942996577872718"><ele>238.0</ele><time>2026-04-18T14:35:26.003Z</time></trkpt><trkpt lat="45.46756422417265" lon="7.9429534529273536"><ele>238.0</ele><time>2026-04-18T14:35:27.003Z</time></trkpt><trkpt lat="45.467671025752544" lon="7.942923767384471"><ele>238.0</ele><time>2026-04-18T14:35:28.004Z</time></trkpt><trkpt lat="45.46777818261608" lon="7.942904839021531"><ele>238.0</ele><time>2026-04-18T14:35:29.003Z</time></trkpt><trkpt lat="45.467884796346226" lon="7.942900108406681"><ele>238.0</ele><time>2026-04-18T14:35:30.003Z</time></trkpt><trkpt lat="45.46798237817562" lon="7.942876959165779"><ele>238.0</ele><time>2026-04-18T14:35:31.004Z</time></trkpt><trkpt lat="45.468076862667" lon="7.942839943869958"><ele>238.0</ele><time>2026-04-18T14:35:32.004Z</time></trkpt><trkpt lat="45.46815849657034" lon="7.942781508973671"><ele>238.0</ele><time>2026-04-18T14:35:33.004Z</time></trkpt><trkpt lat="45.46823499333008" lon="7.942702207198246"><ele>238.8</ele><time>2026-04-18T14:35:34.004Z</time></trkpt><trkpt lat="45.46831917886656" lon="7.94261788775625"><ele>239.60000000000002</ele><time>2026-04-18T14:35:35.003Z</time></trkpt><trkpt lat="45.46839908072063" lon="7.9425380776468035"><ele>240.39999999999998</ele><time>2026-04-18T14:35:36.003Z</time></trkpt><trkpt lat="45.46847557678943" lon="7.942461889752552"><ele>241.2</ele><time>2026-04-18T14:35:37.003Z</time></trkpt><trkpt lat="45.468563324196936" lon="7.942403155018972"><ele>242.0</ele><time>2026-04-18T14:35:38.003Z</time></trkpt><trkpt lat="45.46864668044265" lon="7.942352367157849"><ele>242.0</ele><time>2026-04-18T14:35:39.004Z</time></trkpt><trkpt lat="45.46872937520903" lon="7.942318910039573"><ele>242.0</ele><time>2026-04-18T14:35:40.004Z</time></trkpt><trkpt lat="45.468814212200016" lon="7.942295957848511"><ele>242.0</ele><time>2026-04-18T14:35:41.004Z</time></trkpt><trkpt lat="45.46890324824169" lon="7.942302499447976"><ele>242.0</ele><time>2026-04-18T14:35:42.004Z</time></trkpt><trkpt lat="45.468995990450416" lon="7.9422759252345285"><ele>242.0</ele><time>2026-04-18T14:35:43.004Z</time></trkpt><trkpt lat="45.46911349811067" lon="7.942292231499699"><ele>242.25</ele><time>2026-04-18T14:35:44.004Z</time></trkpt><trkpt lat="45.46920126961197" lon="7.942297984275502"><ele>242.5</ele><time>2026-04-18T14:35:45.004Z</time></trkpt><trkpt lat="45.46929520342583" lon="7.942299930521513"><ele>242.75</ele><time>2026-04-18T14:35:47.004Z</time></trkpt><trkpt lat="45.46935851522962" lon="7.9420068121397165"><ele>243.0</ele><time>2026-04-18T14:35:55.004Z</time></trkpt><trkpt lat="45.46936120118527" lon="7.941857410795747"><ele>242.5</ele><time>2026-04-18T14:35:56.004Z</time></trkpt><trkpt lat="45.469357260477004" lon="7.941691008393897"><ele>242.0</ele><time>2026-04-18T14:35:57.004Z</time></trkpt><trkpt lat="45.46935836511067" lon="7.941514746111355"><ele>241.5</ele><time>2026-04-18T14:35:58.004Z</time></trkpt><trkpt lat="45.4693495173889" lon="7.941315241136608"><ele>241.0</ele><time>2026-04-18T14:35:59.004Z</time></trkpt><trkpt lat="45.469346397021425" lon="7.941097701248502"><ele>241.0</ele><time>2026-04-18T14:36:00.004Z</time></trkpt><trkpt lat="45.469338219796704" lon="7.940894949531091"><ele>241.0</ele><time>2026-04-18T14:36:01.004Z</time></trkpt><trkpt lat="45.469335515220365" lon="7.940713096619677"><ele>241.0</ele><time>2026-04-18T14:36:02.004Z</time></trkpt><trkpt lat="45.469346137719704" lon="7.940558575082673"><ele>241.0</ele><time>2026-04-18T14:36:03.004Z</time></trkpt><trkpt lat="45.46935150053466" lon="7.940436849956737"><ele>240.75</ele><time>2026-04-18T14:36:04.004Z</time></trkpt><trkpt lat="45.46922531438701" lon="7.940324135586175"><ele>240.5</ele><time>2026-04-18T14:36:05.004Z</time></trkpt><trkpt lat="45.46913736420829" lon="7.940254120213324"><ele>240.25</ele><time>2026-04-18T14:36:06.004Z</time></trkpt><trkpt lat="45.4690348833996" lon="7.940175949380479"><ele>240.0</ele><time>2026-04-18T14:36:07.004Z</time></trkpt><trkpt lat="45.468925239724115" lon="7.940091569457717"><ele>239.75</ele><time>2026-04-18T14:36:08.004Z</time></trkpt><trkpt lat="45.46880395359871" lon="7.939997288693429"><ele>239.5</ele><time>2026-04-18T14:36:09.004Z</time></trkpt><trkpt lat="45.46868014872748" lon="7.939903345595418"><ele>239.25</ele><time>2026-04-18T14:36:10.004Z</time></trkpt><trkpt lat="45.46855277053122" lon="7.939826391322896"><ele>239.0</ele><time>2026-04-18T14:36:11.004Z</time></trkpt><trkpt lat="45.46846971653411" lon="7.939740210556703"><ele>239.0</ele><time>2026-04-18T14:36:12.004Z</time></trkpt><trkpt lat="45.468395399903045" lon="7.939729324851443"><ele>238.99999999999997</ele><time>2026-04-18T14:36:13.004Z</time></trkpt><trkpt lat="45.468307855344484" lon="7.9397225017714295"><ele>238.99999999999997</ele><time>2026-04-18T14:36:14.004Z</time></trkpt><trkpt lat="45.468185515445505" lon="7.939704130048851"><ele>239.0</ele><time>2026-04-18T14:36:15.005Z</time></trkpt><trkpt lat="45.46805729137039" lon="7.93969005687423"><ele>239.0</ele><time>2026-04-18T14:36:16.005Z</time></trkpt><trkpt lat="45.46791791787105" lon="7.939713306220646"><ele>238.0</ele><time>2026-04-18T14:36:17.005Z</time></trkpt><trkpt lat="45.46776113274975" lon="7.939724034038671"><ele>237.0</ele><time>2026-04-18T14:36:18.005Z</time></trkpt><trkpt lat="45.46759840293061" lon="7.939723266575239"><ele>236.0</ele><time>2026-04-18T14:36:19.005Z</time></trkpt><trkpt lat="45.46742516956634" lon="7.93978171671401"><ele>236.0</ele><time>2026-04-18T14:36:20.005Z</time></trkpt><trkpt lat="45.46725054892451" lon="7.939832619557979"><ele>236.0</ele><time>2026-04-18T14:36:21.005Z</time></trkpt><trkpt lat="45.46707697100075" lon="7.939886991449806"><ele>236.0</ele><time>2026-04-18T14:36:22.005Z</time></trkpt><trkpt lat="45.466900079215826" lon="7.9399952702408525"><ele>235.66666666666669</ele><time>2026-04-18T14:36:23.005Z</time></trkpt><trkpt lat="45.466729600369646" lon="7.940095395570745"><ele>235.33333333333331</ele><time>2026-04-18T14:36:24.005Z</time></trkpt><trkpt lat="45.46656917098796" lon="7.940200603032116"><ele>235.0</ele><time>2026-04-18T14:36:25.005Z</time></trkpt><trkpt lat="45.466420998752525" lon="7.940311331574638"><ele>234.66666666666666</ele><time>2026-04-18T14:36:26.005Z</time></trkpt><trkpt lat="45.466260364470045" lon="7.940398400609246"><ele>234.33333333333331</ele><time>2026-04-18T14:36:27.005Z</time></trkpt><trkpt lat="45.466110235987735" lon="7.94050411938734"><ele>234.0</ele><time>2026-04-18T14:36:28.005Z</time></trkpt><trkpt lat="45.465960160504586" lon="7.940611805572737"><ele>234.0</ele><time>2026-04-18T14:36:29.005Z</time></trkpt><trkpt lat="45.46580992289312" lon="7.940716700967923"><ele>234.0</ele><time>2026-04-18T14:36:30.005Z</time></trkpt><trkpt lat="45.465652397773695" lon="7.940816266851233"><ele>234.0</ele><time>2026-04-18T14:36:31.005Z</time></trkpt><trkpt lat="45.4654878195766" lon="7.9409026358225425"><ele>234.66666666666669</ele><time>2026-04-18T14:36:32.005Z</time></trkpt><trkpt lat="45.4653284493649" lon="7.940968360846833"><ele>235.33333333333334</ele><time>2026-04-18T14:36:33.005Z</time></trkpt><trkpt lat="45.465156107267894" lon="7.94101912713762"><ele>236.0</ele><time>2026-04-18T14:36:34.005Z</time></trkpt><trkpt lat="45.46499351551361" lon="7.941052716381781"><ele>236.0</ele><time>2026-04-18T14:36:35.005Z</time></trkpt><trkpt lat="45.46482792918955" lon="7.941074932932985"><ele>236.0</ele><time>2026-04-18T14:36:36.005Z</time></trkpt><trkpt lat="45.464671580956285" lon="7.941083744993548"><ele>236.0</ele><time>2026-04-18T14:36:37.005Z</time></trkpt><trkpt lat="45.46451814867539" lon="7.941066198892839"><ele>236.0</ele><time>2026-04-18T14:36:38.005Z</time></trkpt><trkpt lat="45.46437046899099" lon="7.941018808784931"><ele>236.0</ele><time>2026-04-18T14:36:39.005Z</time></trkpt><trkpt lat="45.46421520081472" lon="7.940948391759872"><ele>236.0</ele><time>2026-04-18T14:36:40.005Z</time></trkpt><trkpt lat="45.46407140170933" lon="7.940863237014308"><ele>236.0</ele><time>2026-04-18T14:36:41.005Z</time></trkpt><trkpt lat="45.4639461426528" lon="7.94076814160546"><ele>236.0</ele><time>2026-04-18T14:36:42.005Z</time></trkpt><trkpt lat="45.46382358463432" lon="7.940644846844652"><ele>236.0</ele><time>2026-04-18T14:36:43.005Z</time></trkpt><trkpt lat="45.46369443995123" lon="7.940517076733825"><ele>236.0</ele><time>2026-04-18T14:36:44.005Z</time></trkpt><trkpt lat="45.46355762169581" lon="7.940378424608284"><ele>236.33333333333334</ele><time>2026-04-18T14:36:45.005Z</time></trkpt><trkpt lat="45.463426322043766" lon="7.9402147694059355"><ele>236.66666666666669</ele><time>2026-04-18T14:36:46.005Z</time></trkpt><trkpt lat="45.46332761627918" lon="7.9400364837644695"><ele>237.0</ele><time>2026-04-18T14:36:47.005Z</time></trkpt><trkpt lat="45.46325785313029" lon="7.939840372063459"><ele>236.33333333333331</ele><time>2026-04-18T14:36:48.005Z</time></trkpt><trkpt lat="45.46318032839148" lon="7.939588709726156"><ele>235.66666666666666</ele><time>2026-04-18T14:36:49.005Z</time></trkpt><trkpt lat="45.46308518418264" lon="7.9393351171732895"><ele>235.0</ele><time>2026-04-18T14:36:50.005Z</time></trkpt><trkpt lat="45.46297726503355" lon="7.939050588486115"><ele>235.0</ele><time>2026-04-18T14:36:51.005Z</time></trkpt><trkpt lat="45.462883766829705" lon="7.938793740320594"><ele>235.0</ele><time>2026-04-18T14:36:52.006Z</time></trkpt><trkpt lat="45.46281254957346" lon="7.938563622690925"><ele>235.0</ele><time>2026-04-18T14:36:53.006Z</time></trkpt><trkpt lat="45.462749765576106" lon="7.938320008723234"><ele>235.0</ele><time>2026-04-18T14:36:54.006Z</time></trkpt><trkpt lat="45.46269852480555" lon="7.938050847493924"><ele>235.0</ele><time>2026-04-18T14:36:55.006Z</time></trkpt><trkpt lat="45.462659651952016" lon="7.93779689601344"><ele>235.0</ele><time>2026-04-18T14:36:56.006Z</time></trkpt><trkpt lat="45.46263443618645" lon="7.937596713778505"><ele>235.25</ele><time>2026-04-18T14:36:57.006Z</time></trkpt><trkpt lat="45.46260710255112" lon="7.937409923980747"><ele>235.5</ele><time>2026-04-18T14:36:58.006Z</time></trkpt><trkpt lat="45.462571262968524" lon="7.937276256633003"><ele>235.75</ele><time>2026-04-18T14:36:59.006Z</time></trkpt><trkpt lat="45.46247539905673" lon="7.937189064333406"><ele>236.0</ele><time>2026-04-18T14:37:00.006Z</time></trkpt><trkpt lat="45.46236347715864" lon="7.937125573200576"><ele>236.0</ele><time>2026-04-18T14:37:01.006Z</time></trkpt><trkpt lat="45.462239156345156" lon="7.937079074989642"><ele>236.00000000000003</ele><time>2026-04-18T14:37:02.006Z</time></trkpt><trkpt lat="45.46213161726799" lon="7.937013994015691"><ele>236.00000000000003</ele><time>2026-04-18T14:37:03.006Z</time></trkpt><trkpt lat="45.46204980102116" lon="7.936933766802652"><ele>236.0</ele><time>2026-04-18T14:37:04.006Z</time></trkpt><trkpt lat="45.46198190587126" lon="7.936836510560808"><ele>236.0</ele><time>2026-04-18T14:37:05.006Z</time></trkpt><trkpt lat="45.461920870491014" lon="7.93671500575686"><ele>236.8</ele><time>2026-04-18T14:37:06.006Z</time></trkpt><trkpt lat="45.461933461738816" lon="7.936588438017972"><ele>237.60000000000002</ele><time>2026-04-18T14:37:07.006Z</time></trkpt><trkpt lat="45.46193194492343" lon="7.936450069588534"><ele>238.4</ele><time>2026-04-18T14:37:08.006Z</time></trkpt><trkpt lat="45.46193613206768" lon="7.936279548828733"><ele>239.2</ele><time>2026-04-18T14:37:09.006Z</time></trkpt><trkpt lat="45.461948879658834" lon="7.936103354337149"><ele>240.0</ele><time>2026-04-18T14:37:10.006Z</time></trkpt><trkpt lat="45.46195251903949" lon="7.935925777983847"><ele>240.25</ele><time>2026-04-18T14:37:11.006Z</time></trkpt><trkpt lat="45.4619953239398" lon="7.935752203191651"><ele>240.5</ele><time>2026-04-18T14:37:12.006Z</time></trkpt><trkpt lat="45.462007782416315" lon="7.93556481723683"><ele>240.75</ele><time>2026-04-18T14:37:13.006Z</time></trkpt><trkpt lat="45.46202353198018" lon="7.935363614832664"><ele>241.0</ele><time>2026-04-18T14:37:14.006Z</time></trkpt><trkpt lat="45.46205741471991" lon="7.935185601072621"><ele>240.8</ele><time>2026-04-18T14:37:15.006Z</time></trkpt><trkpt lat="45.46205329080244" lon="7.9350247828033424"><ele>240.60000000000002</ele><time>2026-04-18T14:37:16.006Z</time></trkpt><trkpt lat="45.46203587185069" lon="7.934901517393833"><ele>240.4</ele><time>2026-04-18T14:37:17.006Z</time></trkpt><trkpt lat="45.46201615262984" lon="7.93475753335821"><ele>240.2</ele><time>2026-04-18T14:37:18.006Z</time></trkpt><trkpt lat="45.4619686791538" lon="7.934593856845586"><ele>240.0</ele><time>2026-04-18T14:37:19.006Z</time></trkpt><trkpt lat="45.46191041844085" lon="7.934416479052781"><ele>239.5</ele><time>2026-04-18T14:37:20.006Z</time></trkpt><trkpt lat="45.461869151504146" lon="7.934213781549367"><ele>239.0</ele><time>2026-04-18T14:37:21.006Z</time></trkpt><trkpt lat="45.46183383725311" lon="7.934014491752204"><ele>238.5</ele><time>2026-04-18T14:37:22.006Z</time></trkpt><trkpt lat="45.46180080608259" lon="7.933830085015102"><ele>238.0</ele><time>2026-04-18T14:37:23.006Z</time></trkpt><trkpt lat="45.46177324794775" lon="7.933653328993125"><ele>238.0</ele><time>2026-04-18T14:37:24.006Z</time></trkpt><trkpt lat="45.461737189045394" lon="7.933467149160125"><ele>238.0</ele><time>2026-04-18T14:37:25.006Z</time></trkpt><trkpt lat="45.461707752795405" lon="7.9332774484829525"><ele>238.0</ele><time>2026-04-18T14:37:26.006Z</time></trkpt><trkpt lat="45.4616812001963" lon="7.933087848215253"><ele>238.0</ele><time>2026-04-18T14:37:27.006Z</time></trkpt><trkpt lat="45.46164892670711" lon="7.932908325443903"><ele>237.75</ele><time>2026-04-18T14:37:28.004Z</time></trkpt><trkpt lat="45.46161538149743" lon="7.932741866160819"><ele>237.5</ele><time>2026-04-18T14:37:29.003Z</time></trkpt><trkpt lat="45.46157546686134" lon="7.932561682946538"><ele>237.25</ele><time>2026-04-18T14:37:30.003Z</time></trkpt><trkpt lat="45.461562673102854" lon="7.932401965345277"><ele>237.0</ele><time>2026-04-18T14:37:31.004Z</time></trkpt><trkpt lat="45.461537083639506" lon="7.932247365277649"><ele>237.0</ele><time>2026-04-18T14:37:32.004Z</time></trkpt><trkpt lat="45.4614761986447" lon="7.932094808417515"><ele>237.0</ele><time>2026-04-18T14:37:33.004Z</time></trkpt><trkpt lat="45.461379819456994" lon="7.931964441008724"><ele>237.0</ele><time>2026-04-18T14:37:34.004Z</time></trkpt><trkpt lat="45.461251827346295" lon="7.931852759269608"><ele>237.0</ele><time>2026-04-18T14:37:35.003Z</time></trkpt><trkpt lat="45.461127689624995" lon="7.931715003541102"><ele>237.5</ele><time>2026-04-18T14:37:36.003Z</time></trkpt><trkpt lat="45.461011321590746" lon="7.931556945813115"><ele>238.0</ele><time>2026-04-18T14:37:37.003Z</time></trkpt><trkpt lat="45.46091274454314" lon="7.931395790995275"><ele>238.5</ele><time>2026-04-18T14:37:38.004Z</time></trkpt><trkpt lat="45.46083171952664" lon="7.931239866601425"><ele>239.0</ele><time>2026-04-18T14:37:39.004Z</time></trkpt><trkpt lat="45.46077253040529" lon="7.9310762481052315"><ele>238.0</ele><time>2026-04-18T14:37:40.004Z</time></trkpt><trkpt lat="45.46076809210643" lon="7.930884300532604"><ele>237.0</ele><time>2026-04-18T14:37:41.003Z</time></trkpt><trkpt lat="45.46076934633034" lon="7.930624652828104"><ele>236.0</ele><time>2026-04-18T14:37:42.003Z</time></trkpt><trkpt lat="45.46077510500046" lon="7.930371096726303"><ele>236.0</ele><time>2026-04-18T14:37:43.003Z</time></trkpt><trkpt lat="45.460761747081335" lon="7.930160430491175"><ele>236.0</ele><time>2026-04-18T14:37:44.003Z</time></trkpt><trkpt lat="45.460720022437584" lon="7.9299867138345395"><ele>236.0</ele><time>2026-04-18T14:37:45.003Z</time></trkpt><trkpt lat="45.4606615301095" lon="7.92983971756253"><ele>236.0</ele><time>2026-04-18T14:37:46.003Z</time></trkpt><trkpt lat="45.460564052685235" lon="7.929698372742334"><ele>235.33333333333334</ele><time>2026-04-18T14:37:47.003Z</time></trkpt><trkpt lat="45.46044494542641" lon="7.929560812007346"><ele>234.66666666666669</ele><time>2026-04-18T14:37:48.003Z</time></trkpt><trkpt lat="45.460316045285815" lon="7.929400373359186"><ele>234.0</ele><time>2026-04-18T14:37:49.004Z</time></trkpt><trkpt lat="45.460192707003785" lon="7.92922475551309"><ele>234.0</ele><time>2026-04-18T14:37:50.004Z</time></trkpt><trkpt lat="45.46008072318469" lon="7.929022633672693"><ele>234.0</ele><time>2026-04-18T14:37:51.004Z</time></trkpt><trkpt lat="45.45997916268356" lon="7.928790336531169"><ele>234.0</ele><time>2026-04-18T14:37:52.004Z</time></trkpt><trkpt lat="45.459887036965206" lon="7.928562295805844"><ele>234.0</ele><time>2026-04-18T14:37:53.004Z</time></trkpt><trkpt lat="45.459785354227336" lon="7.928350733253812"><ele>234.0</ele><time>2026-04-18T14:37:54.004Z</time></trkpt><trkpt lat="45.459683708117936" lon="7.928145228721878"><ele>234.0</ele><time>2026-04-18T14:37:55.004Z</time></trkpt><trkpt lat="45.459587729073085" lon="7.927946981499581"><ele>234.39999999999998</ele><time>2026-04-18T14:37:56.004Z</time></trkpt><trkpt lat="45.45951056908911" lon="7.927781257904899"><ele>234.79999999999998</ele><time>2026-04-18T14:37:57.004Z</time></trkpt><trkpt lat="45.459443926337755" lon="7.927648821219697"><ele>235.20000000000002</ele><time>2026-04-18T14:37:58.004Z</time></trkpt><trkpt lat="45.45939450089591" lon="7.927579025880522"><ele>235.60000000000002</ele><time>2026-04-18T14:37:59.004Z</time></trkpt><trkpt lat="45.459378923519765" lon="7.927449075011399"><ele>236.0</ele><time>2026-04-18T14:38:01.004Z</time></trkpt><trkpt lat="45.45949621639056" lon="7.927422389769403"><ele>236.0</ele><time>2026-04-18T14:38:03.004Z</time></trkpt><trkpt lat="45.45959399958484" lon="7.927409393422274"><ele>236.00000000000003</ele><time>2026-04-18T14:38:04.004Z</time></trkpt><trkpt lat="45.45966632681806" lon="7.927372396676233"><ele>236.00000000000003</ele><time>2026-04-18T14:38:05.004Z</time></trkpt><trkpt lat="45.45967229716704" lon="7.927176999466923"><ele>236.0</ele><time>2026-04-18T14:38:07.004Z</time></trkpt><trkpt lat="45.45964964739097" lon="7.927047712272177"><ele>236.0</ele><time>2026-04-18T14:38:08.004Z</time></trkpt><trkpt lat="45.45963647964859" lon="7.926893875774285"><ele>235.60000000000002</ele><time>2026-04-18T14:38:09.004Z</time></trkpt><trkpt lat="45.45962240239514" lon="7.926699409555018"><ele>235.20000000000002</ele><time>2026-04-18T14:38:10.004Z</time></trkpt><trkpt lat="45.45961400159917" lon="7.926539307309308"><ele>234.79999999999998</ele><time>2026-04-18T14:38:11.004Z</time></trkpt><trkpt lat="45.45966270034082" lon="7.926389058068249"><ele>234.39999999999998</ele><time>2026-04-18T14:38:13.004Z</time></trkpt><trkpt lat="45.45972590101657" lon="7.926373115374611"><ele>234.0</ele><time>2026-04-18T14:38:14.004Z</time></trkpt><trkpt lat="45.459818419432686" lon="7.926376782983503"><ele>234.0</ele><time>2026-04-18T14:38:15.004Z</time></trkpt><trkpt lat="45.45992641366354" lon="7.926373793670167"><ele>233.99999999999997</ele><time>2026-04-18T14:38:16.004Z</time></trkpt><trkpt lat="45.46002689540866" lon="7.9263621414589185"><ele>233.99999999999997</ele><time>2026-04-18T14:38:17.004Z</time></trkpt><trkpt lat="45.46010239263209" lon="7.926341994071638"><ele>234.0</ele><time>2026-04-18T14:38:18.004Z</time></trkpt><trkpt lat="45.46015938697521" lon="7.926204139669765"><ele>234.0</ele><time>2026-04-18T14:38:20.004Z</time></trkpt><trkpt lat="45.46014260012844" lon="7.926076584001017"><ele>234.0</ele><time>2026-04-18T14:38:21.004Z</time></trkpt><trkpt lat="45.46011989055016" lon="7.92593127700672"><ele>234.0</ele><time>2026-04-18T14:38:22.004Z</time></trkpt><trkpt lat="45.46010044796492" lon="7.925758645878478"><ele>234.0</ele><time>2026-04-18T14:38:23.004Z</time></trkpt><trkpt lat="45.460093044622155" lon="7.92557519722745"><ele>234.0</ele><time>2026-04-18T14:38:24.004Z</time></trkpt><trkpt lat="45.460098993384534" lon="7.925409812385724"><ele>234.75</ele><time>2026-04-18T14:38:25.005Z</time></trkpt><trkpt lat="45.46009908517703" lon="7.925245876515848"><ele>235.5</ele><time>2026-04-18T14:38:26.005Z</time></trkpt><trkpt lat="45.46008259081597" lon="7.92510035572625"><ele>236.25</ele><time>2026-04-18T14:38:27.005Z</time></trkpt><trkpt lat="45.46011109174355" lon="7.924929569885369"><ele>237.0</ele><time>2026-04-18T14:38:28.005Z</time></trkpt><trkpt lat="45.460141874782074" lon="7.924778034679336"><ele>236.6</ele><time>2026-04-18T14:38:29.005Z</time></trkpt><trkpt lat="45.46017803163197" lon="7.924648556549782"><ele>236.2</ele><time>2026-04-18T14:38:30.005Z</time></trkpt><trkpt lat="45.460201029471676" lon="7.924528544508242"><ele>235.8</ele><time>2026-04-18T14:38:31.005Z</time></trkpt><trkpt lat="45.460219896798506" lon="7.924406343617308"><ele>235.4</ele><time>2026-04-18T14:38:32.005Z</time></trkpt><trkpt lat="45.46023660982149" lon="7.924265905319347"><ele>235.0</ele><time>2026-04-18T14:38:33.005Z</time></trkpt><trkpt lat="45.46025597254494" lon="7.924131248724342"><ele>235.0</ele><time>2026-04-18T14:38:34.005Z</time></trkpt><trkpt lat="45.46027565635364" lon="7.923995788597418"><ele>235.0</ele><time>2026-04-18T14:38:35.005Z</time></trkpt><trkpt lat="45.46029857888881" lon="7.923829954983219"><ele>235.0</ele><time>2026-04-18T14:38:36.005Z</time></trkpt><trkpt lat="45.460310504911504" lon="7.92364263131534"><ele>235.0</ele><time>2026-04-18T14:38:37.005Z</time></trkpt><trkpt lat="45.46031639732006" lon="7.923443493706081"><ele>234.75</ele><time>2026-04-18T14:38:38.005Z</time></trkpt><trkpt lat="45.46032973155855" lon="7.923251198931056"><ele>234.5</ele><time>2026-04-18T14:38:39.005Z</time></trkpt><trkpt lat="45.46034098395267" lon="7.92304907569765"><ele>234.25</ele><time>2026-04-18T14:38:40.005Z</time></trkpt><trkpt lat="45.460367002851505" lon="7.9228787031342165"><ele>234.0</ele><time>2026-04-18T14:38:41.005Z</time></trkpt><trkpt lat="45.4603849105817" lon="7.922705983113605"><ele>234.25</ele><time>2026-04-18T14:38:42.005Z</time></trkpt><trkpt lat="45.46040344689314" lon="7.922515833507159"><ele>234.5</ele><time>2026-04-18T14:38:43.005Z</time></trkpt><trkpt lat="45.46040791592863" lon="7.922329272709574"><ele>234.75</ele><time>2026-04-18T14:38:44.005Z</time></trkpt><trkpt lat="45.46041987675445" lon="7.922158005152273"><ele>235.0</ele><time>2026-04-18T14:38:45.005Z</time></trkpt><trkpt lat="45.460439256025964" lon="7.92202532714734"><ele>234.8</ele><time>2026-04-18T14:38:46.005Z</time></trkpt><trkpt lat="45.46050275828728" lon="7.921943921202799"><ele>234.6</ele><time>2026-04-18T14:38:48.005Z</time></trkpt><trkpt lat="45.46062999988404" lon="7.921859052467483"><ele>234.39999999999998</ele><time>2026-04-18T14:38:50.005Z</time></trkpt><trkpt lat="45.46071084053952" lon="7.9217626330589495"><ele>234.2</ele><time>2026-04-18T14:38:51.005Z</time></trkpt><trkpt lat="45.46077645886471" lon="7.921678343391176"><ele>234.0</ele><time>2026-04-18T14:38:52.005Z</time></trkpt><trkpt lat="45.46080332803721" lon="7.921590357722297"><ele>234.0</ele><time>2026-04-18T14:38:53.005Z</time></trkpt><trkpt lat="45.46079649535022" lon="7.921445769006573"><ele>233.99999999999997</ele><time>2026-04-18T14:38:55.005Z</time></trkpt><trkpt lat="45.46086829463653" lon="7.921308888535174"><ele>233.99999999999997</ele><time>2026-04-18T14:38:57.005Z</time></trkpt><trkpt lat="45.46094120569703" lon="7.921259020573754"><ele>234.0</ele><time>2026-04-18T14:38:58.005Z</time></trkpt><trkpt lat="45.461020910707056" lon="7.921223635270807"><ele>234.0</ele><time>2026-04-18T14:38:59.005Z</time></trkpt><trkpt lat="45.46111531124663" lon="7.921222481614713"><ele>234.0</ele><time>2026-04-18T14:39:00.005Z</time></trkpt><trkpt lat="45.46120978961283" lon="7.921205740120001"><ele>234.0</ele><time>2026-04-18T14:39:01.005Z</time></trkpt><trkpt lat="45.46129235296622" lon="7.9211860403302"><ele>234.0</ele><time>2026-04-18T14:39:02.006Z</time></trkpt><trkpt lat="45.46137567375531" lon="7.921138663231306"><ele>234.0</ele><time>2026-04-18T14:39:04.006Z</time></trkpt><trkpt lat="45.461372632491155" lon="7.921048716933303"><ele>234.0</ele><time>2026-04-18T14:39:05.006Z</time></trkpt><trkpt lat="45.461342712591495" lon="7.920910713105864"><ele>234.0</ele><time>2026-04-18T14:39:06.006Z</time></trkpt><trkpt lat="45.46134440336593" lon="7.920741483741339"><ele>233.75</ele><time>2026-04-18T14:39:07.006Z</time></trkpt><trkpt lat="45.461319515035626" lon="7.920568371202421"><ele>233.5</ele><time>2026-04-18T14:39:08.006Z</time></trkpt><trkpt lat="45.46128667279545" lon="7.920367464560196"><ele>233.25</ele><time>2026-04-18T14:39:09.006Z</time></trkpt><trkpt lat="45.46124951199122" lon="7.920188671395134"><ele>233.0</ele><time>2026-04-18T14:39:10.006Z</time></trkpt><trkpt lat="45.46117461646348" lon="7.920026278238753"><ele>232.75</ele><time>2026-04-18T14:39:11.006Z</time></trkpt><trkpt lat="45.46111068154804" lon="7.919845309062674"><ele>232.5</ele><time>2026-04-18T14:39:12.006Z</time></trkpt><trkpt lat="45.461026639771106" lon="7.919693402756389"><ele>232.25</ele><time>2026-04-18T14:39:13.006Z</time></trkpt><trkpt lat="45.460973374915795" lon="7.919530965392445"><ele>232.0</ele><time>2026-04-18T14:39:14.006Z</time></trkpt><trkpt lat="45.460902568092344" lon="7.919374567142767"><ele>232.2</ele><time>2026-04-18T14:39:15.006Z</time></trkpt><trkpt lat="45.46082961498027" lon="7.91922392055847"><ele>232.39999999999998</ele><time>2026-04-18T14:39:16.006Z</time></trkpt><trkpt lat="45.46077222798531" lon="7.919072773970543"><ele>232.60000000000002</ele><time>2026-04-18T14:39:17.006Z</time></trkpt><trkpt lat="45.460719656223716" lon="7.918938971473215"><ele>232.8</ele><time>2026-04-18T14:39:18.006Z</time></trkpt><trkpt lat="45.46067303717488" lon="7.918829482311146"><ele>233.0</ele><time>2026-04-18T14:39:19.006Z</time></trkpt><trkpt lat="45.4606282679211" lon="7.918749831528447"><ele>233.0</ele><time>2026-04-18T14:39:20.006Z</time></trkpt><trkpt lat="45.46053160699402" lon="7.918694258283044"><ele>233.0</ele><time>2026-04-18T14:39:22.006Z</time></trkpt><trkpt lat="45.460427547645395" lon="7.918915053046594"><ele>233.0</ele><time>2026-04-18T14:39:24.006Z</time></trkpt><trkpt lat="45.46035729129464" lon="7.9189913636869615"><ele>233.0</ele><time>2026-04-18T14:39:25.006Z</time></trkpt><trkpt lat="45.46028017088136" lon="7.919092666390205"><ele>233.5</ele><time>2026-04-18T14:39:26.006Z</time></trkpt><trkpt lat="45.46018222963609" lon="7.91919109049146"><ele>234.0</ele><time>2026-04-18T14:39:27.006Z</time></trkpt><trkpt lat="45.460064377678556" lon="7.9192813142702505"><ele>234.5</ele><time>2026-04-18T14:39:28.006Z</time></trkpt><trkpt lat="45.459941788309344" lon="7.919367587381418"><ele>235.0</ele><time>2026-04-18T14:39:29.006Z</time></trkpt><trkpt lat="45.459819942408394" lon="7.919441717553637"><ele>235.0</ele><time>2026-04-18T14:39:30.006Z</time></trkpt><trkpt lat="45.459690801494844" lon="7.919513507652993"><ele>235.0</ele><time>2026-04-18T14:39:31.006Z</time></trkpt><trkpt lat="45.45956333225812" lon="7.919582454987144"><ele>235.0</ele><time>2026-04-18T14:39:32.006Z</time></trkpt><trkpt lat="45.4594435516289" lon="7.919656003875708"><ele>235.0</ele><time>2026-04-18T14:39:33.006Z</time></trkpt><trkpt lat="45.45932797266457" lon="7.919678890815254"><ele>235.2</ele><time>2026-04-18T14:39:34.004Z</time></trkpt><trkpt lat="45.459245895027465" lon="7.9196709940970464"><ele>235.4</ele><time>2026-04-18T14:39:35.004Z</time></trkpt><trkpt lat="45.45918178079609" lon="7.919677442385275"><ele>235.60000000000002</ele><time>2026-04-18T14:39:36.004Z</time></trkpt><trkpt lat="45.45915163577822" lon="7.9194609791903865"><ele>235.8</ele><time>2026-04-18T14:39:37.004Z</time></trkpt><trkpt lat="45.45907349432397" lon="7.91935698659552"><ele>236.0</ele><time>2026-04-18T14:39:38.004Z</time></trkpt><trkpt lat="45.458965404994615" lon="7.919290073677963"><ele>236.0</ele><time>2026-04-18T14:39:39.004Z</time></trkpt><trkpt lat="45.45884716031688" lon="7.919223988359414"><ele>236.0</ele><time>2026-04-18T14:39:40.004Z</time></trkpt><trkpt lat="45.45873836597599" lon="7.919164599663578"><ele>236.0</ele><time>2026-04-18T14:39:41.004Z</time></trkpt><trkpt lat="45.4586096692196" lon="7.919135530454219"><ele>236.0</ele><time>2026-04-18T14:39:42.004Z</time></trkpt><trkpt lat="45.45847642040028" lon="7.919109421145619"><ele>236.25</ele><time>2026-04-18T14:39:43.004Z</time></trkpt><trkpt lat="45.458344886253705" lon="7.919088129778071"><ele>236.5</ele><time>2026-04-18T14:39:44.004Z</time></trkpt><trkpt lat="45.458217150174875" lon="7.91907898003188"><ele>236.75</ele><time>2026-04-18T14:39:45.004Z</time></trkpt><trkpt lat="45.458109284665554" lon="7.919043860797573"><ele>237.0</ele><time>2026-04-18T14:39:46.004Z</time></trkpt><trkpt lat="45.45800892262724" lon="7.919023079451836"><ele>236.8</ele><time>2026-04-18T14:39:47.004Z</time></trkpt><trkpt lat="45.45793179015666" lon="7.918991978401691"><ele>236.6</ele><time>2026-04-18T14:39:48.004Z</time></trkpt><trkpt lat="45.45788424796849" lon="7.918929758903704"><ele>236.40000000000003</ele><time>2026-04-18T14:39:49.004Z</time></trkpt><trkpt lat="45.4579215974154" lon="7.918721091697246"><ele>236.20000000000002</ele><time>2026-04-18T14:39:51.004Z</time></trkpt><trkpt lat="45.45792492720559" lon="7.918565116766231"><ele>236.0</ele><time>2026-04-18T14:39:52.004Z</time></trkpt><trkpt lat="45.45791134437767" lon="7.918389631529173"><ele>236.25</ele><time>2026-04-18T14:39:53.004Z</time></trkpt><trkpt lat="45.45789863614744" lon="7.918184008818381"><ele>236.5</ele><time>2026-04-18T14:39:54.004Z</time></trkpt><trkpt lat="45.45788555806091" lon="7.917979318255961"><ele>236.75</ele><time>2026-04-18T14:39:55.005Z</time></trkpt><trkpt lat="45.45784034173772" lon="7.917771109029862"><ele>237.0</ele><time>2026-04-18T14:39:56.005Z</time></trkpt><trkpt lat="45.45784023371392" lon="7.917536472343545"><ele>237.0</ele><time>2026-04-18T14:39:57.005Z</time></trkpt><trkpt lat="45.45783558207813" lon="7.917313093806755"><ele>237.0</ele><time>2026-04-18T14:39:58.005Z</time></trkpt><trkpt lat="45.45783200444584" lon="7.917096193942209"><ele>237.0</ele><time>2026-04-18T14:39:59.005Z</time></trkpt><trkpt lat="45.457827442029966" lon="7.916927914657032"><ele>237.0</ele><time>2026-04-18T14:40:00.005Z</time></trkpt><trkpt lat="45.45782016415686" lon="7.916749517445312"><ele>236.5</ele><time>2026-04-18T14:40:01.005Z</time></trkpt><trkpt lat="45.457811051610165" lon="7.916576437505549"><ele>236.0</ele><time>2026-04-18T14:40:02.005Z</time></trkpt><trkpt lat="45.4578010794412" lon="7.9164036454049445"><ele>235.5</ele><time>2026-04-18T14:40:03.005Z</time></trkpt><trkpt lat="45.45779064448103" lon="7.9162282894312535"><ele>235.0</ele><time>2026-04-18T14:40:04.005Z</time></trkpt><trkpt lat="45.45777892539302" lon="7.916062127878109"><ele>235.0</ele><time>2026-04-18T14:40:05.005Z</time></trkpt><trkpt lat="45.457767874259766" lon="7.91590543712071"><ele>235.0</ele><time>2026-04-18T14:40:06.005Z</time></trkpt><trkpt lat="45.45775240324518" lon="7.915757097106495"><ele>235.0</ele><time>2026-04-18T14:40:07.005Z</time></trkpt><trkpt lat="45.45776455601586" lon="7.9156483784200375"><ele>235.0</ele><time>2026-04-18T14:40:08.005Z</time></trkpt><trkpt lat="45.457776497291" lon="7.915557385169823"><ele>235.0</ele><time>2026-04-18T14:40:09.005Z</time></trkpt><trkpt lat="45.45785141822492" lon="7.915468222449277"><ele>235.33333333333331</ele><time>2026-04-18T14:40:13.005Z</time></trkpt><trkpt lat="45.457897927125025" lon="7.915365423712868"><ele>235.66666666666666</ele><time>2026-04-18T14:40:15.005Z</time></trkpt><trkpt lat="45.45789881356753" lon="7.915251013883362"><ele>236.0</ele><time>2026-04-18T14:40:16.005Z</time></trkpt><trkpt lat="45.457870531517564" lon="7.91514029488471"><ele>236.33333333333331</ele><time>2026-04-18T14:40:17.005Z</time></trkpt><trkpt lat="45.45784844527705" lon="7.915020142049665"><ele>236.66666666666666</ele><time>2026-04-18T14:40:18.005Z</time></trkpt><trkpt lat="45.4578313783141" lon="7.914876114563995"><ele>237.0</ele><time>2026-04-18T14:40:19.005Z</time></trkpt><trkpt lat="45.45781022150966" lon="7.91470228067389"><ele>236.0</ele><time>2026-04-18T14:40:20.005Z</time></trkpt><trkpt lat="45.45781120218361" lon="7.9145152679489374"><ele>235.0</ele><time>2026-04-18T14:40:21.005Z</time></trkpt><trkpt lat="45.45780366581592" lon="7.914349332692832"><ele>234.0</ele><time>2026-04-18T14:40:22.005Z</time></trkpt><trkpt lat="45.45779555531936" lon="7.914157466575583"><ele>233.0</ele><time>2026-04-18T14:40:23.005Z</time></trkpt><trkpt lat="45.45778355642149" lon="7.91396125489414"><ele>232.60000000000002</ele><time>2026-04-18T14:40:24.005Z</time></trkpt><trkpt lat="45.45776752814296" lon="7.9137920201913206"><ele>232.20000000000002</ele><time>2026-04-18T14:40:25.005Z</time></trkpt><trkpt lat="45.457757202584325" lon="7.913652505328837"><ele>231.8</ele><time>2026-04-18T14:40:26.005Z</time></trkpt><trkpt lat="45.45775201099441" lon="7.913499141387026"><ele>231.4</ele><time>2026-04-18T14:40:27.005Z</time></trkpt><trkpt lat="45.45774805451476" lon="7.913332404152946"><ele>231.0</ele><time>2026-04-18T14:40:28.005Z</time></trkpt><trkpt lat="45.45773300934677" lon="7.913174305943922"><ele>231.0</ele><time>2026-04-18T14:40:29.005Z</time></trkpt><trkpt lat="45.45772662970397" lon="7.91299299680681"><ele>231.0</ele><time>2026-04-18T14:40:30.005Z</time></trkpt><trkpt lat="45.4577147845503" lon="7.912815634504239"><ele>231.0</ele><time>2026-04-18T14:40:31.005Z</time></trkpt><trkpt lat="45.457698547499845" lon="7.912618888579642"><ele>231.0</ele><time>2026-04-18T14:40:32.006Z</time></trkpt><trkpt lat="45.457674321435476" lon="7.912405446598986"><ele>231.66666666666669</ele><time>2026-04-18T14:40:33.006Z</time></trkpt><trkpt lat="45.4576167543291" lon="7.912153061532205"><ele>232.33333333333334</ele><time>2026-04-18T14:40:34.006Z</time></trkpt><trkpt lat="45.45754929175123" lon="7.911917536690722"><ele>233.0</ele><time>2026-04-18T14:40:35.006Z</time></trkpt><trkpt lat="45.45746192753713" lon="7.911680085602749"><ele>233.25</ele><time>2026-04-18T14:40:36.006Z</time></trkpt><trkpt lat="45.45739062368395" lon="7.911459608942067"><ele>233.5</ele><time>2026-04-18T14:40:37.006Z</time></trkpt><trkpt lat="45.45734864736549" lon="7.911275334951507"><ele>233.75</ele><time>2026-04-18T14:40:38.006Z</time></trkpt><trkpt lat="45.457323601295435" lon="7.911143809329141"><ele>234.0</ele><time>2026-04-18T14:40:39.006Z</time></trkpt><trkpt lat="45.45735211367041" lon="7.911014966638969"><ele>233.79999999999998</ele><time>2026-04-18T14:40:40.006Z</time></trkpt><trkpt lat="45.45742923944407" lon="7.9108909417798285"><ele>233.59999999999997</ele><time>2026-04-18T14:40:41.006Z</time></trkpt><trkpt lat="45.45753221407988" lon="7.910852424727318"><ele>233.4</ele><time>2026-04-18T14:40:42.006Z</time></trkpt><trkpt lat="45.457571542754806" lon="7.910765771991367"><ele>233.2</ele><time>2026-04-18T14:40:43.006Z</time></trkpt><trkpt lat="45.45757839554964" lon="7.910602842105271"><ele>233.0</ele><time>2026-04-18T14:40:45.006Z</time></trkpt><trkpt lat="45.45753323046003" lon="7.910480530329122"><ele>233.00000000000003</ele><time>2026-04-18T14:40:46.006Z</time></trkpt><trkpt lat="45.457488547862" lon="7.910371208157913"><ele>233.0</ele><time>2026-04-18T14:40:47.006Z</time></trkpt><trkpt lat="45.45743610623821" lon="7.910240396231398"><ele>233.0</ele><time>2026-04-18T14:40:48.006Z</time></trkpt><trkpt lat="45.457399287325266" lon="7.910128500452684"><ele>233.0</ele><time>2026-04-18T14:40:49.006Z</time></trkpt><trkpt lat="45.45740138583077" lon="7.909988652275287"><ele>233.00000000000003</ele><time>2026-04-18T14:40:51.006Z</time></trkpt><trkpt lat="45.45744575203587" lon="7.909915274655856"><ele>233.0</ele><time>2026-04-18T14:40:52.006Z</time></trkpt><trkpt lat="45.45749644488388" lon="7.90984393307866"><ele>232.8</ele><time>2026-04-18T14:40:53.006Z</time></trkpt><trkpt lat="45.4575337650785" lon="7.9097602081223215"><ele>232.60000000000002</ele><time>2026-04-18T14:40:54.006Z</time></trkpt><trkpt lat="45.45760766720472" lon="7.9096423885004725"><ele>232.39999999999998</ele><time>2026-04-18T14:40:56.006Z</time></trkpt><trkpt lat="45.457694458573265" lon="7.9095328269834875"><ele>232.2</ele><time>2026-04-18T14:40:58.006Z</time></trkpt><trkpt lat="45.45775494514813" lon="7.909411712345482"><ele>232.0</ele><time>2026-04-18T14:41:00.006Z</time></trkpt><trkpt lat="45.45783499972484" lon="7.909313798295007"><ele>231.83333333333331</ele><time>2026-04-18T14:41:02.006Z</time></trkpt><trkpt lat="45.45788723925207" lon="7.909204592556383"><ele>231.66666666666666</ele><time>2026-04-18T14:41:04.006Z</time></trkpt><trkpt lat="45.45794449702231" lon="7.909119770072369"><ele>231.5</ele><time>2026-04-18T14:41:06.006Z</time></trkpt><trkpt lat="45.458002221497125" lon="7.9090231686556045"><ele>231.33333333333331</ele><time>2026-04-18T14:41:08.007Z</time></trkpt><trkpt lat="45.458051391820696" lon="7.908945846128399"><ele>231.16666666666666</ele><time>2026-04-18T14:41:10.007Z</time></trkpt><trkpt lat="45.45811566030613" lon="7.908870826604664"><ele>231.0</ele><time>2026-04-18T14:41:12.007Z</time></trkpt><trkpt lat="45.458170689856296" lon="7.908785494857493"><ele>231.0</ele><time>2026-04-18T14:41:14.007Z</time></trkpt><trkpt lat="45.45820115894033" lon="7.908704039951994"><ele>231.0</ele><time>2026-04-18T14:41:16.007Z</time></trkpt><trkpt lat="45.458249181091126" lon="7.9086227493136905"><ele>231.0</ele><time>2026-04-18T14:41:18.007Z</time></trkpt><trkpt lat="45.45830374270061" lon="7.908538939549165"><ele>231.0</ele><time>2026-04-18T14:41:20.007Z</time></trkpt><trkpt lat="45.458361831556786" lon="7.908446099335802"><ele>231.0</ele><time>2026-04-18T14:41:22.007Z</time></trkpt><trkpt lat="45.45844687688565" lon="7.908321961402624"><ele>231.0</ele><time>2026-04-18T14:41:24.007Z</time></trkpt><trkpt lat="45.45850408041209" lon="7.90826468866235"><ele>231.16666666666666</ele><time>2026-04-18T14:41:25.007Z</time></trkpt><trkpt lat="45.45855530862987" lon="7.9081913834558515"><ele>231.33333333333331</ele><time>2026-04-18T14:41:26.007Z</time></trkpt><trkpt lat="45.4586025544345" lon="7.908104759702213"><ele>231.5</ele><time>2026-04-18T14:41:27.007Z</time></trkpt><trkpt lat="45.45865602392696" lon="7.908024400724809"><ele>231.66666666666666</ele><time>2026-04-18T14:41:28.007Z</time></trkpt><trkpt lat="45.45871855121323" lon="7.907935983358999"><ele>231.83333333333331</ele><time>2026-04-18T14:41:29.007Z</time></trkpt><trkpt lat="45.45877672726596" lon="7.907846634193916"><ele>232.0</ele><time>2026-04-18T14:41:30.007Z</time></trkpt><trkpt lat="45.458854105002544" lon="7.907758093142573"><ele>232.0</ele><time>2026-04-18T14:41:31.007Z</time></trkpt><trkpt lat="45.45891060196954" lon="7.907635299716638"><ele>232.0</ele><time>2026-04-18T14:41:32.007Z</time></trkpt><trkpt lat="45.45898834962431" lon="7.907515012491596"><ele>232.0</ele><time>2026-04-18T14:41:33.007Z</time></trkpt><trkpt lat="45.4590656400523" lon="7.907388135889479"><ele>232.0</ele><time>2026-04-18T14:41:34.007Z</time></trkpt><trkpt lat="45.459142218841365" lon="7.907259716303545"><ele>232.0</ele><time>2026-04-18T14:41:35.007Z</time></trkpt><trkpt lat="45.459223667293514" lon="7.907138170076633"><ele>232.0</ele><time>2026-04-18T14:41:36.007Z</time></trkpt><trkpt lat="45.4593026959419" lon="7.9070221710543835"><ele>232.0</ele><time>2026-04-18T14:41:37.007Z</time></trkpt><trkpt lat="45.45938593192349" lon="7.906895730727169"><ele>232.0</ele><time>2026-04-18T14:41:38.007Z</time></trkpt><trkpt lat="45.45948070049944" lon="7.906800727967755"><ele>232.2</ele><time>2026-04-18T14:41:39.007Z</time></trkpt><trkpt lat="45.459565105749476" lon="7.906684375665852"><ele>232.39999999999998</ele><time>2026-04-18T14:41:40.003Z</time></trkpt><trkpt lat="45.459629499179165" lon="7.9065987124904975"><ele>232.60000000000002</ele><time>2026-04-18T14:41:41.003Z</time></trkpt><trkpt lat="45.45968613039838" lon="7.906528811054134"><ele>232.8</ele><time>2026-04-18T14:41:42.003Z</time></trkpt><trkpt lat="45.45975183918687" lon="7.906494989606946"><ele>233.0</ele><time>2026-04-18T14:41:43.003Z</time></trkpt><trkpt lat="45.45980341667157" lon="7.906694193076337"><ele>233.0</ele><time>2026-04-18T14:41:45.002Z</time></trkpt><trkpt lat="45.45985624954286" lon="7.90678743750441"><ele>233.0</ele><time>2026-04-18T14:41:46.002Z</time></trkpt><trkpt lat="45.45990720183249" lon="7.906876918344444"><ele>233.0</ele><time>2026-04-18T14:41:47.002Z</time></trkpt><trkpt lat="45.45994746962768" lon="7.906974209431677"><ele>233.0</ele><time>2026-04-18T14:41:48.002Z</time></trkpt><trkpt lat="45.460003042801915" lon="7.907110202496129"><ele>233.0</ele><time>2026-04-18T14:41:50.002Z</time></trkpt><trkpt lat="45.460190330074056" lon="7.907010398673405"><ele>233.00000000000003</ele><time>2026-04-18T14:41:51.002Z</time></trkpt><trkpt lat="45.460266864255516" lon="7.906965530538235"><ele>233.0</ele><time>2026-04-18T14:41:52.001Z</time></trkpt><trkpt lat="45.46034912058408" lon="7.906920218131803"><ele>233.0</ele><time>2026-04-18T14:41:53.001Z</time></trkpt><trkpt lat="45.46043431599579" lon="7.9069088594278085"><ele>233.0</ele><time>2026-04-18T14:41:54.001Z</time></trkpt><trkpt lat="45.46051582726289" lon="7.906879377076105"><ele>233.00000000000003</ele><time>2026-04-18T14:42:02.001Z</time></trkpt><trkpt lat="45.46059715216027" lon="7.906851926241532"><ele>233.0</ele><time>2026-04-18T14:42:03.001Z</time></trkpt><trkpt lat="45.46069016085565" lon="7.906818544495056"><ele>233.33333333333334</ele><time>2026-04-18T14:42:04.001Z</time></trkpt><trkpt lat="45.46078415502624" lon="7.906763270956428"><ele>233.66666666666669</ele><time>2026-04-18T14:42:05.001Z</time></trkpt><trkpt lat="45.4608721581784" lon="7.906720413143895"><ele>234.0</ele><time>2026-04-18T14:42:06.001Z</time></trkpt><trkpt lat="45.460946071346946" lon="7.906668447457258"><ele>234.33333333333331</ele><time>2026-04-18T14:42:07.001Z</time></trkpt><trkpt lat="45.46100596597437" lon="7.906611050702031"><ele>234.66666666666666</ele><time>2026-04-18T14:42:08.001Z</time></trkpt><trkpt lat="45.461102064461826" lon="7.906576498987256"><ele>235.0</ele><time>2026-04-18T14:42:10.001Z</time></trkpt><trkpt lat="45.461148127985076" lon="7.906811207272964"><ele>235.0</ele><time>2026-04-18T14:42:13.001Z</time></trkpt><trkpt lat="45.46118965448712" lon="7.906901384268878"><ele>235.0</ele><time>2026-04-18T14:42:14.001Z</time></trkpt><trkpt lat="45.46119720482134" lon="7.906991108010996"><ele>235.0</ele><time>2026-04-18T14:42:15.001Z</time></trkpt><trkpt lat="45.46121751675303" lon="7.9071521492694"><ele>235.0</ele><time>2026-04-18T14:42:17.001Z</time></trkpt><trkpt lat="45.461264455176305" lon="7.907218159984454"><ele>235.0</ele><time>2026-04-18T14:42:20.001Z</time></trkpt><trkpt lat="45.46138471122966" lon="7.907095409511923"><ele>238.0</ele><time>2026-04-18T14:42:21.001Z</time></trkpt><trkpt lat="45.461462810059466" lon="7.907069012911684"><ele>238.0</ele><time>2026-04-18T14:42:23.001Z</time></trkpt><trkpt lat="45.46153710593962" lon="7.907213502227791"><ele>238.0</ele><time>2026-04-18T14:42:27.001Z</time></trkpt><trkpt lat="45.46155177196923" lon="7.907311046893057"><ele>238.0</ele><time>2026-04-18T14:42:31.001Z</time></trkpt></trkseg></trk></gpx>